<?xml version="1.0" encoding="UTF-8" standalone="no" ?>
<gpx xmlns="http://www.topografix.com/GPX/1/1" xmlns:xsi="http://www.w3.org/2001/XMLSchema-instance" xsi:schemaLocation="http://www.topografix.com/GPX/1/1 http://www.topografix.com/GPX/1/1/gpx.xsd" version="1.1" creator="VisuGPX - https://www.visugpx.com">
  <metadata>
    <name>LOZERIENNE 07-05-2023</name>
  </metadata>
  <trk>
    <name><![CDATA[LOZERIENNE 07-05-2023]]></name>
    <trkseg>
      <trkpt lat="44.70762" lon="3.2817">
        <ele>1054</ele>
        <time>2023-05-07T07:07:17Z</time>
      </trkpt>
      <trkpt lat="44.70762" lon="3.2817">
        <ele>1054</ele>
        <time>2023-05-07T07:07:30Z</time>
      </trkpt>
      <trkpt lat="44.70763" lon="3.28173">
        <ele>1054</ele>
        <time>2023-05-07T07:07:31Z</time>
      </trkpt>
      <trkpt lat="44.70765" lon="3.28182">
        <ele>1054.1999511719</ele>
        <time>2023-05-07T07:07:37Z</time>
      </trkpt>
      <trkpt lat="44.70766" lon="3.28194">
        <ele>1054</ele>
        <time>2023-05-07T07:07:44Z</time>
      </trkpt>
      <trkpt lat="44.70769" lon="3.28213">
        <ele>1053.5999755859</ele>
        <time>2023-05-07T07:07:52Z</time>
      </trkpt>
      <trkpt lat="44.70773" lon="3.28227">
        <ele>1053.4000244141</ele>
        <time>2023-05-07T07:07:56Z</time>
      </trkpt>
      <trkpt lat="44.70769" lon="3.28252">
        <ele>1053.4000244141</ele>
        <time>2023-05-07T07:08:02Z</time>
      </trkpt>
      <trkpt lat="44.70764" lon="3.28272">
        <ele>1053.1999511719</ele>
        <time>2023-05-07T07:08:08Z</time>
      </trkpt>
      <trkpt lat="44.70761" lon="3.28275">
        <ele>1053</ele>
        <time>2023-05-07T07:08:10Z</time>
      </trkpt>
      <trkpt lat="44.70756" lon="3.28275">
        <ele>1053</ele>
        <time>2023-05-07T07:08:12Z</time>
      </trkpt>
      <trkpt lat="44.70734" lon="3.28269">
        <ele>1052.5999755859</ele>
        <time>2023-05-07T07:08:19Z</time>
      </trkpt>
      <trkpt lat="44.70703" lon="3.28263">
        <ele>1052.4000244141</ele>
        <time>2023-05-07T07:08:28Z</time>
      </trkpt>
      <trkpt lat="44.7068" lon="3.28266">
        <ele>1051.5999755859</ele>
        <time>2023-05-07T07:08:34Z</time>
      </trkpt>
      <trkpt lat="44.70647" lon="3.28273">
        <ele>1050.4000244141</ele>
        <time>2023-05-07T07:08:43Z</time>
      </trkpt>
      <trkpt lat="44.70622" lon="3.2828">
        <ele>1048.8000488281</ele>
        <time>2023-05-07T07:08:50Z</time>
      </trkpt>
      <trkpt lat="44.706" lon="3.28285">
        <ele>1046.5999755859</ele>
        <time>2023-05-07T07:08:57Z</time>
      </trkpt>
      <trkpt lat="44.7059" lon="3.28288">
        <ele>1045.4000244141</ele>
        <time>2023-05-07T07:09:00Z</time>
      </trkpt>
      <trkpt lat="44.70587" lon="3.28286">
        <ele>1045.1999511719</ele>
        <time>2023-05-07T07:09:01Z</time>
      </trkpt>
      <trkpt lat="44.70581" lon="3.28269">
        <ele>1044.4000244141</ele>
        <time>2023-05-07T07:09:05Z</time>
      </trkpt>
      <trkpt lat="44.70583" lon="3.28249">
        <ele>1044.8000488281</ele>
        <time>2023-05-07T07:09:10Z</time>
      </trkpt>
      <trkpt lat="44.70587" lon="3.28228">
        <ele>1045.8000488281</ele>
        <time>2023-05-07T07:09:16Z</time>
      </trkpt>
      <trkpt lat="44.70594" lon="3.28199">
        <ele>1046.4000244141</ele>
        <time>2023-05-07T07:09:22Z</time>
      </trkpt>
      <trkpt lat="44.70599" lon="3.28171">
        <ele>1046.4000244141</ele>
        <time>2023-05-07T07:09:27Z</time>
      </trkpt>
      <trkpt lat="44.70608" lon="3.28145">
        <ele>1046.5999755859</ele>
        <time>2023-05-07T07:09:32Z</time>
      </trkpt>
      <trkpt lat="44.7061" lon="3.2814">
        <ele>1046.5999755859</ele>
        <time>2023-05-07T07:09:33Z</time>
      </trkpt>
      <trkpt lat="44.7062" lon="3.28114">
        <ele>1046.5999755859</ele>
        <time>2023-05-07T07:09:38Z</time>
      </trkpt>
      <trkpt lat="44.70627" lon="3.28098">
        <ele>1046.4000244141</ele>
        <time>2023-05-07T07:09:41Z</time>
      </trkpt>
      <trkpt lat="44.7063" lon="3.2808">
        <ele>1046</ele>
        <time>2023-05-07T07:09:44Z</time>
      </trkpt>
      <trkpt lat="44.70632" lon="3.28063">
        <ele>1045.4000244141</ele>
        <time>2023-05-07T07:09:47Z</time>
      </trkpt>
      <trkpt lat="44.70633" lon="3.28056">
        <ele>1045.1999511719</ele>
        <time>2023-05-07T07:09:48Z</time>
      </trkpt>
      <trkpt lat="44.70635" lon="3.28036">
        <ele>1044.5999755859</ele>
        <time>2023-05-07T07:09:51Z</time>
      </trkpt>
      <trkpt lat="44.70634" lon="3.28028">
        <ele>1044.4000244141</ele>
        <time>2023-05-07T07:09:52Z</time>
      </trkpt>
      <trkpt lat="44.70631" lon="3.28019">
        <ele>1044.1999511719</ele>
        <time>2023-05-07T07:09:53Z</time>
      </trkpt>
      <trkpt lat="44.70622" lon="3.27988">
        <ele>1043.8000488281</ele>
        <time>2023-05-07T07:09:56Z</time>
      </trkpt>
      <trkpt lat="44.70606" lon="3.27925">
        <ele>1043.8000488281</ele>
        <time>2023-05-07T07:10:02Z</time>
      </trkpt>
      <trkpt lat="44.70598" lon="3.27894">
        <ele>1043.5999755859</ele>
        <time>2023-05-07T07:10:05Z</time>
      </trkpt>
      <trkpt lat="44.70594" lon="3.27882">
        <ele>1043.4000244141</ele>
        <time>2023-05-07T07:10:06Z</time>
      </trkpt>
      <trkpt lat="44.70581" lon="3.27842">
        <ele>1042.4000244141</ele>
        <time>2023-05-07T07:10:10Z</time>
      </trkpt>
      <trkpt lat="44.70577" lon="3.27823">
        <ele>1041.8000488281</ele>
        <time>2023-05-07T07:10:12Z</time>
      </trkpt>
      <trkpt lat="44.70577" lon="3.27801">
        <ele>1041.1999511719</ele>
        <time>2023-05-07T07:10:14Z</time>
      </trkpt>
      <trkpt lat="44.70583" lon="3.27763">
        <ele>1040</ele>
        <time>2023-05-07T07:10:18Z</time>
      </trkpt>
      <trkpt lat="44.70592" lon="3.27752">
        <ele>1039.5999755859</ele>
        <time>2023-05-07T07:10:20Z</time>
      </trkpt>
      <trkpt lat="44.70597" lon="3.27748">
        <ele>1039.4000244141</ele>
        <time>2023-05-07T07:10:21Z</time>
      </trkpt>
      <trkpt lat="44.70629" lon="3.27723">
        <ele>1038.8000488281</ele>
        <time>2023-05-07T07:10:28Z</time>
      </trkpt>
      <trkpt lat="44.70658" lon="3.2771">
        <ele>1038.1999511719</ele>
        <time>2023-05-07T07:10:33Z</time>
      </trkpt>
      <trkpt lat="44.70669" lon="3.27701">
        <ele>1038</ele>
        <time>2023-05-07T07:10:35Z</time>
      </trkpt>
      <trkpt lat="44.70679" lon="3.27691">
        <ele>1037.8000488281</ele>
        <time>2023-05-07T07:10:37Z</time>
      </trkpt>
      <trkpt lat="44.70695" lon="3.27672">
        <ele>1037.5999755859</ele>
        <time>2023-05-07T07:10:42Z</time>
      </trkpt>
      <trkpt lat="44.70708" lon="3.27656">
        <ele>1037.5999755859</ele>
        <time>2023-05-07T07:10:49Z</time>
      </trkpt>
      <trkpt lat="44.70727" lon="3.27634">
        <ele>1038</ele>
        <time>2023-05-07T07:10:59Z</time>
      </trkpt>
      <trkpt lat="44.70741" lon="3.27619">
        <ele>1038.4000244141</ele>
        <time>2023-05-07T07:11:07Z</time>
      </trkpt>
      <trkpt lat="44.70756" lon="3.27605">
        <ele>1039.1999511719</ele>
        <time>2023-05-07T07:11:15Z</time>
      </trkpt>
      <trkpt lat="44.70771" lon="3.2759">
        <ele>1040.1999511719</ele>
        <time>2023-05-07T07:11:23Z</time>
      </trkpt>
      <trkpt lat="44.7079" lon="3.27576">
        <ele>1041</ele>
        <time>2023-05-07T07:11:32Z</time>
      </trkpt>
      <trkpt lat="44.70811" lon="3.27559">
        <ele>1041.4000244141</ele>
        <time>2023-05-07T07:11:41Z</time>
      </trkpt>
      <trkpt lat="44.70826" lon="3.27553">
        <ele>1041.4000244141</ele>
        <time>2023-05-07T07:11:45Z</time>
      </trkpt>
      <trkpt lat="44.7083" lon="3.27549">
        <ele>1041.4000244141</ele>
        <time>2023-05-07T07:11:46Z</time>
      </trkpt>
      <trkpt lat="44.70832" lon="3.27545">
        <ele>1041.4000244141</ele>
        <time>2023-05-07T07:11:47Z</time>
      </trkpt>
      <trkpt lat="44.70832" lon="3.27535">
        <ele>1041.1999511719</ele>
        <time>2023-05-07T07:11:49Z</time>
      </trkpt>
      <trkpt lat="44.70828" lon="3.27526">
        <ele>1041</ele>
        <time>2023-05-07T07:11:51Z</time>
      </trkpt>
      <trkpt lat="44.70824" lon="3.27517">
        <ele>1041</ele>
        <time>2023-05-07T07:11:53Z</time>
      </trkpt>
      <trkpt lat="44.70816" lon="3.27497">
        <ele>1040.4000244141</ele>
        <time>2023-05-07T07:11:58Z</time>
      </trkpt>
      <trkpt lat="44.70817" lon="3.27487">
        <ele>1040.4000244141</ele>
        <time>2023-05-07T07:12:00Z</time>
      </trkpt>
      <trkpt lat="44.70819" lon="3.27483">
        <ele>1040.4000244141</ele>
        <time>2023-05-07T07:12:01Z</time>
      </trkpt>
      <trkpt lat="44.70831" lon="3.27473">
        <ele>1041.1999511719</ele>
        <time>2023-05-07T07:12:06Z</time>
      </trkpt>
      <trkpt lat="44.70845" lon="3.27464">
        <ele>1041.8000488281</ele>
        <time>2023-05-07T07:12:13Z</time>
      </trkpt>
      <trkpt lat="44.70864" lon="3.2745">
        <ele>1042.5999755859</ele>
        <time>2023-05-07T07:12:23Z</time>
      </trkpt>
      <trkpt lat="44.70877" lon="3.27441">
        <ele>1043.4000244141</ele>
        <time>2023-05-07T07:12:30Z</time>
      </trkpt>
      <trkpt lat="44.70891" lon="3.27429">
        <ele>1044.4000244141</ele>
        <time>2023-05-07T07:12:38Z</time>
      </trkpt>
      <trkpt lat="44.70906" lon="3.27416">
        <ele>1045.5999755859</ele>
        <time>2023-05-07T07:12:47Z</time>
      </trkpt>
      <trkpt lat="44.70918" lon="3.27405">
        <ele>1046.8000488281</ele>
        <time>2023-05-07T07:12:55Z</time>
      </trkpt>
      <trkpt lat="44.70933" lon="3.27393">
        <ele>1048</ele>
        <time>2023-05-07T07:13:04Z</time>
      </trkpt>
      <trkpt lat="44.7095" lon="3.2738">
        <ele>1049.4000244141</ele>
        <time>2023-05-07T07:13:14Z</time>
      </trkpt>
      <trkpt lat="44.70965" lon="3.27369">
        <ele>1050.4000244141</ele>
        <time>2023-05-07T07:13:23Z</time>
      </trkpt>
      <trkpt lat="44.70982" lon="3.27359">
        <ele>1051.8000488281</ele>
        <time>2023-05-07T07:13:32Z</time>
      </trkpt>
      <trkpt lat="44.70997" lon="3.27348">
        <ele>1053.1999511719</ele>
        <time>2023-05-07T07:13:40Z</time>
      </trkpt>
      <trkpt lat="44.71013" lon="3.27338">
        <ele>1054.1999511719</ele>
        <time>2023-05-07T07:13:48Z</time>
      </trkpt>
      <trkpt lat="44.7103" lon="3.27325">
        <ele>1055.1999511719</ele>
        <time>2023-05-07T07:13:56Z</time>
      </trkpt>
      <trkpt lat="44.71054" lon="3.27308">
        <ele>1055.8000488281</ele>
        <time>2023-05-07T07:14:05Z</time>
      </trkpt>
      <trkpt lat="44.71081" lon="3.27288">
        <ele>1056.5999755859</ele>
        <time>2023-05-07T07:14:14Z</time>
      </trkpt>
      <trkpt lat="44.71105" lon="3.27273">
        <ele>1056.8000488281</ele>
        <time>2023-05-07T07:14:21Z</time>
      </trkpt>
      <trkpt lat="44.7112" lon="3.27264">
        <ele>1057.4000244141</ele>
        <time>2023-05-07T07:14:27Z</time>
      </trkpt>
      <trkpt lat="44.71135" lon="3.27257">
        <ele>1058.4000244141</ele>
        <time>2023-05-07T07:14:33Z</time>
      </trkpt>
      <trkpt lat="44.71159" lon="3.27246">
        <ele>1059.1999511719</ele>
        <time>2023-05-07T07:14:41Z</time>
      </trkpt>
      <trkpt lat="44.71186" lon="3.27234">
        <ele>1059.8000488281</ele>
        <time>2023-05-07T07:14:49Z</time>
      </trkpt>
      <trkpt lat="44.71216" lon="3.2722">
        <ele>1060.4000244141</ele>
        <time>2023-05-07T07:14:58Z</time>
      </trkpt>
      <trkpt lat="44.71239" lon="3.27211">
        <ele>1061</ele>
        <time>2023-05-07T07:15:04Z</time>
      </trkpt>
      <trkpt lat="44.71274" lon="3.27197">
        <ele>1061.4000244141</ele>
        <time>2023-05-07T07:15:13Z</time>
      </trkpt>
      <trkpt lat="44.71313" lon="3.27183">
        <ele>1062.1999511719</ele>
        <time>2023-05-07T07:15:24Z</time>
      </trkpt>
      <trkpt lat="44.71338" lon="3.27175">
        <ele>1062.8000488281</ele>
        <time>2023-05-07T07:15:31Z</time>
      </trkpt>
      <trkpt lat="44.71356" lon="3.27171">
        <ele>1063.1999511719</ele>
        <time>2023-05-07T07:15:36Z</time>
      </trkpt>
      <trkpt lat="44.71383" lon="3.27163">
        <ele>1063.1999511719</ele>
        <time>2023-05-07T07:15:43Z</time>
      </trkpt>
      <trkpt lat="44.71409" lon="3.27156">
        <ele>1063.4000244141</ele>
        <time>2023-05-07T07:15:49Z</time>
      </trkpt>
      <trkpt lat="44.71413" lon="3.27154">
        <ele>1063.4000244141</ele>
        <time>2023-05-07T07:15:50Z</time>
      </trkpt>
      <trkpt lat="44.71417" lon="3.27151">
        <ele>1063.4000244141</ele>
        <time>2023-05-07T07:15:51Z</time>
      </trkpt>
      <trkpt lat="44.71423" lon="3.27142">
        <ele>1063.4000244141</ele>
        <time>2023-05-07T07:15:53Z</time>
      </trkpt>
      <trkpt lat="44.71426" lon="3.27136">
        <ele>1063.4000244141</ele>
        <time>2023-05-07T07:15:54Z</time>
      </trkpt>
      <trkpt lat="44.71443" lon="3.27092">
        <ele>1063.1999511719</ele>
        <time>2023-05-07T07:16:01Z</time>
      </trkpt>
      <trkpt lat="44.71464" lon="3.27045">
        <ele>1062.8000488281</ele>
        <time>2023-05-07T07:16:08Z</time>
      </trkpt>
      <trkpt lat="44.71478" lon="3.27007">
        <ele>1062.4000244141</ele>
        <time>2023-05-07T07:16:13Z</time>
      </trkpt>
      <trkpt lat="44.71498" lon="3.26954">
        <ele>1062.1999511719</ele>
        <time>2023-05-07T07:16:19Z</time>
      </trkpt>
      <trkpt lat="44.71506" lon="3.26931">
        <ele>1062.1999511719</ele>
        <time>2023-05-07T07:16:23Z</time>
      </trkpt>
      <trkpt lat="44.71509" lon="3.26925">
        <ele>1062</ele>
        <time>2023-05-07T07:16:24Z</time>
      </trkpt>
      <trkpt lat="44.71515" lon="3.26911">
        <ele>1062</ele>
        <time>2023-05-07T07:16:26Z</time>
      </trkpt>
      <trkpt lat="44.71527" lon="3.26879">
        <ele>1061.1999511719</ele>
        <time>2023-05-07T07:16:31Z</time>
      </trkpt>
      <trkpt lat="44.71534" lon="3.26857">
        <ele>1061</ele>
        <time>2023-05-07T07:16:34Z</time>
      </trkpt>
      <trkpt lat="44.71536" lon="3.2685">
        <ele>1060.8000488281</ele>
        <time>2023-05-07T07:16:35Z</time>
      </trkpt>
      <trkpt lat="44.7155" lon="3.26812">
        <ele>1060.1999511719</ele>
        <time>2023-05-07T07:16:40Z</time>
      </trkpt>
      <trkpt lat="44.71567" lon="3.2677">
        <ele>1059.1999511719</ele>
        <time>2023-05-07T07:16:46Z</time>
      </trkpt>
      <trkpt lat="44.71582" lon="3.26728">
        <ele>1058.4000244141</ele>
        <time>2023-05-07T07:16:52Z</time>
      </trkpt>
      <trkpt lat="44.71587" lon="3.26715">
        <ele>1058.1999511719</ele>
        <time>2023-05-07T07:16:54Z</time>
      </trkpt>
      <trkpt lat="44.71591" lon="3.26703">
        <ele>1057.5999755859</ele>
        <time>2023-05-07T07:16:56Z</time>
      </trkpt>
      <trkpt lat="44.71594" lon="3.26697">
        <ele>1057.4000244141</ele>
        <time>2023-05-07T07:16:57Z</time>
      </trkpt>
      <trkpt lat="44.71604" lon="3.26677">
        <ele>1055.8000488281</ele>
        <time>2023-05-07T07:17:01Z</time>
      </trkpt>
      <trkpt lat="44.71608" lon="3.26665">
        <ele>1055</ele>
        <time>2023-05-07T07:17:03Z</time>
      </trkpt>
      <trkpt lat="44.71612" lon="3.26653">
        <ele>1054.1999511719</ele>
        <time>2023-05-07T07:17:05Z</time>
      </trkpt>
      <trkpt lat="44.71621" lon="3.2663">
        <ele>1052.1999511719</ele>
        <time>2023-05-07T07:17:09Z</time>
      </trkpt>
      <trkpt lat="44.71631" lon="3.26611">
        <ele>1050.4000244141</ele>
        <time>2023-05-07T07:17:13Z</time>
      </trkpt>
      <trkpt lat="44.71637" lon="3.26599">
        <ele>1049</ele>
        <time>2023-05-07T07:17:16Z</time>
      </trkpt>
      <trkpt lat="44.7164" lon="3.26591">
        <ele>1048</ele>
        <time>2023-05-07T07:17:18Z</time>
      </trkpt>
      <trkpt lat="44.71644" lon="3.26582">
        <ele>1047</ele>
        <time>2023-05-07T07:17:20Z</time>
      </trkpt>
      <trkpt lat="44.71651" lon="3.2656">
        <ele>1045.4000244141</ele>
        <time>2023-05-07T07:17:24Z</time>
      </trkpt>
      <trkpt lat="44.71658" lon="3.26542">
        <ele>1043.4000244141</ele>
        <time>2023-05-07T07:17:28Z</time>
      </trkpt>
      <trkpt lat="44.71669" lon="3.26518">
        <ele>1042</ele>
        <time>2023-05-07T07:17:33Z</time>
      </trkpt>
      <trkpt lat="44.71679" lon="3.26496">
        <ele>1040</ele>
        <time>2023-05-07T07:17:38Z</time>
      </trkpt>
      <trkpt lat="44.71681" lon="3.26487">
        <ele>1038.8000488281</ele>
        <time>2023-05-07T07:17:40Z</time>
      </trkpt>
      <trkpt lat="44.71684" lon="3.26479">
        <ele>1037.5999755859</ele>
        <time>2023-05-07T07:17:42Z</time>
      </trkpt>
      <trkpt lat="44.71694" lon="3.26459">
        <ele>1035.8000488281</ele>
        <time>2023-05-07T07:17:47Z</time>
      </trkpt>
      <trkpt lat="44.71701" lon="3.26441">
        <ele>1034.5999755859</ele>
        <time>2023-05-07T07:17:52Z</time>
      </trkpt>
      <trkpt lat="44.71707" lon="3.26422">
        <ele>1035.5999755859</ele>
        <time>2023-05-07T07:17:56Z</time>
      </trkpt>
      <trkpt lat="44.71717" lon="3.26402">
        <ele>1035.5999755859</ele>
        <time>2023-05-07T07:18:00Z</time>
      </trkpt>
      <trkpt lat="44.71732" lon="3.26381">
        <ele>1035.8000488281</ele>
        <time>2023-05-07T07:18:05Z</time>
      </trkpt>
      <trkpt lat="44.7175" lon="3.26355">
        <ele>1036.8000488281</ele>
        <time>2023-05-07T07:18:11Z</time>
      </trkpt>
      <trkpt lat="44.71764" lon="3.26337">
        <ele>1037.1999511719</ele>
        <time>2023-05-07T07:18:16Z</time>
      </trkpt>
      <trkpt lat="44.71778" lon="3.26316">
        <ele>1038</ele>
        <time>2023-05-07T07:18:21Z</time>
      </trkpt>
      <trkpt lat="44.71789" lon="3.263">
        <ele>1038.8000488281</ele>
        <time>2023-05-07T07:18:25Z</time>
      </trkpt>
      <trkpt lat="44.71804" lon="3.26281">
        <ele>1040.1999511719</ele>
        <time>2023-05-07T07:18:30Z</time>
      </trkpt>
      <trkpt lat="44.7182" lon="3.2626">
        <ele>1041.1999511719</ele>
        <time>2023-05-07T07:18:35Z</time>
      </trkpt>
      <trkpt lat="44.71823" lon="3.26255">
        <ele>1041.1999511719</ele>
        <time>2023-05-07T07:18:36Z</time>
      </trkpt>
      <trkpt lat="44.71833" lon="3.26241">
        <ele>1041.5999755859</ele>
        <time>2023-05-07T07:18:39Z</time>
      </trkpt>
      <trkpt lat="44.71836" lon="3.26236">
        <ele>1042</ele>
        <time>2023-05-07T07:18:40Z</time>
      </trkpt>
      <trkpt lat="44.71843" lon="3.26226">
        <ele>1042.1999511719</ele>
        <time>2023-05-07T07:18:42Z</time>
      </trkpt>
      <trkpt lat="44.71852" lon="3.26217">
        <ele>1042.5999755859</ele>
        <time>2023-05-07T07:18:44Z</time>
      </trkpt>
      <trkpt lat="44.71856" lon="3.26212">
        <ele>1042.8000488281</ele>
        <time>2023-05-07T07:18:45Z</time>
      </trkpt>
      <trkpt lat="44.71867" lon="3.26196">
        <ele>1043.4000244141</ele>
        <time>2023-05-07T07:18:48Z</time>
      </trkpt>
      <trkpt lat="44.71881" lon="3.2617">
        <ele>1044.5999755859</ele>
        <time>2023-05-07T07:18:52Z</time>
      </trkpt>
      <trkpt lat="44.71885" lon="3.26165">
        <ele>1045</ele>
        <time>2023-05-07T07:18:53Z</time>
      </trkpt>
      <trkpt lat="44.71889" lon="3.26161">
        <ele>1045</ele>
        <time>2023-05-07T07:18:54Z</time>
      </trkpt>
      <trkpt lat="44.71905" lon="3.26138">
        <ele>1046</ele>
        <time>2023-05-07T07:18:58Z</time>
      </trkpt>
      <trkpt lat="44.71925" lon="3.26114">
        <ele>1047</ele>
        <time>2023-05-07T07:19:03Z</time>
      </trkpt>
      <trkpt lat="44.71932" lon="3.26105">
        <ele>1047.5999755859</ele>
        <time>2023-05-07T07:19:05Z</time>
      </trkpt>
      <trkpt lat="44.71935" lon="3.261">
        <ele>1047.8000488281</ele>
        <time>2023-05-07T07:19:06Z</time>
      </trkpt>
      <trkpt lat="44.71952" lon="3.26079">
        <ele>1049</ele>
        <time>2023-05-07T07:19:11Z</time>
      </trkpt>
      <trkpt lat="44.71961" lon="3.26067">
        <ele>1049.5999755859</ele>
        <time>2023-05-07T07:19:14Z</time>
      </trkpt>
      <trkpt lat="44.71971" lon="3.26054">
        <ele>1050.4000244141</ele>
        <time>2023-05-07T07:19:17Z</time>
      </trkpt>
      <trkpt lat="44.71975" lon="3.26051">
        <ele>1050.5999755859</ele>
        <time>2023-05-07T07:19:18Z</time>
      </trkpt>
      <trkpt lat="44.71988" lon="3.26036">
        <ele>1051.5999755859</ele>
        <time>2023-05-07T07:19:22Z</time>
      </trkpt>
      <trkpt lat="44.72007" lon="3.2601">
        <ele>1053.1999511719</ele>
        <time>2023-05-07T07:19:29Z</time>
      </trkpt>
      <trkpt lat="44.72019" lon="3.25982">
        <ele>1054.4000244141</ele>
        <time>2023-05-07T07:19:35Z</time>
      </trkpt>
      <trkpt lat="44.72027" lon="3.25955">
        <ele>1055.4000244141</ele>
        <time>2023-05-07T07:19:41Z</time>
      </trkpt>
      <trkpt lat="44.72035" lon="3.25924">
        <ele>1056.4000244141</ele>
        <time>2023-05-07T07:19:48Z</time>
      </trkpt>
      <trkpt lat="44.72045" lon="3.25884">
        <ele>1058.1999511719</ele>
        <time>2023-05-07T07:19:58Z</time>
      </trkpt>
      <trkpt lat="44.72047" lon="3.25858">
        <ele>1059.4000244141</ele>
        <time>2023-05-07T07:20:04Z</time>
      </trkpt>
      <trkpt lat="44.72049" lon="3.25827">
        <ele>1060.4000244141</ele>
        <time>2023-05-07T07:20:11Z</time>
      </trkpt>
      <trkpt lat="44.72051" lon="3.25797">
        <ele>1061.4000244141</ele>
        <time>2023-05-07T07:20:18Z</time>
      </trkpt>
      <trkpt lat="44.72054" lon="3.25768">
        <ele>1062.5999755859</ele>
        <time>2023-05-07T07:20:25Z</time>
      </trkpt>
      <trkpt lat="44.72062" lon="3.25738">
        <ele>1063.8000488281</ele>
        <time>2023-05-07T07:20:33Z</time>
      </trkpt>
      <trkpt lat="44.72071" lon="3.25706">
        <ele>1065.1999511719</ele>
        <time>2023-05-07T07:20:41Z</time>
      </trkpt>
      <trkpt lat="44.72082" lon="3.25673">
        <ele>1066.4000244141</ele>
        <time>2023-05-07T07:20:50Z</time>
      </trkpt>
      <trkpt lat="44.72092" lon="3.25652">
        <ele>1067</ele>
        <time>2023-05-07T07:20:56Z</time>
      </trkpt>
      <trkpt lat="44.72102" lon="3.25627">
        <ele>1067.8000488281</ele>
        <time>2023-05-07T07:21:03Z</time>
      </trkpt>
      <trkpt lat="44.72114" lon="3.25598">
        <ele>1069</ele>
        <time>2023-05-07T07:21:11Z</time>
      </trkpt>
      <trkpt lat="44.72129" lon="3.25574">
        <ele>1070</ele>
        <time>2023-05-07T07:21:18Z</time>
      </trkpt>
      <trkpt lat="44.72141" lon="3.25549">
        <ele>1071</ele>
        <time>2023-05-07T07:21:25Z</time>
      </trkpt>
      <trkpt lat="44.72149" lon="3.25525">
        <ele>1071.8000488281</ele>
        <time>2023-05-07T07:21:31Z</time>
      </trkpt>
      <trkpt lat="44.7216" lon="3.25492">
        <ele>1072.8000488281</ele>
        <time>2023-05-07T07:21:39Z</time>
      </trkpt>
      <trkpt lat="44.7217" lon="3.25461">
        <ele>1073.5999755859</ele>
        <time>2023-05-07T07:21:46Z</time>
      </trkpt>
      <trkpt lat="44.72178" lon="3.25423">
        <ele>1074.5999755859</ele>
        <time>2023-05-07T07:21:54Z</time>
      </trkpt>
      <trkpt lat="44.72186" lon="3.25385">
        <ele>1075</ele>
        <time>2023-05-07T07:22:02Z</time>
      </trkpt>
      <trkpt lat="44.72187" lon="3.25381">
        <ele>1075</ele>
        <time>2023-05-07T07:22:03Z</time>
      </trkpt>
      <trkpt lat="44.72189" lon="3.25374">
        <ele>1075</ele>
        <time>2023-05-07T07:22:05Z</time>
      </trkpt>
      <trkpt lat="44.72194" lon="3.25358">
        <ele>1074.8000488281</ele>
        <time>2023-05-07T07:22:09Z</time>
      </trkpt>
      <trkpt lat="44.72195" lon="3.25355">
        <ele>1074.8000488281</ele>
        <time>2023-05-07T07:22:10Z</time>
      </trkpt>
      <trkpt lat="44.72201" lon="3.25338">
        <ele>1074.8000488281</ele>
        <time>2023-05-07T07:22:14Z</time>
      </trkpt>
      <trkpt lat="44.72204" lon="3.25327">
        <ele>1074.5999755859</ele>
        <time>2023-05-07T07:22:17Z</time>
      </trkpt>
      <trkpt lat="44.72209" lon="3.25302">
        <ele>1074</ele>
        <time>2023-05-07T07:22:22Z</time>
      </trkpt>
      <trkpt lat="44.72211" lon="3.2528">
        <ele>1073.8000488281</ele>
        <time>2023-05-07T07:22:27Z</time>
      </trkpt>
      <trkpt lat="44.72213" lon="3.25257">
        <ele>1073</ele>
        <time>2023-05-07T07:22:32Z</time>
      </trkpt>
      <trkpt lat="44.72215" lon="3.25245">
        <ele>1072.4000244141</ele>
        <time>2023-05-07T07:22:35Z</time>
      </trkpt>
      <trkpt lat="44.72216" lon="3.25236">
        <ele>1072.1999511719</ele>
        <time>2023-05-07T07:22:37Z</time>
      </trkpt>
      <trkpt lat="44.72222" lon="3.25208">
        <ele>1071.8000488281</ele>
        <time>2023-05-07T07:22:43Z</time>
      </trkpt>
      <trkpt lat="44.72222" lon="3.25185">
        <ele>1072</ele>
        <time>2023-05-07T07:22:48Z</time>
      </trkpt>
      <trkpt lat="44.72218" lon="3.25158">
        <ele>1072.4000244141</ele>
        <time>2023-05-07T07:22:54Z</time>
      </trkpt>
      <trkpt lat="44.7221" lon="3.25127">
        <ele>1072.4000244141</ele>
        <time>2023-05-07T07:23:01Z</time>
      </trkpt>
      <trkpt lat="44.72205" lon="3.25099">
        <ele>1072.5999755859</ele>
        <time>2023-05-07T07:23:07Z</time>
      </trkpt>
      <trkpt lat="44.7221" lon="3.25069">
        <ele>1073.5999755859</ele>
        <time>2023-05-07T07:23:13Z</time>
      </trkpt>
      <trkpt lat="44.72218" lon="3.25039">
        <ele>1074.8000488281</ele>
        <time>2023-05-07T07:23:21Z</time>
      </trkpt>
      <trkpt lat="44.72232" lon="3.2501">
        <ele>1076.5999755859</ele>
        <time>2023-05-07T07:23:31Z</time>
      </trkpt>
      <trkpt lat="44.72243" lon="3.24987">
        <ele>1077.8000488281</ele>
        <time>2023-05-07T07:23:39Z</time>
      </trkpt>
      <trkpt lat="44.72252" lon="3.24967">
        <ele>1079</ele>
        <time>2023-05-07T07:23:47Z</time>
      </trkpt>
      <trkpt lat="44.7226" lon="3.24949">
        <ele>1080.1999511719</ele>
        <time>2023-05-07T07:23:54Z</time>
      </trkpt>
      <trkpt lat="44.72267" lon="3.24931">
        <ele>1081.4000244141</ele>
        <time>2023-05-07T07:24:02Z</time>
      </trkpt>
      <trkpt lat="44.72269" lon="3.24927">
        <ele>1081.5999755859</ele>
        <time>2023-05-07T07:24:04Z</time>
      </trkpt>
      <trkpt lat="44.72271" lon="3.24924">
        <ele>1082</ele>
        <time>2023-05-07T07:24:06Z</time>
      </trkpt>
      <trkpt lat="44.72276" lon="3.2491">
        <ele>1082.5999755859</ele>
        <time>2023-05-07T07:24:11Z</time>
      </trkpt>
      <trkpt lat="44.72281" lon="3.24897">
        <ele>1083.5999755859</ele>
        <time>2023-05-07T07:24:17Z</time>
      </trkpt>
      <trkpt lat="44.72287" lon="3.24882">
        <ele>1084</ele>
        <time>2023-05-07T07:24:24Z</time>
      </trkpt>
      <trkpt lat="44.72287" lon="3.24879">
        <ele>1084</ele>
        <time>2023-05-07T07:24:25Z</time>
      </trkpt>
      <trkpt lat="44.72289" lon="3.24872">
        <ele>1084.5999755859</ele>
        <time>2023-05-07T07:24:28Z</time>
      </trkpt>
      <trkpt lat="44.7229" lon="3.24869">
        <ele>1084.5999755859</ele>
        <time>2023-05-07T07:24:29Z</time>
      </trkpt>
      <trkpt lat="44.72292" lon="3.24855">
        <ele>1085.1999511719</ele>
        <time>2023-05-07T07:24:33Z</time>
      </trkpt>
      <trkpt lat="44.72295" lon="3.24836">
        <ele>1086.4000244141</ele>
        <time>2023-05-07T07:24:39Z</time>
      </trkpt>
      <trkpt lat="44.72299" lon="3.2481">
        <ele>1087.8000488281</ele>
        <time>2023-05-07T07:24:47Z</time>
      </trkpt>
      <trkpt lat="44.72305" lon="3.24782">
        <ele>1089.1999511719</ele>
        <time>2023-05-07T07:24:55Z</time>
      </trkpt>
      <trkpt lat="44.72313" lon="3.24754">
        <ele>1090.4000244141</ele>
        <time>2023-05-07T07:25:03Z</time>
      </trkpt>
      <trkpt lat="44.7232" lon="3.24731">
        <ele>1091.1999511719</ele>
        <time>2023-05-07T07:25:08Z</time>
      </trkpt>
      <trkpt lat="44.72335" lon="3.24691">
        <ele>1092.1999511719</ele>
        <time>2023-05-07T07:25:15Z</time>
      </trkpt>
      <trkpt lat="44.72339" lon="3.24678">
        <ele>1092.4000244141</ele>
        <time>2023-05-07T07:25:17Z</time>
      </trkpt>
      <trkpt lat="44.72346" lon="3.24659">
        <ele>1092.8000488281</ele>
        <time>2023-05-07T07:25:20Z</time>
      </trkpt>
      <trkpt lat="44.72364" lon="3.24616">
        <ele>1093.4000244141</ele>
        <time>2023-05-07T07:25:27Z</time>
      </trkpt>
      <trkpt lat="44.72378" lon="3.24581">
        <ele>1094</ele>
        <time>2023-05-07T07:25:33Z</time>
      </trkpt>
      <trkpt lat="44.72382" lon="3.2457">
        <ele>1094.1999511719</ele>
        <time>2023-05-07T07:25:35Z</time>
      </trkpt>
      <trkpt lat="44.72387" lon="3.24552">
        <ele>1094.4000244141</ele>
        <time>2023-05-07T07:25:38Z</time>
      </trkpt>
      <trkpt lat="44.72389" lon="3.24546">
        <ele>1094.5999755859</ele>
        <time>2023-05-07T07:25:39Z</time>
      </trkpt>
      <trkpt lat="44.72392" lon="3.24533">
        <ele>1094.5999755859</ele>
        <time>2023-05-07T07:25:41Z</time>
      </trkpt>
      <trkpt lat="44.72393" lon="3.24527">
        <ele>1094.5999755859</ele>
        <time>2023-05-07T07:25:42Z</time>
      </trkpt>
      <trkpt lat="44.72394" lon="3.24515">
        <ele>1094.8000488281</ele>
        <time>2023-05-07T07:25:44Z</time>
      </trkpt>
      <trkpt lat="44.72396" lon="3.24502">
        <ele>1094.8000488281</ele>
        <time>2023-05-07T07:25:46Z</time>
      </trkpt>
      <trkpt lat="44.72403" lon="3.2446">
        <ele>1095</ele>
        <time>2023-05-07T07:25:52Z</time>
      </trkpt>
      <trkpt lat="44.72407" lon="3.24428">
        <ele>1095.1999511719</ele>
        <time>2023-05-07T07:25:57Z</time>
      </trkpt>
      <trkpt lat="44.72417" lon="3.24396">
        <ele>1095.8000488281</ele>
        <time>2023-05-07T07:26:03Z</time>
      </trkpt>
      <trkpt lat="44.72436" lon="3.24359">
        <ele>1097</ele>
        <time>2023-05-07T07:26:12Z</time>
      </trkpt>
      <trkpt lat="44.72444" lon="3.24339">
        <ele>1097.5999755859</ele>
        <time>2023-05-07T07:26:18Z</time>
      </trkpt>
      <trkpt lat="44.72448" lon="3.24326">
        <ele>1098.1999511719</ele>
        <time>2023-05-07T07:26:22Z</time>
      </trkpt>
      <trkpt lat="44.72449" lon="3.24319">
        <ele>1098.4000244141</ele>
        <time>2023-05-07T07:26:24Z</time>
      </trkpt>
      <trkpt lat="44.72455" lon="3.24302">
        <ele>1099.4000244141</ele>
        <time>2023-05-07T07:26:29Z</time>
      </trkpt>
      <trkpt lat="44.72464" lon="3.24274">
        <ele>1100.5999755859</ele>
        <time>2023-05-07T07:26:37Z</time>
      </trkpt>
      <trkpt lat="44.72469" lon="3.24257">
        <ele>1101.1999511719</ele>
        <time>2023-05-07T07:26:42Z</time>
      </trkpt>
      <trkpt lat="44.72476" lon="3.24229">
        <ele>1102</ele>
        <time>2023-05-07T07:26:50Z</time>
      </trkpt>
      <trkpt lat="44.72483" lon="3.24212">
        <ele>1103</ele>
        <time>2023-05-07T07:26:56Z</time>
      </trkpt>
      <trkpt lat="44.72495" lon="3.24184">
        <ele>1103.5999755859</ele>
        <time>2023-05-07T07:27:05Z</time>
      </trkpt>
      <trkpt lat="44.72504" lon="3.24163">
        <ele>1104.1999511719</ele>
        <time>2023-05-07T07:27:11Z</time>
      </trkpt>
      <trkpt lat="44.72514" lon="3.24142">
        <ele>1104.8000488281</ele>
        <time>2023-05-07T07:27:17Z</time>
      </trkpt>
      <trkpt lat="44.7253" lon="3.24103">
        <ele>1106</ele>
        <time>2023-05-07T07:27:28Z</time>
      </trkpt>
      <trkpt lat="44.72539" lon="3.24081">
        <ele>1106.8000488281</ele>
        <time>2023-05-07T07:27:34Z</time>
      </trkpt>
      <trkpt lat="44.72545" lon="3.24052">
        <ele>1107.4000244141</ele>
        <time>2023-05-07T07:27:41Z</time>
      </trkpt>
      <trkpt lat="44.7255" lon="3.24017">
        <ele>1108.1999511719</ele>
        <time>2023-05-07T07:27:49Z</time>
      </trkpt>
      <trkpt lat="44.72556" lon="3.23974">
        <ele>1109.4000244141</ele>
        <time>2023-05-07T07:27:59Z</time>
      </trkpt>
      <trkpt lat="44.72559" lon="3.23956">
        <ele>1109.8000488281</ele>
        <time>2023-05-07T07:28:04Z</time>
      </trkpt>
      <trkpt lat="44.72565" lon="3.23937">
        <ele>1110.4000244141</ele>
        <time>2023-05-07T07:28:09Z</time>
      </trkpt>
      <trkpt lat="44.72576" lon="3.23906">
        <ele>1111.4000244141</ele>
        <time>2023-05-07T07:28:18Z</time>
      </trkpt>
      <trkpt lat="44.72583" lon="3.23885">
        <ele>1112.1999511719</ele>
        <time>2023-05-07T07:28:24Z</time>
      </trkpt>
      <trkpt lat="44.72591" lon="3.23863">
        <ele>1113.1999511719</ele>
        <time>2023-05-07T07:28:31Z</time>
      </trkpt>
      <trkpt lat="44.72601" lon="3.23835">
        <ele>1114</ele>
        <time>2023-05-07T07:28:39Z</time>
      </trkpt>
      <trkpt lat="44.72609" lon="3.23819">
        <ele>1114.5999755859</ele>
        <time>2023-05-07T07:28:44Z</time>
      </trkpt>
      <trkpt lat="44.72617" lon="3.23795">
        <ele>1115.5999755859</ele>
        <time>2023-05-07T07:28:51Z</time>
      </trkpt>
      <trkpt lat="44.7263" lon="3.23767">
        <ele>1117</ele>
        <time>2023-05-07T07:29:00Z</time>
      </trkpt>
      <trkpt lat="44.72642" lon="3.23737">
        <ele>1118.1999511719</ele>
        <time>2023-05-07T07:29:09Z</time>
      </trkpt>
      <trkpt lat="44.7265" lon="3.2372">
        <ele>1118.5999755859</ele>
        <time>2023-05-07T07:29:15Z</time>
      </trkpt>
      <trkpt lat="44.72656" lon="3.23705">
        <ele>1118.8000488281</ele>
        <time>2023-05-07T07:29:20Z</time>
      </trkpt>
      <trkpt lat="44.72665" lon="3.23681">
        <ele>1119</ele>
        <time>2023-05-07T07:29:27Z</time>
      </trkpt>
      <trkpt lat="44.72671" lon="3.23661">
        <ele>1119.8000488281</ele>
        <time>2023-05-07T07:29:33Z</time>
      </trkpt>
      <trkpt lat="44.72672" lon="3.23655">
        <ele>1120</ele>
        <time>2023-05-07T07:29:35Z</time>
      </trkpt>
      <trkpt lat="44.7267" lon="3.23648">
        <ele>1120.1999511719</ele>
        <time>2023-05-07T07:29:37Z</time>
      </trkpt>
      <trkpt lat="44.7266" lon="3.23638">
        <ele>1120.4000244141</ele>
        <time>2023-05-07T07:29:42Z</time>
      </trkpt>
      <trkpt lat="44.72646" lon="3.23632">
        <ele>1120.5999755859</ele>
        <time>2023-05-07T07:29:48Z</time>
      </trkpt>
      <trkpt lat="44.72636" lon="3.23628">
        <ele>1120.5999755859</ele>
        <time>2023-05-07T07:29:52Z</time>
      </trkpt>
      <trkpt lat="44.7262" lon="3.23615">
        <ele>1120.5999755859</ele>
        <time>2023-05-07T07:29:59Z</time>
      </trkpt>
      <trkpt lat="44.726" lon="3.23598">
        <ele>1120.4000244141</ele>
        <time>2023-05-07T07:30:06Z</time>
      </trkpt>
      <trkpt lat="44.72582" lon="3.23575">
        <ele>1120.1999511719</ele>
        <time>2023-05-07T07:30:11Z</time>
      </trkpt>
      <trkpt lat="44.72557" lon="3.23539">
        <ele>1119.4000244141</ele>
        <time>2023-05-07T07:30:18Z</time>
      </trkpt>
      <trkpt lat="44.72553" lon="3.23535">
        <ele>1119.1999511719</ele>
        <time>2023-05-07T07:30:19Z</time>
      </trkpt>
      <trkpt lat="44.72539" lon="3.23522">
        <ele>1118.8000488281</ele>
        <time>2023-05-07T07:30:23Z</time>
      </trkpt>
      <trkpt lat="44.72526" lon="3.2351">
        <ele>1118.5999755859</ele>
        <time>2023-05-07T07:30:27Z</time>
      </trkpt>
      <trkpt lat="44.72507" lon="3.23497">
        <ele>1118.1999511719</ele>
        <time>2023-05-07T07:30:33Z</time>
      </trkpt>
      <trkpt lat="44.72495" lon="3.2349">
        <ele>1117.8000488281</ele>
        <time>2023-05-07T07:30:37Z</time>
      </trkpt>
      <trkpt lat="44.72482" lon="3.2348">
        <ele>1117</ele>
        <time>2023-05-07T07:30:42Z</time>
      </trkpt>
      <trkpt lat="44.72468" lon="3.23465">
        <ele>1115.5999755859</ele>
        <time>2023-05-07T07:30:47Z</time>
      </trkpt>
      <trkpt lat="44.72453" lon="3.23447">
        <ele>1113.8000488281</ele>
        <time>2023-05-07T07:30:52Z</time>
      </trkpt>
      <trkpt lat="44.72433" lon="3.23417">
        <ele>1112.5999755859</ele>
        <time>2023-05-07T07:30:59Z</time>
      </trkpt>
      <trkpt lat="44.7241" lon="3.23379">
        <ele>1112.4000244141</ele>
        <time>2023-05-07T07:31:07Z</time>
      </trkpt>
      <trkpt lat="44.72396" lon="3.23351">
        <ele>1112.1999511719</ele>
        <time>2023-05-07T07:31:12Z</time>
      </trkpt>
      <trkpt lat="44.7238" lon="3.23322">
        <ele>1111.4000244141</ele>
        <time>2023-05-07T07:31:17Z</time>
      </trkpt>
      <trkpt lat="44.72366" lon="3.23298">
        <ele>1110.8000488281</ele>
        <time>2023-05-07T07:31:20Z</time>
      </trkpt>
      <trkpt lat="44.7233" lon="3.23244">
        <ele>1112</ele>
        <time>2023-05-07T07:31:27Z</time>
      </trkpt>
      <trkpt lat="44.72307" lon="3.23214">
        <ele>1112.1999511719</ele>
        <time>2023-05-07T07:31:32Z</time>
      </trkpt>
      <trkpt lat="44.72303" lon="3.2321">
        <ele>1112.1999511719</ele>
        <time>2023-05-07T07:31:33Z</time>
      </trkpt>
      <trkpt lat="44.72279" lon="3.2319">
        <ele>1112.4000244141</ele>
        <time>2023-05-07T07:31:39Z</time>
      </trkpt>
      <trkpt lat="44.72259" lon="3.23171">
        <ele>1112.8000488281</ele>
        <time>2023-05-07T07:31:45Z</time>
      </trkpt>
      <trkpt lat="44.72236" lon="3.23145">
        <ele>1113.1999511719</ele>
        <time>2023-05-07T07:31:51Z</time>
      </trkpt>
      <trkpt lat="44.72224" lon="3.23128">
        <ele>1113</ele>
        <time>2023-05-07T07:31:55Z</time>
      </trkpt>
      <trkpt lat="44.72214" lon="3.23114">
        <ele>1112.5999755859</ele>
        <time>2023-05-07T07:31:59Z</time>
      </trkpt>
      <trkpt lat="44.72201" lon="3.23095">
        <ele>1112</ele>
        <time>2023-05-07T07:32:04Z</time>
      </trkpt>
      <trkpt lat="44.72195" lon="3.23088">
        <ele>1111.4000244141</ele>
        <time>2023-05-07T07:32:07Z</time>
      </trkpt>
      <trkpt lat="44.72186" lon="3.2307">
        <ele>1110.4000244141</ele>
        <time>2023-05-07T07:32:11Z</time>
      </trkpt>
      <trkpt lat="44.72174" lon="3.23052">
        <ele>1109.5999755859</ele>
        <time>2023-05-07T07:32:16Z</time>
      </trkpt>
      <trkpt lat="44.72163" lon="3.23041">
        <ele>1109</ele>
        <time>2023-05-07T07:32:20Z</time>
      </trkpt>
      <trkpt lat="44.72148" lon="3.23022">
        <ele>1108.8000488281</ele>
        <time>2023-05-07T07:32:25Z</time>
      </trkpt>
      <trkpt lat="44.72142" lon="3.23021">
        <ele>1108.4000244141</ele>
        <time>2023-05-07T07:32:27Z</time>
      </trkpt>
      <trkpt lat="44.72137" lon="3.23014">
        <ele>1108.1999511719</ele>
        <time>2023-05-07T07:32:29Z</time>
      </trkpt>
      <trkpt lat="44.72125" lon="3.23001">
        <ele>1108</ele>
        <time>2023-05-07T07:32:35Z</time>
      </trkpt>
      <trkpt lat="44.72113" lon="3.22989">
        <ele>1109.4000244141</ele>
        <time>2023-05-07T07:32:41Z</time>
      </trkpt>
      <trkpt lat="44.72112" lon="3.22988">
        <ele>1109.5999755859</ele>
        <time>2023-05-07T07:32:42Z</time>
      </trkpt>
      <trkpt lat="44.72103" lon="3.22979">
        <ele>1110.1999511719</ele>
        <time>2023-05-07T07:32:49Z</time>
      </trkpt>
      <trkpt lat="44.72098" lon="3.22972">
        <ele>1110.5999755859</ele>
        <time>2023-05-07T07:32:53Z</time>
      </trkpt>
      <trkpt lat="44.72095" lon="3.22968">
        <ele>1111</ele>
        <time>2023-05-07T07:32:55Z</time>
      </trkpt>
      <trkpt lat="44.7209" lon="3.22965">
        <ele>1111.4000244141</ele>
        <time>2023-05-07T07:32:58Z</time>
      </trkpt>
      <trkpt lat="44.72088" lon="3.22962">
        <ele>1111.5999755859</ele>
        <time>2023-05-07T07:33:00Z</time>
      </trkpt>
      <trkpt lat="44.72086" lon="3.2296">
        <ele>1111.8000488281</ele>
        <time>2023-05-07T07:33:02Z</time>
      </trkpt>
      <trkpt lat="44.72083" lon="3.22959">
        <ele>1112.4000244141</ele>
        <time>2023-05-07T07:33:04Z</time>
      </trkpt>
      <trkpt lat="44.72072" lon="3.2295">
        <ele>1114.5999755859</ele>
        <time>2023-05-07T07:33:12Z</time>
      </trkpt>
      <trkpt lat="44.72063" lon="3.22941">
        <ele>1116.1999511719</ele>
        <time>2023-05-07T07:33:19Z</time>
      </trkpt>
      <trkpt lat="44.7206" lon="3.22937">
        <ele>1117</ele>
        <time>2023-05-07T07:33:22Z</time>
      </trkpt>
      <trkpt lat="44.72056" lon="3.22934">
        <ele>1117.8000488281</ele>
        <time>2023-05-07T07:33:25Z</time>
      </trkpt>
      <trkpt lat="44.72047" lon="3.22926">
        <ele>1119.5999755859</ele>
        <time>2023-05-07T07:33:33Z</time>
      </trkpt>
      <trkpt lat="44.72035" lon="3.22919">
        <ele>1121.5999755859</ele>
        <time>2023-05-07T07:33:41Z</time>
      </trkpt>
      <trkpt lat="44.72023" lon="3.22911">
        <ele>1123</ele>
        <time>2023-05-07T07:33:48Z</time>
      </trkpt>
      <trkpt lat="44.72011" lon="3.229">
        <ele>1124.1999511719</ele>
        <time>2023-05-07T07:33:54Z</time>
      </trkpt>
      <trkpt lat="44.72" lon="3.22885">
        <ele>1125.5999755859</ele>
        <time>2023-05-07T07:34:01Z</time>
      </trkpt>
      <trkpt lat="44.71988" lon="3.22873">
        <ele>1127</ele>
        <time>2023-05-07T07:34:08Z</time>
      </trkpt>
      <trkpt lat="44.71977" lon="3.22867">
        <ele>1128</ele>
        <time>2023-05-07T07:34:14Z</time>
      </trkpt>
      <trkpt lat="44.71969" lon="3.22862">
        <ele>1127.8000488281</ele>
        <time>2023-05-07T07:34:19Z</time>
      </trkpt>
      <trkpt lat="44.71965" lon="3.2286">
        <ele>1127.5999755859</ele>
        <time>2023-05-07T07:34:21Z</time>
      </trkpt>
      <trkpt lat="44.71962" lon="3.22856">
        <ele>1127.5999755859</ele>
        <time>2023-05-07T07:34:23Z</time>
      </trkpt>
      <trkpt lat="44.7196" lon="3.22853">
        <ele>1127.4000244141</ele>
        <time>2023-05-07T07:34:24Z</time>
      </trkpt>
      <trkpt lat="44.71949" lon="3.22839">
        <ele>1127.5999755859</ele>
        <time>2023-05-07T07:34:31Z</time>
      </trkpt>
      <trkpt lat="44.71939" lon="3.22827">
        <ele>1128</ele>
        <time>2023-05-07T07:34:37Z</time>
      </trkpt>
      <trkpt lat="44.71932" lon="3.22813">
        <ele>1128.8000488281</ele>
        <time>2023-05-07T07:34:43Z</time>
      </trkpt>
      <trkpt lat="44.71921" lon="3.22803">
        <ele>1129</ele>
        <time>2023-05-07T07:34:49Z</time>
      </trkpt>
      <trkpt lat="44.71906" lon="3.22786">
        <ele>1129.4000244141</ele>
        <time>2023-05-07T07:34:57Z</time>
      </trkpt>
      <trkpt lat="44.71896" lon="3.2277">
        <ele>1130.1999511719</ele>
        <time>2023-05-07T07:35:03Z</time>
      </trkpt>
      <trkpt lat="44.71883" lon="3.22754">
        <ele>1131.1999511719</ele>
        <time>2023-05-07T07:35:10Z</time>
      </trkpt>
      <trkpt lat="44.71867" lon="3.22739">
        <ele>1132</ele>
        <time>2023-05-07T07:35:18Z</time>
      </trkpt>
      <trkpt lat="44.71853" lon="3.22728">
        <ele>1132.5999755859</ele>
        <time>2023-05-07T07:35:24Z</time>
      </trkpt>
      <trkpt lat="44.71839" lon="3.22718">
        <ele>1133</ele>
        <time>2023-05-07T07:35:29Z</time>
      </trkpt>
      <trkpt lat="44.71822" lon="3.22703">
        <ele>1133.4000244141</ele>
        <time>2023-05-07T07:35:34Z</time>
      </trkpt>
      <trkpt lat="44.71799" lon="3.22693">
        <ele>1133.5999755859</ele>
        <time>2023-05-07T07:35:38Z</time>
      </trkpt>
      <trkpt lat="44.7176" lon="3.22679">
        <ele>1133.5999755859</ele>
        <time>2023-05-07T07:35:43Z</time>
      </trkpt>
      <trkpt lat="44.71721" lon="3.22651">
        <ele>1134.1999511719</ele>
        <time>2023-05-07T07:35:48Z</time>
      </trkpt>
      <trkpt lat="44.71707" lon="3.22638">
        <ele>1134.1999511719</ele>
        <time>2023-05-07T07:35:50Z</time>
      </trkpt>
      <trkpt lat="44.71696" lon="3.22623">
        <ele>1134.4000244141</ele>
        <time>2023-05-07T07:35:52Z</time>
      </trkpt>
      <trkpt lat="44.7167" lon="3.22577">
        <ele>1134.4000244141</ele>
        <time>2023-05-07T07:35:57Z</time>
      </trkpt>
      <trkpt lat="44.7164" lon="3.22529">
        <ele>1133.5999755859</ele>
        <time>2023-05-07T07:36:02Z</time>
      </trkpt>
      <trkpt lat="44.71614" lon="3.2249">
        <ele>1131.8000488281</ele>
        <time>2023-05-07T07:36:06Z</time>
      </trkpt>
      <trkpt lat="44.716" lon="3.22477">
        <ele>1131</ele>
        <time>2023-05-07T07:36:08Z</time>
      </trkpt>
      <trkpt lat="44.71592" lon="3.22473">
        <ele>1130.5999755859</ele>
        <time>2023-05-07T07:36:09Z</time>
      </trkpt>
      <trkpt lat="44.71583" lon="3.22471">
        <ele>1130.1999511719</ele>
        <time>2023-05-07T07:36:10Z</time>
      </trkpt>
      <trkpt lat="44.71557" lon="3.22468">
        <ele>1129.1999511719</ele>
        <time>2023-05-07T07:36:13Z</time>
      </trkpt>
      <trkpt lat="44.71551" lon="3.22467">
        <ele>1129</ele>
        <time>2023-05-07T07:36:14Z</time>
      </trkpt>
      <trkpt lat="44.71541" lon="3.22462">
        <ele>1128.1999511719</ele>
        <time>2023-05-07T07:36:16Z</time>
      </trkpt>
      <trkpt lat="44.71535" lon="3.22448">
        <ele>1127.5999755859</ele>
        <time>2023-05-07T07:36:18Z</time>
      </trkpt>
      <trkpt lat="44.71534" lon="3.22439">
        <ele>1127.1999511719</ele>
        <time>2023-05-07T07:36:19Z</time>
      </trkpt>
      <trkpt lat="44.71532" lon="3.2239">
        <ele>1125.5999755859</ele>
        <time>2023-05-07T07:36:24Z</time>
      </trkpt>
      <trkpt lat="44.7153" lon="3.22369">
        <ele>1125</ele>
        <time>2023-05-07T07:36:26Z</time>
      </trkpt>
      <trkpt lat="44.71525" lon="3.22337">
        <ele>1124.4000244141</ele>
        <time>2023-05-07T07:36:29Z</time>
      </trkpt>
      <trkpt lat="44.71512" lon="3.22276">
        <ele>1122.8000488281</ele>
        <time>2023-05-07T07:36:35Z</time>
      </trkpt>
      <trkpt lat="44.71509" lon="3.22268">
        <ele>1122.5999755859</ele>
        <time>2023-05-07T07:36:36Z</time>
      </trkpt>
      <trkpt lat="44.71502" lon="3.22254">
        <ele>1122.1999511719</ele>
        <time>2023-05-07T07:36:38Z</time>
      </trkpt>
      <trkpt lat="44.71487" lon="3.22242">
        <ele>1121.4000244141</ele>
        <time>2023-05-07T07:36:41Z</time>
      </trkpt>
      <trkpt lat="44.71482" lon="3.22232">
        <ele>1120.8000488281</ele>
        <time>2023-05-07T07:36:44Z</time>
      </trkpt>
      <trkpt lat="44.71481" lon="3.22225">
        <ele>1120.4000244141</ele>
        <time>2023-05-07T07:36:46Z</time>
      </trkpt>
      <trkpt lat="44.71475" lon="3.22217">
        <ele>1120</ele>
        <time>2023-05-07T07:36:49Z</time>
      </trkpt>
      <trkpt lat="44.7146" lon="3.22191">
        <ele>1119</ele>
        <time>2023-05-07T07:36:56Z</time>
      </trkpt>
      <trkpt lat="44.71448" lon="3.22168">
        <ele>1118.8000488281</ele>
        <time>2023-05-07T07:37:02Z</time>
      </trkpt>
      <trkpt lat="44.71431" lon="3.22138">
        <ele>1118.1999511719</ele>
        <time>2023-05-07T07:37:10Z</time>
      </trkpt>
      <trkpt lat="44.71418" lon="3.22112">
        <ele>1118</ele>
        <time>2023-05-07T07:37:17Z</time>
      </trkpt>
      <trkpt lat="44.71403" lon="3.22089">
        <ele>1117.4000244141</ele>
        <time>2023-05-07T07:37:25Z</time>
      </trkpt>
      <trkpt lat="44.71393" lon="3.22074">
        <ele>1117</ele>
        <time>2023-05-07T07:37:30Z</time>
      </trkpt>
      <trkpt lat="44.71382" lon="3.22058">
        <ele>1116.5999755859</ele>
        <time>2023-05-07T07:37:36Z</time>
      </trkpt>
      <trkpt lat="44.7137" lon="3.22042">
        <ele>1116</ele>
        <time>2023-05-07T07:37:42Z</time>
      </trkpt>
      <trkpt lat="44.7136" lon="3.22026">
        <ele>1116.4000244141</ele>
        <time>2023-05-07T07:37:47Z</time>
      </trkpt>
      <trkpt lat="44.71348" lon="3.22014">
        <ele>1116</ele>
        <time>2023-05-07T07:37:52Z</time>
      </trkpt>
      <trkpt lat="44.71337" lon="3.22003">
        <ele>1115</ele>
        <time>2023-05-07T07:37:57Z</time>
      </trkpt>
      <trkpt lat="44.71321" lon="3.21995">
        <ele>1113.8000488281</ele>
        <time>2023-05-07T07:38:03Z</time>
      </trkpt>
      <trkpt lat="44.71311" lon="3.21985">
        <ele>1112.8000488281</ele>
        <time>2023-05-07T07:38:07Z</time>
      </trkpt>
      <trkpt lat="44.71308" lon="3.21985">
        <ele>1112.4000244141</ele>
        <time>2023-05-07T07:38:08Z</time>
      </trkpt>
      <trkpt lat="44.71306" lon="3.21984">
        <ele>1112</ele>
        <time>2023-05-07T07:38:09Z</time>
      </trkpt>
      <trkpt lat="44.713" lon="3.21977">
        <ele>1112.4000244141</ele>
        <time>2023-05-07T07:38:12Z</time>
      </trkpt>
      <trkpt lat="44.71284" lon="3.2197">
        <ele>1112.4000244141</ele>
        <time>2023-05-07T07:38:18Z</time>
      </trkpt>
      <trkpt lat="44.71274" lon="3.21961">
        <ele>1111.8000488281</ele>
        <time>2023-05-07T07:38:23Z</time>
      </trkpt>
      <trkpt lat="44.7126" lon="3.21959">
        <ele>1110.5999755859</ele>
        <time>2023-05-07T07:38:28Z</time>
      </trkpt>
      <trkpt lat="44.71253" lon="3.21944">
        <ele>1110.4000244141</ele>
        <time>2023-05-07T07:38:32Z</time>
      </trkpt>
      <trkpt lat="44.71241" lon="3.21926">
        <ele>1109.5999755859</ele>
        <time>2023-05-07T07:38:38Z</time>
      </trkpt>
      <trkpt lat="44.71234" lon="3.21918">
        <ele>1109.8000488281</ele>
        <time>2023-05-07T07:38:41Z</time>
      </trkpt>
      <trkpt lat="44.71233" lon="3.21915">
        <ele>1109.8000488281</ele>
        <time>2023-05-07T07:38:42Z</time>
      </trkpt>
      <trkpt lat="44.71227" lon="3.2191">
        <ele>1109.4000244141</ele>
        <time>2023-05-07T07:38:46Z</time>
      </trkpt>
      <trkpt lat="44.7122" lon="3.21899">
        <ele>1110.1999511719</ele>
        <time>2023-05-07T07:38:50Z</time>
      </trkpt>
      <trkpt lat="44.71209" lon="3.21882">
        <ele>1110.8000488281</ele>
        <time>2023-05-07T07:38:54Z</time>
      </trkpt>
      <trkpt lat="44.71192" lon="3.2185">
        <ele>1111.4000244141</ele>
        <time>2023-05-07T07:39:03Z</time>
      </trkpt>
      <trkpt lat="44.71183" lon="3.21836">
        <ele>1111.8000488281</ele>
        <time>2023-05-07T07:39:08Z</time>
      </trkpt>
      <trkpt lat="44.71181" lon="3.21836">
        <ele>1111.8000488281</ele>
        <time>2023-05-07T07:39:09Z</time>
      </trkpt>
      <trkpt lat="44.71174" lon="3.21832">
        <ele>1112</ele>
        <time>2023-05-07T07:39:12Z</time>
      </trkpt>
      <trkpt lat="44.71164" lon="3.2183">
        <ele>1112.1999511719</ele>
        <time>2023-05-07T07:39:17Z</time>
      </trkpt>
      <trkpt lat="44.71159" lon="3.21828">
        <ele>1112.4000244141</ele>
        <time>2023-05-07T07:39:19Z</time>
      </trkpt>
      <trkpt lat="44.71154" lon="3.21828">
        <ele>1113</ele>
        <time>2023-05-07T07:39:21Z</time>
      </trkpt>
      <trkpt lat="44.71143" lon="3.21828">
        <ele>1113.4000244141</ele>
        <time>2023-05-07T07:39:26Z</time>
      </trkpt>
      <trkpt lat="44.7113" lon="3.21824">
        <ele>1113.4000244141</ele>
        <time>2023-05-07T07:39:32Z</time>
      </trkpt>
      <trkpt lat="44.71127" lon="3.21823">
        <ele>1113.1999511719</ele>
        <time>2023-05-07T07:39:34Z</time>
      </trkpt>
      <trkpt lat="44.71122" lon="3.21821">
        <ele>1113.1999511719</ele>
        <time>2023-05-07T07:39:36Z</time>
      </trkpt>
      <trkpt lat="44.7111" lon="3.21817">
        <ele>1113.1999511719</ele>
        <time>2023-05-07T07:39:41Z</time>
      </trkpt>
      <trkpt lat="44.71101" lon="3.2181">
        <ele>1113.5999755859</ele>
        <time>2023-05-07T07:39:45Z</time>
      </trkpt>
      <trkpt lat="44.71099" lon="3.21809">
        <ele>1113.8000488281</ele>
        <time>2023-05-07T07:39:46Z</time>
      </trkpt>
      <trkpt lat="44.71085" lon="3.21799">
        <ele>1115</ele>
        <time>2023-05-07T07:39:52Z</time>
      </trkpt>
      <trkpt lat="44.71072" lon="3.21798">
        <ele>1115.5999755859</ele>
        <time>2023-05-07T07:39:57Z</time>
      </trkpt>
      <trkpt lat="44.71056" lon="3.21792">
        <ele>1117</ele>
        <time>2023-05-07T07:40:04Z</time>
      </trkpt>
      <trkpt lat="44.71044" lon="3.21791">
        <ele>1117.5999755859</ele>
        <time>2023-05-07T07:40:09Z</time>
      </trkpt>
      <trkpt lat="44.71031" lon="3.21789">
        <ele>1118.5999755859</ele>
        <time>2023-05-07T07:40:15Z</time>
      </trkpt>
      <trkpt lat="44.71019" lon="3.21791">
        <ele>1119.5999755859</ele>
        <time>2023-05-07T07:40:20Z</time>
      </trkpt>
      <trkpt lat="44.71008" lon="3.21793">
        <ele>1120.1999511719</ele>
        <time>2023-05-07T07:40:25Z</time>
      </trkpt>
      <trkpt lat="44.70996" lon="3.21795">
        <ele>1121</ele>
        <time>2023-05-07T07:40:30Z</time>
      </trkpt>
      <trkpt lat="44.70981" lon="3.218">
        <ele>1122</ele>
        <time>2023-05-07T07:40:36Z</time>
      </trkpt>
      <trkpt lat="44.70963" lon="3.21806">
        <ele>1123.5999755859</ele>
        <time>2023-05-07T07:40:43Z</time>
      </trkpt>
      <trkpt lat="44.70951" lon="3.21812">
        <ele>1124.1999511719</ele>
        <time>2023-05-07T07:40:48Z</time>
      </trkpt>
      <trkpt lat="44.70946" lon="3.21815">
        <ele>1124.1999511719</ele>
        <time>2023-05-07T07:40:51Z</time>
      </trkpt>
      <trkpt lat="44.70937" lon="3.21819">
        <ele>1124.4000244141</ele>
        <time>2023-05-07T07:40:55Z</time>
      </trkpt>
      <trkpt lat="44.70923" lon="3.21825">
        <ele>1124.5999755859</ele>
        <time>2023-05-07T07:41:01Z</time>
      </trkpt>
      <trkpt lat="44.70913" lon="3.21824">
        <ele>1124.1999511719</ele>
        <time>2023-05-07T07:41:07Z</time>
      </trkpt>
      <trkpt lat="44.7091" lon="3.21825">
        <ele>1124.1999511719</ele>
        <time>2023-05-07T07:41:09Z</time>
      </trkpt>
      <trkpt lat="44.70904" lon="3.21828">
        <ele>1124</ele>
        <time>2023-05-07T07:41:12Z</time>
      </trkpt>
      <trkpt lat="44.70904" lon="3.21829">
        <ele>1124</ele>
        <time>2023-05-07T07:41:13Z</time>
      </trkpt>
      <trkpt lat="44.70901" lon="3.21829">
        <ele>1123.5999755859</ele>
        <time>2023-05-07T07:41:16Z</time>
      </trkpt>
      <trkpt lat="44.70895" lon="3.21831">
        <ele>1123.1999511719</ele>
        <time>2023-05-07T07:41:22Z</time>
      </trkpt>
      <trkpt lat="44.70892" lon="3.21833">
        <ele>1123</ele>
        <time>2023-05-07T07:41:26Z</time>
      </trkpt>
      <trkpt lat="44.70891" lon="3.21835">
        <ele>1123.1999511719</ele>
        <time>2023-05-07T07:41:27Z</time>
      </trkpt>
      <trkpt lat="44.70878" lon="3.21845">
        <ele>1123.8000488281</ele>
        <time>2023-05-07T07:41:32Z</time>
      </trkpt>
      <trkpt lat="44.7087" lon="3.21851">
        <ele>1124.1999511719</ele>
        <time>2023-05-07T07:41:36Z</time>
      </trkpt>
      <trkpt lat="44.70867" lon="3.21853">
        <ele>1124.4000244141</ele>
        <time>2023-05-07T07:41:38Z</time>
      </trkpt>
      <trkpt lat="44.70862" lon="3.21856">
        <ele>1125.1999511719</ele>
        <time>2023-05-07T07:41:42Z</time>
      </trkpt>
      <trkpt lat="44.70856" lon="3.21861">
        <ele>1125.8000488281</ele>
        <time>2023-05-07T07:41:45Z</time>
      </trkpt>
      <trkpt lat="44.70843" lon="3.21868">
        <ele>1127.1999511719</ele>
        <time>2023-05-07T07:41:51Z</time>
      </trkpt>
      <trkpt lat="44.70834" lon="3.21869">
        <ele>1128.5999755859</ele>
        <time>2023-05-07T07:41:57Z</time>
      </trkpt>
      <trkpt lat="44.70825" lon="3.2187">
        <ele>1129.8000488281</ele>
        <time>2023-05-07T07:42:03Z</time>
      </trkpt>
      <trkpt lat="44.70814" lon="3.21867">
        <ele>1131.8000488281</ele>
        <time>2023-05-07T07:42:10Z</time>
      </trkpt>
      <trkpt lat="44.70811" lon="3.21868">
        <ele>1132.4000244141</ele>
        <time>2023-05-07T07:42:12Z</time>
      </trkpt>
      <trkpt lat="44.70805" lon="3.21867">
        <ele>1133.1999511719</ele>
        <time>2023-05-07T07:42:16Z</time>
      </trkpt>
      <trkpt lat="44.70803" lon="3.21868">
        <ele>1133.8000488281</ele>
        <time>2023-05-07T07:42:18Z</time>
      </trkpt>
      <trkpt lat="44.70799" lon="3.21869">
        <ele>1134.1999511719</ele>
        <time>2023-05-07T07:42:21Z</time>
      </trkpt>
      <trkpt lat="44.70793" lon="3.21869">
        <ele>1135</ele>
        <time>2023-05-07T07:42:26Z</time>
      </trkpt>
      <trkpt lat="44.70791" lon="3.21869">
        <ele>1135.4000244141</ele>
        <time>2023-05-07T07:42:28Z</time>
      </trkpt>
      <trkpt lat="44.70786" lon="3.21869">
        <ele>1136</ele>
        <time>2023-05-07T07:42:32Z</time>
      </trkpt>
      <trkpt lat="44.70783" lon="3.21869">
        <ele>1136.1999511719</ele>
        <time>2023-05-07T07:42:34Z</time>
      </trkpt>
      <trkpt lat="44.70775" lon="3.21867">
        <ele>1137.1999511719</ele>
        <time>2023-05-07T07:42:40Z</time>
      </trkpt>
      <trkpt lat="44.70766" lon="3.21867">
        <ele>1138</ele>
        <time>2023-05-07T07:42:45Z</time>
      </trkpt>
      <trkpt lat="44.70755" lon="3.21864">
        <ele>1139.1999511719</ele>
        <time>2023-05-07T07:42:51Z</time>
      </trkpt>
      <trkpt lat="44.70745" lon="3.21861">
        <ele>1140.1999511719</ele>
        <time>2023-05-07T07:42:57Z</time>
      </trkpt>
      <trkpt lat="44.70737" lon="3.21857">
        <ele>1140.4000244141</ele>
        <time>2023-05-07T07:43:01Z</time>
      </trkpt>
      <trkpt lat="44.70727" lon="3.21855">
        <ele>1140.5999755859</ele>
        <time>2023-05-07T07:43:05Z</time>
      </trkpt>
      <trkpt lat="44.70709" lon="3.21856">
        <ele>1142</ele>
        <time>2023-05-07T07:43:12Z</time>
      </trkpt>
      <trkpt lat="44.70691" lon="3.21858">
        <ele>1143</ele>
        <time>2023-05-07T07:43:19Z</time>
      </trkpt>
      <trkpt lat="44.70668" lon="3.2186">
        <ele>1143.8000488281</ele>
        <time>2023-05-07T07:43:28Z</time>
      </trkpt>
      <trkpt lat="44.70653" lon="3.21857">
        <ele>1144.5999755859</ele>
        <time>2023-05-07T07:43:34Z</time>
      </trkpt>
      <trkpt lat="44.70637" lon="3.21857">
        <ele>1145.4000244141</ele>
        <time>2023-05-07T07:43:40Z</time>
      </trkpt>
      <trkpt lat="44.70616" lon="3.21854">
        <ele>1147</ele>
        <time>2023-05-07T07:43:47Z</time>
      </trkpt>
      <trkpt lat="44.70594" lon="3.21855">
        <ele>1148.1999511719</ele>
        <time>2023-05-07T07:43:54Z</time>
      </trkpt>
      <trkpt lat="44.70574" lon="3.21856">
        <ele>1149</ele>
        <time>2023-05-07T07:44:00Z</time>
      </trkpt>
      <trkpt lat="44.70561" lon="3.21857">
        <ele>1149.8000488281</ele>
        <time>2023-05-07T07:44:04Z</time>
      </trkpt>
      <trkpt lat="44.7054" lon="3.21849">
        <ele>1151.1999511719</ele>
        <time>2023-05-07T07:44:11Z</time>
      </trkpt>
      <trkpt lat="44.70509" lon="3.21841">
        <ele>1154</ele>
        <time>2023-05-07T07:44:21Z</time>
      </trkpt>
      <trkpt lat="44.70483" lon="3.21832">
        <ele>1156.4000244141</ele>
        <time>2023-05-07T07:44:29Z</time>
      </trkpt>
      <trkpt lat="44.70467" lon="3.21818">
        <ele>1157.4000244141</ele>
        <time>2023-05-07T07:44:35Z</time>
      </trkpt>
      <trkpt lat="44.70464" lon="3.21815">
        <ele>1157.5999755859</ele>
        <time>2023-05-07T07:44:36Z</time>
      </trkpt>
      <trkpt lat="44.70459" lon="3.21811">
        <ele>1157.8000488281</ele>
        <time>2023-05-07T07:44:38Z</time>
      </trkpt>
      <trkpt lat="44.70441" lon="3.21804">
        <ele>1159.1999511719</ele>
        <time>2023-05-07T07:44:44Z</time>
      </trkpt>
      <trkpt lat="44.70426" lon="3.21798">
        <ele>1160.1999511719</ele>
        <time>2023-05-07T07:44:50Z</time>
      </trkpt>
      <trkpt lat="44.70407" lon="3.21788">
        <ele>1161.5999755859</ele>
        <time>2023-05-07T07:44:58Z</time>
      </trkpt>
      <trkpt lat="44.7039" lon="3.21781">
        <ele>1163</ele>
        <time>2023-05-07T07:45:05Z</time>
      </trkpt>
      <trkpt lat="44.70373" lon="3.21777">
        <ele>1164</ele>
        <time>2023-05-07T07:45:11Z</time>
      </trkpt>
      <trkpt lat="44.70356" lon="3.21775">
        <ele>1164.8000488281</ele>
        <time>2023-05-07T07:45:18Z</time>
      </trkpt>
      <trkpt lat="44.70337" lon="3.21773">
        <ele>1165</ele>
        <time>2023-05-07T07:45:24Z</time>
      </trkpt>
      <trkpt lat="44.70303" lon="3.21766">
        <ele>1166.5999755859</ele>
        <time>2023-05-07T07:45:35Z</time>
      </trkpt>
      <trkpt lat="44.70273" lon="3.21761">
        <ele>1167.5999755859</ele>
        <time>2023-05-07T07:45:43Z</time>
      </trkpt>
      <trkpt lat="44.7025" lon="3.21757">
        <ele>1168.1999511719</ele>
        <time>2023-05-07T07:45:49Z</time>
      </trkpt>
      <trkpt lat="44.70219" lon="3.21752">
        <ele>1168.4000244141</ele>
        <time>2023-05-07T07:45:57Z</time>
      </trkpt>
      <trkpt lat="44.70215" lon="3.21752">
        <ele>1168.4000244141</ele>
        <time>2023-05-07T07:45:58Z</time>
      </trkpt>
      <trkpt lat="44.70203" lon="3.21756">
        <ele>1168.5999755859</ele>
        <time>2023-05-07T07:46:01Z</time>
      </trkpt>
      <trkpt lat="44.70177" lon="3.2177">
        <ele>1169.4000244141</ele>
        <time>2023-05-07T07:46:08Z</time>
      </trkpt>
      <trkpt lat="44.70149" lon="3.21777">
        <ele>1170</ele>
        <time>2023-05-07T07:46:15Z</time>
      </trkpt>
      <trkpt lat="44.70127" lon="3.21778">
        <ele>1170.4000244141</ele>
        <time>2023-05-07T07:46:21Z</time>
      </trkpt>
      <trkpt lat="44.70112" lon="3.21778">
        <ele>1170.4000244141</ele>
        <time>2023-05-07T07:46:25Z</time>
      </trkpt>
      <trkpt lat="44.70107" lon="3.21778">
        <ele>1170.4000244141</ele>
        <time>2023-05-07T07:46:26Z</time>
      </trkpt>
      <trkpt lat="44.70091" lon="3.21773">
        <ele>1170.1999511719</ele>
        <time>2023-05-07T07:46:30Z</time>
      </trkpt>
      <trkpt lat="44.70073" lon="3.21766">
        <ele>1169.8000488281</ele>
        <time>2023-05-07T07:46:35Z</time>
      </trkpt>
      <trkpt lat="44.70056" lon="3.21758">
        <ele>1169.4000244141</ele>
        <time>2023-05-07T07:46:39Z</time>
      </trkpt>
      <trkpt lat="44.70044" lon="3.2175">
        <ele>1169.1999511719</ele>
        <time>2023-05-07T07:46:43Z</time>
      </trkpt>
      <trkpt lat="44.70026" lon="3.21741">
        <ele>1169.4000244141</ele>
        <time>2023-05-07T07:46:48Z</time>
      </trkpt>
      <trkpt lat="44.7001" lon="3.2173">
        <ele>1169.4000244141</ele>
        <time>2023-05-07T07:46:53Z</time>
      </trkpt>
      <trkpt lat="44.69994" lon="3.21721">
        <ele>1169.4000244141</ele>
        <time>2023-05-07T07:46:58Z</time>
      </trkpt>
      <trkpt lat="44.6998" lon="3.21711">
        <ele>1169.4000244141</ele>
        <time>2023-05-07T07:47:03Z</time>
      </trkpt>
      <trkpt lat="44.69957" lon="3.21689">
        <ele>1169.5999755859</ele>
        <time>2023-05-07T07:47:11Z</time>
      </trkpt>
      <trkpt lat="44.69937" lon="3.21673">
        <ele>1169.4000244141</ele>
        <time>2023-05-07T07:47:18Z</time>
      </trkpt>
      <trkpt lat="44.69919" lon="3.21653">
        <ele>1171.1999511719</ele>
        <time>2023-05-07T07:47:25Z</time>
      </trkpt>
      <trkpt lat="44.69891" lon="3.21635">
        <ele>1172.8000488281</ele>
        <time>2023-05-07T07:47:34Z</time>
      </trkpt>
      <trkpt lat="44.69868" lon="3.2162">
        <ele>1173.5999755859</ele>
        <time>2023-05-07T07:47:42Z</time>
      </trkpt>
      <trkpt lat="44.69835" lon="3.21599">
        <ele>1175.4000244141</ele>
        <time>2023-05-07T07:47:53Z</time>
      </trkpt>
      <trkpt lat="44.69807" lon="3.2158">
        <ele>1176.8000488281</ele>
        <time>2023-05-07T07:48:02Z</time>
      </trkpt>
      <trkpt lat="44.69778" lon="3.21563">
        <ele>1177.8000488281</ele>
        <time>2023-05-07T07:48:11Z</time>
      </trkpt>
      <trkpt lat="44.69753" lon="3.21547">
        <ele>1179</ele>
        <time>2023-05-07T07:48:19Z</time>
      </trkpt>
      <trkpt lat="44.6973" lon="3.21531">
        <ele>1180</ele>
        <time>2023-05-07T07:48:27Z</time>
      </trkpt>
      <trkpt lat="44.69716" lon="3.21524">
        <ele>1180.4000244141</ele>
        <time>2023-05-07T07:48:32Z</time>
      </trkpt>
      <trkpt lat="44.69701" lon="3.21515">
        <ele>1181.1999511719</ele>
        <time>2023-05-07T07:48:38Z</time>
      </trkpt>
      <trkpt lat="44.69682" lon="3.21503">
        <ele>1182.1999511719</ele>
        <time>2023-05-07T07:48:46Z</time>
      </trkpt>
      <trkpt lat="44.69656" lon="3.2149">
        <ele>1183.4000244141</ele>
        <time>2023-05-07T07:48:56Z</time>
      </trkpt>
      <trkpt lat="44.69639" lon="3.21481">
        <ele>1183.8000488281</ele>
        <time>2023-05-07T07:49:03Z</time>
      </trkpt>
      <trkpt lat="44.69619" lon="3.2147">
        <ele>1184.5999755859</ele>
        <time>2023-05-07T07:49:11Z</time>
      </trkpt>
      <trkpt lat="44.69597" lon="3.21457">
        <ele>1185.4000244141</ele>
        <time>2023-05-07T07:49:20Z</time>
      </trkpt>
      <trkpt lat="44.69579" lon="3.21449">
        <ele>1186.1999511719</ele>
        <time>2023-05-07T07:49:27Z</time>
      </trkpt>
      <trkpt lat="44.69558" lon="3.21446">
        <ele>1186.8000488281</ele>
        <time>2023-05-07T07:49:34Z</time>
      </trkpt>
      <trkpt lat="44.69541" lon="3.21445">
        <ele>1187.4000244141</ele>
        <time>2023-05-07T07:49:41Z</time>
      </trkpt>
      <trkpt lat="44.6953" lon="3.21443">
        <ele>1187.5999755859</ele>
        <time>2023-05-07T07:49:45Z</time>
      </trkpt>
      <trkpt lat="44.69527" lon="3.21443">
        <ele>1187.5999755859</ele>
        <time>2023-05-07T07:49:46Z</time>
      </trkpt>
      <trkpt lat="44.69525" lon="3.21442">
        <ele>1187.5999755859</ele>
        <time>2023-05-07T07:49:47Z</time>
      </trkpt>
      <trkpt lat="44.69517" lon="3.21441">
        <ele>1187.5999755859</ele>
        <time>2023-05-07T07:49:50Z</time>
      </trkpt>
      <trkpt lat="44.69505" lon="3.21435">
        <ele>1187.8000488281</ele>
        <time>2023-05-07T07:49:54Z</time>
      </trkpt>
      <trkpt lat="44.69494" lon="3.2143">
        <ele>1187.5999755859</ele>
        <time>2023-05-07T07:49:58Z</time>
      </trkpt>
      <trkpt lat="44.69481" lon="3.21422">
        <ele>1187.4000244141</ele>
        <time>2023-05-07T07:50:03Z</time>
      </trkpt>
      <trkpt lat="44.69462" lon="3.21402">
        <ele>1187.8000488281</ele>
        <time>2023-05-07T07:50:10Z</time>
      </trkpt>
      <trkpt lat="44.6945" lon="3.21393">
        <ele>1187.8000488281</ele>
        <time>2023-05-07T07:50:14Z</time>
      </trkpt>
      <trkpt lat="44.69443" lon="3.21391">
        <ele>1187.5999755859</ele>
        <time>2023-05-07T07:50:16Z</time>
      </trkpt>
      <trkpt lat="44.6943" lon="3.21383">
        <ele>1187</ele>
        <time>2023-05-07T07:50:20Z</time>
      </trkpt>
      <trkpt lat="44.69417" lon="3.21377">
        <ele>1186.4000244141</ele>
        <time>2023-05-07T07:50:24Z</time>
      </trkpt>
      <trkpt lat="44.69399" lon="3.21367">
        <ele>1185.8000488281</ele>
        <time>2023-05-07T07:50:30Z</time>
      </trkpt>
      <trkpt lat="44.69396" lon="3.21368">
        <ele>1185.8000488281</ele>
        <time>2023-05-07T07:50:31Z</time>
      </trkpt>
      <trkpt lat="44.69389" lon="3.21366">
        <ele>1185.1999511719</ele>
        <time>2023-05-07T07:50:33Z</time>
      </trkpt>
      <trkpt lat="44.69373" lon="3.21363">
        <ele>1184</ele>
        <time>2023-05-07T07:50:38Z</time>
      </trkpt>
      <trkpt lat="44.69353" lon="3.21359">
        <ele>1182.1999511719</ele>
        <time>2023-05-07T07:50:44Z</time>
      </trkpt>
      <trkpt lat="44.69336" lon="3.21352">
        <ele>1180.8000488281</ele>
        <time>2023-05-07T07:50:49Z</time>
      </trkpt>
      <trkpt lat="44.69316" lon="3.21347">
        <ele>1177.8000488281</ele>
        <time>2023-05-07T07:50:56Z</time>
      </trkpt>
      <trkpt lat="44.69296" lon="3.21341">
        <ele>1174.1999511719</ele>
        <time>2023-05-07T07:51:03Z</time>
      </trkpt>
      <trkpt lat="44.69277" lon="3.21334">
        <ele>1170.8000488281</ele>
        <time>2023-05-07T07:51:10Z</time>
      </trkpt>
      <trkpt lat="44.69265" lon="3.21323">
        <ele>1169.1999511719</ele>
        <time>2023-05-07T07:51:16Z</time>
      </trkpt>
      <trkpt lat="44.69251" lon="3.21312">
        <ele>1167.8000488281</ele>
        <time>2023-05-07T07:51:22Z</time>
      </trkpt>
      <trkpt lat="44.69237" lon="3.21304">
        <ele>1165.8000488281</ele>
        <time>2023-05-07T07:51:28Z</time>
      </trkpt>
      <trkpt lat="44.6922" lon="3.21294">
        <ele>1163.8000488281</ele>
        <time>2023-05-07T07:51:34Z</time>
      </trkpt>
      <trkpt lat="44.69202" lon="3.21286">
        <ele>1162.5999755859</ele>
        <time>2023-05-07T07:51:39Z</time>
      </trkpt>
      <trkpt lat="44.6919" lon="3.2128">
        <ele>1161.5999755859</ele>
        <time>2023-05-07T07:51:42Z</time>
      </trkpt>
      <trkpt lat="44.69178" lon="3.21277">
        <ele>1160.5999755859</ele>
        <time>2023-05-07T07:51:45Z</time>
      </trkpt>
      <trkpt lat="44.69153" lon="3.2127">
        <ele>1158.5999755859</ele>
        <time>2023-05-07T07:51:51Z</time>
      </trkpt>
      <trkpt lat="44.6913" lon="3.21263">
        <ele>1157.8000488281</ele>
        <time>2023-05-07T07:51:57Z</time>
      </trkpt>
      <trkpt lat="44.69098" lon="3.21253">
        <ele>1156.8000488281</ele>
        <time>2023-05-07T07:52:04Z</time>
      </trkpt>
      <trkpt lat="44.69093" lon="3.21252">
        <ele>1156.5999755859</ele>
        <time>2023-05-07T07:52:05Z</time>
      </trkpt>
      <trkpt lat="44.69074" lon="3.21251">
        <ele>1156.1999511719</ele>
        <time>2023-05-07T07:52:08Z</time>
      </trkpt>
      <trkpt lat="44.69048" lon="3.21258">
        <ele>1155.4000244141</ele>
        <time>2023-05-07T07:52:12Z</time>
      </trkpt>
      <trkpt lat="44.69034" lon="3.21262">
        <ele>1155</ele>
        <time>2023-05-07T07:52:14Z</time>
      </trkpt>
      <trkpt lat="44.69" lon="3.21255">
        <ele>1157.4000244141</ele>
        <time>2023-05-07T07:52:19Z</time>
      </trkpt>
      <trkpt lat="44.6898" lon="3.21255">
        <ele>1158.1999511719</ele>
        <time>2023-05-07T07:52:22Z</time>
      </trkpt>
      <trkpt lat="44.68974" lon="3.21252">
        <ele>1158.5999755859</ele>
        <time>2023-05-07T07:52:23Z</time>
      </trkpt>
      <trkpt lat="44.68959" lon="3.21247">
        <ele>1160</ele>
        <time>2023-05-07T07:52:26Z</time>
      </trkpt>
      <trkpt lat="44.68941" lon="3.21251">
        <ele>1160.4000244141</ele>
        <time>2023-05-07T07:52:29Z</time>
      </trkpt>
      <trkpt lat="44.68918" lon="3.21257">
        <ele>1160.8000488281</ele>
        <time>2023-05-07T07:52:33Z</time>
      </trkpt>
      <trkpt lat="44.68912" lon="3.21257">
        <ele>1160.8000488281</ele>
        <time>2023-05-07T07:52:34Z</time>
      </trkpt>
      <trkpt lat="44.68894" lon="3.21255">
        <ele>1161.1999511719</ele>
        <time>2023-05-07T07:52:37Z</time>
      </trkpt>
      <trkpt lat="44.68884" lon="3.21253">
        <ele>1161.4000244141</ele>
        <time>2023-05-07T07:52:39Z</time>
      </trkpt>
      <trkpt lat="44.68876" lon="3.21251">
        <ele>1162</ele>
        <time>2023-05-07T07:52:41Z</time>
      </trkpt>
      <trkpt lat="44.68867" lon="3.21243">
        <ele>1162.8000488281</ele>
        <time>2023-05-07T07:52:44Z</time>
      </trkpt>
      <trkpt lat="44.68865" lon="3.21239">
        <ele>1162.8000488281</ele>
        <time>2023-05-07T07:52:45Z</time>
      </trkpt>
      <trkpt lat="44.68865" lon="3.2123">
        <ele>1163</ele>
        <time>2023-05-07T07:52:47Z</time>
      </trkpt>
      <trkpt lat="44.68867" lon="3.21222">
        <ele>1163.4000244141</ele>
        <time>2023-05-07T07:52:49Z</time>
      </trkpt>
      <trkpt lat="44.68879" lon="3.21203">
        <ele>1164.4000244141</ele>
        <time>2023-05-07T07:52:54Z</time>
      </trkpt>
      <trkpt lat="44.68887" lon="3.21184">
        <ele>1165.5999755859</ele>
        <time>2023-05-07T07:52:59Z</time>
      </trkpt>
      <trkpt lat="44.68903" lon="3.21161">
        <ele>1167.1999511719</ele>
        <time>2023-05-07T07:53:06Z</time>
      </trkpt>
      <trkpt lat="44.68919" lon="3.21138">
        <ele>1168.4000244141</ele>
        <time>2023-05-07T07:53:14Z</time>
      </trkpt>
      <trkpt lat="44.6892" lon="3.21134">
        <ele>1168.4000244141</ele>
        <time>2023-05-07T07:53:15Z</time>
      </trkpt>
      <trkpt lat="44.68919" lon="3.21125">
        <ele>1168.5999755859</ele>
        <time>2023-05-07T07:53:17Z</time>
      </trkpt>
      <trkpt lat="44.68916" lon="3.21108">
        <ele>1169.8000488281</ele>
        <time>2023-05-07T07:53:22Z</time>
      </trkpt>
      <trkpt lat="44.68915" lon="3.21102">
        <ele>1170</ele>
        <time>2023-05-07T07:53:24Z</time>
      </trkpt>
      <trkpt lat="44.68916" lon="3.21094">
        <ele>1170</ele>
        <time>2023-05-07T07:53:27Z</time>
      </trkpt>
      <trkpt lat="44.68918" lon="3.2108">
        <ele>1170</ele>
        <time>2023-05-07T07:53:31Z</time>
      </trkpt>
      <trkpt lat="44.68918" lon="3.21077">
        <ele>1170</ele>
        <time>2023-05-07T07:53:32Z</time>
      </trkpt>
      <trkpt lat="44.68917" lon="3.21066">
        <ele>1170</ele>
        <time>2023-05-07T07:53:35Z</time>
      </trkpt>
      <trkpt lat="44.68917" lon="3.21061">
        <ele>1170</ele>
        <time>2023-05-07T07:53:36Z</time>
      </trkpt>
      <trkpt lat="44.68915" lon="3.21052">
        <ele>1170</ele>
        <time>2023-05-07T07:53:39Z</time>
      </trkpt>
      <trkpt lat="44.68913" lon="3.21044">
        <ele>1170</ele>
        <time>2023-05-07T07:53:43Z</time>
      </trkpt>
      <trkpt lat="44.68912" lon="3.21033">
        <ele>1169.8000488281</ele>
        <time>2023-05-07T07:53:48Z</time>
      </trkpt>
      <trkpt lat="44.68911" lon="3.2103">
        <ele>1169.4000244141</ele>
        <time>2023-05-07T07:53:52Z</time>
      </trkpt>
      <trkpt lat="44.68911" lon="3.2103">
        <ele>1169.4000244141</ele>
        <time>2023-05-07T07:54:05Z</time>
      </trkpt>
      <trkpt lat="44.68911" lon="3.21028">
        <ele>1169</ele>
        <time>2023-05-07T07:54:15Z</time>
      </trkpt>
      <trkpt lat="44.68912" lon="3.21023">
        <ele>1168.4000244141</ele>
        <time>2023-05-07T07:54:17Z</time>
      </trkpt>
      <trkpt lat="44.68914" lon="3.21015">
        <ele>1168.4000244141</ele>
        <time>2023-05-07T07:54:20Z</time>
      </trkpt>
      <trkpt lat="44.68915" lon="3.20999">
        <ele>1168.8000488281</ele>
        <time>2023-05-07T07:54:24Z</time>
      </trkpt>
      <trkpt lat="44.68915" lon="3.20993">
        <ele>1169</ele>
        <time>2023-05-07T07:54:25Z</time>
      </trkpt>
      <trkpt lat="44.68911" lon="3.20967">
        <ele>1168.8000488281</ele>
        <time>2023-05-07T07:54:31Z</time>
      </trkpt>
      <trkpt lat="44.68913" lon="3.20959">
        <ele>1169</ele>
        <time>2023-05-07T07:54:34Z</time>
      </trkpt>
      <trkpt lat="44.68913" lon="3.20939">
        <ele>1169.5999755859</ele>
        <time>2023-05-07T07:54:38Z</time>
      </trkpt>
      <trkpt lat="44.68914" lon="3.20929">
        <ele>1170</ele>
        <time>2023-05-07T07:54:41Z</time>
      </trkpt>
      <trkpt lat="44.68914" lon="3.20917">
        <ele>1170</ele>
        <time>2023-05-07T07:54:43Z</time>
      </trkpt>
      <trkpt lat="44.68914" lon="3.20885">
        <ele>1171.1999511719</ele>
        <time>2023-05-07T07:54:49Z</time>
      </trkpt>
      <trkpt lat="44.68914" lon="3.20848">
        <ele>1173.4000244141</ele>
        <time>2023-05-07T07:54:56Z</time>
      </trkpt>
      <trkpt lat="44.68914" lon="3.2081">
        <ele>1175.5999755859</ele>
        <time>2023-05-07T07:55:04Z</time>
      </trkpt>
      <trkpt lat="44.68909" lon="3.20772">
        <ele>1178.4000244141</ele>
        <time>2023-05-07T07:55:11Z</time>
      </trkpt>
      <trkpt lat="44.68899" lon="3.20745">
        <ele>1180.1999511719</ele>
        <time>2023-05-07T07:55:18Z</time>
      </trkpt>
      <trkpt lat="44.6889" lon="3.20727">
        <ele>1181.4000244141</ele>
        <time>2023-05-07T07:55:23Z</time>
      </trkpt>
      <trkpt lat="44.68879" lon="3.20712">
        <ele>1182.8000488281</ele>
        <time>2023-05-07T07:55:28Z</time>
      </trkpt>
      <trkpt lat="44.68868" lon="3.20699">
        <ele>1183.8000488281</ele>
        <time>2023-05-07T07:55:33Z</time>
      </trkpt>
      <trkpt lat="44.68858" lon="3.20684">
        <ele>1184.8000488281</ele>
        <time>2023-05-07T07:55:38Z</time>
      </trkpt>
      <trkpt lat="44.6885" lon="3.20671">
        <ele>1185.4000244141</ele>
        <time>2023-05-07T07:55:42Z</time>
      </trkpt>
      <trkpt lat="44.68838" lon="3.20654">
        <ele>1185.8000488281</ele>
        <time>2023-05-07T07:55:48Z</time>
      </trkpt>
      <trkpt lat="44.68822" lon="3.20638">
        <ele>1185.8000488281</ele>
        <time>2023-05-07T07:55:54Z</time>
      </trkpt>
      <trkpt lat="44.68809" lon="3.20623">
        <ele>1186.4000244141</ele>
        <time>2023-05-07T07:55:59Z</time>
      </trkpt>
      <trkpt lat="44.68791" lon="3.20607">
        <ele>1187.1999511719</ele>
        <time>2023-05-07T07:56:05Z</time>
      </trkpt>
      <trkpt lat="44.68775" lon="3.20595">
        <ele>1187</ele>
        <time>2023-05-07T07:56:09Z</time>
      </trkpt>
      <trkpt lat="44.68746" lon="3.2058">
        <ele>1186.4000244141</ele>
        <time>2023-05-07T07:56:15Z</time>
      </trkpt>
      <trkpt lat="44.68731" lon="3.2057">
        <ele>1186</ele>
        <time>2023-05-07T07:56:18Z</time>
      </trkpt>
      <trkpt lat="44.68721" lon="3.20564">
        <ele>1185.8000488281</ele>
        <time>2023-05-07T07:56:20Z</time>
      </trkpt>
      <trkpt lat="44.68707" lon="3.20554">
        <ele>1185.5999755859</ele>
        <time>2023-05-07T07:56:23Z</time>
      </trkpt>
      <trkpt lat="44.68703" lon="3.2055">
        <ele>1185.5999755859</ele>
        <time>2023-05-07T07:56:24Z</time>
      </trkpt>
      <trkpt lat="44.68699" lon="3.20546">
        <ele>1185.4000244141</ele>
        <time>2023-05-07T07:56:25Z</time>
      </trkpt>
      <trkpt lat="44.68691" lon="3.20536">
        <ele>1185.1999511719</ele>
        <time>2023-05-07T07:56:27Z</time>
      </trkpt>
      <trkpt lat="44.68682" lon="3.20528">
        <ele>1184.8000488281</ele>
        <time>2023-05-07T07:56:29Z</time>
      </trkpt>
      <trkpt lat="44.68668" lon="3.20515">
        <ele>1184.1999511719</ele>
        <time>2023-05-07T07:56:32Z</time>
      </trkpt>
      <trkpt lat="44.68659" lon="3.20509">
        <ele>1183.8000488281</ele>
        <time>2023-05-07T07:56:34Z</time>
      </trkpt>
      <trkpt lat="44.68649" lon="3.20504">
        <ele>1183.4000244141</ele>
        <time>2023-05-07T07:56:36Z</time>
      </trkpt>
      <trkpt lat="44.6864" lon="3.20496">
        <ele>1183.1999511719</ele>
        <time>2023-05-07T07:56:38Z</time>
      </trkpt>
      <trkpt lat="44.68625" lon="3.20484">
        <ele>1182.5999755859</ele>
        <time>2023-05-07T07:56:41Z</time>
      </trkpt>
      <trkpt lat="44.68611" lon="3.20474">
        <ele>1182.4000244141</ele>
        <time>2023-05-07T07:56:44Z</time>
      </trkpt>
      <trkpt lat="44.68596" lon="3.20464">
        <ele>1182</ele>
        <time>2023-05-07T07:56:47Z</time>
      </trkpt>
      <trkpt lat="44.68579" lon="3.2045">
        <ele>1181.8000488281</ele>
        <time>2023-05-07T07:56:51Z</time>
      </trkpt>
      <trkpt lat="44.68571" lon="3.20443">
        <ele>1182</ele>
        <time>2023-05-07T07:56:53Z</time>
      </trkpt>
      <trkpt lat="44.68559" lon="3.20417">
        <ele>1183</ele>
        <time>2023-05-07T07:56:57Z</time>
      </trkpt>
      <trkpt lat="44.68556" lon="3.20411">
        <ele>1183</ele>
        <time>2023-05-07T07:56:58Z</time>
      </trkpt>
      <trkpt lat="44.68554" lon="3.20404">
        <ele>1183.1999511719</ele>
        <time>2023-05-07T07:56:59Z</time>
      </trkpt>
      <trkpt lat="44.68551" lon="3.20391">
        <ele>1183.4000244141</ele>
        <time>2023-05-07T07:57:01Z</time>
      </trkpt>
      <trkpt lat="44.68548" lon="3.20377">
        <ele>1183.5999755859</ele>
        <time>2023-05-07T07:57:03Z</time>
      </trkpt>
      <trkpt lat="44.68546" lon="3.2037">
        <ele>1183.5999755859</ele>
        <time>2023-05-07T07:57:04Z</time>
      </trkpt>
      <trkpt lat="44.68541" lon="3.20352">
        <ele>1183.8000488281</ele>
        <time>2023-05-07T07:57:07Z</time>
      </trkpt>
      <trkpt lat="44.6854" lon="3.20346">
        <ele>1184</ele>
        <time>2023-05-07T07:57:08Z</time>
      </trkpt>
      <trkpt lat="44.68537" lon="3.20333">
        <ele>1184</ele>
        <time>2023-05-07T07:57:10Z</time>
      </trkpt>
      <trkpt lat="44.68532" lon="3.20322">
        <ele>1184</ele>
        <time>2023-05-07T07:57:12Z</time>
      </trkpt>
      <trkpt lat="44.68527" lon="3.20312">
        <ele>1184.1999511719</ele>
        <time>2023-05-07T07:57:14Z</time>
      </trkpt>
      <trkpt lat="44.68521" lon="3.20302">
        <ele>1184.1999511719</ele>
        <time>2023-05-07T07:57:16Z</time>
      </trkpt>
      <trkpt lat="44.68496" lon="3.20255">
        <ele>1185.8000488281</ele>
        <time>2023-05-07T07:57:25Z</time>
      </trkpt>
      <trkpt lat="44.68483" lon="3.20232">
        <ele>1186.1999511719</ele>
        <time>2023-05-07T07:57:30Z</time>
      </trkpt>
      <trkpt lat="44.6848" lon="3.20227">
        <ele>1186.4000244141</ele>
        <time>2023-05-07T07:57:31Z</time>
      </trkpt>
      <trkpt lat="44.68475" lon="3.20218">
        <ele>1186.4000244141</ele>
        <time>2023-05-07T07:57:33Z</time>
      </trkpt>
      <trkpt lat="44.6847" lon="3.20208">
        <ele>1186.5999755859</ele>
        <time>2023-05-07T07:57:35Z</time>
      </trkpt>
      <trkpt lat="44.68451" lon="3.20172">
        <ele>1187.4000244141</ele>
        <time>2023-05-07T07:57:42Z</time>
      </trkpt>
      <trkpt lat="44.68443" lon="3.20157">
        <ele>1187.5999755859</ele>
        <time>2023-05-07T07:57:45Z</time>
      </trkpt>
      <trkpt lat="44.68438" lon="3.20146">
        <ele>1187.8000488281</ele>
        <time>2023-05-07T07:57:47Z</time>
      </trkpt>
      <trkpt lat="44.68435" lon="3.20141">
        <ele>1188</ele>
        <time>2023-05-07T07:57:48Z</time>
      </trkpt>
      <trkpt lat="44.68432" lon="3.20136">
        <ele>1188</ele>
        <time>2023-05-07T07:57:49Z</time>
      </trkpt>
      <trkpt lat="44.68423" lon="3.20115">
        <ele>1188.4000244141</ele>
        <time>2023-05-07T07:57:53Z</time>
      </trkpt>
      <trkpt lat="44.68408" lon="3.20095">
        <ele>1189.1999511719</ele>
        <time>2023-05-07T07:57:58Z</time>
      </trkpt>
      <trkpt lat="44.68403" lon="3.20086">
        <ele>1189.5999755859</ele>
        <time>2023-05-07T07:58:00Z</time>
      </trkpt>
      <trkpt lat="44.68396" lon="3.20071">
        <ele>1190</ele>
        <time>2023-05-07T07:58:03Z</time>
      </trkpt>
      <trkpt lat="44.68386" lon="3.20049">
        <ele>1190.8000488281</ele>
        <time>2023-05-07T07:58:07Z</time>
      </trkpt>
      <trkpt lat="44.68382" lon="3.2004">
        <ele>1191</ele>
        <time>2023-05-07T07:58:09Z</time>
      </trkpt>
      <trkpt lat="44.68372" lon="3.2002">
        <ele>1191.8000488281</ele>
        <time>2023-05-07T07:58:13Z</time>
      </trkpt>
      <trkpt lat="44.6836" lon="3.20002">
        <ele>1192.4000244141</ele>
        <time>2023-05-07T07:58:18Z</time>
      </trkpt>
      <trkpt lat="44.68346" lon="3.19979">
        <ele>1193.8000488281</ele>
        <time>2023-05-07T07:58:24Z</time>
      </trkpt>
      <trkpt lat="44.68326" lon="3.19955">
        <ele>1195.5999755859</ele>
        <time>2023-05-07T07:58:32Z</time>
      </trkpt>
      <trkpt lat="44.68302" lon="3.19939">
        <ele>1197.4000244141</ele>
        <time>2023-05-07T07:58:39Z</time>
      </trkpt>
      <trkpt lat="44.6828" lon="3.19926">
        <ele>1198.1999511719</ele>
        <time>2023-05-07T07:58:45Z</time>
      </trkpt>
      <trkpt lat="44.68276" lon="3.19924">
        <ele>1198.1999511719</ele>
        <time>2023-05-07T07:58:46Z</time>
      </trkpt>
      <trkpt lat="44.68268" lon="3.1992">
        <ele>1198.1999511719</ele>
        <time>2023-05-07T07:58:48Z</time>
      </trkpt>
      <trkpt lat="44.68256" lon="3.19915">
        <ele>1198</ele>
        <time>2023-05-07T07:58:51Z</time>
      </trkpt>
      <trkpt lat="44.68236" lon="3.19908">
        <ele>1197.8000488281</ele>
        <time>2023-05-07T07:58:56Z</time>
      </trkpt>
      <trkpt lat="44.68209" lon="3.19905">
        <ele>1197.4000244141</ele>
        <time>2023-05-07T07:59:04Z</time>
      </trkpt>
      <trkpt lat="44.68199" lon="3.19904">
        <ele>1197</ele>
        <time>2023-05-07T07:59:07Z</time>
      </trkpt>
      <trkpt lat="44.68186" lon="3.19901">
        <ele>1196.5999755859</ele>
        <time>2023-05-07T07:59:11Z</time>
      </trkpt>
      <trkpt lat="44.68159" lon="3.19893">
        <ele>1195.8000488281</ele>
        <time>2023-05-07T07:59:19Z</time>
      </trkpt>
      <trkpt lat="44.68129" lon="3.19885">
        <ele>1195.1999511719</ele>
        <time>2023-05-07T07:59:28Z</time>
      </trkpt>
      <trkpt lat="44.68094" lon="3.19874">
        <ele>1195</ele>
        <time>2023-05-07T07:59:39Z</time>
      </trkpt>
      <trkpt lat="44.68069" lon="3.19853">
        <ele>1198</ele>
        <time>2023-05-07T07:59:48Z</time>
      </trkpt>
      <trkpt lat="44.68044" lon="3.19836">
        <ele>1199.8000488281</ele>
        <time>2023-05-07T07:59:56Z</time>
      </trkpt>
      <trkpt lat="44.68019" lon="3.19831">
        <ele>1200.8000488281</ele>
        <time>2023-05-07T08:00:03Z</time>
      </trkpt>
      <trkpt lat="44.68" lon="3.19829">
        <ele>1201.4000244141</ele>
        <time>2023-05-07T08:00:07Z</time>
      </trkpt>
      <trkpt lat="44.67995" lon="3.19827">
        <ele>1201.4000244141</ele>
        <time>2023-05-07T08:00:08Z</time>
      </trkpt>
      <trkpt lat="44.67985" lon="3.19825">
        <ele>1201.5999755859</ele>
        <time>2023-05-07T08:00:10Z</time>
      </trkpt>
      <trkpt lat="44.67971" lon="3.19826">
        <ele>1201.5999755859</ele>
        <time>2023-05-07T08:00:12Z</time>
      </trkpt>
      <trkpt lat="44.67964" lon="3.19825">
        <ele>1201.5999755859</ele>
        <time>2023-05-07T08:00:13Z</time>
      </trkpt>
      <trkpt lat="44.67949" lon="3.19819">
        <ele>1201.8000488281</ele>
        <time>2023-05-07T08:00:15Z</time>
      </trkpt>
      <trkpt lat="44.67936" lon="3.19807">
        <ele>1201.8000488281</ele>
        <time>2023-05-07T08:00:17Z</time>
      </trkpt>
      <trkpt lat="44.67924" lon="3.19794">
        <ele>1202</ele>
        <time>2023-05-07T08:00:19Z</time>
      </trkpt>
      <trkpt lat="44.67892" lon="3.19753">
        <ele>1202.5999755859</ele>
        <time>2023-05-07T08:00:25Z</time>
      </trkpt>
      <trkpt lat="44.67887" lon="3.19748">
        <ele>1202.5999755859</ele>
        <time>2023-05-07T08:00:26Z</time>
      </trkpt>
      <trkpt lat="44.67875" lon="3.19744">
        <ele>1202.8000488281</ele>
        <time>2023-05-07T08:00:28Z</time>
      </trkpt>
      <trkpt lat="44.67834" lon="3.19742">
        <ele>1203.4000244141</ele>
        <time>2023-05-07T08:00:35Z</time>
      </trkpt>
      <trkpt lat="44.67798" lon="3.19736">
        <ele>1203.5999755859</ele>
        <time>2023-05-07T08:00:41Z</time>
      </trkpt>
      <trkpt lat="44.67767" lon="3.19731">
        <ele>1203.5999755859</ele>
        <time>2023-05-07T08:00:46Z</time>
      </trkpt>
      <trkpt lat="44.67761" lon="3.19732">
        <ele>1203.4000244141</ele>
        <time>2023-05-07T08:00:47Z</time>
      </trkpt>
      <trkpt lat="44.67748" lon="3.19737">
        <ele>1203.4000244141</ele>
        <time>2023-05-07T08:00:49Z</time>
      </trkpt>
      <trkpt lat="44.67735" lon="3.19745">
        <ele>1203.1999511719</ele>
        <time>2023-05-07T08:00:51Z</time>
      </trkpt>
      <trkpt lat="44.67708" lon="3.19762">
        <ele>1203.4000244141</ele>
        <time>2023-05-07T08:00:55Z</time>
      </trkpt>
      <trkpt lat="44.67701" lon="3.19764">
        <ele>1203.4000244141</ele>
        <time>2023-05-07T08:00:56Z</time>
      </trkpt>
      <trkpt lat="44.67663" lon="3.19766">
        <ele>1203.1999511719</ele>
        <time>2023-05-07T08:01:01Z</time>
      </trkpt>
      <trkpt lat="44.67632" lon="3.19767">
        <ele>1203</ele>
        <time>2023-05-07T08:01:05Z</time>
      </trkpt>
      <trkpt lat="44.67573" lon="3.19775">
        <ele>1202.4000244141</ele>
        <time>2023-05-07T08:01:13Z</time>
      </trkpt>
      <trkpt lat="44.67549" lon="3.19783">
        <ele>1202.1999511719</ele>
        <time>2023-05-07T08:01:16Z</time>
      </trkpt>
      <trkpt lat="44.67542" lon="3.19787">
        <ele>1202</ele>
        <time>2023-05-07T08:01:17Z</time>
      </trkpt>
      <trkpt lat="44.67522" lon="3.19797">
        <ele>1201.8000488281</ele>
        <time>2023-05-07T08:01:20Z</time>
      </trkpt>
      <trkpt lat="44.67515" lon="3.19799">
        <ele>1201.5999755859</ele>
        <time>2023-05-07T08:01:21Z</time>
      </trkpt>
      <trkpt lat="44.67495" lon="3.198">
        <ele>1200.8000488281</ele>
        <time>2023-05-07T08:01:24Z</time>
      </trkpt>
      <trkpt lat="44.67487" lon="3.19798">
        <ele>1200.5999755859</ele>
        <time>2023-05-07T08:01:25Z</time>
      </trkpt>
      <trkpt lat="44.67458" lon="3.19788">
        <ele>1199.5999755859</ele>
        <time>2023-05-07T08:01:29Z</time>
      </trkpt>
      <trkpt lat="44.67452" lon="3.19783">
        <ele>1199.1999511719</ele>
        <time>2023-05-07T08:01:30Z</time>
      </trkpt>
      <trkpt lat="44.67435" lon="3.19765">
        <ele>1198.4000244141</ele>
        <time>2023-05-07T08:01:33Z</time>
      </trkpt>
      <trkpt lat="44.67431" lon="3.19764">
        <ele>1198.1999511719</ele>
        <time>2023-05-07T08:01:34Z</time>
      </trkpt>
      <trkpt lat="44.67427" lon="3.19765">
        <ele>1197.8000488281</ele>
        <time>2023-05-07T08:01:35Z</time>
      </trkpt>
      <trkpt lat="44.67418" lon="3.19773">
        <ele>1197.1999511719</ele>
        <time>2023-05-07T08:01:37Z</time>
      </trkpt>
      <trkpt lat="44.67406" lon="3.19785">
        <ele>1196.1999511719</ele>
        <time>2023-05-07T08:01:40Z</time>
      </trkpt>
      <trkpt lat="44.674" lon="3.19787">
        <ele>1195.8000488281</ele>
        <time>2023-05-07T08:01:41Z</time>
      </trkpt>
      <trkpt lat="44.6738" lon="3.19792">
        <ele>1194.8000488281</ele>
        <time>2023-05-07T08:01:44Z</time>
      </trkpt>
      <trkpt lat="44.67372" lon="3.19792">
        <ele>1194.5999755859</ele>
        <time>2023-05-07T08:01:45Z</time>
      </trkpt>
      <trkpt lat="44.67334" lon="3.19794">
        <ele>1193.1999511719</ele>
        <time>2023-05-07T08:01:49Z</time>
      </trkpt>
      <trkpt lat="44.67324" lon="3.19797">
        <ele>1192.8000488281</ele>
        <time>2023-05-07T08:01:50Z</time>
      </trkpt>
      <trkpt lat="44.67286" lon="3.19811">
        <ele>1190.8000488281</ele>
        <time>2023-05-07T08:01:54Z</time>
      </trkpt>
      <trkpt lat="44.67272" lon="3.19808">
        <ele>1190</ele>
        <time>2023-05-07T08:01:56Z</time>
      </trkpt>
      <trkpt lat="44.67265" lon="3.19803">
        <ele>1189.5999755859</ele>
        <time>2023-05-07T08:01:57Z</time>
      </trkpt>
      <trkpt lat="44.67245" lon="3.1978">
        <ele>1188</ele>
        <time>2023-05-07T08:02:00Z</time>
      </trkpt>
      <trkpt lat="44.67237" lon="3.19774">
        <ele>1187.5999755859</ele>
        <time>2023-05-07T08:02:01Z</time>
      </trkpt>
      <trkpt lat="44.67229" lon="3.1977">
        <ele>1187</ele>
        <time>2023-05-07T08:02:02Z</time>
      </trkpt>
      <trkpt lat="44.67202" lon="3.19764">
        <ele>1185.1999511719</ele>
        <time>2023-05-07T08:02:05Z</time>
      </trkpt>
      <trkpt lat="44.67167" lon="3.19751">
        <ele>1182.5999755859</ele>
        <time>2023-05-07T08:02:09Z</time>
      </trkpt>
      <trkpt lat="44.67136" lon="3.19735">
        <ele>1180.5999755859</ele>
        <time>2023-05-07T08:02:13Z</time>
      </trkpt>
      <trkpt lat="44.67121" lon="3.19736">
        <ele>1179.4000244141</ele>
        <time>2023-05-07T08:02:15Z</time>
      </trkpt>
      <trkpt lat="44.67113" lon="3.1974">
        <ele>1178.8000488281</ele>
        <time>2023-05-07T08:02:16Z</time>
      </trkpt>
      <trkpt lat="44.67095" lon="3.19745">
        <ele>1177.4000244141</ele>
        <time>2023-05-07T08:02:18Z</time>
      </trkpt>
      <trkpt lat="44.67084" lon="3.19747">
        <ele>1176.8000488281</ele>
        <time>2023-05-07T08:02:19Z</time>
      </trkpt>
      <trkpt lat="44.67053" lon="3.1975">
        <ele>1175.1999511719</ele>
        <time>2023-05-07T08:02:22Z</time>
      </trkpt>
      <trkpt lat="44.67044" lon="3.19754">
        <ele>1174.4000244141</ele>
        <time>2023-05-07T08:02:23Z</time>
      </trkpt>
      <trkpt lat="44.67038" lon="3.1976">
        <ele>1173.8000488281</ele>
        <time>2023-05-07T08:02:24Z</time>
      </trkpt>
      <trkpt lat="44.67032" lon="3.19768">
        <ele>1173.1999511719</ele>
        <time>2023-05-07T08:02:25Z</time>
      </trkpt>
      <trkpt lat="44.67011" lon="3.19817">
        <ele>1170.8000488281</ele>
        <time>2023-05-07T08:02:30Z</time>
      </trkpt>
      <trkpt lat="44.66996" lon="3.19829">
        <ele>1169.8000488281</ele>
        <time>2023-05-07T08:02:32Z</time>
      </trkpt>
      <trkpt lat="44.66967" lon="3.19832">
        <ele>1168.1999511719</ele>
        <time>2023-05-07T08:02:35Z</time>
      </trkpt>
      <trkpt lat="44.66954" lon="3.19846">
        <ele>1167</ele>
        <time>2023-05-07T08:02:37Z</time>
      </trkpt>
      <trkpt lat="44.66924" lon="3.19903">
        <ele>1163.5999755859</ele>
        <time>2023-05-07T08:02:43Z</time>
      </trkpt>
      <trkpt lat="44.66889" lon="3.1995">
        <ele>1160.8000488281</ele>
        <time>2023-05-07T08:02:49Z</time>
      </trkpt>
      <trkpt lat="44.66842" lon="3.19997">
        <ele>1157.8000488281</ele>
        <time>2023-05-07T08:02:56Z</time>
      </trkpt>
      <trkpt lat="44.66801" lon="3.20021">
        <ele>1155.5999755859</ele>
        <time>2023-05-07T08:03:01Z</time>
      </trkpt>
      <trkpt lat="44.66767" lon="3.20035">
        <ele>1154</ele>
        <time>2023-05-07T08:03:05Z</time>
      </trkpt>
      <trkpt lat="44.66759" lon="3.2004">
        <ele>1153.5999755859</ele>
        <time>2023-05-07T08:03:06Z</time>
      </trkpt>
      <trkpt lat="44.66723" lon="3.20075">
        <ele>1151.4000244141</ele>
        <time>2023-05-07T08:03:11Z</time>
      </trkpt>
      <trkpt lat="44.66678" lon="3.20129">
        <ele>1148.1999511719</ele>
        <time>2023-05-07T08:03:18Z</time>
      </trkpt>
      <trkpt lat="44.6665" lon="3.2018">
        <ele>1145.4000244141</ele>
        <time>2023-05-07T08:03:24Z</time>
      </trkpt>
      <trkpt lat="44.66644" lon="3.20214">
        <ele>1144</ele>
        <time>2023-05-07T08:03:27Z</time>
      </trkpt>
      <trkpt lat="44.66641" lon="3.2023">
        <ele>1143.4000244141</ele>
        <time>2023-05-07T08:03:29Z</time>
      </trkpt>
      <trkpt lat="44.66638" lon="3.20236">
        <ele>1142.8000488281</ele>
        <time>2023-05-07T08:03:30Z</time>
      </trkpt>
      <trkpt lat="44.66635" lon="3.2024">
        <ele>1142.5999755859</ele>
        <time>2023-05-07T08:03:31Z</time>
      </trkpt>
      <trkpt lat="44.66626" lon="3.20241">
        <ele>1141.8000488281</ele>
        <time>2023-05-07T08:03:33Z</time>
      </trkpt>
      <trkpt lat="44.66601" lon="3.20245">
        <ele>1139.8000488281</ele>
        <time>2023-05-07T08:03:38Z</time>
      </trkpt>
      <trkpt lat="44.66575" lon="3.20265">
        <ele>1137.5999755859</ele>
        <time>2023-05-07T08:03:44Z</time>
      </trkpt>
      <trkpt lat="44.66549" lon="3.20288">
        <ele>1135.4000244141</ele>
        <time>2023-05-07T08:03:50Z</time>
      </trkpt>
      <trkpt lat="44.66535" lon="3.20295">
        <ele>1134.4000244141</ele>
        <time>2023-05-07T08:03:53Z</time>
      </trkpt>
      <trkpt lat="44.66525" lon="3.20299">
        <ele>1134</ele>
        <time>2023-05-07T08:03:55Z</time>
      </trkpt>
      <trkpt lat="44.66498" lon="3.20313">
        <ele>1132.5999755859</ele>
        <time>2023-05-07T08:04:01Z</time>
      </trkpt>
      <trkpt lat="44.66494" lon="3.20317">
        <ele>1132.4000244141</ele>
        <time>2023-05-07T08:04:02Z</time>
      </trkpt>
      <trkpt lat="44.66479" lon="3.20336">
        <ele>1131.1999511719</ele>
        <time>2023-05-07T08:04:06Z</time>
      </trkpt>
      <trkpt lat="44.66462" lon="3.20366">
        <ele>1129.8000488281</ele>
        <time>2023-05-07T08:04:12Z</time>
      </trkpt>
      <trkpt lat="44.66449" lon="3.20381">
        <ele>1129.4000244141</ele>
        <time>2023-05-07T08:04:16Z</time>
      </trkpt>
      <trkpt lat="44.66428" lon="3.20386">
        <ele>1128.5999755859</ele>
        <time>2023-05-07T08:04:21Z</time>
      </trkpt>
      <trkpt lat="44.66403" lon="3.20393">
        <ele>1128</ele>
        <time>2023-05-07T08:04:27Z</time>
      </trkpt>
      <trkpt lat="44.66399" lon="3.20394">
        <ele>1128</ele>
        <time>2023-05-07T08:04:28Z</time>
      </trkpt>
      <trkpt lat="44.66367" lon="3.20403">
        <ele>1127</ele>
        <time>2023-05-07T08:04:35Z</time>
      </trkpt>
      <trkpt lat="44.66336" lon="3.20412">
        <ele>1126</ele>
        <time>2023-05-07T08:04:41Z</time>
      </trkpt>
      <trkpt lat="44.66302" lon="3.20433">
        <ele>1125</ele>
        <time>2023-05-07T08:04:47Z</time>
      </trkpt>
      <trkpt lat="44.66285" lon="3.2044">
        <ele>1124.4000244141</ele>
        <time>2023-05-07T08:04:50Z</time>
      </trkpt>
      <trkpt lat="44.66275" lon="3.20441">
        <ele>1123.8000488281</ele>
        <time>2023-05-07T08:04:52Z</time>
      </trkpt>
      <trkpt lat="44.66266" lon="3.2044">
        <ele>1123.4000244141</ele>
        <time>2023-05-07T08:04:54Z</time>
      </trkpt>
      <trkpt lat="44.66256" lon="3.20435">
        <ele>1123</ele>
        <time>2023-05-07T08:04:57Z</time>
      </trkpt>
      <trkpt lat="44.66254" lon="3.20432">
        <ele>1122.8000488281</ele>
        <time>2023-05-07T08:04:58Z</time>
      </trkpt>
      <trkpt lat="44.66256" lon="3.20423">
        <ele>1122.4000244141</ele>
        <time>2023-05-07T08:05:00Z</time>
      </trkpt>
      <trkpt lat="44.66258" lon="3.20418">
        <ele>1122.1999511719</ele>
        <time>2023-05-07T08:05:01Z</time>
      </trkpt>
      <trkpt lat="44.66264" lon="3.20398">
        <ele>1121.4000244141</ele>
        <time>2023-05-07T08:05:04Z</time>
      </trkpt>
      <trkpt lat="44.66267" lon="3.20382">
        <ele>1121</ele>
        <time>2023-05-07T08:05:06Z</time>
      </trkpt>
      <trkpt lat="44.66267" lon="3.20362">
        <ele>1120.4000244141</ele>
        <time>2023-05-07T08:05:08Z</time>
      </trkpt>
      <trkpt lat="44.66262" lon="3.2034">
        <ele>1120</ele>
        <time>2023-05-07T08:05:10Z</time>
      </trkpt>
      <trkpt lat="44.66257" lon="3.2033">
        <ele>1119.8000488281</ele>
        <time>2023-05-07T08:05:11Z</time>
      </trkpt>
      <trkpt lat="44.66232" lon="3.20285">
        <ele>1119</ele>
        <time>2023-05-07T08:05:16Z</time>
      </trkpt>
      <trkpt lat="44.6622" lon="3.20257">
        <ele>1118.8000488281</ele>
        <time>2023-05-07T08:05:20Z</time>
      </trkpt>
      <trkpt lat="44.66216" lon="3.20238">
        <ele>1118.5999755859</ele>
        <time>2023-05-07T08:05:24Z</time>
      </trkpt>
      <trkpt lat="44.66218" lon="3.20221">
        <ele>1118.5999755859</ele>
        <time>2023-05-07T08:05:30Z</time>
      </trkpt>
      <trkpt lat="44.66226" lon="3.20195">
        <ele>1118.1999511719</ele>
        <time>2023-05-07T08:05:40Z</time>
      </trkpt>
      <trkpt lat="44.66235" lon="3.20177">
        <ele>1117.5999755859</ele>
        <time>2023-05-07T08:05:48Z</time>
      </trkpt>
      <trkpt lat="44.66243" lon="3.20164">
        <ele>1117.5999755859</ele>
        <time>2023-05-07T08:05:56Z</time>
      </trkpt>
      <trkpt lat="44.66253" lon="3.20152">
        <ele>1118.4000244141</ele>
        <time>2023-05-07T08:06:05Z</time>
      </trkpt>
      <trkpt lat="44.66261" lon="3.20139">
        <ele>1119</ele>
        <time>2023-05-07T08:06:14Z</time>
      </trkpt>
      <trkpt lat="44.6627" lon="3.20126">
        <ele>1119.5999755859</ele>
        <time>2023-05-07T08:06:23Z</time>
      </trkpt>
      <trkpt lat="44.66277" lon="3.20116">
        <ele>1120.1999511719</ele>
        <time>2023-05-07T08:06:30Z</time>
      </trkpt>
      <trkpt lat="44.66287" lon="3.201">
        <ele>1121.5999755859</ele>
        <time>2023-05-07T08:06:39Z</time>
      </trkpt>
      <trkpt lat="44.66293" lon="3.20087">
        <ele>1122.1999511719</ele>
        <time>2023-05-07T08:06:47Z</time>
      </trkpt>
      <trkpt lat="44.66298" lon="3.20073">
        <ele>1123</ele>
        <time>2023-05-07T08:06:55Z</time>
      </trkpt>
      <trkpt lat="44.66302" lon="3.20054">
        <ele>1124.1999511719</ele>
        <time>2023-05-07T08:07:04Z</time>
      </trkpt>
      <trkpt lat="44.66304" lon="3.20028">
        <ele>1125.4000244141</ele>
        <time>2023-05-07T08:07:15Z</time>
      </trkpt>
      <trkpt lat="44.66302" lon="3.20006">
        <ele>1126.4000244141</ele>
        <time>2023-05-07T08:07:24Z</time>
      </trkpt>
      <trkpt lat="44.66294" lon="3.19985">
        <ele>1127.5999755859</ele>
        <time>2023-05-07T08:07:34Z</time>
      </trkpt>
      <trkpt lat="44.66287" lon="3.19964">
        <ele>1128.5999755859</ele>
        <time>2023-05-07T08:07:44Z</time>
      </trkpt>
      <trkpt lat="44.66279" lon="3.19945">
        <ele>1129.8000488281</ele>
        <time>2023-05-07T08:07:53Z</time>
      </trkpt>
      <trkpt lat="44.66272" lon="3.19928">
        <ele>1131</ele>
        <time>2023-05-07T08:08:01Z</time>
      </trkpt>
      <trkpt lat="44.66259" lon="3.19907">
        <ele>1132.5999755859</ele>
        <time>2023-05-07T08:08:12Z</time>
      </trkpt>
      <trkpt lat="44.66245" lon="3.19892">
        <ele>1134</ele>
        <time>2023-05-07T08:08:21Z</time>
      </trkpt>
      <trkpt lat="44.66235" lon="3.19881">
        <ele>1135</ele>
        <time>2023-05-07T08:08:27Z</time>
      </trkpt>
      <trkpt lat="44.66221" lon="3.19866">
        <ele>1136</ele>
        <time>2023-05-07T08:08:34Z</time>
      </trkpt>
      <trkpt lat="44.66197" lon="3.1984">
        <ele>1137.4000244141</ele>
        <time>2023-05-07T08:08:45Z</time>
      </trkpt>
      <trkpt lat="44.66188" lon="3.19814">
        <ele>1138.4000244141</ele>
        <time>2023-05-07T08:08:52Z</time>
      </trkpt>
      <trkpt lat="44.66188" lon="3.19784">
        <ele>1139.1999511719</ele>
        <time>2023-05-07T08:08:59Z</time>
      </trkpt>
      <trkpt lat="44.66189" lon="3.19748">
        <ele>1140</ele>
        <time>2023-05-07T08:09:06Z</time>
      </trkpt>
      <trkpt lat="44.6619" lon="3.19705">
        <ele>1140.8000488281</ele>
        <time>2023-05-07T08:09:14Z</time>
      </trkpt>
      <trkpt lat="44.66191" lon="3.19667">
        <ele>1141.4000244141</ele>
        <time>2023-05-07T08:09:21Z</time>
      </trkpt>
      <trkpt lat="44.66181" lon="3.19634">
        <ele>1142</ele>
        <time>2023-05-07T08:09:28Z</time>
      </trkpt>
      <trkpt lat="44.66166" lon="3.19603">
        <ele>1142.8000488281</ele>
        <time>2023-05-07T08:09:35Z</time>
      </trkpt>
      <trkpt lat="44.66157" lon="3.19582">
        <ele>1143.1999511719</ele>
        <time>2023-05-07T08:09:39Z</time>
      </trkpt>
      <trkpt lat="44.66151" lon="3.1957">
        <ele>1143.4000244141</ele>
        <time>2023-05-07T08:09:41Z</time>
      </trkpt>
      <trkpt lat="44.66129" lon="3.19532">
        <ele>1143.5999755859</ele>
        <time>2023-05-07T08:09:47Z</time>
      </trkpt>
      <trkpt lat="44.66103" lon="3.19486">
        <ele>1143.5999755859</ele>
        <time>2023-05-07T08:09:52Z</time>
      </trkpt>
      <trkpt lat="44.66091" lon="3.19469">
        <ele>1143.4000244141</ele>
        <time>2023-05-07T08:09:54Z</time>
      </trkpt>
      <trkpt lat="44.66075" lon="3.19457">
        <ele>1143.1999511719</ele>
        <time>2023-05-07T08:09:56Z</time>
      </trkpt>
      <trkpt lat="44.66059" lon="3.19452">
        <ele>1142.8000488281</ele>
        <time>2023-05-07T08:09:58Z</time>
      </trkpt>
      <trkpt lat="44.66043" lon="3.1945">
        <ele>1142.4000244141</ele>
        <time>2023-05-07T08:10:00Z</time>
      </trkpt>
      <trkpt lat="44.66029" lon="3.19446">
        <ele>1142</ele>
        <time>2023-05-07T08:10:02Z</time>
      </trkpt>
      <trkpt lat="44.66016" lon="3.19435">
        <ele>1141.4000244141</ele>
        <time>2023-05-07T08:10:04Z</time>
      </trkpt>
      <trkpt lat="44.66009" lon="3.19414">
        <ele>1140.8000488281</ele>
        <time>2023-05-07T08:10:06Z</time>
      </trkpt>
      <trkpt lat="44.66005" lon="3.19402">
        <ele>1140.4000244141</ele>
        <time>2023-05-07T08:10:07Z</time>
      </trkpt>
      <trkpt lat="44.65984" lon="3.19335">
        <ele>1138.5999755859</ele>
        <time>2023-05-07T08:10:12Z</time>
      </trkpt>
      <trkpt lat="44.6596" lon="3.1929">
        <ele>1137</ele>
        <time>2023-05-07T08:10:16Z</time>
      </trkpt>
      <trkpt lat="44.65944" lon="3.19266">
        <ele>1136</ele>
        <time>2023-05-07T08:10:19Z</time>
      </trkpt>
      <trkpt lat="44.65941" lon="3.1925">
        <ele>1135.4000244141</ele>
        <time>2023-05-07T08:10:21Z</time>
      </trkpt>
      <trkpt lat="44.65942" lon="3.19243">
        <ele>1135.1999511719</ele>
        <time>2023-05-07T08:10:22Z</time>
      </trkpt>
      <trkpt lat="44.65944" lon="3.19236">
        <ele>1135</ele>
        <time>2023-05-07T08:10:23Z</time>
      </trkpt>
      <trkpt lat="44.65952" lon="3.1922">
        <ele>1134</ele>
        <time>2023-05-07T08:10:26Z</time>
      </trkpt>
      <trkpt lat="44.65953" lon="3.19216">
        <ele>1133.8000488281</ele>
        <time>2023-05-07T08:10:27Z</time>
      </trkpt>
      <trkpt lat="44.65954" lon="3.19209">
        <ele>1133.1999511719</ele>
        <time>2023-05-07T08:10:29Z</time>
      </trkpt>
      <trkpt lat="44.65955" lon="3.19207">
        <ele>1133</ele>
        <time>2023-05-07T08:10:30Z</time>
      </trkpt>
      <trkpt lat="44.6596" lon="3.19201">
        <ele>1132.4000244141</ele>
        <time>2023-05-07T08:10:33Z</time>
      </trkpt>
      <trkpt lat="44.65967" lon="3.19189">
        <ele>1131.4000244141</ele>
        <time>2023-05-07T08:10:39Z</time>
      </trkpt>
      <trkpt lat="44.65968" lon="3.19184">
        <ele>1131</ele>
        <time>2023-05-07T08:10:41Z</time>
      </trkpt>
      <trkpt lat="44.65967" lon="3.19178">
        <ele>1130.5999755859</ele>
        <time>2023-05-07T08:10:43Z</time>
      </trkpt>
      <trkpt lat="44.65956" lon="3.19171">
        <ele>1130.4000244141</ele>
        <time>2023-05-07T08:10:48Z</time>
      </trkpt>
      <trkpt lat="44.65941" lon="3.19171">
        <ele>1130.4000244141</ele>
        <time>2023-05-07T08:10:55Z</time>
      </trkpt>
      <trkpt lat="44.65929" lon="3.19172">
        <ele>1130.1999511719</ele>
        <time>2023-05-07T08:11:02Z</time>
      </trkpt>
      <trkpt lat="44.6592" lon="3.19172">
        <ele>1130.1999511719</ele>
        <time>2023-05-07T08:11:08Z</time>
      </trkpt>
      <trkpt lat="44.65917" lon="3.19172">
        <ele>1130.1999511719</ele>
        <time>2023-05-07T08:11:10Z</time>
      </trkpt>
      <trkpt lat="44.65911" lon="3.19173">
        <ele>1130</ele>
        <time>2023-05-07T08:11:14Z</time>
      </trkpt>
      <trkpt lat="44.6591" lon="3.19173">
        <ele>1130</ele>
        <time>2023-05-07T08:11:15Z</time>
      </trkpt>
      <trkpt lat="44.65907" lon="3.19173">
        <ele>1129.8000488281</ele>
        <time>2023-05-07T08:11:19Z</time>
      </trkpt>
      <trkpt lat="44.65902" lon="3.19173">
        <ele>1130.4000244141</ele>
        <time>2023-05-07T08:11:25Z</time>
      </trkpt>
      <trkpt lat="44.65902" lon="3.19174">
        <ele>1130.1999511719</ele>
        <time>2023-05-07T08:11:32Z</time>
      </trkpt>
      <trkpt lat="44.659" lon="3.19174">
        <ele>1130.4000244141</ele>
        <time>2023-05-07T08:11:41Z</time>
      </trkpt>
      <trkpt lat="44.65899" lon="3.19174">
        <ele>1130.5999755859</ele>
        <time>2023-05-07T08:11:42Z</time>
      </trkpt>
      <trkpt lat="44.65893" lon="3.19173">
        <ele>1131</ele>
        <time>2023-05-07T08:11:47Z</time>
      </trkpt>
      <trkpt lat="44.65892" lon="3.19174">
        <ele>1131</ele>
        <time>2023-05-07T08:11:49Z</time>
      </trkpt>
      <trkpt lat="44.65892" lon="3.19174">
        <ele>1131</ele>
        <time>2023-05-07T08:11:53Z</time>
      </trkpt>
      <trkpt lat="44.65892" lon="3.19174">
        <ele>1131.1999511719</ele>
        <time>2023-05-07T08:12:02Z</time>
      </trkpt>
      <trkpt lat="44.65891" lon="3.19174">
        <ele>1131.5999755859</ele>
        <time>2023-05-07T08:12:10Z</time>
      </trkpt>
      <trkpt lat="44.65891" lon="3.19174">
        <ele>1131.8000488281</ele>
        <time>2023-05-07T08:12:22Z</time>
      </trkpt>
      <trkpt lat="44.65891" lon="3.19174">
        <ele>1132</ele>
        <time>2023-05-07T08:12:28Z</time>
      </trkpt>
      <trkpt lat="44.6589" lon="3.19174">
        <ele>1132.1999511719</ele>
        <time>2023-05-07T08:12:35Z</time>
      </trkpt>
      <trkpt lat="44.6589" lon="3.19174">
        <ele>1132.5999755859</ele>
        <time>2023-05-07T08:12:45Z</time>
      </trkpt>
      <trkpt lat="44.6589" lon="3.19174">
        <ele>1132.8000488281</ele>
        <time>2023-05-07T08:12:55Z</time>
      </trkpt>
      <trkpt lat="44.65887" lon="3.19174">
        <ele>1133.4000244141</ele>
        <time>2023-05-07T08:13:08Z</time>
      </trkpt>
      <trkpt lat="44.65887" lon="3.19174">
        <ele>1133.5999755859</ele>
        <time>2023-05-07T08:13:17Z</time>
      </trkpt>
      <trkpt lat="44.65887" lon="3.19174">
        <ele>1133.8000488281</ele>
        <time>2023-05-07T08:13:26Z</time>
      </trkpt>
      <trkpt lat="44.65886" lon="3.19175">
        <ele>1134</ele>
        <time>2023-05-07T08:13:34Z</time>
      </trkpt>
      <trkpt lat="44.65886" lon="3.19175">
        <ele>1134.1999511719</ele>
        <time>2023-05-07T08:13:40Z</time>
      </trkpt>
      <trkpt lat="44.65884" lon="3.19174">
        <ele>1134.1999511719</ele>
        <time>2023-05-07T08:13:46Z</time>
      </trkpt>
      <trkpt lat="44.65878" lon="3.19174">
        <ele>1134.1999511719</ele>
        <time>2023-05-07T08:13:52Z</time>
      </trkpt>
      <trkpt lat="44.65878" lon="3.19174">
        <ele>1134.4000244141</ele>
        <time>2023-05-07T08:14:01Z</time>
      </trkpt>
      <trkpt lat="44.65877" lon="3.19173">
        <ele>1134.5999755859</ele>
        <time>2023-05-07T08:14:14Z</time>
      </trkpt>
      <trkpt lat="44.65876" lon="3.19172">
        <ele>1134.4000244141</ele>
        <time>2023-05-07T08:14:22Z</time>
      </trkpt>
      <trkpt lat="44.65876" lon="3.19172">
        <ele>1134.5999755859</ele>
        <time>2023-05-07T08:14:39Z</time>
      </trkpt>
      <trkpt lat="44.65876" lon="3.19172">
        <ele>1134.5999755859</ele>
        <time>2023-05-07T08:14:53Z</time>
      </trkpt>
      <trkpt lat="44.65876" lon="3.19172">
        <ele>1134.5999755859</ele>
        <time>2023-05-07T08:14:59Z</time>
      </trkpt>
      <trkpt lat="44.65876" lon="3.19172">
        <ele>1134.5999755859</ele>
        <time>2023-05-07T08:15:00Z</time>
      </trkpt>
      <trkpt lat="44.65877" lon="3.19169">
        <ele>1134.8000488281</ele>
        <time>2023-05-07T08:15:03Z</time>
      </trkpt>
      <trkpt lat="44.65877" lon="3.19169">
        <ele>1134.8000488281</ele>
        <time>2023-05-07T08:15:11Z</time>
      </trkpt>
      <trkpt lat="44.65879" lon="3.19167">
        <ele>1134.8000488281</ele>
        <time>2023-05-07T08:15:19Z</time>
      </trkpt>
      <trkpt lat="44.6588" lon="3.19166">
        <ele>1135</ele>
        <time>2023-05-07T08:15:26Z</time>
      </trkpt>
      <trkpt lat="44.65881" lon="3.19165">
        <ele>1135</ele>
        <time>2023-05-07T08:15:39Z</time>
      </trkpt>
      <trkpt lat="44.65883" lon="3.19161">
        <ele>1135</ele>
        <time>2023-05-07T08:15:42Z</time>
      </trkpt>
      <trkpt lat="44.65887" lon="3.19158">
        <ele>1135</ele>
        <time>2023-05-07T08:15:46Z</time>
      </trkpt>
      <trkpt lat="44.6589" lon="3.19155">
        <ele>1135</ele>
        <time>2023-05-07T08:15:50Z</time>
      </trkpt>
      <trkpt lat="44.65891" lon="3.19153">
        <ele>1134.8000488281</ele>
        <time>2023-05-07T08:15:52Z</time>
      </trkpt>
      <trkpt lat="44.65895" lon="3.19148">
        <ele>1134.8000488281</ele>
        <time>2023-05-07T08:15:58Z</time>
      </trkpt>
      <trkpt lat="44.65895" lon="3.19148">
        <ele>1134.8000488281</ele>
        <time>2023-05-07T08:16:06Z</time>
      </trkpt>
      <trkpt lat="44.65895" lon="3.19145">
        <ele>1134.5999755859</ele>
        <time>2023-05-07T08:16:17Z</time>
      </trkpt>
      <trkpt lat="44.65896" lon="3.19143">
        <ele>1134.1999511719</ele>
        <time>2023-05-07T08:16:22Z</time>
      </trkpt>
      <trkpt lat="44.65898" lon="3.19132">
        <ele>1134</ele>
        <time>2023-05-07T08:16:26Z</time>
      </trkpt>
      <trkpt lat="44.65899" lon="3.19126">
        <ele>1134</ele>
        <time>2023-05-07T08:16:29Z</time>
      </trkpt>
      <trkpt lat="44.65898" lon="3.19111">
        <ele>1134.8000488281</ele>
        <time>2023-05-07T08:16:35Z</time>
      </trkpt>
      <trkpt lat="44.65898" lon="3.19108">
        <ele>1134.5999755859</ele>
        <time>2023-05-07T08:16:37Z</time>
      </trkpt>
      <trkpt lat="44.65897" lon="3.19104">
        <ele>1134.8000488281</ele>
        <time>2023-05-07T08:16:39Z</time>
      </trkpt>
      <trkpt lat="44.65895" lon="3.19094">
        <ele>1135.1999511719</ele>
        <time>2023-05-07T08:16:44Z</time>
      </trkpt>
      <trkpt lat="44.65896" lon="3.19089">
        <ele>1135.1999511719</ele>
        <time>2023-05-07T08:16:49Z</time>
      </trkpt>
      <trkpt lat="44.65896" lon="3.19089">
        <ele>1135.4000244141</ele>
        <time>2023-05-07T08:16:56Z</time>
      </trkpt>
      <trkpt lat="44.65896" lon="3.19086">
        <ele>1135.4000244141</ele>
        <time>2023-05-07T08:16:58Z</time>
      </trkpt>
      <trkpt lat="44.65896" lon="3.19081">
        <ele>1135.4000244141</ele>
        <time>2023-05-07T08:17:00Z</time>
      </trkpt>
      <trkpt lat="44.65896" lon="3.19079">
        <ele>1135.4000244141</ele>
        <time>2023-05-07T08:17:01Z</time>
      </trkpt>
      <trkpt lat="44.65896" lon="3.19074">
        <ele>1135.4000244141</ele>
        <time>2023-05-07T08:17:03Z</time>
      </trkpt>
      <trkpt lat="44.65896" lon="3.19073">
        <ele>1135.4000244141</ele>
        <time>2023-05-07T08:17:04Z</time>
      </trkpt>
      <trkpt lat="44.65897" lon="3.19071">
        <ele>1135.4000244141</ele>
        <time>2023-05-07T08:17:05Z</time>
      </trkpt>
      <trkpt lat="44.65902" lon="3.19066">
        <ele>1135.4000244141</ele>
        <time>2023-05-07T08:17:08Z</time>
      </trkpt>
      <trkpt lat="44.65903" lon="3.19064">
        <ele>1135.4000244141</ele>
        <time>2023-05-07T08:17:09Z</time>
      </trkpt>
      <trkpt lat="44.65907" lon="3.19059">
        <ele>1135.1999511719</ele>
        <time>2023-05-07T08:17:13Z</time>
      </trkpt>
      <trkpt lat="44.65915" lon="3.19051">
        <ele>1134.8000488281</ele>
        <time>2023-05-07T08:17:18Z</time>
      </trkpt>
      <trkpt lat="44.65918" lon="3.19035">
        <ele>1134.4000244141</ele>
        <time>2023-05-07T08:17:23Z</time>
      </trkpt>
      <trkpt lat="44.65919" lon="3.19032">
        <ele>1134.1999511719</ele>
        <time>2023-05-07T08:17:24Z</time>
      </trkpt>
      <trkpt lat="44.65921" lon="3.19025">
        <ele>1133.8000488281</ele>
        <time>2023-05-07T08:17:26Z</time>
      </trkpt>
      <trkpt lat="44.65925" lon="3.19006">
        <ele>1133.4000244141</ele>
        <time>2023-05-07T08:17:31Z</time>
      </trkpt>
      <trkpt lat="44.65925" lon="3.19002">
        <ele>1133.4000244141</ele>
        <time>2023-05-07T08:17:32Z</time>
      </trkpt>
      <trkpt lat="44.65923" lon="3.18994">
        <ele>1133.4000244141</ele>
        <time>2023-05-07T08:17:34Z</time>
      </trkpt>
      <trkpt lat="44.65928" lon="3.18977">
        <ele>1133.4000244141</ele>
        <time>2023-05-07T08:17:38Z</time>
      </trkpt>
      <trkpt lat="44.65929" lon="3.18975">
        <ele>1133.1999511719</ele>
        <time>2023-05-07T08:17:39Z</time>
      </trkpt>
      <trkpt lat="44.6593" lon="3.18966">
        <ele>1133</ele>
        <time>2023-05-07T08:17:42Z</time>
      </trkpt>
      <trkpt lat="44.6593" lon="3.18964">
        <ele>1132.8000488281</ele>
        <time>2023-05-07T08:17:43Z</time>
      </trkpt>
      <trkpt lat="44.65932" lon="3.18956">
        <ele>1132.5999755859</ele>
        <time>2023-05-07T08:17:46Z</time>
      </trkpt>
      <trkpt lat="44.65933" lon="3.18951">
        <ele>1132.4000244141</ele>
        <time>2023-05-07T08:17:48Z</time>
      </trkpt>
      <trkpt lat="44.65934" lon="3.18949">
        <ele>1132.4000244141</ele>
        <time>2023-05-07T08:17:49Z</time>
      </trkpt>
      <trkpt lat="44.65942" lon="3.18944">
        <ele>1132</ele>
        <time>2023-05-07T08:17:53Z</time>
      </trkpt>
      <trkpt lat="44.65943" lon="3.18942">
        <ele>1131.8000488281</ele>
        <time>2023-05-07T08:17:54Z</time>
      </trkpt>
      <trkpt lat="44.65945" lon="3.18936">
        <ele>1131.5999755859</ele>
        <time>2023-05-07T08:17:56Z</time>
      </trkpt>
      <trkpt lat="44.65945" lon="3.18933">
        <ele>1131.5999755859</ele>
        <time>2023-05-07T08:17:57Z</time>
      </trkpt>
      <trkpt lat="44.6595" lon="3.18916">
        <ele>1131.1999511719</ele>
        <time>2023-05-07T08:18:02Z</time>
      </trkpt>
      <trkpt lat="44.65954" lon="3.18896">
        <ele>1131.5999755859</ele>
        <time>2023-05-07T08:18:08Z</time>
      </trkpt>
      <trkpt lat="44.65956" lon="3.18889">
        <ele>1131.5999755859</ele>
        <time>2023-05-07T08:18:10Z</time>
      </trkpt>
      <trkpt lat="44.65959" lon="3.18882">
        <ele>1132</ele>
        <time>2023-05-07T08:18:12Z</time>
      </trkpt>
      <trkpt lat="44.65967" lon="3.18865">
        <ele>1133</ele>
        <time>2023-05-07T08:18:18Z</time>
      </trkpt>
      <trkpt lat="44.6597" lon="3.18859">
        <ele>1133.1999511719</ele>
        <time>2023-05-07T08:18:20Z</time>
      </trkpt>
      <trkpt lat="44.65973" lon="3.18854">
        <ele>1133.5999755859</ele>
        <time>2023-05-07T08:18:22Z</time>
      </trkpt>
      <trkpt lat="44.65976" lon="3.18851">
        <ele>1133.8000488281</ele>
        <time>2023-05-07T08:18:23Z</time>
      </trkpt>
      <trkpt lat="44.65978" lon="3.18848">
        <ele>1134.1999511719</ele>
        <time>2023-05-07T08:18:24Z</time>
      </trkpt>
      <trkpt lat="44.65983" lon="3.1884">
        <ele>1134.8000488281</ele>
        <time>2023-05-07T08:18:27Z</time>
      </trkpt>
      <trkpt lat="44.65984" lon="3.18838">
        <ele>1135</ele>
        <time>2023-05-07T08:18:28Z</time>
      </trkpt>
      <trkpt lat="44.65991" lon="3.18832">
        <ele>1135.4000244141</ele>
        <time>2023-05-07T08:18:31Z</time>
      </trkpt>
      <trkpt lat="44.65997" lon="3.18828">
        <ele>1135.8000488281</ele>
        <time>2023-05-07T08:18:33Z</time>
      </trkpt>
      <trkpt lat="44.66002" lon="3.18819">
        <ele>1136.4000244141</ele>
        <time>2023-05-07T08:18:36Z</time>
      </trkpt>
      <trkpt lat="44.66003" lon="3.18816">
        <ele>1136.5999755859</ele>
        <time>2023-05-07T08:18:37Z</time>
      </trkpt>
      <trkpt lat="44.66007" lon="3.18809">
        <ele>1137</ele>
        <time>2023-05-07T08:18:39Z</time>
      </trkpt>
      <trkpt lat="44.66009" lon="3.18806">
        <ele>1137.4000244141</ele>
        <time>2023-05-07T08:18:40Z</time>
      </trkpt>
      <trkpt lat="44.66014" lon="3.18795">
        <ele>1138.4000244141</ele>
        <time>2023-05-07T08:18:45Z</time>
      </trkpt>
      <trkpt lat="44.66015" lon="3.18794">
        <ele>1138.5999755859</ele>
        <time>2023-05-07T08:18:46Z</time>
      </trkpt>
      <trkpt lat="44.66019" lon="3.18788">
        <ele>1139</ele>
        <time>2023-05-07T08:18:48Z</time>
      </trkpt>
      <trkpt lat="44.66021" lon="3.18782">
        <ele>1139.4000244141</ele>
        <time>2023-05-07T08:18:50Z</time>
      </trkpt>
      <trkpt lat="44.66024" lon="3.1878">
        <ele>1139.4000244141</ele>
        <time>2023-05-07T08:18:51Z</time>
      </trkpt>
      <trkpt lat="44.66035" lon="3.1877">
        <ele>1140.1999511719</ele>
        <time>2023-05-07T08:18:54Z</time>
      </trkpt>
      <trkpt lat="44.66039" lon="3.18767">
        <ele>1140.4000244141</ele>
        <time>2023-05-07T08:18:55Z</time>
      </trkpt>
      <trkpt lat="44.6603" lon="3.1874">
        <ele>1139.5999755859</ele>
        <time>2023-05-07T08:18:58Z</time>
      </trkpt>
      <trkpt lat="44.66023" lon="3.18711">
        <ele>1140.1999511719</ele>
        <time>2023-05-07T08:19:03Z</time>
      </trkpt>
      <trkpt lat="44.66021" lon="3.18697">
        <ele>1140.5999755859</ele>
        <time>2023-05-07T08:19:06Z</time>
      </trkpt>
      <trkpt lat="44.66018" lon="3.18687">
        <ele>1140.8000488281</ele>
        <time>2023-05-07T08:19:08Z</time>
      </trkpt>
      <trkpt lat="44.66013" lon="3.18671">
        <ele>1141</ele>
        <time>2023-05-07T08:19:11Z</time>
      </trkpt>
      <trkpt lat="44.6601" lon="3.18657">
        <ele>1141.5999755859</ele>
        <time>2023-05-07T08:19:14Z</time>
      </trkpt>
      <trkpt lat="44.66009" lon="3.18652">
        <ele>1141.5999755859</ele>
        <time>2023-05-07T08:19:15Z</time>
      </trkpt>
      <trkpt lat="44.66009" lon="3.18624">
        <ele>1142.1999511719</ele>
        <time>2023-05-07T08:19:20Z</time>
      </trkpt>
      <trkpt lat="44.66012" lon="3.18605">
        <ele>1142.8000488281</ele>
        <time>2023-05-07T08:19:25Z</time>
      </trkpt>
      <trkpt lat="44.66012" lon="3.18591">
        <ele>1143.4000244141</ele>
        <time>2023-05-07T08:19:31Z</time>
      </trkpt>
      <trkpt lat="44.6601" lon="3.18574">
        <ele>1144.1999511719</ele>
        <time>2023-05-07T08:19:38Z</time>
      </trkpt>
      <trkpt lat="44.66009" lon="3.18559">
        <ele>1145</ele>
        <time>2023-05-07T08:19:44Z</time>
      </trkpt>
      <trkpt lat="44.6601" lon="3.18548">
        <ele>1145.5999755859</ele>
        <time>2023-05-07T08:19:49Z</time>
      </trkpt>
      <trkpt lat="44.6601" lon="3.18529">
        <ele>1146.5999755859</ele>
        <time>2023-05-07T08:19:57Z</time>
      </trkpt>
      <trkpt lat="44.66007" lon="3.18509">
        <ele>1147.8000488281</ele>
        <time>2023-05-07T08:20:06Z</time>
      </trkpt>
      <trkpt lat="44.66007" lon="3.18507">
        <ele>1148</ele>
        <time>2023-05-07T08:20:07Z</time>
      </trkpt>
      <trkpt lat="44.66007" lon="3.18496">
        <ele>1148.5999755859</ele>
        <time>2023-05-07T08:20:12Z</time>
      </trkpt>
      <trkpt lat="44.66006" lon="3.18481">
        <ele>1149.1999511719</ele>
        <time>2023-05-07T08:20:18Z</time>
      </trkpt>
      <trkpt lat="44.66005" lon="3.18466">
        <ele>1149.8000488281</ele>
        <time>2023-05-07T08:20:23Z</time>
      </trkpt>
      <trkpt lat="44.66004" lon="3.18445">
        <ele>1150.1999511719</ele>
        <time>2023-05-07T08:20:29Z</time>
      </trkpt>
      <trkpt lat="44.66003" lon="3.1842">
        <ele>1151</ele>
        <time>2023-05-07T08:20:36Z</time>
      </trkpt>
      <trkpt lat="44.66002" lon="3.18396">
        <ele>1151.5999755859</ele>
        <time>2023-05-07T08:20:43Z</time>
      </trkpt>
      <trkpt lat="44.65997" lon="3.18366">
        <ele>1152.5999755859</ele>
        <time>2023-05-07T08:20:52Z</time>
      </trkpt>
      <trkpt lat="44.65995" lon="3.18346">
        <ele>1153.1999511719</ele>
        <time>2023-05-07T08:20:58Z</time>
      </trkpt>
      <trkpt lat="44.65996" lon="3.18343">
        <ele>1153.1999511719</ele>
        <time>2023-05-07T08:20:59Z</time>
      </trkpt>
      <trkpt lat="44.66007" lon="3.18329">
        <ele>1153.8000488281</ele>
        <time>2023-05-07T08:21:05Z</time>
      </trkpt>
      <trkpt lat="44.66025" lon="3.1831">
        <ele>1154.8000488281</ele>
        <time>2023-05-07T08:21:14Z</time>
      </trkpt>
      <trkpt lat="44.66031" lon="3.18294">
        <ele>1155.4000244141</ele>
        <time>2023-05-07T08:21:20Z</time>
      </trkpt>
      <trkpt lat="44.66022" lon="3.18282">
        <ele>1155.8000488281</ele>
        <time>2023-05-07T08:21:25Z</time>
      </trkpt>
      <trkpt lat="44.66009" lon="3.18266">
        <ele>1156.4000244141</ele>
        <time>2023-05-07T08:21:32Z</time>
      </trkpt>
      <trkpt lat="44.65992" lon="3.18244">
        <ele>1157.1999511719</ele>
        <time>2023-05-07T08:21:41Z</time>
      </trkpt>
      <trkpt lat="44.65978" lon="3.18228">
        <ele>1158</ele>
        <time>2023-05-07T08:21:49Z</time>
      </trkpt>
      <trkpt lat="44.65966" lon="3.18209">
        <ele>1159</ele>
        <time>2023-05-07T08:21:57Z</time>
      </trkpt>
      <trkpt lat="44.65952" lon="3.18193">
        <ele>1160.4000244141</ele>
        <time>2023-05-07T08:22:05Z</time>
      </trkpt>
      <trkpt lat="44.65942" lon="3.18186">
        <ele>1161</ele>
        <time>2023-05-07T08:22:10Z</time>
      </trkpt>
      <trkpt lat="44.65931" lon="3.18173">
        <ele>1161.8000488281</ele>
        <time>2023-05-07T08:22:17Z</time>
      </trkpt>
      <trkpt lat="44.65919" lon="3.18163">
        <ele>1162.4000244141</ele>
        <time>2023-05-07T08:22:22Z</time>
      </trkpt>
      <trkpt lat="44.65908" lon="3.1816">
        <ele>1162.5999755859</ele>
        <time>2023-05-07T08:22:25Z</time>
      </trkpt>
      <trkpt lat="44.65898" lon="3.18161">
        <ele>1162.8000488281</ele>
        <time>2023-05-07T08:22:27Z</time>
      </trkpt>
      <trkpt lat="44.65893" lon="3.18161">
        <ele>1163</ele>
        <time>2023-05-07T08:22:28Z</time>
      </trkpt>
      <trkpt lat="44.65883" lon="3.18163">
        <ele>1163</ele>
        <time>2023-05-07T08:22:30Z</time>
      </trkpt>
      <trkpt lat="44.65872" lon="3.18167">
        <ele>1163.1999511719</ele>
        <time>2023-05-07T08:22:32Z</time>
      </trkpt>
      <trkpt lat="44.65858" lon="3.18174">
        <ele>1163.4000244141</ele>
        <time>2023-05-07T08:22:35Z</time>
      </trkpt>
      <trkpt lat="44.6585" lon="3.18181">
        <ele>1163.5999755859</ele>
        <time>2023-05-07T08:22:37Z</time>
      </trkpt>
      <trkpt lat="44.65827" lon="3.18205">
        <ele>1164.1999511719</ele>
        <time>2023-05-07T08:22:45Z</time>
      </trkpt>
      <trkpt lat="44.65813" lon="3.18214">
        <ele>1165</ele>
        <time>2023-05-07T08:22:51Z</time>
      </trkpt>
      <trkpt lat="44.65802" lon="3.18221">
        <ele>1165.8000488281</ele>
        <time>2023-05-07T08:22:57Z</time>
      </trkpt>
      <trkpt lat="44.65791" lon="3.18233">
        <ele>1166.4000244141</ele>
        <time>2023-05-07T08:23:04Z</time>
      </trkpt>
      <trkpt lat="44.65778" lon="3.18249">
        <ele>1167.4000244141</ele>
        <time>2023-05-07T08:23:13Z</time>
      </trkpt>
      <trkpt lat="44.65769" lon="3.18262">
        <ele>1168.1999511719</ele>
        <time>2023-05-07T08:23:20Z</time>
      </trkpt>
      <trkpt lat="44.65757" lon="3.18269">
        <ele>1168.8000488281</ele>
        <time>2023-05-07T08:23:26Z</time>
      </trkpt>
      <trkpt lat="44.65744" lon="3.18268">
        <ele>1169.4000244141</ele>
        <time>2023-05-07T08:23:32Z</time>
      </trkpt>
      <trkpt lat="44.65735" lon="3.18265">
        <ele>1169.8000488281</ele>
        <time>2023-05-07T08:23:37Z</time>
      </trkpt>
      <trkpt lat="44.65728" lon="3.18262">
        <ele>1170.1999511719</ele>
        <time>2023-05-07T08:23:41Z</time>
      </trkpt>
      <trkpt lat="44.65725" lon="3.1826">
        <ele>1170.4000244141</ele>
        <time>2023-05-07T08:23:43Z</time>
      </trkpt>
      <trkpt lat="44.6572" lon="3.1826">
        <ele>1170.4000244141</ele>
        <time>2023-05-07T08:23:46Z</time>
      </trkpt>
      <trkpt lat="44.65704" lon="3.18257">
        <ele>1171</ele>
        <time>2023-05-07T08:23:53Z</time>
      </trkpt>
      <trkpt lat="44.65692" lon="3.18258">
        <ele>1171.4000244141</ele>
        <time>2023-05-07T08:23:58Z</time>
      </trkpt>
      <trkpt lat="44.65683" lon="3.18258">
        <ele>1172.1999511719</ele>
        <time>2023-05-07T08:24:03Z</time>
      </trkpt>
      <trkpt lat="44.65662" lon="3.18258">
        <ele>1173.1999511719</ele>
        <time>2023-05-07T08:24:12Z</time>
      </trkpt>
      <trkpt lat="44.6565" lon="3.18253">
        <ele>1173.8000488281</ele>
        <time>2023-05-07T08:24:18Z</time>
      </trkpt>
      <trkpt lat="44.65642" lon="3.18249">
        <ele>1174</ele>
        <time>2023-05-07T08:24:22Z</time>
      </trkpt>
      <trkpt lat="44.65627" lon="3.18247">
        <ele>1174.4000244141</ele>
        <time>2023-05-07T08:24:27Z</time>
      </trkpt>
      <trkpt lat="44.65602" lon="3.18245">
        <ele>1175</ele>
        <time>2023-05-07T08:24:32Z</time>
      </trkpt>
      <trkpt lat="44.65577" lon="3.18243">
        <ele>1175.4000244141</ele>
        <time>2023-05-07T08:24:37Z</time>
      </trkpt>
      <trkpt lat="44.65568" lon="3.18243">
        <ele>1175.5999755859</ele>
        <time>2023-05-07T08:24:39Z</time>
      </trkpt>
      <trkpt lat="44.65554" lon="3.18243">
        <ele>1175.8000488281</ele>
        <time>2023-05-07T08:24:42Z</time>
      </trkpt>
      <trkpt lat="44.65541" lon="3.18244">
        <ele>1176</ele>
        <time>2023-05-07T08:24:45Z</time>
      </trkpt>
      <trkpt lat="44.65536" lon="3.18243">
        <ele>1176</ele>
        <time>2023-05-07T08:24:46Z</time>
      </trkpt>
      <trkpt lat="44.65504" lon="3.18241">
        <ele>1176.4000244141</ele>
        <time>2023-05-07T08:24:52Z</time>
      </trkpt>
      <trkpt lat="44.65486" lon="3.18241">
        <ele>1176.8000488281</ele>
        <time>2023-05-07T08:24:56Z</time>
      </trkpt>
      <trkpt lat="44.65476" lon="3.18241">
        <ele>1177.1999511719</ele>
        <time>2023-05-07T08:25:01Z</time>
      </trkpt>
      <trkpt lat="44.65468" lon="3.1824">
        <ele>1177.5999755859</ele>
        <time>2023-05-07T08:25:07Z</time>
      </trkpt>
      <trkpt lat="44.65456" lon="3.18242">
        <ele>1178.5999755859</ele>
        <time>2023-05-07T08:25:15Z</time>
      </trkpt>
      <trkpt lat="44.65444" lon="3.18239">
        <ele>1179.5999755859</ele>
        <time>2023-05-07T08:25:23Z</time>
      </trkpt>
      <trkpt lat="44.65437" lon="3.18235">
        <ele>1180</ele>
        <time>2023-05-07T08:25:28Z</time>
      </trkpt>
      <trkpt lat="44.65427" lon="3.18233">
        <ele>1180.5999755859</ele>
        <time>2023-05-07T08:25:34Z</time>
      </trkpt>
      <trkpt lat="44.65421" lon="3.18232">
        <ele>1181.1999511719</ele>
        <time>2023-05-07T08:25:39Z</time>
      </trkpt>
      <trkpt lat="44.65415" lon="3.18231">
        <ele>1181.8000488281</ele>
        <time>2023-05-07T08:25:44Z</time>
      </trkpt>
      <trkpt lat="44.65412" lon="3.1823">
        <ele>1182</ele>
        <time>2023-05-07T08:25:46Z</time>
      </trkpt>
      <trkpt lat="44.65408" lon="3.1823">
        <ele>1182.1999511719</ele>
        <time>2023-05-07T08:25:48Z</time>
      </trkpt>
      <trkpt lat="44.65405" lon="3.18229">
        <ele>1182.4000244141</ele>
        <time>2023-05-07T08:25:50Z</time>
      </trkpt>
      <trkpt lat="44.65396" lon="3.18229">
        <ele>1183</ele>
        <time>2023-05-07T08:25:55Z</time>
      </trkpt>
      <trkpt lat="44.65386" lon="3.18232">
        <ele>1184.1999511719</ele>
        <time>2023-05-07T08:26:01Z</time>
      </trkpt>
      <trkpt lat="44.65382" lon="3.18232">
        <ele>1184.8000488281</ele>
        <time>2023-05-07T08:26:04Z</time>
      </trkpt>
      <trkpt lat="44.65379" lon="3.18232">
        <ele>1185</ele>
        <time>2023-05-07T08:26:06Z</time>
      </trkpt>
      <trkpt lat="44.65366" lon="3.18228">
        <ele>1185.4000244141</ele>
        <time>2023-05-07T08:26:11Z</time>
      </trkpt>
      <trkpt lat="44.65355" lon="3.18225">
        <ele>1185.4000244141</ele>
        <time>2023-05-07T08:26:14Z</time>
      </trkpt>
      <trkpt lat="44.65342" lon="3.18228">
        <ele>1185.4000244141</ele>
        <time>2023-05-07T08:26:18Z</time>
      </trkpt>
      <trkpt lat="44.65333" lon="3.18231">
        <ele>1185.8000488281</ele>
        <time>2023-05-07T08:26:22Z</time>
      </trkpt>
      <trkpt lat="44.65323" lon="3.18233">
        <ele>1186.4000244141</ele>
        <time>2023-05-07T08:26:27Z</time>
      </trkpt>
      <trkpt lat="44.65313" lon="3.18233">
        <ele>1187</ele>
        <time>2023-05-07T08:26:32Z</time>
      </trkpt>
      <trkpt lat="44.65303" lon="3.1823">
        <ele>1187.4000244141</ele>
        <time>2023-05-07T08:26:37Z</time>
      </trkpt>
      <trkpt lat="44.65288" lon="3.18223">
        <ele>1188</ele>
        <time>2023-05-07T08:26:42Z</time>
      </trkpt>
      <trkpt lat="44.65285" lon="3.18221">
        <ele>1188</ele>
        <time>2023-05-07T08:26:43Z</time>
      </trkpt>
      <trkpt lat="44.65281" lon="3.18217">
        <ele>1188</ele>
        <time>2023-05-07T08:26:45Z</time>
      </trkpt>
      <trkpt lat="44.65269" lon="3.18209">
        <ele>1188.5999755859</ele>
        <time>2023-05-07T08:26:50Z</time>
      </trkpt>
      <trkpt lat="44.65267" lon="3.18205">
        <ele>1188.5999755859</ele>
        <time>2023-05-07T08:26:53Z</time>
      </trkpt>
      <trkpt lat="44.65267" lon="3.18205">
        <ele>1189.1999511719</ele>
        <time>2023-05-07T08:27:01Z</time>
      </trkpt>
      <trkpt lat="44.65267" lon="3.18205">
        <ele>1189.8000488281</ele>
        <time>2023-05-07T08:27:11Z</time>
      </trkpt>
      <trkpt lat="44.65267" lon="3.18205">
        <ele>1190.1999511719</ele>
        <time>2023-05-07T08:27:21Z</time>
      </trkpt>
      <trkpt lat="44.65267" lon="3.18205">
        <ele>1191</ele>
        <time>2023-05-07T08:27:40Z</time>
      </trkpt>
      <trkpt lat="44.65267" lon="3.18205">
        <ele>1191.5999755859</ele>
        <time>2023-05-07T08:27:55Z</time>
      </trkpt>
      <trkpt lat="44.65267" lon="3.18205">
        <ele>1192</ele>
        <time>2023-05-07T08:28:15Z</time>
      </trkpt>
      <trkpt lat="44.65266" lon="3.18205">
        <ele>1192.4000244141</ele>
        <time>2023-05-07T08:28:31Z</time>
      </trkpt>
      <trkpt lat="44.65264" lon="3.18204">
        <ele>1192.4000244141</ele>
        <time>2023-05-07T08:28:32Z</time>
      </trkpt>
      <trkpt lat="44.65261" lon="3.18202">
        <ele>1192.5999755859</ele>
        <time>2023-05-07T08:28:35Z</time>
      </trkpt>
      <trkpt lat="44.6526" lon="3.18202">
        <ele>1192.5999755859</ele>
        <time>2023-05-07T08:28:43Z</time>
      </trkpt>
      <trkpt lat="44.6526" lon="3.18202">
        <ele>1192.8000488281</ele>
        <time>2023-05-07T08:28:56Z</time>
      </trkpt>
      <trkpt lat="44.65261" lon="3.18201">
        <ele>1193</ele>
        <time>2023-05-07T08:29:16Z</time>
      </trkpt>
      <trkpt lat="44.65257" lon="3.182">
        <ele>1193.4000244141</ele>
        <time>2023-05-07T08:29:29Z</time>
      </trkpt>
      <trkpt lat="44.65248" lon="3.18194">
        <ele>1193.5999755859</ele>
        <time>2023-05-07T08:29:33Z</time>
      </trkpt>
      <trkpt lat="44.65234" lon="3.18179">
        <ele>1194.1999511719</ele>
        <time>2023-05-07T08:29:38Z</time>
      </trkpt>
      <trkpt lat="44.65216" lon="3.18158">
        <ele>1194.4000244141</ele>
        <time>2023-05-07T08:29:44Z</time>
      </trkpt>
      <trkpt lat="44.65208" lon="3.18145">
        <ele>1194.5999755859</ele>
        <time>2023-05-07T08:29:48Z</time>
      </trkpt>
      <trkpt lat="44.65198" lon="3.18128">
        <ele>1194.8000488281</ele>
        <time>2023-05-07T08:29:53Z</time>
      </trkpt>
      <trkpt lat="44.6519" lon="3.18112">
        <ele>1194.8000488281</ele>
        <time>2023-05-07T08:29:57Z</time>
      </trkpt>
      <trkpt lat="44.65178" lon="3.18089">
        <ele>1195.4000244141</ele>
        <time>2023-05-07T08:30:03Z</time>
      </trkpt>
      <trkpt lat="44.65172" lon="3.18073">
        <ele>1195.5999755859</ele>
        <time>2023-05-07T08:30:07Z</time>
      </trkpt>
      <trkpt lat="44.65161" lon="3.18049">
        <ele>1195.8000488281</ele>
        <time>2023-05-07T08:30:13Z</time>
      </trkpt>
      <trkpt lat="44.65153" lon="3.18029">
        <ele>1196</ele>
        <time>2023-05-07T08:30:18Z</time>
      </trkpt>
      <trkpt lat="44.6514" lon="3.18002">
        <ele>1196.1999511719</ele>
        <time>2023-05-07T08:30:24Z</time>
      </trkpt>
      <trkpt lat="44.65135" lon="3.17999">
        <ele>1196.4000244141</ele>
        <time>2023-05-07T08:30:26Z</time>
      </trkpt>
      <trkpt lat="44.65134" lon="3.18001">
        <ele>1196.4000244141</ele>
        <time>2023-05-07T08:30:27Z</time>
      </trkpt>
      <trkpt lat="44.65135" lon="3.18008">
        <ele>1196.1999511719</ele>
        <time>2023-05-07T08:30:29Z</time>
      </trkpt>
      <trkpt lat="44.65133" lon="3.18013">
        <ele>1196.1999511719</ele>
        <time>2023-05-07T08:30:30Z</time>
      </trkpt>
      <trkpt lat="44.65132" lon="3.18018">
        <ele>1196.1999511719</ele>
        <time>2023-05-07T08:30:31Z</time>
      </trkpt>
      <trkpt lat="44.65131" lon="3.18028">
        <ele>1196.1999511719</ele>
        <time>2023-05-07T08:30:33Z</time>
      </trkpt>
      <trkpt lat="44.65126" lon="3.1806">
        <ele>1196</ele>
        <time>2023-05-07T08:30:39Z</time>
      </trkpt>
      <trkpt lat="44.65125" lon="3.18074">
        <ele>1195.8000488281</ele>
        <time>2023-05-07T08:30:42Z</time>
      </trkpt>
      <trkpt lat="44.65118" lon="3.18108">
        <ele>1195.4000244141</ele>
        <time>2023-05-07T08:30:48Z</time>
      </trkpt>
      <trkpt lat="44.65116" lon="3.18136">
        <ele>1195.4000244141</ele>
        <time>2023-05-07T08:30:53Z</time>
      </trkpt>
      <trkpt lat="44.65116" lon="3.18156">
        <ele>1195.4000244141</ele>
        <time>2023-05-07T08:30:57Z</time>
      </trkpt>
      <trkpt lat="44.6512" lon="3.18177">
        <ele>1195</ele>
        <time>2023-05-07T08:31:02Z</time>
      </trkpt>
      <trkpt lat="44.65121" lon="3.1818">
        <ele>1195</ele>
        <time>2023-05-07T08:31:03Z</time>
      </trkpt>
      <trkpt lat="44.65125" lon="3.18188">
        <ele>1194.8000488281</ele>
        <time>2023-05-07T08:31:05Z</time>
      </trkpt>
      <trkpt lat="44.65128" lon="3.18198">
        <ele>1194.5999755859</ele>
        <time>2023-05-07T08:31:08Z</time>
      </trkpt>
      <trkpt lat="44.6513" lon="3.18201">
        <ele>1194.5999755859</ele>
        <time>2023-05-07T08:31:09Z</time>
      </trkpt>
      <trkpt lat="44.65132" lon="3.1822">
        <ele>1195</ele>
        <time>2023-05-07T08:31:13Z</time>
      </trkpt>
      <trkpt lat="44.65132" lon="3.18229">
        <ele>1194.8000488281</ele>
        <time>2023-05-07T08:31:16Z</time>
      </trkpt>
      <trkpt lat="44.65136" lon="3.18237">
        <ele>1194.8000488281</ele>
        <time>2023-05-07T08:31:17Z</time>
      </trkpt>
      <trkpt lat="44.65138" lon="3.1824">
        <ele>1194.8000488281</ele>
        <time>2023-05-07T08:31:19Z</time>
      </trkpt>
      <trkpt lat="44.65139" lon="3.18249">
        <ele>1194.8000488281</ele>
        <time>2023-05-07T08:31:21Z</time>
      </trkpt>
      <trkpt lat="44.65142" lon="3.18261">
        <ele>1194.8000488281</ele>
        <time>2023-05-07T08:31:24Z</time>
      </trkpt>
      <trkpt lat="44.65144" lon="3.18264">
        <ele>1194.8000488281</ele>
        <time>2023-05-07T08:31:25Z</time>
      </trkpt>
      <trkpt lat="44.65148" lon="3.18271">
        <ele>1194.8000488281</ele>
        <time>2023-05-07T08:31:26Z</time>
      </trkpt>
      <trkpt lat="44.6515" lon="3.18279">
        <ele>1195</ele>
        <time>2023-05-07T08:31:28Z</time>
      </trkpt>
      <trkpt lat="44.65151" lon="3.18292">
        <ele>1195</ele>
        <time>2023-05-07T08:31:32Z</time>
      </trkpt>
      <trkpt lat="44.65151" lon="3.183">
        <ele>1195</ele>
        <time>2023-05-07T08:31:33Z</time>
      </trkpt>
      <trkpt lat="44.65152" lon="3.18318">
        <ele>1195</ele>
        <time>2023-05-07T08:31:37Z</time>
      </trkpt>
      <trkpt lat="44.65151" lon="3.18336">
        <ele>1195</ele>
        <time>2023-05-07T08:31:41Z</time>
      </trkpt>
      <trkpt lat="44.6515" lon="3.18346">
        <ele>1195</ele>
        <time>2023-05-07T08:31:43Z</time>
      </trkpt>
      <trkpt lat="44.6515" lon="3.18351">
        <ele>1195.1999511719</ele>
        <time>2023-05-07T08:31:44Z</time>
      </trkpt>
      <trkpt lat="44.65147" lon="3.18374">
        <ele>1195.4000244141</ele>
        <time>2023-05-07T08:31:49Z</time>
      </trkpt>
      <trkpt lat="44.6515" lon="3.1838">
        <ele>1195.4000244141</ele>
        <time>2023-05-07T08:31:51Z</time>
      </trkpt>
      <trkpt lat="44.6515" lon="3.1838">
        <ele>1195.4000244141</ele>
        <time>2023-05-07T08:31:52Z</time>
      </trkpt>
      <trkpt lat="44.65151" lon="3.18385">
        <ele>1195.4000244141</ele>
        <time>2023-05-07T08:31:53Z</time>
      </trkpt>
      <trkpt lat="44.65153" lon="3.18394">
        <ele>1195.4000244141</ele>
        <time>2023-05-07T08:31:55Z</time>
      </trkpt>
      <trkpt lat="44.65156" lon="3.18412">
        <ele>1195.1999511719</ele>
        <time>2023-05-07T08:31:59Z</time>
      </trkpt>
      <trkpt lat="44.65156" lon="3.18416">
        <ele>1195.1999511719</ele>
        <time>2023-05-07T08:32:00Z</time>
      </trkpt>
      <trkpt lat="44.65157" lon="3.18423">
        <ele>1195</ele>
        <time>2023-05-07T08:32:02Z</time>
      </trkpt>
      <trkpt lat="44.65159" lon="3.18426">
        <ele>1195</ele>
        <time>2023-05-07T08:32:03Z</time>
      </trkpt>
      <trkpt lat="44.65162" lon="3.18432">
        <ele>1194.5999755859</ele>
        <time>2023-05-07T08:32:05Z</time>
      </trkpt>
      <trkpt lat="44.65161" lon="3.18442">
        <ele>1194.1999511719</ele>
        <time>2023-05-07T08:32:07Z</time>
      </trkpt>
      <trkpt lat="44.65158" lon="3.18448">
        <ele>1194.1999511719</ele>
        <time>2023-05-07T08:32:08Z</time>
      </trkpt>
      <trkpt lat="44.65153" lon="3.18462">
        <ele>1194.4000244141</ele>
        <time>2023-05-07T08:32:10Z</time>
      </trkpt>
      <trkpt lat="44.65153" lon="3.18467">
        <ele>1194.4000244141</ele>
        <time>2023-05-07T08:32:11Z</time>
      </trkpt>
      <trkpt lat="44.65156" lon="3.18477">
        <ele>1194.8000488281</ele>
        <time>2023-05-07T08:32:13Z</time>
      </trkpt>
      <trkpt lat="44.65159" lon="3.18482">
        <ele>1195</ele>
        <time>2023-05-07T08:32:14Z</time>
      </trkpt>
      <trkpt lat="44.65159" lon="3.1849">
        <ele>1194.8000488281</ele>
        <time>2023-05-07T08:32:15Z</time>
      </trkpt>
      <trkpt lat="44.6516" lon="3.18505">
        <ele>1194.8000488281</ele>
        <time>2023-05-07T08:32:17Z</time>
      </trkpt>
      <trkpt lat="44.65161" lon="3.18512">
        <ele>1194.8000488281</ele>
        <time>2023-05-07T08:32:18Z</time>
      </trkpt>
      <trkpt lat="44.65163" lon="3.18519">
        <ele>1194.8000488281</ele>
        <time>2023-05-07T08:32:19Z</time>
      </trkpt>
      <trkpt lat="44.65164" lon="3.18534">
        <ele>1194.8000488281</ele>
        <time>2023-05-07T08:32:21Z</time>
      </trkpt>
      <trkpt lat="44.65162" lon="3.18549">
        <ele>1194.5999755859</ele>
        <time>2023-05-07T08:32:23Z</time>
      </trkpt>
      <trkpt lat="44.6516" lon="3.18555">
        <ele>1194.5999755859</ele>
        <time>2023-05-07T08:32:24Z</time>
      </trkpt>
      <trkpt lat="44.6515" lon="3.18581">
        <ele>1194.4000244141</ele>
        <time>2023-05-07T08:32:29Z</time>
      </trkpt>
      <trkpt lat="44.65128" lon="3.18624">
        <ele>1194.4000244141</ele>
        <time>2023-05-07T08:32:35Z</time>
      </trkpt>
      <trkpt lat="44.65119" lon="3.18643">
        <ele>1194.4000244141</ele>
        <time>2023-05-07T08:32:38Z</time>
      </trkpt>
      <trkpt lat="44.65114" lon="3.18662">
        <ele>1194.4000244141</ele>
        <time>2023-05-07T08:32:41Z</time>
      </trkpt>
      <trkpt lat="44.6511" lon="3.18676">
        <ele>1194.4000244141</ele>
        <time>2023-05-07T08:32:43Z</time>
      </trkpt>
      <trkpt lat="44.65108" lon="3.18692">
        <ele>1194.5999755859</ele>
        <time>2023-05-07T08:32:45Z</time>
      </trkpt>
      <trkpt lat="44.65108" lon="3.18701">
        <ele>1194.5999755859</ele>
        <time>2023-05-07T08:32:46Z</time>
      </trkpt>
      <trkpt lat="44.65114" lon="3.18742">
        <ele>1194.4000244141</ele>
        <time>2023-05-07T08:32:50Z</time>
      </trkpt>
      <trkpt lat="44.65118" lon="3.18776">
        <ele>1194.1999511719</ele>
        <time>2023-05-07T08:32:53Z</time>
      </trkpt>
      <trkpt lat="44.65117" lon="3.18788">
        <ele>1194</ele>
        <time>2023-05-07T08:32:54Z</time>
      </trkpt>
      <trkpt lat="44.65115" lon="3.18799">
        <ele>1194</ele>
        <time>2023-05-07T08:32:55Z</time>
      </trkpt>
      <trkpt lat="44.65107" lon="3.18819">
        <ele>1193.5999755859</ele>
        <time>2023-05-07T08:32:57Z</time>
      </trkpt>
      <trkpt lat="44.65104" lon="3.18829">
        <ele>1193.5999755859</ele>
        <time>2023-05-07T08:32:58Z</time>
      </trkpt>
      <trkpt lat="44.651" lon="3.18853">
        <ele>1193.4000244141</ele>
        <time>2023-05-07T08:33:00Z</time>
      </trkpt>
      <trkpt lat="44.65089" lon="3.18907">
        <ele>1192.4000244141</ele>
        <time>2023-05-07T08:33:04Z</time>
      </trkpt>
      <trkpt lat="44.65085" lon="3.18921">
        <ele>1192.1999511719</ele>
        <time>2023-05-07T08:33:05Z</time>
      </trkpt>
      <trkpt lat="44.65062" lon="3.18995">
        <ele>1190.4000244141</ele>
        <time>2023-05-07T08:33:10Z</time>
      </trkpt>
      <trkpt lat="44.65044" lon="3.19051">
        <ele>1188.8000488281</ele>
        <time>2023-05-07T08:33:14Z</time>
      </trkpt>
      <trkpt lat="44.65027" lon="3.1911">
        <ele>1187.1999511719</ele>
        <time>2023-05-07T08:33:18Z</time>
      </trkpt>
      <trkpt lat="44.65017" lon="3.19174">
        <ele>1185.1999511719</ele>
        <time>2023-05-07T08:33:22Z</time>
      </trkpt>
      <trkpt lat="44.65016" lon="3.19204">
        <ele>1184.1999511719</ele>
        <time>2023-05-07T08:33:24Z</time>
      </trkpt>
      <trkpt lat="44.65018" lon="3.19233">
        <ele>1183.1999511719</ele>
        <time>2023-05-07T08:33:26Z</time>
      </trkpt>
      <trkpt lat="44.65025" lon="3.19281">
        <ele>1181</ele>
        <time>2023-05-07T08:33:30Z</time>
      </trkpt>
      <trkpt lat="44.65038" lon="3.19311">
        <ele>1179.4000244141</ele>
        <time>2023-05-07T08:33:33Z</time>
      </trkpt>
      <trkpt lat="44.65044" lon="3.19319">
        <ele>1179</ele>
        <time>2023-05-07T08:33:34Z</time>
      </trkpt>
      <trkpt lat="44.65062" lon="3.19341">
        <ele>1177.8000488281</ele>
        <time>2023-05-07T08:33:37Z</time>
      </trkpt>
      <trkpt lat="44.65068" lon="3.19349">
        <ele>1177.4000244141</ele>
        <time>2023-05-07T08:33:38Z</time>
      </trkpt>
      <trkpt lat="44.65073" lon="3.19358">
        <ele>1177.1999511719</ele>
        <time>2023-05-07T08:33:39Z</time>
      </trkpt>
      <trkpt lat="44.65075" lon="3.19368">
        <ele>1176.8000488281</ele>
        <time>2023-05-07T08:33:40Z</time>
      </trkpt>
      <trkpt lat="44.65075" lon="3.19379">
        <ele>1176.4000244141</ele>
        <time>2023-05-07T08:33:41Z</time>
      </trkpt>
      <trkpt lat="44.65074" lon="3.1939">
        <ele>1176</ele>
        <time>2023-05-07T08:33:42Z</time>
      </trkpt>
      <trkpt lat="44.65073" lon="3.194">
        <ele>1175.5999755859</ele>
        <time>2023-05-07T08:33:43Z</time>
      </trkpt>
      <trkpt lat="44.65069" lon="3.19421">
        <ele>1174.8000488281</ele>
        <time>2023-05-07T08:33:45Z</time>
      </trkpt>
      <trkpt lat="44.6507" lon="3.19443">
        <ele>1174.1999511719</ele>
        <time>2023-05-07T08:33:47Z</time>
      </trkpt>
      <trkpt lat="44.65071" lon="3.19455">
        <ele>1173.8000488281</ele>
        <time>2023-05-07T08:33:48Z</time>
      </trkpt>
      <trkpt lat="44.65071" lon="3.19466">
        <ele>1173.4000244141</ele>
        <time>2023-05-07T08:33:49Z</time>
      </trkpt>
      <trkpt lat="44.6507" lon="3.19476">
        <ele>1173</ele>
        <time>2023-05-07T08:33:50Z</time>
      </trkpt>
      <trkpt lat="44.65071" lon="3.19486">
        <ele>1172.4000244141</ele>
        <time>2023-05-07T08:33:51Z</time>
      </trkpt>
      <trkpt lat="44.65073" lon="3.19498">
        <ele>1171.8000488281</ele>
        <time>2023-05-07T08:33:52Z</time>
      </trkpt>
      <trkpt lat="44.65079" lon="3.19509">
        <ele>1171.1999511719</ele>
        <time>2023-05-07T08:33:53Z</time>
      </trkpt>
      <trkpt lat="44.65085" lon="3.19519">
        <ele>1170.5999755859</ele>
        <time>2023-05-07T08:33:54Z</time>
      </trkpt>
      <trkpt lat="44.65112" lon="3.19556">
        <ele>1168.4000244141</ele>
        <time>2023-05-07T08:33:58Z</time>
      </trkpt>
      <trkpt lat="44.65144" lon="3.19584">
        <ele>1166.1999511719</ele>
        <time>2023-05-07T08:34:02Z</time>
      </trkpt>
      <trkpt lat="44.6517" lon="3.19602">
        <ele>1164.1999511719</ele>
        <time>2023-05-07T08:34:06Z</time>
      </trkpt>
      <trkpt lat="44.65175" lon="3.19604">
        <ele>1163.8000488281</ele>
        <time>2023-05-07T08:34:07Z</time>
      </trkpt>
      <trkpt lat="44.65182" lon="3.19606">
        <ele>1162.8000488281</ele>
        <time>2023-05-07T08:34:09Z</time>
      </trkpt>
      <trkpt lat="44.65185" lon="3.19613">
        <ele>1161</ele>
        <time>2023-05-07T08:34:13Z</time>
      </trkpt>
      <trkpt lat="44.65184" lon="3.19613">
        <ele>1160.5999755859</ele>
        <time>2023-05-07T08:34:14Z</time>
      </trkpt>
      <trkpt lat="44.65174" lon="3.19614">
        <ele>1159.8000488281</ele>
        <time>2023-05-07T08:34:16Z</time>
      </trkpt>
      <trkpt lat="44.6515" lon="3.19619">
        <ele>1157.8000488281</ele>
        <time>2023-05-07T08:34:20Z</time>
      </trkpt>
      <trkpt lat="44.65146" lon="3.19623">
        <ele>1157.1999511719</ele>
        <time>2023-05-07T08:34:21Z</time>
      </trkpt>
      <trkpt lat="44.65137" lon="3.19636">
        <ele>1155.8000488281</ele>
        <time>2023-05-07T08:34:24Z</time>
      </trkpt>
      <trkpt lat="44.65135" lon="3.19642">
        <ele>1155.1999511719</ele>
        <time>2023-05-07T08:34:25Z</time>
      </trkpt>
      <trkpt lat="44.65132" lon="3.19658">
        <ele>1154.4000244141</ele>
        <time>2023-05-07T08:34:27Z</time>
      </trkpt>
      <trkpt lat="44.65122" lon="3.19689">
        <ele>1152.1999511719</ele>
        <time>2023-05-07T08:34:31Z</time>
      </trkpt>
      <trkpt lat="44.65117" lon="3.19698">
        <ele>1151.5999755859</ele>
        <time>2023-05-07T08:34:32Z</time>
      </trkpt>
      <trkpt lat="44.65113" lon="3.19707">
        <ele>1151</ele>
        <time>2023-05-07T08:34:33Z</time>
      </trkpt>
      <trkpt lat="44.65097" lon="3.19734">
        <ele>1149.5999755859</ele>
        <time>2023-05-07T08:34:36Z</time>
      </trkpt>
      <trkpt lat="44.65068" lon="3.19778">
        <ele>1147</ele>
        <time>2023-05-07T08:34:41Z</time>
      </trkpt>
      <trkpt lat="44.65031" lon="3.19838">
        <ele>1144.8000488281</ele>
        <time>2023-05-07T08:34:47Z</time>
      </trkpt>
      <trkpt lat="44.65026" lon="3.19848">
        <ele>1144.5999755859</ele>
        <time>2023-05-07T08:34:48Z</time>
      </trkpt>
      <trkpt lat="44.65022" lon="3.19858">
        <ele>1144.1999511719</ele>
        <time>2023-05-07T08:34:49Z</time>
      </trkpt>
      <trkpt lat="44.65014" lon="3.19876">
        <ele>1143.8000488281</ele>
        <time>2023-05-07T08:34:51Z</time>
      </trkpt>
      <trkpt lat="44.6501" lon="3.19884">
        <ele>1143.5999755859</ele>
        <time>2023-05-07T08:34:52Z</time>
      </trkpt>
      <trkpt lat="44.6499" lon="3.19918">
        <ele>1142.4000244141</ele>
        <time>2023-05-07T08:34:57Z</time>
      </trkpt>
      <trkpt lat="44.64973" lon="3.19938">
        <ele>1141.4000244141</ele>
        <time>2023-05-07T08:35:02Z</time>
      </trkpt>
      <trkpt lat="44.64956" lon="3.19959">
        <ele>1140.5999755859</ele>
        <time>2023-05-07T08:35:09Z</time>
      </trkpt>
      <trkpt lat="44.64945" lon="3.19971">
        <ele>1140.1999511719</ele>
        <time>2023-05-07T08:35:14Z</time>
      </trkpt>
      <trkpt lat="44.64932" lon="3.19984">
        <ele>1139.5999755859</ele>
        <time>2023-05-07T08:35:21Z</time>
      </trkpt>
      <trkpt lat="44.64921" lon="3.19999">
        <ele>1139.4000244141</ele>
        <time>2023-05-07T08:35:28Z</time>
      </trkpt>
      <trkpt lat="44.64906" lon="3.20014">
        <ele>1139.1999511719</ele>
        <time>2023-05-07T08:35:35Z</time>
      </trkpt>
      <trkpt lat="44.64903" lon="3.20019">
        <ele>1139.4000244141</ele>
        <time>2023-05-07T08:35:37Z</time>
      </trkpt>
      <trkpt lat="44.64898" lon="3.20026">
        <ele>1139.1999511719</ele>
        <time>2023-05-07T08:35:40Z</time>
      </trkpt>
      <trkpt lat="44.64895" lon="3.20035">
        <ele>1139.1999511719</ele>
        <time>2023-05-07T08:35:43Z</time>
      </trkpt>
      <trkpt lat="44.64895" lon="3.20038">
        <ele>1139.1999511719</ele>
        <time>2023-05-07T08:35:44Z</time>
      </trkpt>
      <trkpt lat="44.64891" lon="3.20063">
        <ele>1139</ele>
        <time>2023-05-07T08:35:51Z</time>
      </trkpt>
      <trkpt lat="44.64891" lon="3.2009">
        <ele>1139</ele>
        <time>2023-05-07T08:35:57Z</time>
      </trkpt>
      <trkpt lat="44.6489" lon="3.20131">
        <ele>1138.5999755859</ele>
        <time>2023-05-07T08:36:05Z</time>
      </trkpt>
      <trkpt lat="44.64887" lon="3.20152">
        <ele>1138.5999755859</ele>
        <time>2023-05-07T08:36:09Z</time>
      </trkpt>
      <trkpt lat="44.64885" lon="3.20167">
        <ele>1138.4000244141</ele>
        <time>2023-05-07T08:36:12Z</time>
      </trkpt>
      <trkpt lat="44.64882" lon="3.20177">
        <ele>1138.4000244141</ele>
        <time>2023-05-07T08:36:14Z</time>
      </trkpt>
      <trkpt lat="44.6488" lon="3.20188">
        <ele>1138.4000244141</ele>
        <time>2023-05-07T08:36:16Z</time>
      </trkpt>
      <trkpt lat="44.64874" lon="3.20216">
        <ele>1138</ele>
        <time>2023-05-07T08:36:21Z</time>
      </trkpt>
      <trkpt lat="44.64868" lon="3.20242">
        <ele>1137.8000488281</ele>
        <time>2023-05-07T08:36:26Z</time>
      </trkpt>
      <trkpt lat="44.6486" lon="3.20277">
        <ele>1138</ele>
        <time>2023-05-07T08:36:33Z</time>
      </trkpt>
      <trkpt lat="44.64858" lon="3.20288">
        <ele>1138</ele>
        <time>2023-05-07T08:36:35Z</time>
      </trkpt>
      <trkpt lat="44.64853" lon="3.20311">
        <ele>1137.8000488281</ele>
        <time>2023-05-07T08:36:39Z</time>
      </trkpt>
      <trkpt lat="44.6485" lon="3.20322">
        <ele>1137.8000488281</ele>
        <time>2023-05-07T08:36:41Z</time>
      </trkpt>
      <trkpt lat="44.64849" lon="3.20329">
        <ele>1137.5999755859</ele>
        <time>2023-05-07T08:36:42Z</time>
      </trkpt>
      <trkpt lat="44.64836" lon="3.20368">
        <ele>1137.4000244141</ele>
        <time>2023-05-07T08:36:48Z</time>
      </trkpt>
      <trkpt lat="44.64834" lon="3.20374">
        <ele>1137.4000244141</ele>
        <time>2023-05-07T08:36:49Z</time>
      </trkpt>
      <trkpt lat="44.64824" lon="3.20406">
        <ele>1137.4000244141</ele>
        <time>2023-05-07T08:36:54Z</time>
      </trkpt>
      <trkpt lat="44.64819" lon="3.20425">
        <ele>1137.4000244141</ele>
        <time>2023-05-07T08:36:57Z</time>
      </trkpt>
      <trkpt lat="44.64816" lon="3.20438">
        <ele>1137.1999511719</ele>
        <time>2023-05-07T08:36:59Z</time>
      </trkpt>
      <trkpt lat="44.64811" lon="3.20487">
        <ele>1137.1999511719</ele>
        <time>2023-05-07T08:37:05Z</time>
      </trkpt>
      <trkpt lat="44.64809" lon="3.20548">
        <ele>1136.8000488281</ele>
        <time>2023-05-07T08:37:12Z</time>
      </trkpt>
      <trkpt lat="44.64807" lon="3.20557">
        <ele>1136.8000488281</ele>
        <time>2023-05-07T08:37:13Z</time>
      </trkpt>
      <trkpt lat="44.64804" lon="3.20575">
        <ele>1136.5999755859</ele>
        <time>2023-05-07T08:37:15Z</time>
      </trkpt>
      <trkpt lat="44.64798" lon="3.2059">
        <ele>1136.5999755859</ele>
        <time>2023-05-07T08:37:17Z</time>
      </trkpt>
      <trkpt lat="44.64778" lon="3.20628">
        <ele>1136.5999755859</ele>
        <time>2023-05-07T08:37:22Z</time>
      </trkpt>
      <trkpt lat="44.64739" lon="3.20688">
        <ele>1135.8000488281</ele>
        <time>2023-05-07T08:37:30Z</time>
      </trkpt>
      <trkpt lat="44.64734" lon="3.20695">
        <ele>1135.8000488281</ele>
        <time>2023-05-07T08:37:31Z</time>
      </trkpt>
      <trkpt lat="44.6471" lon="3.20731">
        <ele>1135.1999511719</ele>
        <time>2023-05-07T08:37:36Z</time>
      </trkpt>
      <trkpt lat="44.64689" lon="3.20745">
        <ele>1135</ele>
        <time>2023-05-07T08:37:39Z</time>
      </trkpt>
      <trkpt lat="44.64681" lon="3.20747">
        <ele>1135</ele>
        <time>2023-05-07T08:37:40Z</time>
      </trkpt>
      <trkpt lat="44.64641" lon="3.20761">
        <ele>1134.8000488281</ele>
        <time>2023-05-07T08:37:46Z</time>
      </trkpt>
      <trkpt lat="44.64605" lon="3.20775">
        <ele>1134.5999755859</ele>
        <time>2023-05-07T08:37:52Z</time>
      </trkpt>
      <trkpt lat="44.64578" lon="3.20777">
        <ele>1134.4000244141</ele>
        <time>2023-05-07T08:37:57Z</time>
      </trkpt>
      <trkpt lat="44.64553" lon="3.20777">
        <ele>1134.1999511719</ele>
        <time>2023-05-07T08:38:02Z</time>
      </trkpt>
      <trkpt lat="44.64525" lon="3.20774">
        <ele>1134.1999511719</ele>
        <time>2023-05-07T08:38:08Z</time>
      </trkpt>
      <trkpt lat="44.64501" lon="3.20775">
        <ele>1134.1999511719</ele>
        <time>2023-05-07T08:38:14Z</time>
      </trkpt>
      <trkpt lat="44.64492" lon="3.20779">
        <ele>1134.4000244141</ele>
        <time>2023-05-07T08:38:16Z</time>
      </trkpt>
      <trkpt lat="44.64484" lon="3.20788">
        <ele>1134.4000244141</ele>
        <time>2023-05-07T08:38:18Z</time>
      </trkpt>
      <trkpt lat="44.64479" lon="3.20798">
        <ele>1134.4000244141</ele>
        <time>2023-05-07T08:38:20Z</time>
      </trkpt>
      <trkpt lat="44.64472" lon="3.20807">
        <ele>1134.4000244141</ele>
        <time>2023-05-07T08:38:22Z</time>
      </trkpt>
      <trkpt lat="44.64471" lon="3.20812">
        <ele>1134.4000244141</ele>
        <time>2023-05-07T08:38:23Z</time>
      </trkpt>
      <trkpt lat="44.64469" lon="3.20833">
        <ele>1134.4000244141</ele>
        <time>2023-05-07T08:38:27Z</time>
      </trkpt>
      <trkpt lat="44.64475" lon="3.20851">
        <ele>1134.4000244141</ele>
        <time>2023-05-07T08:38:31Z</time>
      </trkpt>
      <trkpt lat="44.64477" lon="3.20855">
        <ele>1134.4000244141</ele>
        <time>2023-05-07T08:38:32Z</time>
      </trkpt>
      <trkpt lat="44.64481" lon="3.20861">
        <ele>1134.5999755859</ele>
        <time>2023-05-07T08:38:34Z</time>
      </trkpt>
      <trkpt lat="44.64483" lon="3.20864">
        <ele>1134.5999755859</ele>
        <time>2023-05-07T08:38:35Z</time>
      </trkpt>
      <trkpt lat="44.64487" lon="3.20867">
        <ele>1134.5999755859</ele>
        <time>2023-05-07T08:38:37Z</time>
      </trkpt>
      <trkpt lat="44.64492" lon="3.20873">
        <ele>1134.8000488281</ele>
        <time>2023-05-07T08:38:40Z</time>
      </trkpt>
      <trkpt lat="44.64501" lon="3.20883">
        <ele>1135</ele>
        <time>2023-05-07T08:38:44Z</time>
      </trkpt>
      <trkpt lat="44.64513" lon="3.20896">
        <ele>1135.1999511719</ele>
        <time>2023-05-07T08:38:48Z</time>
      </trkpt>
      <trkpt lat="44.64517" lon="3.20902">
        <ele>1135.1999511719</ele>
        <time>2023-05-07T08:38:50Z</time>
      </trkpt>
      <trkpt lat="44.64516" lon="3.20906">
        <ele>1135.1999511719</ele>
        <time>2023-05-07T08:38:51Z</time>
      </trkpt>
      <trkpt lat="44.64515" lon="3.20909">
        <ele>1135.1999511719</ele>
        <time>2023-05-07T08:38:52Z</time>
      </trkpt>
      <trkpt lat="44.64511" lon="3.20915">
        <ele>1135.4000244141</ele>
        <time>2023-05-07T08:38:54Z</time>
      </trkpt>
      <trkpt lat="44.64509" lon="3.20918">
        <ele>1135.4000244141</ele>
        <time>2023-05-07T08:38:55Z</time>
      </trkpt>
      <trkpt lat="44.64507" lon="3.20926">
        <ele>1135.4000244141</ele>
        <time>2023-05-07T08:38:58Z</time>
      </trkpt>
      <trkpt lat="44.64506" lon="3.20928">
        <ele>1135.4000244141</ele>
        <time>2023-05-07T08:38:59Z</time>
      </trkpt>
      <trkpt lat="44.64502" lon="3.20939">
        <ele>1135.5999755859</ele>
        <time>2023-05-07T08:39:02Z</time>
      </trkpt>
      <trkpt lat="44.64501" lon="3.20946">
        <ele>1135.8000488281</ele>
        <time>2023-05-07T08:39:04Z</time>
      </trkpt>
      <trkpt lat="44.64499" lon="3.20951">
        <ele>1135.8000488281</ele>
        <time>2023-05-07T08:39:05Z</time>
      </trkpt>
      <trkpt lat="44.64489" lon="3.20976">
        <ele>1136.1999511719</ele>
        <time>2023-05-07T08:39:11Z</time>
      </trkpt>
      <trkpt lat="44.64484" lon="3.20988">
        <ele>1136.5999755859</ele>
        <time>2023-05-07T08:39:15Z</time>
      </trkpt>
      <trkpt lat="44.64483" lon="3.20991">
        <ele>1136.5999755859</ele>
        <time>2023-05-07T08:39:16Z</time>
      </trkpt>
      <trkpt lat="44.64477" lon="3.21006">
        <ele>1136.8000488281</ele>
        <time>2023-05-07T08:39:20Z</time>
      </trkpt>
      <trkpt lat="44.64474" lon="3.21024">
        <ele>1136.8000488281</ele>
        <time>2023-05-07T08:39:24Z</time>
      </trkpt>
      <trkpt lat="44.64469" lon="3.21039">
        <ele>1136.8000488281</ele>
        <time>2023-05-07T08:39:27Z</time>
      </trkpt>
      <trkpt lat="44.64468" lon="3.21044">
        <ele>1136.5999755859</ele>
        <time>2023-05-07T08:39:28Z</time>
      </trkpt>
      <trkpt lat="44.64457" lon="3.2106">
        <ele>1136.4000244141</ele>
        <time>2023-05-07T08:39:31Z</time>
      </trkpt>
      <trkpt lat="44.64452" lon="3.21065">
        <ele>1136.4000244141</ele>
        <time>2023-05-07T08:39:32Z</time>
      </trkpt>
      <trkpt lat="44.64447" lon="3.21071">
        <ele>1136.4000244141</ele>
        <time>2023-05-07T08:39:33Z</time>
      </trkpt>
      <trkpt lat="44.6444" lon="3.21086">
        <ele>1136.1999511719</ele>
        <time>2023-05-07T08:39:35Z</time>
      </trkpt>
      <trkpt lat="44.64439" lon="3.21094">
        <ele>1136</ele>
        <time>2023-05-07T08:39:36Z</time>
      </trkpt>
      <trkpt lat="44.6444" lon="3.21102">
        <ele>1136</ele>
        <time>2023-05-07T08:39:37Z</time>
      </trkpt>
      <trkpt lat="44.64444" lon="3.21118">
        <ele>1135.8000488281</ele>
        <time>2023-05-07T08:39:39Z</time>
      </trkpt>
      <trkpt lat="44.6445" lon="3.21132">
        <ele>1135.5999755859</ele>
        <time>2023-05-07T08:39:41Z</time>
      </trkpt>
      <trkpt lat="44.64461" lon="3.2115">
        <ele>1135.5999755859</ele>
        <time>2023-05-07T08:39:44Z</time>
      </trkpt>
      <trkpt lat="44.6447" lon="3.2117">
        <ele>1135.5999755859</ele>
        <time>2023-05-07T08:39:47Z</time>
      </trkpt>
      <trkpt lat="44.64474" lon="3.21184">
        <ele>1135.4000244141</ele>
        <time>2023-05-07T08:39:49Z</time>
      </trkpt>
      <trkpt lat="44.64477" lon="3.21199">
        <ele>1135.4000244141</ele>
        <time>2023-05-07T08:39:51Z</time>
      </trkpt>
      <trkpt lat="44.64482" lon="3.21221">
        <ele>1135.4000244141</ele>
        <time>2023-05-07T08:39:54Z</time>
      </trkpt>
      <trkpt lat="44.64492" lon="3.21258">
        <ele>1135.1999511719</ele>
        <time>2023-05-07T08:39:59Z</time>
      </trkpt>
      <trkpt lat="44.64493" lon="3.21266">
        <ele>1135</ele>
        <time>2023-05-07T08:40:00Z</time>
      </trkpt>
      <trkpt lat="44.64492" lon="3.21281">
        <ele>1135</ele>
        <time>2023-05-07T08:40:02Z</time>
      </trkpt>
      <trkpt lat="44.64493" lon="3.21295">
        <ele>1134.5999755859</ele>
        <time>2023-05-07T08:40:04Z</time>
      </trkpt>
      <trkpt lat="44.64493" lon="3.21303">
        <ele>1134.4000244141</ele>
        <time>2023-05-07T08:40:05Z</time>
      </trkpt>
      <trkpt lat="44.64492" lon="3.21343">
        <ele>1133.8000488281</ele>
        <time>2023-05-07T08:40:09Z</time>
      </trkpt>
      <trkpt lat="44.64492" lon="3.21353">
        <ele>1133.8000488281</ele>
        <time>2023-05-07T08:40:10Z</time>
      </trkpt>
      <trkpt lat="44.64494" lon="3.21363">
        <ele>1133.5999755859</ele>
        <time>2023-05-07T08:40:11Z</time>
      </trkpt>
      <trkpt lat="44.64499" lon="3.21381">
        <ele>1133.1999511719</ele>
        <time>2023-05-07T08:40:13Z</time>
      </trkpt>
      <trkpt lat="44.64508" lon="3.21396">
        <ele>1133</ele>
        <time>2023-05-07T08:40:15Z</time>
      </trkpt>
      <trkpt lat="44.64514" lon="3.21401">
        <ele>1133</ele>
        <time>2023-05-07T08:40:16Z</time>
      </trkpt>
      <trkpt lat="44.64532" lon="3.21414">
        <ele>1133</ele>
        <time>2023-05-07T08:40:19Z</time>
      </trkpt>
      <trkpt lat="44.64544" lon="3.2142">
        <ele>1132.8000488281</ele>
        <time>2023-05-07T08:40:21Z</time>
      </trkpt>
      <trkpt lat="44.64574" lon="3.21433">
        <ele>1133</ele>
        <time>2023-05-07T08:40:27Z</time>
      </trkpt>
      <trkpt lat="44.64583" lon="3.21437">
        <ele>1133</ele>
        <time>2023-05-07T08:40:29Z</time>
      </trkpt>
      <trkpt lat="44.64591" lon="3.21439">
        <ele>1132.8000488281</ele>
        <time>2023-05-07T08:40:31Z</time>
      </trkpt>
      <trkpt lat="44.64618" lon="3.21443">
        <ele>1132.4000244141</ele>
        <time>2023-05-07T08:40:37Z</time>
      </trkpt>
      <trkpt lat="44.64658" lon="3.21445">
        <ele>1131.8000488281</ele>
        <time>2023-05-07T08:40:44Z</time>
      </trkpt>
      <trkpt lat="44.64669" lon="3.21448">
        <ele>1131.8000488281</ele>
        <time>2023-05-07T08:40:46Z</time>
      </trkpt>
      <trkpt lat="44.64683" lon="3.21455">
        <ele>1131.5999755859</ele>
        <time>2023-05-07T08:40:49Z</time>
      </trkpt>
      <trkpt lat="44.64698" lon="3.21462">
        <ele>1131.4000244141</ele>
        <time>2023-05-07T08:40:52Z</time>
      </trkpt>
      <trkpt lat="44.64708" lon="3.21468">
        <ele>1131.4000244141</ele>
        <time>2023-05-07T08:40:54Z</time>
      </trkpt>
      <trkpt lat="44.64721" lon="3.21477">
        <ele>1131</ele>
        <time>2023-05-07T08:40:57Z</time>
      </trkpt>
      <trkpt lat="44.64734" lon="3.21485">
        <ele>1130.8000488281</ele>
        <time>2023-05-07T08:41:00Z</time>
      </trkpt>
      <trkpt lat="44.64739" lon="3.21489">
        <ele>1130.8000488281</ele>
        <time>2023-05-07T08:41:01Z</time>
      </trkpt>
      <trkpt lat="44.64742" lon="3.21492">
        <ele>1130.5999755859</ele>
        <time>2023-05-07T08:41:02Z</time>
      </trkpt>
      <trkpt lat="44.64753" lon="3.21504">
        <ele>1130.1999511719</ele>
        <time>2023-05-07T08:41:05Z</time>
      </trkpt>
      <trkpt lat="44.64756" lon="3.21508">
        <ele>1130</ele>
        <time>2023-05-07T08:41:06Z</time>
      </trkpt>
      <trkpt lat="44.64767" lon="3.21523">
        <ele>1129.5999755859</ele>
        <time>2023-05-07T08:41:09Z</time>
      </trkpt>
      <trkpt lat="44.64777" lon="3.21532">
        <ele>1129.4000244141</ele>
        <time>2023-05-07T08:41:11Z</time>
      </trkpt>
      <trkpt lat="44.64807" lon="3.21561">
        <ele>1129</ele>
        <time>2023-05-07T08:41:17Z</time>
      </trkpt>
      <trkpt lat="44.6483" lon="3.21587">
        <ele>1128.8000488281</ele>
        <time>2023-05-07T08:41:22Z</time>
      </trkpt>
      <trkpt lat="44.64853" lon="3.21612">
        <ele>1128.5999755859</ele>
        <time>2023-05-07T08:41:27Z</time>
      </trkpt>
      <trkpt lat="44.64859" lon="3.21615">
        <ele>1128.4000244141</ele>
        <time>2023-05-07T08:41:28Z</time>
      </trkpt>
      <trkpt lat="44.64865" lon="3.21617">
        <ele>1128.4000244141</ele>
        <time>2023-05-07T08:41:29Z</time>
      </trkpt>
      <trkpt lat="44.64879" lon="3.21615">
        <ele>1128</ele>
        <time>2023-05-07T08:41:31Z</time>
      </trkpt>
      <trkpt lat="44.64897" lon="3.21607">
        <ele>1127.5999755859</ele>
        <time>2023-05-07T08:41:34Z</time>
      </trkpt>
      <trkpt lat="44.64909" lon="3.21599">
        <ele>1127.1999511719</ele>
        <time>2023-05-07T08:41:36Z</time>
      </trkpt>
      <trkpt lat="44.64915" lon="3.21597">
        <ele>1127</ele>
        <time>2023-05-07T08:41:37Z</time>
      </trkpt>
      <trkpt lat="44.64926" lon="3.21599">
        <ele>1126.5999755859</ele>
        <time>2023-05-07T08:41:39Z</time>
      </trkpt>
      <trkpt lat="44.64942" lon="3.21616">
        <ele>1126.1999511719</ele>
        <time>2023-05-07T08:41:43Z</time>
      </trkpt>
      <trkpt lat="44.64952" lon="3.21629">
        <ele>1125.8000488281</ele>
        <time>2023-05-07T08:41:46Z</time>
      </trkpt>
      <trkpt lat="44.64962" lon="3.21642">
        <ele>1125.4000244141</ele>
        <time>2023-05-07T08:41:49Z</time>
      </trkpt>
      <trkpt lat="44.64968" lon="3.21651">
        <ele>1125.4000244141</ele>
        <time>2023-05-07T08:41:51Z</time>
      </trkpt>
      <trkpt lat="44.64972" lon="3.21656">
        <ele>1125.4000244141</ele>
        <time>2023-05-07T08:41:52Z</time>
      </trkpt>
      <trkpt lat="44.64975" lon="3.21661">
        <ele>1125.1999511719</ele>
        <time>2023-05-07T08:41:53Z</time>
      </trkpt>
      <trkpt lat="44.64976" lon="3.21673">
        <ele>1125</ele>
        <time>2023-05-07T08:41:55Z</time>
      </trkpt>
      <trkpt lat="44.64972" lon="3.21691">
        <ele>1124.8000488281</ele>
        <time>2023-05-07T08:41:58Z</time>
      </trkpt>
      <trkpt lat="44.6497" lon="3.21696">
        <ele>1124.5999755859</ele>
        <time>2023-05-07T08:41:59Z</time>
      </trkpt>
      <trkpt lat="44.64964" lon="3.21707">
        <ele>1124.4000244141</ele>
        <time>2023-05-07T08:42:01Z</time>
      </trkpt>
      <trkpt lat="44.6496" lon="3.21717">
        <ele>1124.1999511719</ele>
        <time>2023-05-07T08:42:03Z</time>
      </trkpt>
      <trkpt lat="44.64958" lon="3.21722">
        <ele>1124</ele>
        <time>2023-05-07T08:42:04Z</time>
      </trkpt>
      <trkpt lat="44.6495" lon="3.21733">
        <ele>1123.5999755859</ele>
        <time>2023-05-07T08:42:07Z</time>
      </trkpt>
      <trkpt lat="44.64943" lon="3.21738">
        <ele>1123.1999511719</ele>
        <time>2023-05-07T08:42:09Z</time>
      </trkpt>
      <trkpt lat="44.64941" lon="3.21741">
        <ele>1123</ele>
        <time>2023-05-07T08:42:10Z</time>
      </trkpt>
      <trkpt lat="44.64934" lon="3.21746">
        <ele>1122.8000488281</ele>
        <time>2023-05-07T08:42:12Z</time>
      </trkpt>
      <trkpt lat="44.64931" lon="3.2175">
        <ele>1122.5999755859</ele>
        <time>2023-05-07T08:42:13Z</time>
      </trkpt>
      <trkpt lat="44.64926" lon="3.21759">
        <ele>1122</ele>
        <time>2023-05-07T08:42:15Z</time>
      </trkpt>
      <trkpt lat="44.64921" lon="3.21762">
        <ele>1121.8000488281</ele>
        <time>2023-05-07T08:42:16Z</time>
      </trkpt>
      <trkpt lat="44.64901" lon="3.21775">
        <ele>1121.5999755859</ele>
        <time>2023-05-07T08:42:20Z</time>
      </trkpt>
      <trkpt lat="44.64895" lon="3.21783">
        <ele>1121.4000244141</ele>
        <time>2023-05-07T08:42:22Z</time>
      </trkpt>
      <trkpt lat="44.6489" lon="3.21792">
        <ele>1121.1999511719</ele>
        <time>2023-05-07T08:42:24Z</time>
      </trkpt>
      <trkpt lat="44.6488" lon="3.21805">
        <ele>1120.8000488281</ele>
        <time>2023-05-07T08:42:27Z</time>
      </trkpt>
      <trkpt lat="44.64877" lon="3.2181">
        <ele>1120.8000488281</ele>
        <time>2023-05-07T08:42:28Z</time>
      </trkpt>
      <trkpt lat="44.64868" lon="3.21827">
        <ele>1120.5999755859</ele>
        <time>2023-05-07T08:42:32Z</time>
      </trkpt>
      <trkpt lat="44.64859" lon="3.2184">
        <ele>1121</ele>
        <time>2023-05-07T08:42:36Z</time>
      </trkpt>
      <trkpt lat="44.64843" lon="3.21847">
        <ele>1121</ele>
        <time>2023-05-07T08:42:41Z</time>
      </trkpt>
      <trkpt lat="44.64839" lon="3.21851">
        <ele>1121</ele>
        <time>2023-05-07T08:42:42Z</time>
      </trkpt>
      <trkpt lat="44.64835" lon="3.21862">
        <ele>1121</ele>
        <time>2023-05-07T08:42:44Z</time>
      </trkpt>
      <trkpt lat="44.6483" lon="3.21875">
        <ele>1120.8000488281</ele>
        <time>2023-05-07T08:42:46Z</time>
      </trkpt>
      <trkpt lat="44.64824" lon="3.21886">
        <ele>1120.5999755859</ele>
        <time>2023-05-07T08:42:48Z</time>
      </trkpt>
      <trkpt lat="44.64816" lon="3.21898">
        <ele>1120.1999511719</ele>
        <time>2023-05-07T08:42:51Z</time>
      </trkpt>
      <trkpt lat="44.64814" lon="3.21901">
        <ele>1120</ele>
        <time>2023-05-07T08:42:52Z</time>
      </trkpt>
      <trkpt lat="44.64821" lon="3.21904">
        <ele>1119.4000244141</ele>
        <time>2023-05-07T08:42:55Z</time>
      </trkpt>
      <trkpt lat="44.64825" lon="3.21905">
        <ele>1119.4000244141</ele>
        <time>2023-05-07T08:42:56Z</time>
      </trkpt>
      <trkpt lat="44.64833" lon="3.21912">
        <ele>1119</ele>
        <time>2023-05-07T08:42:58Z</time>
      </trkpt>
      <trkpt lat="44.64844" lon="3.21921">
        <ele>1118.5999755859</ele>
        <time>2023-05-07T08:43:00Z</time>
      </trkpt>
      <trkpt lat="44.64856" lon="3.21924">
        <ele>1118.1999511719</ele>
        <time>2023-05-07T08:43:02Z</time>
      </trkpt>
      <trkpt lat="44.64877" lon="3.21922">
        <ele>1118</ele>
        <time>2023-05-07T08:43:05Z</time>
      </trkpt>
      <trkpt lat="44.64884" lon="3.2192">
        <ele>1118</ele>
        <time>2023-05-07T08:43:06Z</time>
      </trkpt>
      <trkpt lat="44.64903" lon="3.21915">
        <ele>1117.5999755859</ele>
        <time>2023-05-07T08:43:09Z</time>
      </trkpt>
      <trkpt lat="44.6491" lon="3.21915">
        <ele>1117.5999755859</ele>
        <time>2023-05-07T08:43:10Z</time>
      </trkpt>
      <trkpt lat="44.64932" lon="3.21913">
        <ele>1117.4000244141</ele>
        <time>2023-05-07T08:43:13Z</time>
      </trkpt>
      <trkpt lat="44.64939" lon="3.21911">
        <ele>1117.1999511719</ele>
        <time>2023-05-07T08:43:14Z</time>
      </trkpt>
      <trkpt lat="44.64946" lon="3.21907">
        <ele>1117.1999511719</ele>
        <time>2023-05-07T08:43:15Z</time>
      </trkpt>
      <trkpt lat="44.64959" lon="3.21894">
        <ele>1117</ele>
        <time>2023-05-07T08:43:17Z</time>
      </trkpt>
      <trkpt lat="44.64969" lon="3.21878">
        <ele>1116.5999755859</ele>
        <time>2023-05-07T08:43:19Z</time>
      </trkpt>
      <trkpt lat="44.64973" lon="3.21869">
        <ele>1116.5999755859</ele>
        <time>2023-05-07T08:43:20Z</time>
      </trkpt>
      <trkpt lat="44.64985" lon="3.21843">
        <ele>1116</ele>
        <time>2023-05-07T08:43:23Z</time>
      </trkpt>
      <trkpt lat="44.64994" lon="3.21829">
        <ele>1115.5999755859</ele>
        <time>2023-05-07T08:43:25Z</time>
      </trkpt>
      <trkpt lat="44.65005" lon="3.21821">
        <ele>1115.1999511719</ele>
        <time>2023-05-07T08:43:27Z</time>
      </trkpt>
      <trkpt lat="44.65011" lon="3.2182">
        <ele>1115</ele>
        <time>2023-05-07T08:43:28Z</time>
      </trkpt>
      <trkpt lat="44.65017" lon="3.21823">
        <ele>1114.5999755859</ele>
        <time>2023-05-07T08:43:29Z</time>
      </trkpt>
      <trkpt lat="44.65026" lon="3.21835">
        <ele>1114.1999511719</ele>
        <time>2023-05-07T08:43:31Z</time>
      </trkpt>
      <trkpt lat="44.6504" lon="3.21878">
        <ele>1112.4000244141</ele>
        <time>2023-05-07T08:43:35Z</time>
      </trkpt>
      <trkpt lat="44.65046" lon="3.21903">
        <ele>1111.5999755859</ele>
        <time>2023-05-07T08:43:37Z</time>
      </trkpt>
      <trkpt lat="44.65047" lon="3.21929">
        <ele>1110.5999755859</ele>
        <time>2023-05-07T08:43:39Z</time>
      </trkpt>
      <trkpt lat="44.65046" lon="3.21967">
        <ele>1109.4000244141</ele>
        <time>2023-05-07T08:43:42Z</time>
      </trkpt>
      <trkpt lat="44.65048" lon="3.21978">
        <ele>1109</ele>
        <time>2023-05-07T08:43:43Z</time>
      </trkpt>
      <trkpt lat="44.6505" lon="3.21987">
        <ele>1108.5999755859</ele>
        <time>2023-05-07T08:43:44Z</time>
      </trkpt>
      <trkpt lat="44.65059" lon="3.22004">
        <ele>1108</ele>
        <time>2023-05-07T08:43:46Z</time>
      </trkpt>
      <trkpt lat="44.65073" lon="3.22015">
        <ele>1107.1999511719</ele>
        <time>2023-05-07T08:43:48Z</time>
      </trkpt>
      <trkpt lat="44.65081" lon="3.22019">
        <ele>1106.8000488281</ele>
        <time>2023-05-07T08:43:49Z</time>
      </trkpt>
      <trkpt lat="44.65121" lon="3.22034">
        <ele>1105.4000244141</ele>
        <time>2023-05-07T08:43:54Z</time>
      </trkpt>
      <trkpt lat="44.65136" lon="3.22046">
        <ele>1104.8000488281</ele>
        <time>2023-05-07T08:43:56Z</time>
      </trkpt>
      <trkpt lat="44.65142" lon="3.22053">
        <ele>1104.5999755859</ele>
        <time>2023-05-07T08:43:57Z</time>
      </trkpt>
      <trkpt lat="44.65182" lon="3.22106">
        <ele>1102.5999755859</ele>
        <time>2023-05-07T08:44:04Z</time>
      </trkpt>
      <trkpt lat="44.65188" lon="3.22126">
        <ele>1101.8000488281</ele>
        <time>2023-05-07T08:44:06Z</time>
      </trkpt>
      <trkpt lat="44.65188" lon="3.22137">
        <ele>1101.5999755859</ele>
        <time>2023-05-07T08:44:07Z</time>
      </trkpt>
      <trkpt lat="44.65189" lon="3.22152">
        <ele>1100.8000488281</ele>
        <time>2023-05-07T08:44:09Z</time>
      </trkpt>
      <trkpt lat="44.65192" lon="3.22158">
        <ele>1100.5999755859</ele>
        <time>2023-05-07T08:44:10Z</time>
      </trkpt>
      <trkpt lat="44.65201" lon="3.22176">
        <ele>1099.4000244141</ele>
        <time>2023-05-07T08:44:14Z</time>
      </trkpt>
      <trkpt lat="44.65204" lon="3.22179">
        <ele>1099</ele>
        <time>2023-05-07T08:44:15Z</time>
      </trkpt>
      <trkpt lat="44.6521" lon="3.22187">
        <ele>1098.4000244141</ele>
        <time>2023-05-07T08:44:17Z</time>
      </trkpt>
      <trkpt lat="44.65213" lon="3.22201">
        <ele>1097.8000488281</ele>
        <time>2023-05-07T08:44:19Z</time>
      </trkpt>
      <trkpt lat="44.65215" lon="3.22208">
        <ele>1097.5999755859</ele>
        <time>2023-05-07T08:44:20Z</time>
      </trkpt>
      <trkpt lat="44.65219" lon="3.2222">
        <ele>1096.8000488281</ele>
        <time>2023-05-07T08:44:23Z</time>
      </trkpt>
      <trkpt lat="44.65223" lon="3.22225">
        <ele>1096.1999511719</ele>
        <time>2023-05-07T08:44:25Z</time>
      </trkpt>
      <trkpt lat="44.65227" lon="3.22227">
        <ele>1096</ele>
        <time>2023-05-07T08:44:26Z</time>
      </trkpt>
      <trkpt lat="44.65234" lon="3.22233">
        <ele>1095.1999511719</ele>
        <time>2023-05-07T08:44:29Z</time>
      </trkpt>
      <trkpt lat="44.65252" lon="3.22236">
        <ele>1094.4000244141</ele>
        <time>2023-05-07T08:44:35Z</time>
      </trkpt>
      <trkpt lat="44.65263" lon="3.22236">
        <ele>1093.5999755859</ele>
        <time>2023-05-07T08:44:39Z</time>
      </trkpt>
      <trkpt lat="44.65275" lon="3.22238">
        <ele>1092.5999755859</ele>
        <time>2023-05-07T08:44:44Z</time>
      </trkpt>
      <trkpt lat="44.65281" lon="3.22238">
        <ele>1092.1999511719</ele>
        <time>2023-05-07T08:44:47Z</time>
      </trkpt>
      <trkpt lat="44.65286" lon="3.22238">
        <ele>1092</ele>
        <time>2023-05-07T08:44:49Z</time>
      </trkpt>
      <trkpt lat="44.65297" lon="3.22239">
        <ele>1091.5999755859</ele>
        <time>2023-05-07T08:44:54Z</time>
      </trkpt>
      <trkpt lat="44.65308" lon="3.2224">
        <ele>1090.8000488281</ele>
        <time>2023-05-07T08:45:00Z</time>
      </trkpt>
      <trkpt lat="44.65311" lon="3.22241">
        <ele>1090.5999755859</ele>
        <time>2023-05-07T08:45:02Z</time>
      </trkpt>
      <trkpt lat="44.65315" lon="3.22243">
        <ele>1090.1999511719</ele>
        <time>2023-05-07T08:45:05Z</time>
      </trkpt>
      <trkpt lat="44.65326" lon="3.22247">
        <ele>1089.8000488281</ele>
        <time>2023-05-07T08:45:10Z</time>
      </trkpt>
      <trkpt lat="44.65335" lon="3.22252">
        <ele>1089.5999755859</ele>
        <time>2023-05-07T08:45:15Z</time>
      </trkpt>
      <trkpt lat="44.65347" lon="3.22259">
        <ele>1089.5999755859</ele>
        <time>2023-05-07T08:45:21Z</time>
      </trkpt>
      <trkpt lat="44.6536" lon="3.22271">
        <ele>1090</ele>
        <time>2023-05-07T08:45:27Z</time>
      </trkpt>
      <trkpt lat="44.65368" lon="3.2228">
        <ele>1089.8000488281</ele>
        <time>2023-05-07T08:45:31Z</time>
      </trkpt>
      <trkpt lat="44.65375" lon="3.22286">
        <ele>1089.5999755859</ele>
        <time>2023-05-07T08:45:34Z</time>
      </trkpt>
      <trkpt lat="44.65378" lon="3.22289">
        <ele>1089.8000488281</ele>
        <time>2023-05-07T08:45:35Z</time>
      </trkpt>
      <trkpt lat="44.65386" lon="3.22302">
        <ele>1089.8000488281</ele>
        <time>2023-05-07T08:45:41Z</time>
      </trkpt>
      <trkpt lat="44.65393" lon="3.22312">
        <ele>1089.8000488281</ele>
        <time>2023-05-07T08:45:45Z</time>
      </trkpt>
      <trkpt lat="44.65401" lon="3.22325">
        <ele>1090.1999511719</ele>
        <time>2023-05-07T08:45:50Z</time>
      </trkpt>
      <trkpt lat="44.65411" lon="3.2234">
        <ele>1090.5999755859</ele>
        <time>2023-05-07T08:45:56Z</time>
      </trkpt>
      <trkpt lat="44.65419" lon="3.22349">
        <ele>1090.5999755859</ele>
        <time>2023-05-07T08:46:00Z</time>
      </trkpt>
      <trkpt lat="44.65432" lon="3.22366">
        <ele>1090.5999755859</ele>
        <time>2023-05-07T08:46:07Z</time>
      </trkpt>
      <trkpt lat="44.65434" lon="3.22369">
        <ele>1090.8000488281</ele>
        <time>2023-05-07T08:46:08Z</time>
      </trkpt>
      <trkpt lat="44.6544" lon="3.22375">
        <ele>1091</ele>
        <time>2023-05-07T08:46:11Z</time>
      </trkpt>
      <trkpt lat="44.65447" lon="3.22382">
        <ele>1091.1999511719</ele>
        <time>2023-05-07T08:46:14Z</time>
      </trkpt>
      <trkpt lat="44.6545" lon="3.22386">
        <ele>1091.4000244141</ele>
        <time>2023-05-07T08:46:16Z</time>
      </trkpt>
      <trkpt lat="44.6545" lon="3.22389">
        <ele>1091.4000244141</ele>
        <time>2023-05-07T08:46:17Z</time>
      </trkpt>
      <trkpt lat="44.65449" lon="3.22392">
        <ele>1091.4000244141</ele>
        <time>2023-05-07T08:46:18Z</time>
      </trkpt>
      <trkpt lat="44.65446" lon="3.22399">
        <ele>1091.8000488281</ele>
        <time>2023-05-07T08:46:21Z</time>
      </trkpt>
      <trkpt lat="44.65445" lon="3.22402">
        <ele>1091.8000488281</ele>
        <time>2023-05-07T08:46:22Z</time>
      </trkpt>
      <trkpt lat="44.65443" lon="3.22406">
        <ele>1092</ele>
        <time>2023-05-07T08:46:24Z</time>
      </trkpt>
      <trkpt lat="44.6544" lon="3.22414">
        <ele>1092</ele>
        <time>2023-05-07T08:46:28Z</time>
      </trkpt>
      <trkpt lat="44.65438" lon="3.22422">
        <ele>1092.4000244141</ele>
        <time>2023-05-07T08:46:32Z</time>
      </trkpt>
      <trkpt lat="44.65435" lon="3.22434">
        <ele>1092.5999755859</ele>
        <time>2023-05-07T08:46:37Z</time>
      </trkpt>
      <trkpt lat="44.65435" lon="3.22438">
        <ele>1092.8000488281</ele>
        <time>2023-05-07T08:46:39Z</time>
      </trkpt>
      <trkpt lat="44.65434" lon="3.22441">
        <ele>1092.8000488281</ele>
        <time>2023-05-07T08:46:41Z</time>
      </trkpt>
      <trkpt lat="44.65433" lon="3.22443">
        <ele>1092.8000488281</ele>
        <time>2023-05-07T08:46:42Z</time>
      </trkpt>
      <trkpt lat="44.65431" lon="3.22447">
        <ele>1093</ele>
        <time>2023-05-07T08:46:45Z</time>
      </trkpt>
      <trkpt lat="44.65431" lon="3.22451">
        <ele>1093</ele>
        <time>2023-05-07T08:46:47Z</time>
      </trkpt>
      <trkpt lat="44.65428" lon="3.22458">
        <ele>1093.4000244141</ele>
        <time>2023-05-07T08:46:50Z</time>
      </trkpt>
      <trkpt lat="44.65426" lon="3.22468">
        <ele>1094</ele>
        <time>2023-05-07T08:46:55Z</time>
      </trkpt>
      <trkpt lat="44.65425" lon="3.2247">
        <ele>1094</ele>
        <time>2023-05-07T08:46:56Z</time>
      </trkpt>
      <trkpt lat="44.65424" lon="3.22474">
        <ele>1094.1999511719</ele>
        <time>2023-05-07T08:46:58Z</time>
      </trkpt>
      <trkpt lat="44.65424" lon="3.22476">
        <ele>1094.1999511719</ele>
        <time>2023-05-07T08:46:59Z</time>
      </trkpt>
      <trkpt lat="44.65421" lon="3.22483">
        <ele>1094.5999755859</ele>
        <time>2023-05-07T08:47:03Z</time>
      </trkpt>
      <trkpt lat="44.65418" lon="3.22493">
        <ele>1094.8000488281</ele>
        <time>2023-05-07T08:47:09Z</time>
      </trkpt>
      <trkpt lat="44.65417" lon="3.22497">
        <ele>1095</ele>
        <time>2023-05-07T08:47:13Z</time>
      </trkpt>
      <trkpt lat="44.65416" lon="3.22503">
        <ele>1095.1999511719</ele>
        <time>2023-05-07T08:47:18Z</time>
      </trkpt>
      <trkpt lat="44.6541" lon="3.22511">
        <ele>1095.5999755859</ele>
        <time>2023-05-07T08:47:22Z</time>
      </trkpt>
      <trkpt lat="44.65406" lon="3.22515">
        <ele>1096.4000244141</ele>
        <time>2023-05-07T08:47:27Z</time>
      </trkpt>
      <trkpt lat="44.65401" lon="3.22524">
        <ele>1097</ele>
        <time>2023-05-07T08:47:32Z</time>
      </trkpt>
      <trkpt lat="44.65396" lon="3.22533">
        <ele>1097.8000488281</ele>
        <time>2023-05-07T08:47:37Z</time>
      </trkpt>
      <trkpt lat="44.65393" lon="3.22539">
        <ele>1098.4000244141</ele>
        <time>2023-05-07T08:47:41Z</time>
      </trkpt>
      <trkpt lat="44.6539" lon="3.22547">
        <ele>1099.5999755859</ele>
        <time>2023-05-07T08:47:46Z</time>
      </trkpt>
      <trkpt lat="44.65388" lon="3.22552">
        <ele>1100</ele>
        <time>2023-05-07T08:47:48Z</time>
      </trkpt>
      <trkpt lat="44.65384" lon="3.2256">
        <ele>1100.8000488281</ele>
        <time>2023-05-07T08:47:52Z</time>
      </trkpt>
      <trkpt lat="44.65383" lon="3.22562">
        <ele>1100.8000488281</ele>
        <time>2023-05-07T08:47:53Z</time>
      </trkpt>
      <trkpt lat="44.65379" lon="3.22571">
        <ele>1101.4000244141</ele>
        <time>2023-05-07T08:47:58Z</time>
      </trkpt>
      <trkpt lat="44.65378" lon="3.22572">
        <ele>1101.5999755859</ele>
        <time>2023-05-07T08:47:59Z</time>
      </trkpt>
      <trkpt lat="44.65372" lon="3.22582">
        <ele>1102.1999511719</ele>
        <time>2023-05-07T08:48:05Z</time>
      </trkpt>
      <trkpt lat="44.65364" lon="3.22592">
        <ele>1102.8000488281</ele>
        <time>2023-05-07T08:48:10Z</time>
      </trkpt>
      <trkpt lat="44.65358" lon="3.22598">
        <ele>1103</ele>
        <time>2023-05-07T08:48:12Z</time>
      </trkpt>
      <trkpt lat="44.6535" lon="3.22605">
        <ele>1103.1999511719</ele>
        <time>2023-05-07T08:48:14Z</time>
      </trkpt>
      <trkpt lat="44.65343" lon="3.22612">
        <ele>1103.4000244141</ele>
        <time>2023-05-07T08:48:16Z</time>
      </trkpt>
      <trkpt lat="44.65341" lon="3.22624">
        <ele>1103.4000244141</ele>
        <time>2023-05-07T08:48:18Z</time>
      </trkpt>
      <trkpt lat="44.65339" lon="3.2267">
        <ele>1103.8000488281</ele>
        <time>2023-05-07T08:48:25Z</time>
      </trkpt>
      <trkpt lat="44.65337" lon="3.22684">
        <ele>1103.8000488281</ele>
        <time>2023-05-07T08:48:27Z</time>
      </trkpt>
      <trkpt lat="44.6533" lon="3.22696">
        <ele>1103.8000488281</ele>
        <time>2023-05-07T08:48:29Z</time>
      </trkpt>
      <trkpt lat="44.65323" lon="3.22707">
        <ele>1103.8000488281</ele>
        <time>2023-05-07T08:48:31Z</time>
      </trkpt>
      <trkpt lat="44.6532" lon="3.22721">
        <ele>1103.8000488281</ele>
        <time>2023-05-07T08:48:33Z</time>
      </trkpt>
      <trkpt lat="44.6532" lon="3.22734">
        <ele>1103.5999755859</ele>
        <time>2023-05-07T08:48:35Z</time>
      </trkpt>
      <trkpt lat="44.65314" lon="3.22747">
        <ele>1103.4000244141</ele>
        <time>2023-05-07T08:48:37Z</time>
      </trkpt>
      <trkpt lat="44.65312" lon="3.22753">
        <ele>1103.1999511719</ele>
        <time>2023-05-07T08:48:38Z</time>
      </trkpt>
      <trkpt lat="44.65313" lon="3.22755">
        <ele>1103.1999511719</ele>
        <time>2023-05-07T08:48:39Z</time>
      </trkpt>
      <trkpt lat="44.65308" lon="3.22774">
        <ele>1103.4000244141</ele>
        <time>2023-05-07T08:48:45Z</time>
      </trkpt>
      <trkpt lat="44.65309" lon="3.22802">
        <ele>1104.1999511719</ele>
        <time>2023-05-07T08:48:53Z</time>
      </trkpt>
      <trkpt lat="44.6531" lon="3.22821">
        <ele>1104.8000488281</ele>
        <time>2023-05-07T08:48:58Z</time>
      </trkpt>
      <trkpt lat="44.65302" lon="3.22836">
        <ele>1105.1999511719</ele>
        <time>2023-05-07T08:49:03Z</time>
      </trkpt>
      <trkpt lat="44.65287" lon="3.22844">
        <ele>1105.5999755859</ele>
        <time>2023-05-07T08:49:08Z</time>
      </trkpt>
      <trkpt lat="44.6527" lon="3.22854">
        <ele>1106.1999511719</ele>
        <time>2023-05-07T08:49:13Z</time>
      </trkpt>
      <trkpt lat="44.65251" lon="3.22865">
        <ele>1106.4000244141</ele>
        <time>2023-05-07T08:49:18Z</time>
      </trkpt>
      <trkpt lat="44.6522" lon="3.22882">
        <ele>1106.5999755859</ele>
        <time>2023-05-07T08:49:25Z</time>
      </trkpt>
      <trkpt lat="44.6519" lon="3.22896">
        <ele>1106.8000488281</ele>
        <time>2023-05-07T08:49:30Z</time>
      </trkpt>
      <trkpt lat="44.65145" lon="3.22926">
        <ele>1107</ele>
        <time>2023-05-07T08:49:37Z</time>
      </trkpt>
      <trkpt lat="44.65109" lon="3.22951">
        <ele>1106.8000488281</ele>
        <time>2023-05-07T08:49:42Z</time>
      </trkpt>
      <trkpt lat="44.65072" lon="3.22976">
        <ele>1106.4000244141</ele>
        <time>2023-05-07T08:49:46Z</time>
      </trkpt>
      <trkpt lat="44.65022" lon="3.23005">
        <ele>1105.4000244141</ele>
        <time>2023-05-07T08:49:51Z</time>
      </trkpt>
      <trkpt lat="44.64971" lon="3.23029">
        <ele>1104.8000488281</ele>
        <time>2023-05-07T08:49:56Z</time>
      </trkpt>
      <trkpt lat="44.64951" lon="3.23039">
        <ele>1104.5999755859</ele>
        <time>2023-05-07T08:49:58Z</time>
      </trkpt>
      <trkpt lat="44.64899" lon="3.23069">
        <ele>1104.1999511719</ele>
        <time>2023-05-07T08:50:04Z</time>
      </trkpt>
      <trkpt lat="44.6485" lon="3.23099">
        <ele>1103.1999511719</ele>
        <time>2023-05-07T08:50:10Z</time>
      </trkpt>
      <trkpt lat="44.64823" lon="3.23109">
        <ele>1102</ele>
        <time>2023-05-07T08:50:13Z</time>
      </trkpt>
      <trkpt lat="44.64813" lon="3.2311">
        <ele>1101.4000244141</ele>
        <time>2023-05-07T08:50:14Z</time>
      </trkpt>
      <trkpt lat="44.64751" lon="3.23111">
        <ele>1099</ele>
        <time>2023-05-07T08:50:20Z</time>
      </trkpt>
      <trkpt lat="44.64695" lon="3.23118">
        <ele>1097.4000244141</ele>
        <time>2023-05-07T08:50:25Z</time>
      </trkpt>
      <trkpt lat="44.64637" lon="3.23127">
        <ele>1096</ele>
        <time>2023-05-07T08:50:30Z</time>
      </trkpt>
      <trkpt lat="44.64593" lon="3.23135">
        <ele>1094.8000488281</ele>
        <time>2023-05-07T08:50:34Z</time>
      </trkpt>
      <trkpt lat="44.64582" lon="3.23135">
        <ele>1094.4000244141</ele>
        <time>2023-05-07T08:50:35Z</time>
      </trkpt>
      <trkpt lat="44.64561" lon="3.23131">
        <ele>1093.8000488281</ele>
        <time>2023-05-07T08:50:37Z</time>
      </trkpt>
      <trkpt lat="44.64541" lon="3.23123">
        <ele>1093.1999511719</ele>
        <time>2023-05-07T08:50:39Z</time>
      </trkpt>
      <trkpt lat="44.64523" lon="3.23111">
        <ele>1092.8000488281</ele>
        <time>2023-05-07T08:50:41Z</time>
      </trkpt>
      <trkpt lat="44.64503" lon="3.23095">
        <ele>1092.1999511719</ele>
        <time>2023-05-07T08:50:44Z</time>
      </trkpt>
      <trkpt lat="44.64496" lon="3.23092">
        <ele>1092</ele>
        <time>2023-05-07T08:50:45Z</time>
      </trkpt>
      <trkpt lat="44.6449" lon="3.2309">
        <ele>1091.8000488281</ele>
        <time>2023-05-07T08:50:46Z</time>
      </trkpt>
      <trkpt lat="44.6447" lon="3.23087">
        <ele>1090.8000488281</ele>
        <time>2023-05-07T08:50:49Z</time>
      </trkpt>
      <trkpt lat="44.6446" lon="3.23083">
        <ele>1090.4000244141</ele>
        <time>2023-05-07T08:50:51Z</time>
      </trkpt>
      <trkpt lat="44.64445" lon="3.23078">
        <ele>1089.4000244141</ele>
        <time>2023-05-07T08:50:54Z</time>
      </trkpt>
      <trkpt lat="44.64425" lon="3.23072">
        <ele>1088</ele>
        <time>2023-05-07T08:50:58Z</time>
      </trkpt>
      <trkpt lat="44.64415" lon="3.23068">
        <ele>1086.4000244141</ele>
        <time>2023-05-07T08:51:02Z</time>
      </trkpt>
      <trkpt lat="44.64409" lon="3.23066">
        <ele>1085</ele>
        <time>2023-05-07T08:51:05Z</time>
      </trkpt>
      <trkpt lat="44.644" lon="3.23066">
        <ele>1083</ele>
        <time>2023-05-07T08:51:09Z</time>
      </trkpt>
      <trkpt lat="44.64393" lon="3.23067">
        <ele>1082</ele>
        <time>2023-05-07T08:51:11Z</time>
      </trkpt>
      <trkpt lat="44.64388" lon="3.23069">
        <ele>1081.4000244141</ele>
        <time>2023-05-07T08:51:12Z</time>
      </trkpt>
      <trkpt lat="44.64385" lon="3.23072">
        <ele>1081</ele>
        <time>2023-05-07T08:51:13Z</time>
      </trkpt>
      <trkpt lat="44.64378" lon="3.23081">
        <ele>1079.1999511719</ele>
        <time>2023-05-07T08:51:16Z</time>
      </trkpt>
      <trkpt lat="44.64372" lon="3.23095">
        <ele>1077.5999755859</ele>
        <time>2023-05-07T08:51:19Z</time>
      </trkpt>
      <trkpt lat="44.6437" lon="3.23107">
        <ele>1076.5999755859</ele>
        <time>2023-05-07T08:51:21Z</time>
      </trkpt>
      <trkpt lat="44.64367" lon="3.23125">
        <ele>1074.8000488281</ele>
        <time>2023-05-07T08:51:24Z</time>
      </trkpt>
      <trkpt lat="44.64364" lon="3.23142">
        <ele>1073.4000244141</ele>
        <time>2023-05-07T08:51:28Z</time>
      </trkpt>
      <trkpt lat="44.64364" lon="3.23157">
        <ele>1072.1999511719</ele>
        <time>2023-05-07T08:51:31Z</time>
      </trkpt>
      <trkpt lat="44.64364" lon="3.23173">
        <ele>1071.5999755859</ele>
        <time>2023-05-07T08:51:33Z</time>
      </trkpt>
      <trkpt lat="44.64361" lon="3.23223">
        <ele>1070.5999755859</ele>
        <time>2023-05-07T08:51:39Z</time>
      </trkpt>
      <trkpt lat="44.64359" lon="3.23238">
        <ele>1070</ele>
        <time>2023-05-07T08:51:41Z</time>
      </trkpt>
      <trkpt lat="44.64359" lon="3.23258">
        <ele>1069.4000244141</ele>
        <time>2023-05-07T08:51:44Z</time>
      </trkpt>
      <trkpt lat="44.64365" lon="3.23271">
        <ele>1069</ele>
        <time>2023-05-07T08:51:46Z</time>
      </trkpt>
      <trkpt lat="44.6437" lon="3.23291">
        <ele>1068.5999755859</ele>
        <time>2023-05-07T08:51:49Z</time>
      </trkpt>
      <trkpt lat="44.64372" lon="3.23298">
        <ele>1068.5999755859</ele>
        <time>2023-05-07T08:51:50Z</time>
      </trkpt>
      <trkpt lat="44.64374" lon="3.23321">
        <ele>1067.8000488281</ele>
        <time>2023-05-07T08:51:54Z</time>
      </trkpt>
      <trkpt lat="44.6438" lon="3.23335">
        <ele>1067.4000244141</ele>
        <time>2023-05-07T08:51:56Z</time>
      </trkpt>
      <trkpt lat="44.64376" lon="3.23359">
        <ele>1066.8000488281</ele>
        <time>2023-05-07T08:52:00Z</time>
      </trkpt>
      <trkpt lat="44.64374" lon="3.23366">
        <ele>1066.8000488281</ele>
        <time>2023-05-07T08:52:01Z</time>
      </trkpt>
      <trkpt lat="44.64373" lon="3.23375">
        <ele>1067</ele>
        <time>2023-05-07T08:52:03Z</time>
      </trkpt>
      <trkpt lat="44.64374" lon="3.23378">
        <ele>1067.1999511719</ele>
        <time>2023-05-07T08:52:05Z</time>
      </trkpt>
      <trkpt lat="44.64375" lon="3.23378">
        <ele>1067</ele>
        <time>2023-05-07T08:52:07Z</time>
      </trkpt>
      <trkpt lat="44.6438" lon="3.2338">
        <ele>1067.1999511719</ele>
        <time>2023-05-07T08:52:11Z</time>
      </trkpt>
      <trkpt lat="44.64383" lon="3.23382">
        <ele>1067.1999511719</ele>
        <time>2023-05-07T08:52:13Z</time>
      </trkpt>
      <trkpt lat="44.64385" lon="3.23387">
        <ele>1067.1999511719</ele>
        <time>2023-05-07T08:52:16Z</time>
      </trkpt>
      <trkpt lat="44.64388" lon="3.23392">
        <ele>1067.5999755859</ele>
        <time>2023-05-07T08:52:19Z</time>
      </trkpt>
      <trkpt lat="44.64391" lon="3.23399">
        <ele>1068</ele>
        <time>2023-05-07T08:52:23Z</time>
      </trkpt>
      <trkpt lat="44.64393" lon="3.23404">
        <ele>1068.4000244141</ele>
        <time>2023-05-07T08:52:26Z</time>
      </trkpt>
      <trkpt lat="44.64393" lon="3.23406">
        <ele>1068.4000244141</ele>
        <time>2023-05-07T08:52:27Z</time>
      </trkpt>
      <trkpt lat="44.64396" lon="3.23412">
        <ele>1068.8000488281</ele>
        <time>2023-05-07T08:52:30Z</time>
      </trkpt>
      <trkpt lat="44.64399" lon="3.23413">
        <ele>1069.1999511719</ele>
        <time>2023-05-07T08:52:32Z</time>
      </trkpt>
      <trkpt lat="44.64406" lon="3.23415">
        <ele>1069.8000488281</ele>
        <time>2023-05-07T08:52:36Z</time>
      </trkpt>
      <trkpt lat="44.64408" lon="3.23418">
        <ele>1070.4000244141</ele>
        <time>2023-05-07T08:52:40Z</time>
      </trkpt>
      <trkpt lat="44.64407" lon="3.23419">
        <ele>1070.5999755859</ele>
        <time>2023-05-07T08:52:44Z</time>
      </trkpt>
      <trkpt lat="44.64403" lon="3.23419">
        <ele>1070.8000488281</ele>
        <time>2023-05-07T08:52:49Z</time>
      </trkpt>
      <trkpt lat="44.64401" lon="3.2342">
        <ele>1071</ele>
        <time>2023-05-07T08:52:50Z</time>
      </trkpt>
      <trkpt lat="44.64399" lon="3.23421">
        <ele>1071</ele>
        <time>2023-05-07T08:52:51Z</time>
      </trkpt>
      <trkpt lat="44.64399" lon="3.23422">
        <ele>1071</ele>
        <time>2023-05-07T08:52:52Z</time>
      </trkpt>
      <trkpt lat="44.64397" lon="3.23429">
        <ele>1071</ele>
        <time>2023-05-07T08:52:55Z</time>
      </trkpt>
      <trkpt lat="44.64396" lon="3.23436">
        <ele>1071.1999511719</ele>
        <time>2023-05-07T08:52:58Z</time>
      </trkpt>
      <trkpt lat="44.64397" lon="3.23439">
        <ele>1071</ele>
        <time>2023-05-07T08:52:59Z</time>
      </trkpt>
      <trkpt lat="44.64396" lon="3.23443">
        <ele>1070.8000488281</ele>
        <time>2023-05-07T08:53:01Z</time>
      </trkpt>
      <trkpt lat="44.64394" lon="3.23446">
        <ele>1070.5999755859</ele>
        <time>2023-05-07T08:53:02Z</time>
      </trkpt>
      <trkpt lat="44.64392" lon="3.23455">
        <ele>1069.8000488281</ele>
        <time>2023-05-07T08:53:06Z</time>
      </trkpt>
      <trkpt lat="44.64391" lon="3.2346">
        <ele>1069.5999755859</ele>
        <time>2023-05-07T08:53:08Z</time>
      </trkpt>
      <trkpt lat="44.64391" lon="3.23462">
        <ele>1069.1999511719</ele>
        <time>2023-05-07T08:53:09Z</time>
      </trkpt>
      <trkpt lat="44.64387" lon="3.23461">
        <ele>1068.4000244141</ele>
        <time>2023-05-07T08:53:12Z</time>
      </trkpt>
      <trkpt lat="44.64377" lon="3.23464">
        <ele>1067.8000488281</ele>
        <time>2023-05-07T08:53:14Z</time>
      </trkpt>
      <trkpt lat="44.64371" lon="3.23471">
        <ele>1068.4000244141</ele>
        <time>2023-05-07T08:53:15Z</time>
      </trkpt>
      <trkpt lat="44.64362" lon="3.2349">
        <ele>1069</ele>
        <time>2023-05-07T08:53:19Z</time>
      </trkpt>
      <trkpt lat="44.64361" lon="3.23502">
        <ele>1069.4000244141</ele>
        <time>2023-05-07T08:53:24Z</time>
      </trkpt>
      <trkpt lat="44.64364" lon="3.23508">
        <ele>1069.8000488281</ele>
        <time>2023-05-07T08:53:29Z</time>
      </trkpt>
      <trkpt lat="44.64364" lon="3.23508">
        <ele>1069.5999755859</ele>
        <time>2023-05-07T08:53:39Z</time>
      </trkpt>
      <trkpt lat="44.64366" lon="3.23511">
        <ele>1069.5999755859</ele>
        <time>2023-05-07T08:53:45Z</time>
      </trkpt>
      <trkpt lat="44.64372" lon="3.23522">
        <ele>1070.4000244141</ele>
        <time>2023-05-07T08:53:54Z</time>
      </trkpt>
      <trkpt lat="44.64373" lon="3.23523">
        <ele>1070.4000244141</ele>
        <time>2023-05-07T08:53:55Z</time>
      </trkpt>
      <trkpt lat="44.64372" lon="3.2353">
        <ele>1070.8000488281</ele>
        <time>2023-05-07T08:54:00Z</time>
      </trkpt>
      <trkpt lat="44.64373" lon="3.23535">
        <ele>1071</ele>
        <time>2023-05-07T08:54:04Z</time>
      </trkpt>
      <trkpt lat="44.64374" lon="3.23536">
        <ele>1071.1999511719</ele>
        <time>2023-05-07T08:54:05Z</time>
      </trkpt>
      <trkpt lat="44.64375" lon="3.23539">
        <ele>1071.4000244141</ele>
        <time>2023-05-07T08:54:08Z</time>
      </trkpt>
      <trkpt lat="44.64375" lon="3.23546">
        <ele>1071.5999755859</ele>
        <time>2023-05-07T08:54:14Z</time>
      </trkpt>
      <trkpt lat="44.64375" lon="3.23547">
        <ele>1072</ele>
        <time>2023-05-07T08:54:19Z</time>
      </trkpt>
      <trkpt lat="44.64375" lon="3.23547">
        <ele>1072.4000244141</ele>
        <time>2023-05-07T08:54:30Z</time>
      </trkpt>
      <trkpt lat="44.64375" lon="3.23547">
        <ele>1073.1999511719</ele>
        <time>2023-05-07T08:54:47Z</time>
      </trkpt>
      <trkpt lat="44.64375" lon="3.23546">
        <ele>1073.8000488281</ele>
        <time>2023-05-07T08:55:02Z</time>
      </trkpt>
      <trkpt lat="44.64375" lon="3.23546">
        <ele>1074.1999511719</ele>
        <time>2023-05-07T08:55:18Z</time>
      </trkpt>
      <trkpt lat="44.64375" lon="3.23547">
        <ele>1074.5999755859</ele>
        <time>2023-05-07T08:55:38Z</time>
      </trkpt>
      <trkpt lat="44.64375" lon="3.23547">
        <ele>1074.8000488281</ele>
        <time>2023-05-07T08:55:52Z</time>
      </trkpt>
      <trkpt lat="44.64375" lon="3.23547">
        <ele>1075</ele>
        <time>2023-05-07T08:56:05Z</time>
      </trkpt>
      <trkpt lat="44.64374" lon="3.23547">
        <ele>1075.1999511719</ele>
        <time>2023-05-07T08:56:20Z</time>
      </trkpt>
      <trkpt lat="44.64374" lon="3.23547">
        <ele>1075.4000244141</ele>
        <time>2023-05-07T08:56:35Z</time>
      </trkpt>
      <trkpt lat="44.64374" lon="3.23547">
        <ele>1075.4000244141</ele>
        <time>2023-05-07T08:56:50Z</time>
      </trkpt>
      <trkpt lat="44.64374" lon="3.23547">
        <ele>1075.5999755859</ele>
        <time>2023-05-07T08:57:07Z</time>
      </trkpt>
      <trkpt lat="44.64374" lon="3.23547">
        <ele>1075.5999755859</ele>
        <time>2023-05-07T08:57:17Z</time>
      </trkpt>
      <trkpt lat="44.64374" lon="3.23547">
        <ele>1075.8000488281</ele>
        <time>2023-05-07T08:57:35Z</time>
      </trkpt>
      <trkpt lat="44.64374" lon="3.23547">
        <ele>1075.8000488281</ele>
        <time>2023-05-07T08:57:49Z</time>
      </trkpt>
      <trkpt lat="44.64374" lon="3.23547">
        <ele>1076</ele>
        <time>2023-05-07T08:58:05Z</time>
      </trkpt>
      <trkpt lat="44.64375" lon="3.23549">
        <ele>1076.1999511719</ele>
        <time>2023-05-07T08:58:24Z</time>
      </trkpt>
      <trkpt lat="44.64375" lon="3.23549">
        <ele>1076.4000244141</ele>
        <time>2023-05-07T08:58:43Z</time>
      </trkpt>
      <trkpt lat="44.64375" lon="3.23549">
        <ele>1076.5999755859</ele>
        <time>2023-05-07T08:59:02Z</time>
      </trkpt>
      <trkpt lat="44.64375" lon="3.23549">
        <ele>1076.8000488281</ele>
        <time>2023-05-07T08:59:21Z</time>
      </trkpt>
      <trkpt lat="44.64375" lon="3.23549">
        <ele>1077</ele>
        <time>2023-05-07T08:59:36Z</time>
      </trkpt>
      <trkpt lat="44.64375" lon="3.23549">
        <ele>1077</ele>
        <time>2023-05-07T08:59:50Z</time>
      </trkpt>
      <trkpt lat="44.64375" lon="3.23549">
        <ele>1077.1999511719</ele>
        <time>2023-05-07T09:00:07Z</time>
      </trkpt>
      <trkpt lat="44.64375" lon="3.23548">
        <ele>1077.4000244141</ele>
        <time>2023-05-07T09:00:24Z</time>
      </trkpt>
      <trkpt lat="44.64375" lon="3.23548">
        <ele>1077.4000244141</ele>
        <time>2023-05-07T09:00:42Z</time>
      </trkpt>
      <trkpt lat="44.64375" lon="3.23548">
        <ele>1077.4000244141</ele>
        <time>2023-05-07T09:00:50Z</time>
      </trkpt>
      <trkpt lat="44.64372" lon="3.23545">
        <ele>1077.4000244141</ele>
        <time>2023-05-07T09:00:58Z</time>
      </trkpt>
      <trkpt lat="44.64372" lon="3.23543">
        <ele>1077.4000244141</ele>
        <time>2023-05-07T09:01:04Z</time>
      </trkpt>
      <trkpt lat="44.64371" lon="3.23542">
        <ele>1077.4000244141</ele>
        <time>2023-05-07T09:01:05Z</time>
      </trkpt>
      <trkpt lat="44.64371" lon="3.23542">
        <ele>1077.5999755859</ele>
        <time>2023-05-07T09:01:12Z</time>
      </trkpt>
      <trkpt lat="44.64371" lon="3.2354">
        <ele>1077.4000244141</ele>
        <time>2023-05-07T09:01:22Z</time>
      </trkpt>
      <trkpt lat="44.6437" lon="3.2354">
        <ele>1077.4000244141</ele>
        <time>2023-05-07T09:01:30Z</time>
      </trkpt>
      <trkpt lat="44.6437" lon="3.2354">
        <ele>1077.4000244141</ele>
        <time>2023-05-07T09:01:40Z</time>
      </trkpt>
      <trkpt lat="44.64367" lon="3.23539">
        <ele>1077.4000244141</ele>
        <time>2023-05-07T09:01:47Z</time>
      </trkpt>
      <trkpt lat="44.64363" lon="3.23548">
        <ele>1076.8000488281</ele>
        <time>2023-05-07T09:01:50Z</time>
      </trkpt>
      <trkpt lat="44.64365" lon="3.23556">
        <ele>1076.8000488281</ele>
        <time>2023-05-07T09:01:53Z</time>
      </trkpt>
      <trkpt lat="44.64368" lon="3.23562">
        <ele>1076.8000488281</ele>
        <time>2023-05-07T09:01:56Z</time>
      </trkpt>
      <trkpt lat="44.64367" lon="3.23574">
        <ele>1077</ele>
        <time>2023-05-07T09:02:02Z</time>
      </trkpt>
      <trkpt lat="44.64365" lon="3.23592">
        <ele>1076.8000488281</ele>
        <time>2023-05-07T09:02:08Z</time>
      </trkpt>
      <trkpt lat="44.64365" lon="3.23601">
        <ele>1076.4000244141</ele>
        <time>2023-05-07T09:02:11Z</time>
      </trkpt>
      <trkpt lat="44.64365" lon="3.23607">
        <ele>1076.1999511719</ele>
        <time>2023-05-07T09:02:13Z</time>
      </trkpt>
      <trkpt lat="44.64365" lon="3.23627">
        <ele>1075.4000244141</ele>
        <time>2023-05-07T09:02:19Z</time>
      </trkpt>
      <trkpt lat="44.64361" lon="3.2365">
        <ele>1074.1999511719</ele>
        <time>2023-05-07T09:02:27Z</time>
      </trkpt>
      <trkpt lat="44.64353" lon="3.23668">
        <ele>1074</ele>
        <time>2023-05-07T09:02:33Z</time>
      </trkpt>
      <trkpt lat="44.64343" lon="3.23677">
        <ele>1073.8000488281</ele>
        <time>2023-05-07T09:02:38Z</time>
      </trkpt>
      <trkpt lat="44.64333" lon="3.23686">
        <ele>1073.4000244141</ele>
        <time>2023-05-07T09:02:42Z</time>
      </trkpt>
      <trkpt lat="44.64322" lon="3.237">
        <ele>1073.4000244141</ele>
        <time>2023-05-07T09:02:47Z</time>
      </trkpt>
      <trkpt lat="44.64311" lon="3.23721">
        <ele>1073</ele>
        <time>2023-05-07T09:02:52Z</time>
      </trkpt>
      <trkpt lat="44.64302" lon="3.2375">
        <ele>1072.5999755859</ele>
        <time>2023-05-07T09:02:58Z</time>
      </trkpt>
      <trkpt lat="44.64298" lon="3.23774">
        <ele>1072.5999755859</ele>
        <time>2023-05-07T09:03:03Z</time>
      </trkpt>
      <trkpt lat="44.6429" lon="3.23807">
        <ele>1072.5999755859</ele>
        <time>2023-05-07T09:03:09Z</time>
      </trkpt>
      <trkpt lat="44.64288" lon="3.23813">
        <ele>1072.8000488281</ele>
        <time>2023-05-07T09:03:10Z</time>
      </trkpt>
      <trkpt lat="44.64275" lon="3.23843">
        <ele>1072.4000244141</ele>
        <time>2023-05-07T09:03:14Z</time>
      </trkpt>
      <trkpt lat="44.64244" lon="3.23882">
        <ele>1072</ele>
        <time>2023-05-07T09:03:19Z</time>
      </trkpt>
      <trkpt lat="44.64238" lon="3.23889">
        <ele>1071.8000488281</ele>
        <time>2023-05-07T09:03:20Z</time>
      </trkpt>
      <trkpt lat="44.64228" lon="3.23906">
        <ele>1072</ele>
        <time>2023-05-07T09:03:22Z</time>
      </trkpt>
      <trkpt lat="44.64221" lon="3.23923">
        <ele>1072</ele>
        <time>2023-05-07T09:03:24Z</time>
      </trkpt>
      <trkpt lat="44.64217" lon="3.2394">
        <ele>1071.5999755859</ele>
        <time>2023-05-07T09:03:26Z</time>
      </trkpt>
      <trkpt lat="44.64211" lon="3.23954">
        <ele>1071.5999755859</ele>
        <time>2023-05-07T09:03:28Z</time>
      </trkpt>
      <trkpt lat="44.64204" lon="3.23965">
        <ele>1071.5999755859</ele>
        <time>2023-05-07T09:03:30Z</time>
      </trkpt>
      <trkpt lat="44.642" lon="3.23969">
        <ele>1071.8000488281</ele>
        <time>2023-05-07T09:03:31Z</time>
      </trkpt>
      <trkpt lat="44.64191" lon="3.23976">
        <ele>1071.8000488281</ele>
        <time>2023-05-07T09:03:33Z</time>
      </trkpt>
      <trkpt lat="44.64181" lon="3.23982">
        <ele>1071.5999755859</ele>
        <time>2023-05-07T09:03:35Z</time>
      </trkpt>
      <trkpt lat="44.64165" lon="3.23988">
        <ele>1071.5999755859</ele>
        <time>2023-05-07T09:03:38Z</time>
      </trkpt>
      <trkpt lat="44.64159" lon="3.23991">
        <ele>1071.5999755859</ele>
        <time>2023-05-07T09:03:39Z</time>
      </trkpt>
      <trkpt lat="44.64149" lon="3.24">
        <ele>1071.4000244141</ele>
        <time>2023-05-07T09:03:41Z</time>
      </trkpt>
      <trkpt lat="44.64144" lon="3.24006">
        <ele>1071.4000244141</ele>
        <time>2023-05-07T09:03:42Z</time>
      </trkpt>
      <trkpt lat="44.64124" lon="3.24035">
        <ele>1071.4000244141</ele>
        <time>2023-05-07T09:03:47Z</time>
      </trkpt>
      <trkpt lat="44.64115" lon="3.24044">
        <ele>1071.1999511719</ele>
        <time>2023-05-07T09:03:49Z</time>
      </trkpt>
      <trkpt lat="44.64104" lon="3.2405">
        <ele>1071.1999511719</ele>
        <time>2023-05-07T09:03:51Z</time>
      </trkpt>
      <trkpt lat="44.64066" lon="3.24072">
        <ele>1070.8000488281</ele>
        <time>2023-05-07T09:03:58Z</time>
      </trkpt>
      <trkpt lat="44.64037" lon="3.24089">
        <ele>1071.1999511719</ele>
        <time>2023-05-07T09:04:04Z</time>
      </trkpt>
      <trkpt lat="44.64022" lon="3.24097">
        <ele>1071.1999511719</ele>
        <time>2023-05-07T09:04:09Z</time>
      </trkpt>
      <trkpt lat="44.63999" lon="3.24102">
        <ele>1071.4000244141</ele>
        <time>2023-05-07T09:04:17Z</time>
      </trkpt>
      <trkpt lat="44.63975" lon="3.24109">
        <ele>1071.5999755859</ele>
        <time>2023-05-07T09:04:24Z</time>
      </trkpt>
      <trkpt lat="44.63953" lon="3.24125">
        <ele>1071.1999511719</ele>
        <time>2023-05-07T09:04:32Z</time>
      </trkpt>
      <trkpt lat="44.63941" lon="3.24148">
        <ele>1071.1999511719</ele>
        <time>2023-05-07T09:04:38Z</time>
      </trkpt>
      <trkpt lat="44.6394" lon="3.24152">
        <ele>1071</ele>
        <time>2023-05-07T09:04:39Z</time>
      </trkpt>
      <trkpt lat="44.63939" lon="3.24162">
        <ele>1070.5999755859</ele>
        <time>2023-05-07T09:04:41Z</time>
      </trkpt>
      <trkpt lat="44.63937" lon="3.24172">
        <ele>1070</ele>
        <time>2023-05-07T09:04:43Z</time>
      </trkpt>
      <trkpt lat="44.63935" lon="3.24189">
        <ele>1069.5999755859</ele>
        <time>2023-05-07T09:04:46Z</time>
      </trkpt>
      <trkpt lat="44.63933" lon="3.24201">
        <ele>1069.4000244141</ele>
        <time>2023-05-07T09:04:48Z</time>
      </trkpt>
      <trkpt lat="44.63931" lon="3.24217">
        <ele>1069.4000244141</ele>
        <time>2023-05-07T09:04:51Z</time>
      </trkpt>
      <trkpt lat="44.63919" lon="3.24268">
        <ele>1071.4000244141</ele>
        <time>2023-05-07T09:05:00Z</time>
      </trkpt>
      <trkpt lat="44.63918" lon="3.243">
        <ele>1071.8000488281</ele>
        <time>2023-05-07T09:05:06Z</time>
      </trkpt>
      <trkpt lat="44.63925" lon="3.2432">
        <ele>1072.1999511719</ele>
        <time>2023-05-07T09:05:10Z</time>
      </trkpt>
      <trkpt lat="44.63942" lon="3.24339">
        <ele>1073.1999511719</ele>
        <time>2023-05-07T09:05:16Z</time>
      </trkpt>
      <trkpt lat="44.63957" lon="3.24354">
        <ele>1074.1999511719</ele>
        <time>2023-05-07T09:05:22Z</time>
      </trkpt>
      <trkpt lat="44.63965" lon="3.24372">
        <ele>1075.1999511719</ele>
        <time>2023-05-07T09:05:27Z</time>
      </trkpt>
      <trkpt lat="44.6396" lon="3.24389">
        <ele>1076</ele>
        <time>2023-05-07T09:05:31Z</time>
      </trkpt>
      <trkpt lat="44.63946" lon="3.24407">
        <ele>1077.1999511719</ele>
        <time>2023-05-07T09:05:37Z</time>
      </trkpt>
      <trkpt lat="44.6393" lon="3.24435">
        <ele>1078.4000244141</ele>
        <time>2023-05-07T09:05:45Z</time>
      </trkpt>
      <trkpt lat="44.63928" lon="3.2444">
        <ele>1078.5999755859</ele>
        <time>2023-05-07T09:05:46Z</time>
      </trkpt>
      <trkpt lat="44.6392" lon="3.24457">
        <ele>1078.8000488281</ele>
        <time>2023-05-07T09:05:49Z</time>
      </trkpt>
      <trkpt lat="44.63916" lon="3.24463">
        <ele>1079</ele>
        <time>2023-05-07T09:05:50Z</time>
      </trkpt>
      <trkpt lat="44.63911" lon="3.24481">
        <ele>1079</ele>
        <time>2023-05-07T09:05:52Z</time>
      </trkpt>
      <trkpt lat="44.6391" lon="3.2449">
        <ele>1079</ele>
        <time>2023-05-07T09:05:53Z</time>
      </trkpt>
      <trkpt lat="44.63911" lon="3.245">
        <ele>1079</ele>
        <time>2023-05-07T09:05:54Z</time>
      </trkpt>
      <trkpt lat="44.63917" lon="3.2452">
        <ele>1078.8000488281</ele>
        <time>2023-05-07T09:05:56Z</time>
      </trkpt>
      <trkpt lat="44.6392" lon="3.24529">
        <ele>1078.8000488281</ele>
        <time>2023-05-07T09:05:57Z</time>
      </trkpt>
      <trkpt lat="44.63927" lon="3.24542">
        <ele>1078.5999755859</ele>
        <time>2023-05-07T09:05:59Z</time>
      </trkpt>
      <trkpt lat="44.63931" lon="3.24552">
        <ele>1078.5999755859</ele>
        <time>2023-05-07T09:06:01Z</time>
      </trkpt>
      <trkpt lat="44.63931" lon="3.24556">
        <ele>1078.4000244141</ele>
        <time>2023-05-07T09:06:02Z</time>
      </trkpt>
      <trkpt lat="44.63925" lon="3.24559">
        <ele>1078.4000244141</ele>
        <time>2023-05-07T09:06:04Z</time>
      </trkpt>
      <trkpt lat="44.6392" lon="3.24557">
        <ele>1078.1999511719</ele>
        <time>2023-05-07T09:06:05Z</time>
      </trkpt>
      <trkpt lat="44.63916" lon="3.24554">
        <ele>1078.1999511719</ele>
        <time>2023-05-07T09:06:06Z</time>
      </trkpt>
      <trkpt lat="44.63907" lon="3.24547">
        <ele>1077.8000488281</ele>
        <time>2023-05-07T09:06:08Z</time>
      </trkpt>
      <trkpt lat="44.63902" lon="3.24544">
        <ele>1077.8000488281</ele>
        <time>2023-05-07T09:06:09Z</time>
      </trkpt>
      <trkpt lat="44.63896" lon="3.24541">
        <ele>1077.5999755859</ele>
        <time>2023-05-07T09:06:10Z</time>
      </trkpt>
      <trkpt lat="44.63883" lon="3.2454">
        <ele>1077.1999511719</ele>
        <time>2023-05-07T09:06:12Z</time>
      </trkpt>
      <trkpt lat="44.63856" lon="3.24552">
        <ele>1077.1999511719</ele>
        <time>2023-05-07T09:06:16Z</time>
      </trkpt>
      <trkpt lat="44.63849" lon="3.24555">
        <ele>1077.1999511719</ele>
        <time>2023-05-07T09:06:17Z</time>
      </trkpt>
      <trkpt lat="44.63835" lon="3.24556">
        <ele>1077</ele>
        <time>2023-05-07T09:06:19Z</time>
      </trkpt>
      <trkpt lat="44.63821" lon="3.2455">
        <ele>1076.8000488281</ele>
        <time>2023-05-07T09:06:21Z</time>
      </trkpt>
      <trkpt lat="44.63815" lon="3.24543">
        <ele>1076.5999755859</ele>
        <time>2023-05-07T09:06:22Z</time>
      </trkpt>
      <trkpt lat="44.63809" lon="3.24535">
        <ele>1076.4000244141</ele>
        <time>2023-05-07T09:06:23Z</time>
      </trkpt>
      <trkpt lat="44.63794" lon="3.24508">
        <ele>1075.8000488281</ele>
        <time>2023-05-07T09:06:26Z</time>
      </trkpt>
      <trkpt lat="44.63776" lon="3.24483">
        <ele>1075.1999511719</ele>
        <time>2023-05-07T09:06:29Z</time>
      </trkpt>
      <trkpt lat="44.63769" lon="3.24477">
        <ele>1075</ele>
        <time>2023-05-07T09:06:30Z</time>
      </trkpt>
      <trkpt lat="44.63761" lon="3.24471">
        <ele>1074.8000488281</ele>
        <time>2023-05-07T09:06:31Z</time>
      </trkpt>
      <trkpt lat="44.63743" lon="3.24466">
        <ele>1074.4000244141</ele>
        <time>2023-05-07T09:06:33Z</time>
      </trkpt>
      <trkpt lat="44.63709" lon="3.24472">
        <ele>1073.4000244141</ele>
        <time>2023-05-07T09:06:37Z</time>
      </trkpt>
      <trkpt lat="44.63697" lon="3.24485">
        <ele>1073</ele>
        <time>2023-05-07T09:06:39Z</time>
      </trkpt>
      <trkpt lat="44.63694" lon="3.24494">
        <ele>1072.8000488281</ele>
        <time>2023-05-07T09:06:40Z</time>
      </trkpt>
      <trkpt lat="44.63694" lon="3.24503">
        <ele>1072.5999755859</ele>
        <time>2023-05-07T09:06:41Z</time>
      </trkpt>
      <trkpt lat="44.63699" lon="3.24521">
        <ele>1072.1999511719</ele>
        <time>2023-05-07T09:06:43Z</time>
      </trkpt>
      <trkpt lat="44.63719" lon="3.24566">
        <ele>1071.4000244141</ele>
        <time>2023-05-07T09:06:48Z</time>
      </trkpt>
      <trkpt lat="44.63727" lon="3.24593">
        <ele>1071.1999511719</ele>
        <time>2023-05-07T09:06:51Z</time>
      </trkpt>
      <trkpt lat="44.6373" lon="3.24611">
        <ele>1070.8000488281</ele>
        <time>2023-05-07T09:06:53Z</time>
      </trkpt>
      <trkpt lat="44.63731" lon="3.2462">
        <ele>1070.8000488281</ele>
        <time>2023-05-07T09:06:54Z</time>
      </trkpt>
      <trkpt lat="44.6373" lon="3.24646">
        <ele>1070.4000244141</ele>
        <time>2023-05-07T09:06:57Z</time>
      </trkpt>
      <trkpt lat="44.63725" lon="3.24668">
        <ele>1070</ele>
        <time>2023-05-07T09:07:00Z</time>
      </trkpt>
      <trkpt lat="44.63717" lon="3.2468">
        <ele>1069.8000488281</ele>
        <time>2023-05-07T09:07:02Z</time>
      </trkpt>
      <trkpt lat="44.63713" lon="3.24686">
        <ele>1069.5999755859</ele>
        <time>2023-05-07T09:07:03Z</time>
      </trkpt>
      <trkpt lat="44.637" lon="3.24709">
        <ele>1068.8000488281</ele>
        <time>2023-05-07T09:07:07Z</time>
      </trkpt>
      <trkpt lat="44.63693" lon="3.24721">
        <ele>1068.5999755859</ele>
        <time>2023-05-07T09:07:09Z</time>
      </trkpt>
      <trkpt lat="44.63689" lon="3.24727">
        <ele>1068.4000244141</ele>
        <time>2023-05-07T09:07:10Z</time>
      </trkpt>
      <trkpt lat="44.63673" lon="3.24749">
        <ele>1067.4000244141</ele>
        <time>2023-05-07T09:07:14Z</time>
      </trkpt>
      <trkpt lat="44.63665" lon="3.24759">
        <ele>1067</ele>
        <time>2023-05-07T09:07:16Z</time>
      </trkpt>
      <trkpt lat="44.63656" lon="3.24768">
        <ele>1066.5999755859</ele>
        <time>2023-05-07T09:07:18Z</time>
      </trkpt>
      <trkpt lat="44.63635" lon="3.24796">
        <ele>1064.8000488281</ele>
        <time>2023-05-07T09:07:24Z</time>
      </trkpt>
      <trkpt lat="44.63624" lon="3.2481">
        <ele>1063.8000488281</ele>
        <time>2023-05-07T09:07:27Z</time>
      </trkpt>
      <trkpt lat="44.63619" lon="3.24821">
        <ele>1063</ele>
        <time>2023-05-07T09:07:29Z</time>
      </trkpt>
      <trkpt lat="44.63613" lon="3.24832">
        <ele>1062.1999511719</ele>
        <time>2023-05-07T09:07:31Z</time>
      </trkpt>
      <trkpt lat="44.63608" lon="3.24837">
        <ele>1061.8000488281</ele>
        <time>2023-05-07T09:07:32Z</time>
      </trkpt>
      <trkpt lat="44.63604" lon="3.24844">
        <ele>1061.4000244141</ele>
        <time>2023-05-07T09:07:33Z</time>
      </trkpt>
      <trkpt lat="44.63601" lon="3.24857">
        <ele>1060.5999755859</ele>
        <time>2023-05-07T09:07:35Z</time>
      </trkpt>
      <trkpt lat="44.63598" lon="3.24873">
        <ele>1060</ele>
        <time>2023-05-07T09:07:37Z</time>
      </trkpt>
      <trkpt lat="44.63594" lon="3.2488">
        <ele>1059.5999755859</ele>
        <time>2023-05-07T09:07:38Z</time>
      </trkpt>
      <trkpt lat="44.6359" lon="3.24887">
        <ele>1059.4000244141</ele>
        <time>2023-05-07T09:07:39Z</time>
      </trkpt>
      <trkpt lat="44.63587" lon="3.24902">
        <ele>1058.5999755859</ele>
        <time>2023-05-07T09:07:41Z</time>
      </trkpt>
      <trkpt lat="44.63582" lon="3.24931">
        <ele>1057.4000244141</ele>
        <time>2023-05-07T09:07:45Z</time>
      </trkpt>
      <trkpt lat="44.63578" lon="3.24945">
        <ele>1056.8000488281</ele>
        <time>2023-05-07T09:07:47Z</time>
      </trkpt>
      <trkpt lat="44.63576" lon="3.24953">
        <ele>1056.5999755859</ele>
        <time>2023-05-07T09:07:48Z</time>
      </trkpt>
      <trkpt lat="44.63571" lon="3.24967">
        <ele>1056</ele>
        <time>2023-05-07T09:07:50Z</time>
      </trkpt>
      <trkpt lat="44.63565" lon="3.2498">
        <ele>1055.5999755859</ele>
        <time>2023-05-07T09:07:52Z</time>
      </trkpt>
      <trkpt lat="44.63562" lon="3.24985">
        <ele>1055.4000244141</ele>
        <time>2023-05-07T09:07:53Z</time>
      </trkpt>
      <trkpt lat="44.63558" lon="3.24989">
        <ele>1055.1999511719</ele>
        <time>2023-05-07T09:07:54Z</time>
      </trkpt>
      <trkpt lat="44.63554" lon="3.25005">
        <ele>1055</ele>
        <time>2023-05-07T09:07:57Z</time>
      </trkpt>
      <trkpt lat="44.63524" lon="3.25023">
        <ele>1053.1999511719</ele>
        <time>2023-05-07T09:08:04Z</time>
      </trkpt>
      <trkpt lat="44.63519" lon="3.25025">
        <ele>1052.8000488281</ele>
        <time>2023-05-07T09:08:05Z</time>
      </trkpt>
      <trkpt lat="44.635" lon="3.25037">
        <ele>1052</ele>
        <time>2023-05-07T09:08:09Z</time>
      </trkpt>
      <trkpt lat="44.63464" lon="3.25057">
        <ele>1052.4000244141</ele>
        <time>2023-05-07T09:08:16Z</time>
      </trkpt>
      <trkpt lat="44.63445" lon="3.25063">
        <ele>1052</ele>
        <time>2023-05-07T09:08:20Z</time>
      </trkpt>
      <trkpt lat="44.63436" lon="3.25065">
        <ele>1051.4000244141</ele>
        <time>2023-05-07T09:08:22Z</time>
      </trkpt>
      <trkpt lat="44.63425" lon="3.25067">
        <ele>1050.8000488281</ele>
        <time>2023-05-07T09:08:24Z</time>
      </trkpt>
      <trkpt lat="44.63388" lon="3.25075">
        <ele>1049</ele>
        <time>2023-05-07T09:08:31Z</time>
      </trkpt>
      <trkpt lat="44.63352" lon="3.25083">
        <ele>1050.1999511719</ele>
        <time>2023-05-07T09:08:37Z</time>
      </trkpt>
      <trkpt lat="44.63323" lon="3.25099">
        <ele>1051.1999511719</ele>
        <time>2023-05-07T09:08:42Z</time>
      </trkpt>
      <trkpt lat="44.63293" lon="3.25124">
        <ele>1051.5999755859</ele>
        <time>2023-05-07T09:08:48Z</time>
      </trkpt>
      <trkpt lat="44.63272" lon="3.25141">
        <ele>1051.5999755859</ele>
        <time>2023-05-07T09:08:52Z</time>
      </trkpt>
      <trkpt lat="44.63268" lon="3.25146">
        <ele>1051.5999755859</ele>
        <time>2023-05-07T09:08:53Z</time>
      </trkpt>
      <trkpt lat="44.63252" lon="3.25174">
        <ele>1051.4000244141</ele>
        <time>2023-05-07T09:08:57Z</time>
      </trkpt>
      <trkpt lat="44.63249" lon="3.25181">
        <ele>1051.4000244141</ele>
        <time>2023-05-07T09:08:58Z</time>
      </trkpt>
      <trkpt lat="44.63245" lon="3.25187">
        <ele>1051.4000244141</ele>
        <time>2023-05-07T09:08:59Z</time>
      </trkpt>
      <trkpt lat="44.63238" lon="3.25199">
        <ele>1051.4000244141</ele>
        <time>2023-05-07T09:09:01Z</time>
      </trkpt>
      <trkpt lat="44.63235" lon="3.25206">
        <ele>1051.4000244141</ele>
        <time>2023-05-07T09:09:02Z</time>
      </trkpt>
      <trkpt lat="44.63228" lon="3.25218">
        <ele>1051.1999511719</ele>
        <time>2023-05-07T09:09:04Z</time>
      </trkpt>
      <trkpt lat="44.63221" lon="3.25229">
        <ele>1051.1999511719</ele>
        <time>2023-05-07T09:09:06Z</time>
      </trkpt>
      <trkpt lat="44.63214" lon="3.25241">
        <ele>1051</ele>
        <time>2023-05-07T09:09:08Z</time>
      </trkpt>
      <trkpt lat="44.63211" lon="3.25247">
        <ele>1050.8000488281</ele>
        <time>2023-05-07T09:09:09Z</time>
      </trkpt>
      <trkpt lat="44.63209" lon="3.25258">
        <ele>1050.5999755859</ele>
        <time>2023-05-07T09:09:11Z</time>
      </trkpt>
      <trkpt lat="44.63206" lon="3.25264">
        <ele>1050.4000244141</ele>
        <time>2023-05-07T09:09:12Z</time>
      </trkpt>
      <trkpt lat="44.63202" lon="3.25276">
        <ele>1050.1999511719</ele>
        <time>2023-05-07T09:09:14Z</time>
      </trkpt>
      <trkpt lat="44.63202" lon="3.2528">
        <ele>1050</ele>
        <time>2023-05-07T09:09:15Z</time>
      </trkpt>
      <trkpt lat="44.63202" lon="3.25283">
        <ele>1049.8000488281</ele>
        <time>2023-05-07T09:09:16Z</time>
      </trkpt>
      <trkpt lat="44.63198" lon="3.25295">
        <ele>1049.1999511719</ele>
        <time>2023-05-07T09:09:19Z</time>
      </trkpt>
      <trkpt lat="44.63193" lon="3.25305">
        <ele>1048.8000488281</ele>
        <time>2023-05-07T09:09:21Z</time>
      </trkpt>
      <trkpt lat="44.63191" lon="3.25311">
        <ele>1048.5999755859</ele>
        <time>2023-05-07T09:09:22Z</time>
      </trkpt>
      <trkpt lat="44.63191" lon="3.25319">
        <ele>1048.4000244141</ele>
        <time>2023-05-07T09:09:23Z</time>
      </trkpt>
      <trkpt lat="44.63191" lon="3.25335">
        <ele>1048.4000244141</ele>
        <time>2023-05-07T09:09:25Z</time>
      </trkpt>
      <trkpt lat="44.63189" lon="3.25344">
        <ele>1048.4000244141</ele>
        <time>2023-05-07T09:09:26Z</time>
      </trkpt>
      <trkpt lat="44.63184" lon="3.25352">
        <ele>1048.1999511719</ele>
        <time>2023-05-07T09:09:27Z</time>
      </trkpt>
      <trkpt lat="44.6317" lon="3.25372">
        <ele>1048</ele>
        <time>2023-05-07T09:09:30Z</time>
      </trkpt>
      <trkpt lat="44.63165" lon="3.25379">
        <ele>1047.8000488281</ele>
        <time>2023-05-07T09:09:31Z</time>
      </trkpt>
      <trkpt lat="44.63162" lon="3.25394">
        <ele>1047.8000488281</ele>
        <time>2023-05-07T09:09:33Z</time>
      </trkpt>
      <trkpt lat="44.63161" lon="3.25402">
        <ele>1047.5999755859</ele>
        <time>2023-05-07T09:09:34Z</time>
      </trkpt>
      <trkpt lat="44.6316" lon="3.2541">
        <ele>1047.5999755859</ele>
        <time>2023-05-07T09:09:35Z</time>
      </trkpt>
      <trkpt lat="44.63154" lon="3.25436">
        <ele>1047.1999511719</ele>
        <time>2023-05-07T09:09:38Z</time>
      </trkpt>
      <trkpt lat="44.63152" lon="3.25445">
        <ele>1047.1999511719</ele>
        <time>2023-05-07T09:09:39Z</time>
      </trkpt>
      <trkpt lat="44.63145" lon="3.2546">
        <ele>1047.1999511719</ele>
        <time>2023-05-07T09:09:41Z</time>
      </trkpt>
      <trkpt lat="44.63139" lon="3.25476">
        <ele>1047.5999755859</ele>
        <time>2023-05-07T09:09:43Z</time>
      </trkpt>
      <trkpt lat="44.63136" lon="3.25483">
        <ele>1047.5999755859</ele>
        <time>2023-05-07T09:09:44Z</time>
      </trkpt>
      <trkpt lat="44.63131" lon="3.25489">
        <ele>1047.5999755859</ele>
        <time>2023-05-07T09:09:45Z</time>
      </trkpt>
      <trkpt lat="44.63124" lon="3.25501">
        <ele>1047.8000488281</ele>
        <time>2023-05-07T09:09:47Z</time>
      </trkpt>
      <trkpt lat="44.63135" lon="3.25516">
        <ele>1048.4000244141</ele>
        <time>2023-05-07T09:09:48Z</time>
      </trkpt>
      <trkpt lat="44.63136" lon="3.25526">
        <ele>1048.8000488281</ele>
        <time>2023-05-07T09:09:49Z</time>
      </trkpt>
      <trkpt lat="44.63134" lon="3.25541">
        <ele>1049</ele>
        <time>2023-05-07T09:09:51Z</time>
      </trkpt>
      <trkpt lat="44.63133" lon="3.25548">
        <ele>1049</ele>
        <time>2023-05-07T09:09:52Z</time>
      </trkpt>
      <trkpt lat="44.6313" lon="3.25565">
        <ele>1049.1999511719</ele>
        <time>2023-05-07T09:09:54Z</time>
      </trkpt>
      <trkpt lat="44.63124" lon="3.25588">
        <ele>1050</ele>
        <time>2023-05-07T09:09:57Z</time>
      </trkpt>
      <trkpt lat="44.63119" lon="3.25622">
        <ele>1051</ele>
        <time>2023-05-07T09:10:01Z</time>
      </trkpt>
      <trkpt lat="44.63118" lon="3.25696">
        <ele>1052.5999755859</ele>
        <time>2023-05-07T09:10:10Z</time>
      </trkpt>
      <trkpt lat="44.63118" lon="3.25719">
        <ele>1053</ele>
        <time>2023-05-07T09:10:13Z</time>
      </trkpt>
      <trkpt lat="44.63118" lon="3.25743">
        <ele>1053.4000244141</ele>
        <time>2023-05-07T09:10:16Z</time>
      </trkpt>
      <trkpt lat="44.63118" lon="3.25784">
        <ele>1053.8000488281</ele>
        <time>2023-05-07T09:10:21Z</time>
      </trkpt>
      <trkpt lat="44.63116" lon="3.25792">
        <ele>1054</ele>
        <time>2023-05-07T09:10:22Z</time>
      </trkpt>
      <trkpt lat="44.63114" lon="3.258">
        <ele>1054.1999511719</ele>
        <time>2023-05-07T09:10:23Z</time>
      </trkpt>
      <trkpt lat="44.63107" lon="3.25814">
        <ele>1054.1999511719</ele>
        <time>2023-05-07T09:10:25Z</time>
      </trkpt>
      <trkpt lat="44.63103" lon="3.25821">
        <ele>1054.4000244141</ele>
        <time>2023-05-07T09:10:26Z</time>
      </trkpt>
      <trkpt lat="44.63091" lon="3.25838">
        <ele>1054.4000244141</ele>
        <time>2023-05-07T09:10:29Z</time>
      </trkpt>
      <trkpt lat="44.63081" lon="3.25848">
        <ele>1054.5999755859</ele>
        <time>2023-05-07T09:10:31Z</time>
      </trkpt>
      <trkpt lat="44.6307" lon="3.25856">
        <ele>1054.5999755859</ele>
        <time>2023-05-07T09:10:33Z</time>
      </trkpt>
      <trkpt lat="44.63058" lon="3.25864">
        <ele>1054.8000488281</ele>
        <time>2023-05-07T09:10:35Z</time>
      </trkpt>
      <trkpt lat="44.63021" lon="3.25886">
        <ele>1055</ele>
        <time>2023-05-07T09:10:41Z</time>
      </trkpt>
      <trkpt lat="44.63005" lon="3.259">
        <ele>1055.1999511719</ele>
        <time>2023-05-07T09:10:44Z</time>
      </trkpt>
      <trkpt lat="44.63" lon="3.25905">
        <ele>1055.4000244141</ele>
        <time>2023-05-07T09:10:45Z</time>
      </trkpt>
      <trkpt lat="44.62991" lon="3.25918">
        <ele>1055.8000488281</ele>
        <time>2023-05-07T09:10:47Z</time>
      </trkpt>
      <trkpt lat="44.62987" lon="3.25927">
        <ele>1055.8000488281</ele>
        <time>2023-05-07T09:10:48Z</time>
      </trkpt>
      <trkpt lat="44.62983" lon="3.25936">
        <ele>1056</ele>
        <time>2023-05-07T09:10:49Z</time>
      </trkpt>
      <trkpt lat="44.62977" lon="3.25956">
        <ele>1056.1999511719</ele>
        <time>2023-05-07T09:10:51Z</time>
      </trkpt>
      <trkpt lat="44.62968" lon="3.25987">
        <ele>1056.8000488281</ele>
        <time>2023-05-07T09:10:54Z</time>
      </trkpt>
      <trkpt lat="44.62963" lon="3.26007">
        <ele>1057</ele>
        <time>2023-05-07T09:10:56Z</time>
      </trkpt>
      <trkpt lat="44.62951" lon="3.26057">
        <ele>1057.5999755859</ele>
        <time>2023-05-07T09:11:01Z</time>
      </trkpt>
      <trkpt lat="44.62946" lon="3.26099">
        <ele>1057.8000488281</ele>
        <time>2023-05-07T09:11:05Z</time>
      </trkpt>
      <trkpt lat="44.62947" lon="3.2611">
        <ele>1057.8000488281</ele>
        <time>2023-05-07T09:11:06Z</time>
      </trkpt>
      <trkpt lat="44.62953" lon="3.26149">
        <ele>1058.1999511719</ele>
        <time>2023-05-07T09:11:10Z</time>
      </trkpt>
      <trkpt lat="44.62955" lon="3.26157">
        <ele>1058.1999511719</ele>
        <time>2023-05-07T09:11:11Z</time>
      </trkpt>
      <trkpt lat="44.62958" lon="3.26186">
        <ele>1058.5999755859</ele>
        <time>2023-05-07T09:11:14Z</time>
      </trkpt>
      <trkpt lat="44.62957" lon="3.26196">
        <ele>1058.8000488281</ele>
        <time>2023-05-07T09:11:15Z</time>
      </trkpt>
      <trkpt lat="44.62954" lon="3.26206">
        <ele>1058.8000488281</ele>
        <time>2023-05-07T09:11:16Z</time>
      </trkpt>
      <trkpt lat="44.62945" lon="3.26223">
        <ele>1058.8000488281</ele>
        <time>2023-05-07T09:11:18Z</time>
      </trkpt>
      <trkpt lat="44.62931" lon="3.26232">
        <ele>1058.8000488281</ele>
        <time>2023-05-07T09:11:20Z</time>
      </trkpt>
      <trkpt lat="44.62924" lon="3.26233">
        <ele>1058.8000488281</ele>
        <time>2023-05-07T09:11:21Z</time>
      </trkpt>
      <trkpt lat="44.62901" lon="3.26232">
        <ele>1058.5999755859</ele>
        <time>2023-05-07T09:11:24Z</time>
      </trkpt>
      <trkpt lat="44.62887" lon="3.26233">
        <ele>1058.5999755859</ele>
        <time>2023-05-07T09:11:26Z</time>
      </trkpt>
      <trkpt lat="44.62873" lon="3.26234">
        <ele>1058.5999755859</ele>
        <time>2023-05-07T09:11:28Z</time>
      </trkpt>
      <trkpt lat="44.62851" lon="3.26228">
        <ele>1058.4000244141</ele>
        <time>2023-05-07T09:11:31Z</time>
      </trkpt>
      <trkpt lat="44.62826" lon="3.26209">
        <ele>1057.8000488281</ele>
        <time>2023-05-07T09:11:35Z</time>
      </trkpt>
      <trkpt lat="44.62814" lon="3.26199">
        <ele>1057.5999755859</ele>
        <time>2023-05-07T09:11:37Z</time>
      </trkpt>
      <trkpt lat="44.62801" lon="3.26193">
        <ele>1057.4000244141</ele>
        <time>2023-05-07T09:11:39Z</time>
      </trkpt>
      <trkpt lat="44.62787" lon="3.26191">
        <ele>1057.1999511719</ele>
        <time>2023-05-07T09:11:41Z</time>
      </trkpt>
      <trkpt lat="44.62773" lon="3.26196">
        <ele>1057.1999511719</ele>
        <time>2023-05-07T09:11:43Z</time>
      </trkpt>
      <trkpt lat="44.62739" lon="3.26216">
        <ele>1056.8000488281</ele>
        <time>2023-05-07T09:11:48Z</time>
      </trkpt>
      <trkpt lat="44.62701" lon="3.26227">
        <ele>1056.1999511719</ele>
        <time>2023-05-07T09:11:53Z</time>
      </trkpt>
      <trkpt lat="44.62657" lon="3.26233">
        <ele>1055.5999755859</ele>
        <time>2023-05-07T09:11:59Z</time>
      </trkpt>
      <trkpt lat="44.62634" lon="3.26241">
        <ele>1055.4000244141</ele>
        <time>2023-05-07T09:12:02Z</time>
      </trkpt>
      <trkpt lat="44.62627" lon="3.26246">
        <ele>1055.1999511719</ele>
        <time>2023-05-07T09:12:03Z</time>
      </trkpt>
      <trkpt lat="44.62621" lon="3.26253">
        <ele>1055.1999511719</ele>
        <time>2023-05-07T09:12:04Z</time>
      </trkpt>
      <trkpt lat="44.6261" lon="3.26269">
        <ele>1055</ele>
        <time>2023-05-07T09:12:06Z</time>
      </trkpt>
      <trkpt lat="44.6259" lon="3.26303">
        <ele>1054.8000488281</ele>
        <time>2023-05-07T09:12:10Z</time>
      </trkpt>
      <trkpt lat="44.62584" lon="3.26309">
        <ele>1054.8000488281</ele>
        <time>2023-05-07T09:12:11Z</time>
      </trkpt>
      <trkpt lat="44.62577" lon="3.26315">
        <ele>1054.5999755859</ele>
        <time>2023-05-07T09:12:12Z</time>
      </trkpt>
      <trkpt lat="44.62562" lon="3.26322">
        <ele>1054.5999755859</ele>
        <time>2023-05-07T09:12:14Z</time>
      </trkpt>
      <trkpt lat="44.6253" lon="3.26325">
        <ele>1054.1999511719</ele>
        <time>2023-05-07T09:12:18Z</time>
      </trkpt>
      <trkpt lat="44.62498" lon="3.26328">
        <ele>1054</ele>
        <time>2023-05-07T09:12:22Z</time>
      </trkpt>
      <trkpt lat="44.6249" lon="3.2633">
        <ele>1053.8000488281</ele>
        <time>2023-05-07T09:12:23Z</time>
      </trkpt>
      <trkpt lat="44.62483" lon="3.26334">
        <ele>1053.8000488281</ele>
        <time>2023-05-07T09:12:24Z</time>
      </trkpt>
      <trkpt lat="44.62469" lon="3.26344">
        <ele>1053.5999755859</ele>
        <time>2023-05-07T09:12:26Z</time>
      </trkpt>
      <trkpt lat="44.62462" lon="3.26349">
        <ele>1053.4000244141</ele>
        <time>2023-05-07T09:12:27Z</time>
      </trkpt>
      <trkpt lat="44.62456" lon="3.26356">
        <ele>1053.4000244141</ele>
        <time>2023-05-07T09:12:28Z</time>
      </trkpt>
      <trkpt lat="44.62445" lon="3.26372">
        <ele>1053.1999511719</ele>
        <time>2023-05-07T09:12:30Z</time>
      </trkpt>
      <trkpt lat="44.6244" lon="3.26381">
        <ele>1053.1999511719</ele>
        <time>2023-05-07T09:12:31Z</time>
      </trkpt>
      <trkpt lat="44.62417" lon="3.26427">
        <ele>1052.4000244141</ele>
        <time>2023-05-07T09:12:36Z</time>
      </trkpt>
      <trkpt lat="44.62412" lon="3.26435">
        <ele>1052.1999511719</ele>
        <time>2023-05-07T09:12:37Z</time>
      </trkpt>
      <trkpt lat="44.62406" lon="3.26442">
        <ele>1052.1999511719</ele>
        <time>2023-05-07T09:12:38Z</time>
      </trkpt>
      <trkpt lat="44.62392" lon="3.26453">
        <ele>1051.8000488281</ele>
        <time>2023-05-07T09:12:40Z</time>
      </trkpt>
      <trkpt lat="44.62376" lon="3.26459">
        <ele>1051.5999755859</ele>
        <time>2023-05-07T09:12:42Z</time>
      </trkpt>
      <trkpt lat="44.62368" lon="3.2646">
        <ele>1051.5999755859</ele>
        <time>2023-05-07T09:12:43Z</time>
      </trkpt>
      <trkpt lat="44.62359" lon="3.2646">
        <ele>1051.4000244141</ele>
        <time>2023-05-07T09:12:44Z</time>
      </trkpt>
      <trkpt lat="44.62343" lon="3.26454">
        <ele>1051</ele>
        <time>2023-05-07T09:12:46Z</time>
      </trkpt>
      <trkpt lat="44.6233" lon="3.26441">
        <ele>1050.8000488281</ele>
        <time>2023-05-07T09:12:48Z</time>
      </trkpt>
      <trkpt lat="44.62324" lon="3.26433">
        <ele>1050.5999755859</ele>
        <time>2023-05-07T09:12:49Z</time>
      </trkpt>
      <trkpt lat="44.62319" lon="3.26424">
        <ele>1050.4000244141</ele>
        <time>2023-05-07T09:12:50Z</time>
      </trkpt>
      <trkpt lat="44.62304" lon="3.26394">
        <ele>1049.8000488281</ele>
        <time>2023-05-07T09:12:53Z</time>
      </trkpt>
      <trkpt lat="44.62286" lon="3.26366">
        <ele>1049.4000244141</ele>
        <time>2023-05-07T09:12:56Z</time>
      </trkpt>
      <trkpt lat="44.62279" lon="3.26358">
        <ele>1049.1999511719</ele>
        <time>2023-05-07T09:12:57Z</time>
      </trkpt>
      <trkpt lat="44.62271" lon="3.26352">
        <ele>1049</ele>
        <time>2023-05-07T09:12:58Z</time>
      </trkpt>
      <trkpt lat="44.62254" lon="3.26342">
        <ele>1048.8000488281</ele>
        <time>2023-05-07T09:13:00Z</time>
      </trkpt>
      <trkpt lat="44.62236" lon="3.26337">
        <ele>1048.5999755859</ele>
        <time>2023-05-07T09:13:02Z</time>
      </trkpt>
      <trkpt lat="44.62226" lon="3.26337">
        <ele>1048.4000244141</ele>
        <time>2023-05-07T09:13:03Z</time>
      </trkpt>
      <trkpt lat="44.62177" lon="3.26345">
        <ele>1047</ele>
        <time>2023-05-07T09:13:08Z</time>
      </trkpt>
      <trkpt lat="44.62128" lon="3.26353">
        <ele>1045.5999755859</ele>
        <time>2023-05-07T09:13:13Z</time>
      </trkpt>
      <trkpt lat="44.6207" lon="3.26362">
        <ele>1043.8000488281</ele>
        <time>2023-05-07T09:13:19Z</time>
      </trkpt>
      <trkpt lat="44.6206" lon="3.26363">
        <ele>1043.5999755859</ele>
        <time>2023-05-07T09:13:20Z</time>
      </trkpt>
      <trkpt lat="44.61999" lon="3.26364">
        <ele>1042</ele>
        <time>2023-05-07T09:13:26Z</time>
      </trkpt>
      <trkpt lat="44.61978" lon="3.26362">
        <ele>1041.4000244141</ele>
        <time>2023-05-07T09:13:28Z</time>
      </trkpt>
      <trkpt lat="44.61916" lon="3.2635">
        <ele>1039.5999755859</ele>
        <time>2023-05-07T09:13:34Z</time>
      </trkpt>
      <trkpt lat="44.61905" lon="3.26348">
        <ele>1039.4000244141</ele>
        <time>2023-05-07T09:13:35Z</time>
      </trkpt>
      <trkpt lat="44.61877" lon="3.26344">
        <ele>1038.1999511719</ele>
        <time>2023-05-07T09:13:38Z</time>
      </trkpt>
      <trkpt lat="44.61867" lon="3.26345">
        <ele>1038</ele>
        <time>2023-05-07T09:13:39Z</time>
      </trkpt>
      <trkpt lat="44.61849" lon="3.2635">
        <ele>1037.4000244141</ele>
        <time>2023-05-07T09:13:41Z</time>
      </trkpt>
      <trkpt lat="44.61833" lon="3.26358">
        <ele>1037</ele>
        <time>2023-05-07T09:13:43Z</time>
      </trkpt>
      <trkpt lat="44.61798" lon="3.26379">
        <ele>1036</ele>
        <time>2023-05-07T09:13:48Z</time>
      </trkpt>
      <trkpt lat="44.61745" lon="3.26407">
        <ele>1034.4000244141</ele>
        <time>2023-05-07T09:13:56Z</time>
      </trkpt>
      <trkpt lat="44.61691" lon="3.2644">
        <ele>1032.5999755859</ele>
        <time>2023-05-07T09:14:04Z</time>
      </trkpt>
      <trkpt lat="44.61647" lon="3.26466">
        <ele>1031</ele>
        <time>2023-05-07T09:14:11Z</time>
      </trkpt>
      <trkpt lat="44.61599" lon="3.26491">
        <ele>1030</ele>
        <time>2023-05-07T09:14:19Z</time>
      </trkpt>
      <trkpt lat="44.61562" lon="3.26516">
        <ele>1029.4000244141</ele>
        <time>2023-05-07T09:14:25Z</time>
      </trkpt>
      <trkpt lat="44.61521" lon="3.26552">
        <ele>1028.5999755859</ele>
        <time>2023-05-07T09:14:33Z</time>
      </trkpt>
      <trkpt lat="44.61488" lon="3.26586">
        <ele>1028</ele>
        <time>2023-05-07T09:14:41Z</time>
      </trkpt>
      <trkpt lat="44.61456" lon="3.26626">
        <ele>1027.5999755859</ele>
        <time>2023-05-07T09:14:49Z</time>
      </trkpt>
      <trkpt lat="44.61427" lon="3.26668">
        <ele>1027.1999511719</ele>
        <time>2023-05-07T09:14:56Z</time>
      </trkpt>
      <trkpt lat="44.61399" lon="3.26716">
        <ele>1026.5999755859</ele>
        <time>2023-05-07T09:15:03Z</time>
      </trkpt>
      <trkpt lat="44.61364" lon="3.26777">
        <ele>1026.1999511719</ele>
        <time>2023-05-07T09:15:12Z</time>
      </trkpt>
      <trkpt lat="44.61355" lon="3.26791">
        <ele>1026</ele>
        <time>2023-05-07T09:15:14Z</time>
      </trkpt>
      <trkpt lat="44.61342" lon="3.26811">
        <ele>1025.8000488281</ele>
        <time>2023-05-07T09:15:17Z</time>
      </trkpt>
      <trkpt lat="44.61306" lon="3.26872">
        <ele>1024.8000488281</ele>
        <time>2023-05-07T09:15:25Z</time>
      </trkpt>
      <trkpt lat="44.61272" lon="3.26926">
        <ele>1023.799987793</ele>
        <time>2023-05-07T09:15:32Z</time>
      </trkpt>
      <trkpt lat="44.61251" lon="3.26962">
        <ele>1023</ele>
        <time>2023-05-07T09:15:36Z</time>
      </trkpt>
      <trkpt lat="44.61247" lon="3.26972">
        <ele>1022.799987793</ele>
        <time>2023-05-07T09:15:37Z</time>
      </trkpt>
      <trkpt lat="44.61229" lon="3.27028">
        <ele>1022.200012207</ele>
        <time>2023-05-07T09:15:42Z</time>
      </trkpt>
      <trkpt lat="44.61218" lon="3.27047">
        <ele>1021.799987793</ele>
        <time>2023-05-07T09:15:44Z</time>
      </trkpt>
      <trkpt lat="44.61206" lon="3.27062">
        <ele>1021.5999755859</ele>
        <time>2023-05-07T09:15:46Z</time>
      </trkpt>
      <trkpt lat="44.61175" lon="3.27101">
        <ele>1021.200012207</ele>
        <time>2023-05-07T09:15:52Z</time>
      </trkpt>
      <trkpt lat="44.61156" lon="3.27125">
        <ele>1021</ele>
        <time>2023-05-07T09:15:57Z</time>
      </trkpt>
      <trkpt lat="44.61152" lon="3.27128">
        <ele>1021</ele>
        <time>2023-05-07T09:15:58Z</time>
      </trkpt>
      <trkpt lat="44.61143" lon="3.27132">
        <ele>1020.799987793</ele>
        <time>2023-05-07T09:16:00Z</time>
      </trkpt>
      <trkpt lat="44.61137" lon="3.27132">
        <ele>1020.799987793</ele>
        <time>2023-05-07T09:16:01Z</time>
      </trkpt>
      <trkpt lat="44.61107" lon="3.27131">
        <ele>1020.200012207</ele>
        <time>2023-05-07T09:16:06Z</time>
      </trkpt>
      <trkpt lat="44.61073" lon="3.27139">
        <ele>1019.799987793</ele>
        <time>2023-05-07T09:16:12Z</time>
      </trkpt>
      <trkpt lat="44.61045" lon="3.27157">
        <ele>1019.799987793</ele>
        <time>2023-05-07T09:16:18Z</time>
      </trkpt>
      <trkpt lat="44.61027" lon="3.27174">
        <ele>1019.799987793</ele>
        <time>2023-05-07T09:16:23Z</time>
      </trkpt>
      <trkpt lat="44.6102" lon="3.27182">
        <ele>1019.799987793</ele>
        <time>2023-05-07T09:16:25Z</time>
      </trkpt>
      <trkpt lat="44.61001" lon="3.27214">
        <ele>1019.799987793</ele>
        <time>2023-05-07T09:16:32Z</time>
      </trkpt>
      <trkpt lat="44.60987" lon="3.27251">
        <ele>1020</ele>
        <time>2023-05-07T09:16:39Z</time>
      </trkpt>
      <trkpt lat="44.60976" lon="3.27305">
        <ele>1020.200012207</ele>
        <time>2023-05-07T09:16:48Z</time>
      </trkpt>
      <trkpt lat="44.60962" lon="3.27361">
        <ele>1020.200012207</ele>
        <time>2023-05-07T09:16:57Z</time>
      </trkpt>
      <trkpt lat="44.60946" lon="3.27424">
        <ele>1020.200012207</ele>
        <time>2023-05-07T09:17:07Z</time>
      </trkpt>
      <trkpt lat="44.6093" lon="3.27461">
        <ele>1020.4000244141</ele>
        <time>2023-05-07T09:17:14Z</time>
      </trkpt>
      <trkpt lat="44.60909" lon="3.27496">
        <ele>1020.799987793</ele>
        <time>2023-05-07T09:17:22Z</time>
      </trkpt>
      <trkpt lat="44.60891" lon="3.27521">
        <ele>1020.5999755859</ele>
        <time>2023-05-07T09:17:29Z</time>
      </trkpt>
      <trkpt lat="44.60868" lon="3.27551">
        <ele>1020.5999755859</ele>
        <time>2023-05-07T09:17:38Z</time>
      </trkpt>
      <trkpt lat="44.6084" lon="3.27578">
        <ele>1020.5999755859</ele>
        <time>2023-05-07T09:17:48Z</time>
      </trkpt>
      <trkpt lat="44.60819" lon="3.27601">
        <ele>1021.200012207</ele>
        <time>2023-05-07T09:17:57Z</time>
      </trkpt>
      <trkpt lat="44.608" lon="3.27627">
        <ele>1021.799987793</ele>
        <time>2023-05-07T09:18:07Z</time>
      </trkpt>
      <trkpt lat="44.60789" lon="3.27641">
        <ele>1021.799987793</ele>
        <time>2023-05-07T09:18:13Z</time>
      </trkpt>
      <trkpt lat="44.60774" lon="3.2766">
        <ele>1022.200012207</ele>
        <time>2023-05-07T09:18:21Z</time>
      </trkpt>
      <trkpt lat="44.60766" lon="3.27682">
        <ele>1023.200012207</ele>
        <time>2023-05-07T09:18:29Z</time>
      </trkpt>
      <trkpt lat="44.60763" lon="3.27698">
        <ele>1023.799987793</ele>
        <time>2023-05-07T09:18:35Z</time>
      </trkpt>
      <trkpt lat="44.60767" lon="3.27713">
        <ele>1024.4000244141</ele>
        <time>2023-05-07T09:18:41Z</time>
      </trkpt>
      <trkpt lat="44.60773" lon="3.27724">
        <ele>1026.4000244141</ele>
        <time>2023-05-07T09:18:49Z</time>
      </trkpt>
      <trkpt lat="44.6078" lon="3.27733">
        <ele>1028.1999511719</ele>
        <time>2023-05-07T09:18:57Z</time>
      </trkpt>
      <trkpt lat="44.60784" lon="3.27739">
        <ele>1029.5999755859</ele>
        <time>2023-05-07T09:19:03Z</time>
      </trkpt>
      <trkpt lat="44.60784" lon="3.27741">
        <ele>1030</ele>
        <time>2023-05-07T09:19:06Z</time>
      </trkpt>
      <trkpt lat="44.60784" lon="3.27742">
        <ele>1030.4000244141</ele>
        <time>2023-05-07T09:19:08Z</time>
      </trkpt>
      <trkpt lat="44.60785" lon="3.27745">
        <ele>1031</ele>
        <time>2023-05-07T09:19:10Z</time>
      </trkpt>
      <trkpt lat="44.60788" lon="3.27752">
        <ele>1032.1999511719</ele>
        <time>2023-05-07T09:19:15Z</time>
      </trkpt>
      <trkpt lat="44.60788" lon="3.27756">
        <ele>1033</ele>
        <time>2023-05-07T09:19:20Z</time>
      </trkpt>
      <trkpt lat="44.60788" lon="3.27757">
        <ele>1034.1999511719</ele>
        <time>2023-05-07T09:19:27Z</time>
      </trkpt>
      <trkpt lat="44.60786" lon="3.2776">
        <ele>1035</ele>
        <time>2023-05-07T09:19:31Z</time>
      </trkpt>
      <trkpt lat="44.60785" lon="3.27763">
        <ele>1035.4000244141</ele>
        <time>2023-05-07T09:19:33Z</time>
      </trkpt>
      <trkpt lat="44.60785" lon="3.27765">
        <ele>1035.5999755859</ele>
        <time>2023-05-07T09:19:34Z</time>
      </trkpt>
      <trkpt lat="44.60785" lon="3.2778">
        <ele>1037.4000244141</ele>
        <time>2023-05-07T09:19:42Z</time>
      </trkpt>
      <trkpt lat="44.60783" lon="3.27797">
        <ele>1039.4000244141</ele>
        <time>2023-05-07T09:19:51Z</time>
      </trkpt>
      <trkpt lat="44.60777" lon="3.27809">
        <ele>1041.1999511719</ele>
        <time>2023-05-07T09:19:59Z</time>
      </trkpt>
      <trkpt lat="44.60771" lon="3.2782">
        <ele>1042.4000244141</ele>
        <time>2023-05-07T09:20:07Z</time>
      </trkpt>
      <trkpt lat="44.60769" lon="3.27826">
        <ele>1043.1999511719</ele>
        <time>2023-05-07T09:20:11Z</time>
      </trkpt>
      <trkpt lat="44.60767" lon="3.27831">
        <ele>1043.8000488281</ele>
        <time>2023-05-07T09:20:14Z</time>
      </trkpt>
      <trkpt lat="44.60763" lon="3.27842">
        <ele>1044.5999755859</ele>
        <time>2023-05-07T09:20:21Z</time>
      </trkpt>
      <trkpt lat="44.6076" lon="3.27856">
        <ele>1045.5999755859</ele>
        <time>2023-05-07T09:20:29Z</time>
      </trkpt>
      <trkpt lat="44.60758" lon="3.27869">
        <ele>1046.4000244141</ele>
        <time>2023-05-07T09:20:36Z</time>
      </trkpt>
      <trkpt lat="44.60756" lon="3.27884">
        <ele>1047.8000488281</ele>
        <time>2023-05-07T09:20:43Z</time>
      </trkpt>
      <trkpt lat="44.60751" lon="3.27899">
        <ele>1049.1999511719</ele>
        <time>2023-05-07T09:20:51Z</time>
      </trkpt>
      <trkpt lat="44.60746" lon="3.27911">
        <ele>1050.1999511719</ele>
        <time>2023-05-07T09:20:58Z</time>
      </trkpt>
      <trkpt lat="44.60742" lon="3.27925">
        <ele>1051.4000244141</ele>
        <time>2023-05-07T09:21:06Z</time>
      </trkpt>
      <trkpt lat="44.60741" lon="3.27927">
        <ele>1051.4000244141</ele>
        <time>2023-05-07T09:21:07Z</time>
      </trkpt>
      <trkpt lat="44.6074" lon="3.27935">
        <ele>1051.8000488281</ele>
        <time>2023-05-07T09:21:11Z</time>
      </trkpt>
      <trkpt lat="44.60737" lon="3.27951">
        <ele>1053</ele>
        <time>2023-05-07T09:21:19Z</time>
      </trkpt>
      <trkpt lat="44.60734" lon="3.27967">
        <ele>1053.8000488281</ele>
        <time>2023-05-07T09:21:27Z</time>
      </trkpt>
      <trkpt lat="44.60731" lon="3.27986">
        <ele>1055</ele>
        <time>2023-05-07T09:21:35Z</time>
      </trkpt>
      <trkpt lat="44.60729" lon="3.28003">
        <ele>1056</ele>
        <time>2023-05-07T09:21:42Z</time>
      </trkpt>
      <trkpt lat="44.60723" lon="3.28026">
        <ele>1057.8000488281</ele>
        <time>2023-05-07T09:21:52Z</time>
      </trkpt>
      <trkpt lat="44.60721" lon="3.28043">
        <ele>1058.5999755859</ele>
        <time>2023-05-07T09:21:59Z</time>
      </trkpt>
      <trkpt lat="44.60719" lon="3.28062">
        <ele>1059.5999755859</ele>
        <time>2023-05-07T09:22:08Z</time>
      </trkpt>
      <trkpt lat="44.60721" lon="3.28083">
        <ele>1061</ele>
        <time>2023-05-07T09:22:17Z</time>
      </trkpt>
      <trkpt lat="44.60722" lon="3.28102">
        <ele>1062.5999755859</ele>
        <time>2023-05-07T09:22:26Z</time>
      </trkpt>
      <trkpt lat="44.60723" lon="3.28118">
        <ele>1064.1999511719</ele>
        <time>2023-05-07T09:22:34Z</time>
      </trkpt>
      <trkpt lat="44.60722" lon="3.28132">
        <ele>1065.5999755859</ele>
        <time>2023-05-07T09:22:42Z</time>
      </trkpt>
      <trkpt lat="44.60722" lon="3.28143">
        <ele>1066.4000244141</ele>
        <time>2023-05-07T09:22:48Z</time>
      </trkpt>
      <trkpt lat="44.60721" lon="3.28145">
        <ele>1066.4000244141</ele>
        <time>2023-05-07T09:22:49Z</time>
      </trkpt>
      <trkpt lat="44.60721" lon="3.28146">
        <ele>1066.5999755859</ele>
        <time>2023-05-07T09:22:50Z</time>
      </trkpt>
      <trkpt lat="44.60719" lon="3.28155">
        <ele>1067.1999511719</ele>
        <time>2023-05-07T09:22:55Z</time>
      </trkpt>
      <trkpt lat="44.60712" lon="3.2817">
        <ele>1068.4000244141</ele>
        <time>2023-05-07T09:23:03Z</time>
      </trkpt>
      <trkpt lat="44.60704" lon="3.28185">
        <ele>1069.4000244141</ele>
        <time>2023-05-07T09:23:12Z</time>
      </trkpt>
      <trkpt lat="44.60699" lon="3.28201">
        <ele>1070</ele>
        <time>2023-05-07T09:23:19Z</time>
      </trkpt>
      <trkpt lat="44.607" lon="3.28218">
        <ele>1070.8000488281</ele>
        <time>2023-05-07T09:23:26Z</time>
      </trkpt>
      <trkpt lat="44.60701" lon="3.28225">
        <ele>1071.4000244141</ele>
        <time>2023-05-07T09:23:29Z</time>
      </trkpt>
      <trkpt lat="44.60702" lon="3.2823">
        <ele>1071.8000488281</ele>
        <time>2023-05-07T09:23:31Z</time>
      </trkpt>
      <trkpt lat="44.60706" lon="3.28234">
        <ele>1072.8000488281</ele>
        <time>2023-05-07T09:23:35Z</time>
      </trkpt>
      <trkpt lat="44.60709" lon="3.28238">
        <ele>1073.1999511719</ele>
        <time>2023-05-07T09:23:37Z</time>
      </trkpt>
      <trkpt lat="44.60711" lon="3.28242">
        <ele>1073.4000244141</ele>
        <time>2023-05-07T09:23:39Z</time>
      </trkpt>
      <trkpt lat="44.60714" lon="3.28246">
        <ele>1074</ele>
        <time>2023-05-07T09:23:41Z</time>
      </trkpt>
      <trkpt lat="44.60715" lon="3.28251">
        <ele>1074.4000244141</ele>
        <time>2023-05-07T09:23:43Z</time>
      </trkpt>
      <trkpt lat="44.60715" lon="3.28259">
        <ele>1075.1999511719</ele>
        <time>2023-05-07T09:23:46Z</time>
      </trkpt>
      <trkpt lat="44.60713" lon="3.28262">
        <ele>1075.5999755859</ele>
        <time>2023-05-07T09:23:48Z</time>
      </trkpt>
      <trkpt lat="44.60704" lon="3.28268">
        <ele>1076.1999511719</ele>
        <time>2023-05-07T09:23:52Z</time>
      </trkpt>
      <trkpt lat="44.60688" lon="3.28283">
        <ele>1076.8000488281</ele>
        <time>2023-05-07T09:23:57Z</time>
      </trkpt>
      <trkpt lat="44.60675" lon="3.28305">
        <ele>1077.1999511719</ele>
        <time>2023-05-07T09:24:02Z</time>
      </trkpt>
      <trkpt lat="44.60667" lon="3.28328">
        <ele>1077.5999755859</ele>
        <time>2023-05-07T09:24:07Z</time>
      </trkpt>
      <trkpt lat="44.60664" lon="3.28344">
        <ele>1078.8000488281</ele>
        <time>2023-05-07T09:24:13Z</time>
      </trkpt>
      <trkpt lat="44.60663" lon="3.28346">
        <ele>1079</ele>
        <time>2023-05-07T09:24:14Z</time>
      </trkpt>
      <trkpt lat="44.60662" lon="3.28349">
        <ele>1079.1999511719</ele>
        <time>2023-05-07T09:24:16Z</time>
      </trkpt>
      <trkpt lat="44.60658" lon="3.28351">
        <ele>1079.4000244141</ele>
        <time>2023-05-07T09:24:18Z</time>
      </trkpt>
      <trkpt lat="44.60656" lon="3.28356">
        <ele>1080</ele>
        <time>2023-05-07T09:24:22Z</time>
      </trkpt>
      <trkpt lat="44.60654" lon="3.28361">
        <ele>1080.1999511719</ele>
        <time>2023-05-07T09:24:27Z</time>
      </trkpt>
      <trkpt lat="44.60646" lon="3.28374">
        <ele>1080.8000488281</ele>
        <time>2023-05-07T09:24:35Z</time>
      </trkpt>
      <trkpt lat="44.60645" lon="3.28374">
        <ele>1080.8000488281</ele>
        <time>2023-05-07T09:24:37Z</time>
      </trkpt>
      <trkpt lat="44.60643" lon="3.28372">
        <ele>1081</ele>
        <time>2023-05-07T09:24:39Z</time>
      </trkpt>
      <trkpt lat="44.60643" lon="3.28372">
        <ele>1081</ele>
        <time>2023-05-07T09:24:40Z</time>
      </trkpt>
      <trkpt lat="44.6064" lon="3.28369">
        <ele>1081.1999511719</ele>
        <time>2023-05-07T09:24:43Z</time>
      </trkpt>
      <trkpt lat="44.60639" lon="3.28368">
        <ele>1081.4000244141</ele>
        <time>2023-05-07T09:24:44Z</time>
      </trkpt>
      <trkpt lat="44.60638" lon="3.28363">
        <ele>1081.5999755859</ele>
        <time>2023-05-07T09:24:49Z</time>
      </trkpt>
      <trkpt lat="44.60638" lon="3.28363">
        <ele>1082.5999755859</ele>
        <time>2023-05-07T09:25:10Z</time>
      </trkpt>
      <trkpt lat="44.60637" lon="3.28362">
        <ele>1083.4000244141</ele>
        <time>2023-05-07T09:25:31Z</time>
      </trkpt>
      <trkpt lat="44.60637" lon="3.28362">
        <ele>1084.1999511719</ele>
        <time>2023-05-07T09:25:55Z</time>
      </trkpt>
      <trkpt lat="44.60637" lon="3.28362">
        <ele>1084.5999755859</ele>
        <time>2023-05-07T09:26:16Z</time>
      </trkpt>
      <trkpt lat="44.60637" lon="3.28362">
        <ele>1085.1999511719</ele>
        <time>2023-05-07T09:26:38Z</time>
      </trkpt>
      <trkpt lat="44.60638" lon="3.28362">
        <ele>1085.5999755859</ele>
        <time>2023-05-07T09:27:05Z</time>
      </trkpt>
      <trkpt lat="44.60638" lon="3.28362">
        <ele>1085.8000488281</ele>
        <time>2023-05-07T09:27:24Z</time>
      </trkpt>
      <trkpt lat="44.60638" lon="3.28362">
        <ele>1086</ele>
        <time>2023-05-07T09:27:43Z</time>
      </trkpt>
      <trkpt lat="44.60638" lon="3.28362">
        <ele>1086.1999511719</ele>
        <time>2023-05-07T09:28:06Z</time>
      </trkpt>
      <trkpt lat="44.60638" lon="3.28362">
        <ele>1086.4000244141</ele>
        <time>2023-05-07T09:28:28Z</time>
      </trkpt>
      <trkpt lat="44.60638" lon="3.28362">
        <ele>1086.5999755859</ele>
        <time>2023-05-07T09:28:36Z</time>
      </trkpt>
      <trkpt lat="44.60642" lon="3.28357">
        <ele>1086.5999755859</ele>
        <time>2023-05-07T09:28:42Z</time>
      </trkpt>
      <trkpt lat="44.60642" lon="3.28353">
        <ele>1086.8000488281</ele>
        <time>2023-05-07T09:28:45Z</time>
      </trkpt>
      <trkpt lat="44.60641" lon="3.28349">
        <ele>1086.5999755859</ele>
        <time>2023-05-07T09:28:48Z</time>
      </trkpt>
      <trkpt lat="44.6064" lon="3.28345">
        <ele>1086.5999755859</ele>
        <time>2023-05-07T09:28:51Z</time>
      </trkpt>
      <trkpt lat="44.60641" lon="3.28342">
        <ele>1086.5999755859</ele>
        <time>2023-05-07T09:28:53Z</time>
      </trkpt>
      <trkpt lat="44.60643" lon="3.28341">
        <ele>1086.5999755859</ele>
        <time>2023-05-07T09:28:55Z</time>
      </trkpt>
      <trkpt lat="44.60646" lon="3.28343">
        <ele>1086.5999755859</ele>
        <time>2023-05-07T09:28:58Z</time>
      </trkpt>
      <trkpt lat="44.60653" lon="3.2835">
        <ele>1087.4000244141</ele>
        <time>2023-05-07T09:29:06Z</time>
      </trkpt>
      <trkpt lat="44.6066" lon="3.28356">
        <ele>1087.8000488281</ele>
        <time>2023-05-07T09:29:14Z</time>
      </trkpt>
      <trkpt lat="44.60663" lon="3.28359">
        <ele>1088.1999511719</ele>
        <time>2023-05-07T09:29:21Z</time>
      </trkpt>
      <trkpt lat="44.60665" lon="3.28359">
        <ele>1088.4000244141</ele>
        <time>2023-05-07T09:29:27Z</time>
      </trkpt>
      <trkpt lat="44.60665" lon="3.28359">
        <ele>1088.8000488281</ele>
        <time>2023-05-07T09:29:36Z</time>
      </trkpt>
      <trkpt lat="44.60667" lon="3.28364">
        <ele>1089.1999511719</ele>
        <time>2023-05-07T09:29:46Z</time>
      </trkpt>
      <trkpt lat="44.60667" lon="3.28367">
        <ele>1089.1999511719</ele>
        <time>2023-05-07T09:29:47Z</time>
      </trkpt>
      <trkpt lat="44.60666" lon="3.28378">
        <ele>1089.4000244141</ele>
        <time>2023-05-07T09:29:50Z</time>
      </trkpt>
      <trkpt lat="44.60653" lon="3.28398">
        <ele>1089</ele>
        <time>2023-05-07T09:29:56Z</time>
      </trkpt>
      <trkpt lat="44.60646" lon="3.28405">
        <ele>1088.8000488281</ele>
        <time>2023-05-07T09:29:58Z</time>
      </trkpt>
      <trkpt lat="44.60639" lon="3.28411">
        <ele>1088.5999755859</ele>
        <time>2023-05-07T09:30:00Z</time>
      </trkpt>
      <trkpt lat="44.60631" lon="3.28415">
        <ele>1088.5999755859</ele>
        <time>2023-05-07T09:30:02Z</time>
      </trkpt>
      <trkpt lat="44.60616" lon="3.28417">
        <ele>1088</ele>
        <time>2023-05-07T09:30:06Z</time>
      </trkpt>
      <trkpt lat="44.60609" lon="3.2842">
        <ele>1087.5999755859</ele>
        <time>2023-05-07T09:30:08Z</time>
      </trkpt>
      <trkpt lat="44.60603" lon="3.28431">
        <ele>1087.1999511719</ele>
        <time>2023-05-07T09:30:10Z</time>
      </trkpt>
      <trkpt lat="44.60601" lon="3.28446">
        <ele>1086.8000488281</ele>
        <time>2023-05-07T09:30:12Z</time>
      </trkpt>
      <trkpt lat="44.60602" lon="3.28454">
        <ele>1086.5999755859</ele>
        <time>2023-05-07T09:30:13Z</time>
      </trkpt>
      <trkpt lat="44.60604" lon="3.28462">
        <ele>1086.1999511719</ele>
        <time>2023-05-07T09:30:14Z</time>
      </trkpt>
      <trkpt lat="44.6061" lon="3.28473">
        <ele>1085.5999755859</ele>
        <time>2023-05-07T09:30:16Z</time>
      </trkpt>
      <trkpt lat="44.60613" lon="3.28479">
        <ele>1085.4000244141</ele>
        <time>2023-05-07T09:30:17Z</time>
      </trkpt>
      <trkpt lat="44.6062" lon="3.2849">
        <ele>1085</ele>
        <time>2023-05-07T09:30:19Z</time>
      </trkpt>
      <trkpt lat="44.60625" lon="3.28494">
        <ele>1084.5999755859</ele>
        <time>2023-05-07T09:30:20Z</time>
      </trkpt>
      <trkpt lat="44.6063" lon="3.28497">
        <ele>1084.4000244141</ele>
        <time>2023-05-07T09:30:21Z</time>
      </trkpt>
      <trkpt lat="44.6065" lon="3.28506">
        <ele>1083.5999755859</ele>
        <time>2023-05-07T09:30:24Z</time>
      </trkpt>
      <trkpt lat="44.60671" lon="3.28511">
        <ele>1082.8000488281</ele>
        <time>2023-05-07T09:30:27Z</time>
      </trkpt>
      <trkpt lat="44.60677" lon="3.2851">
        <ele>1082.5999755859</ele>
        <time>2023-05-07T09:30:28Z</time>
      </trkpt>
      <trkpt lat="44.60683" lon="3.28509">
        <ele>1082.1999511719</ele>
        <time>2023-05-07T09:30:29Z</time>
      </trkpt>
      <trkpt lat="44.607" lon="3.28502">
        <ele>1081.4000244141</ele>
        <time>2023-05-07T09:30:32Z</time>
      </trkpt>
      <trkpt lat="44.60706" lon="3.285">
        <ele>1081.1999511719</ele>
        <time>2023-05-07T09:30:33Z</time>
      </trkpt>
      <trkpt lat="44.60733" lon="3.28496">
        <ele>1080</ele>
        <time>2023-05-07T09:30:37Z</time>
      </trkpt>
      <trkpt lat="44.60763" lon="3.28484">
        <ele>1078.5999755859</ele>
        <time>2023-05-07T09:30:41Z</time>
      </trkpt>
      <trkpt lat="44.6079" lon="3.28476">
        <ele>1077.1999511719</ele>
        <time>2023-05-07T09:30:45Z</time>
      </trkpt>
      <trkpt lat="44.60802" lon="3.28469">
        <ele>1076.5999755859</ele>
        <time>2023-05-07T09:30:47Z</time>
      </trkpt>
      <trkpt lat="44.60812" lon="3.2846">
        <ele>1076</ele>
        <time>2023-05-07T09:30:49Z</time>
      </trkpt>
      <trkpt lat="44.60838" lon="3.2844">
        <ele>1074.5999755859</ele>
        <time>2023-05-07T09:30:54Z</time>
      </trkpt>
      <trkpt lat="44.60843" lon="3.28436">
        <ele>1074.1999511719</ele>
        <time>2023-05-07T09:30:55Z</time>
      </trkpt>
      <trkpt lat="44.60852" lon="3.28427">
        <ele>1073.5999755859</ele>
        <time>2023-05-07T09:30:57Z</time>
      </trkpt>
      <trkpt lat="44.60865" lon="3.28414">
        <ele>1072.5999755859</ele>
        <time>2023-05-07T09:31:00Z</time>
      </trkpt>
      <trkpt lat="44.60879" lon="3.28399">
        <ele>1071.1999511719</ele>
        <time>2023-05-07T09:31:04Z</time>
      </trkpt>
      <trkpt lat="44.60887" lon="3.28393">
        <ele>1070.4000244141</ele>
        <time>2023-05-07T09:31:06Z</time>
      </trkpt>
      <trkpt lat="44.60891" lon="3.28389">
        <ele>1070.1999511719</ele>
        <time>2023-05-07T09:31:07Z</time>
      </trkpt>
      <trkpt lat="44.60904" lon="3.28373">
        <ele>1069.1999511719</ele>
        <time>2023-05-07T09:31:10Z</time>
      </trkpt>
      <trkpt lat="44.60911" lon="3.28362">
        <ele>1068.5999755859</ele>
        <time>2023-05-07T09:31:12Z</time>
      </trkpt>
      <trkpt lat="44.60921" lon="3.28347">
        <ele>1067.4000244141</ele>
        <time>2023-05-07T09:31:15Z</time>
      </trkpt>
      <trkpt lat="44.60929" lon="3.28324">
        <ele>1066</ele>
        <time>2023-05-07T09:31:19Z</time>
      </trkpt>
      <trkpt lat="44.60933" lon="3.28307">
        <ele>1065</ele>
        <time>2023-05-07T09:31:22Z</time>
      </trkpt>
      <trkpt lat="44.60935" lon="3.28301">
        <ele>1064.5999755859</ele>
        <time>2023-05-07T09:31:23Z</time>
      </trkpt>
      <trkpt lat="44.60937" lon="3.28289">
        <ele>1063.5999755859</ele>
        <time>2023-05-07T09:31:25Z</time>
      </trkpt>
      <trkpt lat="44.6094" lon="3.28284">
        <ele>1063.1999511719</ele>
        <time>2023-05-07T09:31:26Z</time>
      </trkpt>
      <trkpt lat="44.60948" lon="3.28258">
        <ele>1060.5999755859</ele>
        <time>2023-05-07T09:31:31Z</time>
      </trkpt>
      <trkpt lat="44.6096" lon="3.28239">
        <ele>1057.5999755859</ele>
        <time>2023-05-07T09:31:36Z</time>
      </trkpt>
      <trkpt lat="44.60968" lon="3.28226">
        <ele>1056.5999755859</ele>
        <time>2023-05-07T09:31:39Z</time>
      </trkpt>
      <trkpt lat="44.60972" lon="3.28223">
        <ele>1056.1999511719</ele>
        <time>2023-05-07T09:31:40Z</time>
      </trkpt>
      <trkpt lat="44.60988" lon="3.28206">
        <ele>1054.5999755859</ele>
        <time>2023-05-07T09:31:44Z</time>
      </trkpt>
      <trkpt lat="44.60998" lon="3.282">
        <ele>1053.8000488281</ele>
        <time>2023-05-07T09:31:46Z</time>
      </trkpt>
      <trkpt lat="44.61006" lon="3.28196">
        <ele>1053</ele>
        <time>2023-05-07T09:31:48Z</time>
      </trkpt>
      <trkpt lat="44.6101" lon="3.28193">
        <ele>1052.5999755859</ele>
        <time>2023-05-07T09:31:49Z</time>
      </trkpt>
      <trkpt lat="44.61025" lon="3.28185">
        <ele>1051</ele>
        <time>2023-05-07T09:31:53Z</time>
      </trkpt>
      <trkpt lat="44.61036" lon="3.28187">
        <ele>1050.8000488281</ele>
        <time>2023-05-07T09:31:56Z</time>
      </trkpt>
      <trkpt lat="44.61039" lon="3.2819">
        <ele>1050.8000488281</ele>
        <time>2023-05-07T09:31:57Z</time>
      </trkpt>
      <trkpt lat="44.61057" lon="3.28204">
        <ele>1048.1999511719</ele>
        <time>2023-05-07T09:32:03Z</time>
      </trkpt>
      <trkpt lat="44.61065" lon="3.28204">
        <ele>1047</ele>
        <time>2023-05-07T09:32:05Z</time>
      </trkpt>
      <trkpt lat="44.61071" lon="3.28203">
        <ele>1046.4000244141</ele>
        <time>2023-05-07T09:32:06Z</time>
      </trkpt>
      <trkpt lat="44.61084" lon="3.282">
        <ele>1045</ele>
        <time>2023-05-07T09:32:08Z</time>
      </trkpt>
      <trkpt lat="44.61092" lon="3.282">
        <ele>1043.8000488281</ele>
        <time>2023-05-07T09:32:10Z</time>
      </trkpt>
      <trkpt lat="44.61101" lon="3.282">
        <ele>1041.4000244141</ele>
        <time>2023-05-07T09:32:14Z</time>
      </trkpt>
      <trkpt lat="44.61113" lon="3.28201">
        <ele>1038.8000488281</ele>
        <time>2023-05-07T09:32:19Z</time>
      </trkpt>
      <trkpt lat="44.61123" lon="3.28204">
        <ele>1037.1999511719</ele>
        <time>2023-05-07T09:32:24Z</time>
      </trkpt>
      <trkpt lat="44.61125" lon="3.28205">
        <ele>1037</ele>
        <time>2023-05-07T09:32:25Z</time>
      </trkpt>
      <trkpt lat="44.61131" lon="3.28205">
        <ele>1035.5999755859</ele>
        <time>2023-05-07T09:32:29Z</time>
      </trkpt>
      <trkpt lat="44.61143" lon="3.28207">
        <ele>1034.1999511719</ele>
        <time>2023-05-07T09:32:36Z</time>
      </trkpt>
      <trkpt lat="44.61149" lon="3.28205">
        <ele>1033.4000244141</ele>
        <time>2023-05-07T09:32:40Z</time>
      </trkpt>
      <trkpt lat="44.61154" lon="3.28206">
        <ele>1032</ele>
        <time>2023-05-07T09:32:45Z</time>
      </trkpt>
      <trkpt lat="44.61159" lon="3.28206">
        <ele>1031.1999511719</ele>
        <time>2023-05-07T09:32:50Z</time>
      </trkpt>
      <trkpt lat="44.6116" lon="3.28207">
        <ele>1031</ele>
        <time>2023-05-07T09:32:52Z</time>
      </trkpt>
      <trkpt lat="44.61162" lon="3.28207">
        <ele>1031</ele>
        <time>2023-05-07T09:32:54Z</time>
      </trkpt>
      <trkpt lat="44.6117" lon="3.28209">
        <ele>1032.4000244141</ele>
        <time>2023-05-07T09:32:59Z</time>
      </trkpt>
      <trkpt lat="44.61177" lon="3.28216">
        <ele>1034.1999511719</ele>
        <time>2023-05-07T09:33:05Z</time>
      </trkpt>
      <trkpt lat="44.61179" lon="3.28218">
        <ele>1034.5999755859</ele>
        <time>2023-05-07T09:33:07Z</time>
      </trkpt>
      <trkpt lat="44.61181" lon="3.2822">
        <ele>1035</ele>
        <time>2023-05-07T09:33:09Z</time>
      </trkpt>
      <trkpt lat="44.61183" lon="3.28223">
        <ele>1035.5999755859</ele>
        <time>2023-05-07T09:33:12Z</time>
      </trkpt>
      <trkpt lat="44.61185" lon="3.28226">
        <ele>1036</ele>
        <time>2023-05-07T09:33:14Z</time>
      </trkpt>
      <trkpt lat="44.61189" lon="3.28229">
        <ele>1036.4000244141</ele>
        <time>2023-05-07T09:33:17Z</time>
      </trkpt>
      <trkpt lat="44.61193" lon="3.28229">
        <ele>1037.1999511719</ele>
        <time>2023-05-07T09:33:20Z</time>
      </trkpt>
      <trkpt lat="44.61199" lon="3.28229">
        <ele>1038.1999511719</ele>
        <time>2023-05-07T09:33:26Z</time>
      </trkpt>
      <trkpt lat="44.61201" lon="3.28227">
        <ele>1038.5999755859</ele>
        <time>2023-05-07T09:33:28Z</time>
      </trkpt>
      <trkpt lat="44.61205" lon="3.28223">
        <ele>1039</ele>
        <time>2023-05-07T09:33:31Z</time>
      </trkpt>
      <trkpt lat="44.61211" lon="3.28212">
        <ele>1040.1999511719</ele>
        <time>2023-05-07T09:33:38Z</time>
      </trkpt>
      <trkpt lat="44.61213" lon="3.28207">
        <ele>1040.4000244141</ele>
        <time>2023-05-07T09:33:41Z</time>
      </trkpt>
      <trkpt lat="44.61216" lon="3.28205">
        <ele>1040.5999755859</ele>
        <time>2023-05-07T09:33:43Z</time>
      </trkpt>
      <trkpt lat="44.61222" lon="3.282">
        <ele>1041.1999511719</ele>
        <time>2023-05-07T09:33:48Z</time>
      </trkpt>
      <trkpt lat="44.61223" lon="3.28198">
        <ele>1041.1999511719</ele>
        <time>2023-05-07T09:33:49Z</time>
      </trkpt>
      <trkpt lat="44.6123" lon="3.28187">
        <ele>1041.5999755859</ele>
        <time>2023-05-07T09:33:55Z</time>
      </trkpt>
      <trkpt lat="44.61235" lon="3.28181">
        <ele>1041.5999755859</ele>
        <time>2023-05-07T09:34:00Z</time>
      </trkpt>
      <trkpt lat="44.61239" lon="3.28175">
        <ele>1041.8000488281</ele>
        <time>2023-05-07T09:34:04Z</time>
      </trkpt>
      <trkpt lat="44.61241" lon="3.28173">
        <ele>1041.8000488281</ele>
        <time>2023-05-07T09:34:05Z</time>
      </trkpt>
      <trkpt lat="44.61244" lon="3.2817">
        <ele>1042</ele>
        <time>2023-05-07T09:34:08Z</time>
      </trkpt>
      <trkpt lat="44.61244" lon="3.28169">
        <ele>1042</ele>
        <time>2023-05-07T09:34:09Z</time>
      </trkpt>
      <trkpt lat="44.61246" lon="3.28167">
        <ele>1041.8000488281</ele>
        <time>2023-05-07T09:34:11Z</time>
      </trkpt>
      <trkpt lat="44.61251" lon="3.28163">
        <ele>1041.5999755859</ele>
        <time>2023-05-07T09:34:14Z</time>
      </trkpt>
      <trkpt lat="44.61261" lon="3.28154">
        <ele>1040.8000488281</ele>
        <time>2023-05-07T09:34:19Z</time>
      </trkpt>
      <trkpt lat="44.61273" lon="3.28141">
        <ele>1040</ele>
        <time>2023-05-07T09:34:23Z</time>
      </trkpt>
      <trkpt lat="44.61278" lon="3.28138">
        <ele>1039.4000244141</ele>
        <time>2023-05-07T09:34:25Z</time>
      </trkpt>
      <trkpt lat="44.61282" lon="3.28139">
        <ele>1039</ele>
        <time>2023-05-07T09:34:26Z</time>
      </trkpt>
      <trkpt lat="44.61292" lon="3.28142">
        <ele>1038.1999511719</ele>
        <time>2023-05-07T09:34:29Z</time>
      </trkpt>
      <trkpt lat="44.61304" lon="3.28144">
        <ele>1037.4000244141</ele>
        <time>2023-05-07T09:34:33Z</time>
      </trkpt>
      <trkpt lat="44.61319" lon="3.28143">
        <ele>1036.4000244141</ele>
        <time>2023-05-07T09:34:37Z</time>
      </trkpt>
      <trkpt lat="44.61335" lon="3.28148">
        <ele>1035.5999755859</ele>
        <time>2023-05-07T09:34:40Z</time>
      </trkpt>
      <trkpt lat="44.61344" lon="3.28154">
        <ele>1035</ele>
        <time>2023-05-07T09:34:42Z</time>
      </trkpt>
      <trkpt lat="44.6137" lon="3.28165">
        <ele>1035.1999511719</ele>
        <time>2023-05-07T09:34:46Z</time>
      </trkpt>
      <trkpt lat="44.61383" lon="3.28176">
        <ele>1035.8000488281</ele>
        <time>2023-05-07T09:34:48Z</time>
      </trkpt>
      <trkpt lat="44.61384" lon="3.28204">
        <ele>1035.1999511719</ele>
        <time>2023-05-07T09:34:51Z</time>
      </trkpt>
      <trkpt lat="44.61382" lon="3.28222">
        <ele>1035</ele>
        <time>2023-05-07T09:34:53Z</time>
      </trkpt>
      <trkpt lat="44.61385" lon="3.2824">
        <ele>1034.4000244141</ele>
        <time>2023-05-07T09:34:55Z</time>
      </trkpt>
      <trkpt lat="44.61396" lon="3.28252">
        <ele>1033.8000488281</ele>
        <time>2023-05-07T09:34:57Z</time>
      </trkpt>
      <trkpt lat="44.61427" lon="3.28268">
        <ele>1032.5999755859</ele>
        <time>2023-05-07T09:35:01Z</time>
      </trkpt>
      <trkpt lat="44.6147" lon="3.28289">
        <ele>1031</ele>
        <time>2023-05-07T09:35:06Z</time>
      </trkpt>
      <trkpt lat="44.61497" lon="3.28302">
        <ele>1029.5999755859</ele>
        <time>2023-05-07T09:35:10Z</time>
      </trkpt>
      <trkpt lat="44.61503" lon="3.28305">
        <ele>1029.1999511719</ele>
        <time>2023-05-07T09:35:11Z</time>
      </trkpt>
      <trkpt lat="44.6152" lon="3.28318">
        <ele>1028.1999511719</ele>
        <time>2023-05-07T09:35:14Z</time>
      </trkpt>
      <trkpt lat="44.61533" lon="3.28326">
        <ele>1027.4000244141</ele>
        <time>2023-05-07T09:35:16Z</time>
      </trkpt>
      <trkpt lat="44.61546" lon="3.28336">
        <ele>1026.5999755859</ele>
        <time>2023-05-07T09:35:18Z</time>
      </trkpt>
      <trkpt lat="44.61553" lon="3.28339">
        <ele>1026.1999511719</ele>
        <time>2023-05-07T09:35:19Z</time>
      </trkpt>
      <trkpt lat="44.61575" lon="3.28345">
        <ele>1025.1999511719</ele>
        <time>2023-05-07T09:35:22Z</time>
      </trkpt>
      <trkpt lat="44.61583" lon="3.28345">
        <ele>1024.8000488281</ele>
        <time>2023-05-07T09:35:23Z</time>
      </trkpt>
      <trkpt lat="44.61608" lon="3.28346">
        <ele>1023.5999755859</ele>
        <time>2023-05-07T09:35:26Z</time>
      </trkpt>
      <trkpt lat="44.61637" lon="3.28352">
        <ele>1021.799987793</ele>
        <time>2023-05-07T09:35:30Z</time>
      </trkpt>
      <trkpt lat="44.61643" lon="3.28354">
        <ele>1021.4000244141</ele>
        <time>2023-05-07T09:35:31Z</time>
      </trkpt>
      <trkpt lat="44.61653" lon="3.28358">
        <ele>1020.5999755859</ele>
        <time>2023-05-07T09:35:33Z</time>
      </trkpt>
      <trkpt lat="44.61663" lon="3.28361">
        <ele>1019.799987793</ele>
        <time>2023-05-07T09:35:35Z</time>
      </trkpt>
      <trkpt lat="44.61674" lon="3.28364">
        <ele>1018.5999755859</ele>
        <time>2023-05-07T09:35:37Z</time>
      </trkpt>
      <trkpt lat="44.61689" lon="3.28366">
        <ele>1017.5999755859</ele>
        <time>2023-05-07T09:35:39Z</time>
      </trkpt>
      <trkpt lat="44.61706" lon="3.28362">
        <ele>1016.4000244141</ele>
        <time>2023-05-07T09:35:41Z</time>
      </trkpt>
      <trkpt lat="44.61723" lon="3.2835">
        <ele>1014.5999755859</ele>
        <time>2023-05-07T09:35:44Z</time>
      </trkpt>
      <trkpt lat="44.6173" lon="3.28339">
        <ele>1013.4000244141</ele>
        <time>2023-05-07T09:35:46Z</time>
      </trkpt>
      <trkpt lat="44.61731" lon="3.28332">
        <ele>1012.799987793</ele>
        <time>2023-05-07T09:35:47Z</time>
      </trkpt>
      <trkpt lat="44.61734" lon="3.2831">
        <ele>1010</ele>
        <time>2023-05-07T09:35:51Z</time>
      </trkpt>
      <trkpt lat="44.61736" lon="3.28302">
        <ele>1008.5999755859</ele>
        <time>2023-05-07T09:35:53Z</time>
      </trkpt>
      <trkpt lat="44.61738" lon="3.283">
        <ele>1007.799987793</ele>
        <time>2023-05-07T09:35:54Z</time>
      </trkpt>
      <trkpt lat="44.6174" lon="3.283">
        <ele>1007</ele>
        <time>2023-05-07T09:35:55Z</time>
      </trkpt>
      <trkpt lat="44.6174" lon="3.28304">
        <ele>1005.200012207</ele>
        <time>2023-05-07T09:35:57Z</time>
      </trkpt>
      <trkpt lat="44.61738" lon="3.28317">
        <ele>1001.799987793</ele>
        <time>2023-05-07T09:36:01Z</time>
      </trkpt>
      <trkpt lat="44.61744" lon="3.28333">
        <ele>999</ele>
        <time>2023-05-07T09:36:05Z</time>
      </trkpt>
      <trkpt lat="44.61754" lon="3.2835">
        <ele>996.79998779297</ele>
        <time>2023-05-07T09:36:08Z</time>
      </trkpt>
      <trkpt lat="44.61769" lon="3.28375">
        <ele>993.40002441406</ele>
        <time>2023-05-07T09:36:13Z</time>
      </trkpt>
      <trkpt lat="44.61783" lon="3.28388">
        <ele>990.59997558594</ele>
        <time>2023-05-07T09:36:16Z</time>
      </trkpt>
      <trkpt lat="44.61789" lon="3.28388">
        <ele>989.20001220703</ele>
        <time>2023-05-07T09:36:18Z</time>
      </trkpt>
      <trkpt lat="44.61791" lon="3.28385">
        <ele>988.59997558594</ele>
        <time>2023-05-07T09:36:19Z</time>
      </trkpt>
      <trkpt lat="44.61797" lon="3.28378">
        <ele>986.79998779297</ele>
        <time>2023-05-07T09:36:22Z</time>
      </trkpt>
      <trkpt lat="44.618" lon="3.28377">
        <ele>986</ele>
        <time>2023-05-07T09:36:23Z</time>
      </trkpt>
      <trkpt lat="44.61809" lon="3.28372">
        <ele>983.59997558594</ele>
        <time>2023-05-07T09:36:27Z</time>
      </trkpt>
      <trkpt lat="44.61806" lon="3.28356">
        <ele>980.20001220703</ele>
        <time>2023-05-07T09:36:30Z</time>
      </trkpt>
      <trkpt lat="44.61809" lon="3.28357">
        <ele>978.59997558594</ele>
        <time>2023-05-07T09:36:32Z</time>
      </trkpt>
      <trkpt lat="44.61811" lon="3.28359">
        <ele>978</ele>
        <time>2023-05-07T09:36:33Z</time>
      </trkpt>
      <trkpt lat="44.61812" lon="3.2836">
        <ele>977.40002441406</ele>
        <time>2023-05-07T09:36:34Z</time>
      </trkpt>
      <trkpt lat="44.61813" lon="3.28364">
        <ele>976.59997558594</ele>
        <time>2023-05-07T09:36:36Z</time>
      </trkpt>
      <trkpt lat="44.61813" lon="3.28365">
        <ele>976.20001220703</ele>
        <time>2023-05-07T09:36:37Z</time>
      </trkpt>
      <trkpt lat="44.61814" lon="3.28367">
        <ele>975.79998779297</ele>
        <time>2023-05-07T09:36:38Z</time>
      </trkpt>
      <trkpt lat="44.61815" lon="3.28373">
        <ele>974.79998779297</ele>
        <time>2023-05-07T09:36:40Z</time>
      </trkpt>
      <trkpt lat="44.61816" lon="3.28373">
        <ele>974.20001220703</ele>
        <time>2023-05-07T09:36:41Z</time>
      </trkpt>
      <trkpt lat="44.61821" lon="3.28365">
        <ele>972.59997558594</ele>
        <time>2023-05-07T09:36:44Z</time>
      </trkpt>
      <trkpt lat="44.61829" lon="3.28348">
        <ele>970.20001220703</ele>
        <time>2023-05-07T09:36:48Z</time>
      </trkpt>
      <trkpt lat="44.61832" lon="3.28343">
        <ele>969.59997558594</ele>
        <time>2023-05-07T09:36:49Z</time>
      </trkpt>
      <trkpt lat="44.61833" lon="3.28339">
        <ele>969</ele>
        <time>2023-05-07T09:36:50Z</time>
      </trkpt>
      <trkpt lat="44.61834" lon="3.28332">
        <ele>967.79998779297</ele>
        <time>2023-05-07T09:36:52Z</time>
      </trkpt>
      <trkpt lat="44.61834" lon="3.28325">
        <ele>967</ele>
        <time>2023-05-07T09:36:54Z</time>
      </trkpt>
      <trkpt lat="44.61835" lon="3.28324">
        <ele>966.79998779297</ele>
        <time>2023-05-07T09:36:55Z</time>
      </trkpt>
      <trkpt lat="44.61842" lon="3.28325">
        <ele>966</ele>
        <time>2023-05-07T09:36:58Z</time>
      </trkpt>
      <trkpt lat="44.61845" lon="3.28328">
        <ele>965.40002441406</ele>
        <time>2023-05-07T09:37:00Z</time>
      </trkpt>
      <trkpt lat="44.61851" lon="3.28333">
        <ele>964.20001220703</ele>
        <time>2023-05-07T09:37:03Z</time>
      </trkpt>
      <trkpt lat="44.61855" lon="3.28331">
        <ele>962.20001220703</ele>
        <time>2023-05-07T09:37:08Z</time>
      </trkpt>
      <trkpt lat="44.61855" lon="3.2833">
        <ele>961.79998779297</ele>
        <time>2023-05-07T09:37:09Z</time>
      </trkpt>
      <trkpt lat="44.61855" lon="3.28329">
        <ele>959.20001220703</ele>
        <time>2023-05-07T09:37:16Z</time>
      </trkpt>
      <trkpt lat="44.61856" lon="3.28328">
        <ele>957.20001220703</ele>
        <time>2023-05-07T09:37:22Z</time>
      </trkpt>
      <trkpt lat="44.61857" lon="3.28325">
        <ele>956.59997558594</ele>
        <time>2023-05-07T09:37:23Z</time>
      </trkpt>
      <trkpt lat="44.61856" lon="3.28311">
        <ele>955.79998779297</ele>
        <time>2023-05-07T09:37:25Z</time>
      </trkpt>
      <trkpt lat="44.61854" lon="3.28285">
        <ele>954.20001220703</ele>
        <time>2023-05-07T09:37:29Z</time>
      </trkpt>
      <trkpt lat="44.61853" lon="3.2827">
        <ele>953.40002441406</ele>
        <time>2023-05-07T09:37:32Z</time>
      </trkpt>
      <trkpt lat="44.61854" lon="3.28267">
        <ele>953.20001220703</ele>
        <time>2023-05-07T09:37:33Z</time>
      </trkpt>
      <trkpt lat="44.61857" lon="3.28258">
        <ele>952.79998779297</ele>
        <time>2023-05-07T09:37:35Z</time>
      </trkpt>
      <trkpt lat="44.61856" lon="3.28242">
        <ele>952.40002441406</ele>
        <time>2023-05-07T09:37:37Z</time>
      </trkpt>
      <trkpt lat="44.61857" lon="3.28216">
        <ele>950.79998779297</ele>
        <time>2023-05-07T09:37:41Z</time>
      </trkpt>
      <trkpt lat="44.61858" lon="3.2821">
        <ele>950.59997558594</ele>
        <time>2023-05-07T09:37:42Z</time>
      </trkpt>
      <trkpt lat="44.61861" lon="3.28171">
        <ele>949.20001220703</ele>
        <time>2023-05-07T09:37:47Z</time>
      </trkpt>
      <trkpt lat="44.61861" lon="3.28164">
        <ele>948.59997558594</ele>
        <time>2023-05-07T09:37:48Z</time>
      </trkpt>
      <trkpt lat="44.61863" lon="3.28147">
        <ele>947.20001220703</ele>
        <time>2023-05-07T09:37:51Z</time>
      </trkpt>
      <trkpt lat="44.61863" lon="3.28137">
        <ele>946.40002441406</ele>
        <time>2023-05-07T09:37:53Z</time>
      </trkpt>
      <trkpt lat="44.61865" lon="3.2813">
        <ele>945.59997558594</ele>
        <time>2023-05-07T09:37:55Z</time>
      </trkpt>
      <trkpt lat="44.61866" lon="3.28128">
        <ele>945.20001220703</ele>
        <time>2023-05-07T09:37:56Z</time>
      </trkpt>
      <trkpt lat="44.6187" lon="3.2812">
        <ele>943.79998779297</ele>
        <time>2023-05-07T09:38:00Z</time>
      </trkpt>
      <trkpt lat="44.61875" lon="3.2811">
        <ele>941.79998779297</ele>
        <time>2023-05-07T09:38:05Z</time>
      </trkpt>
      <trkpt lat="44.6188" lon="3.28102">
        <ele>940.20001220703</ele>
        <time>2023-05-07T09:38:09Z</time>
      </trkpt>
      <trkpt lat="44.61889" lon="3.28094">
        <ele>938</ele>
        <time>2023-05-07T09:38:13Z</time>
      </trkpt>
      <trkpt lat="44.61896" lon="3.28088">
        <ele>936.59997558594</ele>
        <time>2023-05-07T09:38:16Z</time>
      </trkpt>
      <trkpt lat="44.61897" lon="3.28086">
        <ele>936.20001220703</ele>
        <time>2023-05-07T09:38:17Z</time>
      </trkpt>
      <trkpt lat="44.61899" lon="3.28083">
        <ele>935</ele>
        <time>2023-05-07T09:38:19Z</time>
      </trkpt>
      <trkpt lat="44.61901" lon="3.28079">
        <ele>933.20001220703</ele>
        <time>2023-05-07T09:38:22Z</time>
      </trkpt>
      <trkpt lat="44.61901" lon="3.28078">
        <ele>930.20001220703</ele>
        <time>2023-05-07T09:38:31Z</time>
      </trkpt>
      <trkpt lat="44.61901" lon="3.28078">
        <ele>926</ele>
        <time>2023-05-07T09:38:44Z</time>
      </trkpt>
      <trkpt lat="44.61902" lon="3.28077">
        <ele>924.79998779297</ele>
        <time>2023-05-07T09:38:47Z</time>
      </trkpt>
      <trkpt lat="44.61904" lon="3.28076">
        <ele>924</ele>
        <time>2023-05-07T09:38:49Z</time>
      </trkpt>
      <trkpt lat="44.61906" lon="3.28075">
        <ele>923.40002441406</ele>
        <time>2023-05-07T09:38:50Z</time>
      </trkpt>
      <trkpt lat="44.61909" lon="3.2807">
        <ele>922</ele>
        <time>2023-05-07T09:38:53Z</time>
      </trkpt>
      <trkpt lat="44.61911" lon="3.28067">
        <ele>921</ele>
        <time>2023-05-07T09:38:55Z</time>
      </trkpt>
      <trkpt lat="44.61915" lon="3.28061">
        <ele>919.40002441406</ele>
        <time>2023-05-07T09:38:58Z</time>
      </trkpt>
      <trkpt lat="44.61916" lon="3.28059">
        <ele>918.20001220703</ele>
        <time>2023-05-07T09:39:02Z</time>
      </trkpt>
      <trkpt lat="44.61918" lon="3.28054">
        <ele>914.79998779297</ele>
        <time>2023-05-07T09:39:09Z</time>
      </trkpt>
      <trkpt lat="44.61918" lon="3.28052">
        <ele>913</ele>
        <time>2023-05-07T09:39:14Z</time>
      </trkpt>
      <trkpt lat="44.61919" lon="3.28052">
        <ele>909.40002441406</ele>
        <time>2023-05-07T09:39:24Z</time>
      </trkpt>
      <trkpt lat="44.61919" lon="3.28052">
        <ele>906.79998779297</ele>
        <time>2023-05-07T09:39:33Z</time>
      </trkpt>
      <trkpt lat="44.61917" lon="3.28048">
        <ele>904.40002441406</ele>
        <time>2023-05-07T09:39:41Z</time>
      </trkpt>
      <trkpt lat="44.61916" lon="3.28048">
        <ele>902.20001220703</ele>
        <time>2023-05-07T09:39:50Z</time>
      </trkpt>
      <trkpt lat="44.61916" lon="3.28048">
        <ele>898.20001220703</ele>
        <time>2023-05-07T09:40:11Z</time>
      </trkpt>
      <trkpt lat="44.61917" lon="3.28047">
        <ele>897.79998779297</ele>
        <time>2023-05-07T09:40:13Z</time>
      </trkpt>
      <trkpt lat="44.61921" lon="3.28042">
        <ele>897.59997558594</ele>
        <time>2023-05-07T09:40:16Z</time>
      </trkpt>
      <trkpt lat="44.61927" lon="3.2804">
        <ele>896.20001220703</ele>
        <time>2023-05-07T09:40:22Z</time>
      </trkpt>
      <trkpt lat="44.61929" lon="3.28043">
        <ele>895.40002441406</ele>
        <time>2023-05-07T09:40:26Z</time>
      </trkpt>
      <trkpt lat="44.6193" lon="3.28045">
        <ele>895</ele>
        <time>2023-05-07T09:40:27Z</time>
      </trkpt>
      <trkpt lat="44.61932" lon="3.28055">
        <ele>893.40002441406</ele>
        <time>2023-05-07T09:40:32Z</time>
      </trkpt>
      <trkpt lat="44.61933" lon="3.28061">
        <ele>892.79998779297</ele>
        <time>2023-05-07T09:40:34Z</time>
      </trkpt>
      <trkpt lat="44.61933" lon="3.28068">
        <ele>892</ele>
        <time>2023-05-07T09:40:37Z</time>
      </trkpt>
      <trkpt lat="44.61933" lon="3.28068">
        <ele>890</ele>
        <time>2023-05-07T09:40:49Z</time>
      </trkpt>
      <trkpt lat="44.61932" lon="3.28072">
        <ele>887.40002441406</ele>
        <time>2023-05-07T09:40:59Z</time>
      </trkpt>
      <trkpt lat="44.61934" lon="3.2808">
        <ele>886.20001220703</ele>
        <time>2023-05-07T09:41:02Z</time>
      </trkpt>
      <trkpt lat="44.61934" lon="3.28085">
        <ele>885.59997558594</ele>
        <time>2023-05-07T09:41:04Z</time>
      </trkpt>
      <trkpt lat="44.61936" lon="3.28089">
        <ele>884.40002441406</ele>
        <time>2023-05-07T09:41:09Z</time>
      </trkpt>
      <trkpt lat="44.61939" lon="3.28093">
        <ele>883.20001220703</ele>
        <time>2023-05-07T09:41:13Z</time>
      </trkpt>
      <trkpt lat="44.61939" lon="3.28094">
        <ele>882.20001220703</ele>
        <time>2023-05-07T09:41:18Z</time>
      </trkpt>
      <trkpt lat="44.61939" lon="3.28094">
        <ele>880.59997558594</ele>
        <time>2023-05-07T09:41:24Z</time>
      </trkpt>
      <trkpt lat="44.61939" lon="3.28094">
        <ele>878.40002441406</ele>
        <time>2023-05-07T09:41:36Z</time>
      </trkpt>
      <trkpt lat="44.61939" lon="3.28094">
        <ele>877.20001220703</ele>
        <time>2023-05-07T09:41:43Z</time>
      </trkpt>
      <trkpt lat="44.6194" lon="3.28093">
        <ele>876.79998779297</ele>
        <time>2023-05-07T09:41:44Z</time>
      </trkpt>
      <trkpt lat="44.61947" lon="3.28087">
        <ele>875.40002441406</ele>
        <time>2023-05-07T09:41:49Z</time>
      </trkpt>
      <trkpt lat="44.61948" lon="3.28087">
        <ele>875</ele>
        <time>2023-05-07T09:41:51Z</time>
      </trkpt>
      <trkpt lat="44.61949" lon="3.28086">
        <ele>874.59997558594</ele>
        <time>2023-05-07T09:41:53Z</time>
      </trkpt>
      <trkpt lat="44.61949" lon="3.28086">
        <ele>873.59997558594</ele>
        <time>2023-05-07T09:41:59Z</time>
      </trkpt>
      <trkpt lat="44.61949" lon="3.28086">
        <ele>872.20001220703</ele>
        <time>2023-05-07T09:42:09Z</time>
      </trkpt>
      <trkpt lat="44.61949" lon="3.28086">
        <ele>871</ele>
        <time>2023-05-07T09:42:17Z</time>
      </trkpt>
      <trkpt lat="44.61949" lon="3.28086">
        <ele>869.79998779297</ele>
        <time>2023-05-07T09:42:27Z</time>
      </trkpt>
      <trkpt lat="44.6195" lon="3.28084">
        <ele>868.40002441406</ele>
        <time>2023-05-07T09:42:41Z</time>
      </trkpt>
      <trkpt lat="44.6195" lon="3.28084">
        <ele>867.59997558594</ele>
        <time>2023-05-07T09:42:50Z</time>
      </trkpt>
      <trkpt lat="44.61953" lon="3.28082">
        <ele>867</ele>
        <time>2023-05-07T09:42:55Z</time>
      </trkpt>
      <trkpt lat="44.61955" lon="3.28081">
        <ele>866.59997558594</ele>
        <time>2023-05-07T09:42:57Z</time>
      </trkpt>
      <trkpt lat="44.61956" lon="3.2808">
        <ele>865.79998779297</ele>
        <time>2023-05-07T09:43:05Z</time>
      </trkpt>
      <trkpt lat="44.61956" lon="3.2808">
        <ele>865</ele>
        <time>2023-05-07T09:43:16Z</time>
      </trkpt>
      <trkpt lat="44.61956" lon="3.2808">
        <ele>864.59997558594</ele>
        <time>2023-05-07T09:43:23Z</time>
      </trkpt>
      <trkpt lat="44.61956" lon="3.2808">
        <ele>864.20001220703</ele>
        <time>2023-05-07T09:43:29Z</time>
      </trkpt>
      <trkpt lat="44.61957" lon="3.28077">
        <ele>863.40002441406</ele>
        <time>2023-05-07T09:43:38Z</time>
      </trkpt>
      <trkpt lat="44.61957" lon="3.28077">
        <ele>863</ele>
        <time>2023-05-07T09:43:47Z</time>
      </trkpt>
      <trkpt lat="44.61957" lon="3.28077">
        <ele>862.59997558594</ele>
        <time>2023-05-07T09:43:54Z</time>
      </trkpt>
      <trkpt lat="44.61957" lon="3.28077">
        <ele>862.20001220703</ele>
        <time>2023-05-07T09:44:01Z</time>
      </trkpt>
      <trkpt lat="44.61957" lon="3.28077">
        <ele>862</ele>
        <time>2023-05-07T09:44:06Z</time>
      </trkpt>
      <trkpt lat="44.61957" lon="3.28077">
        <ele>861.79998779297</ele>
        <time>2023-05-07T09:44:12Z</time>
      </trkpt>
      <trkpt lat="44.61959" lon="3.28076">
        <ele>861.40002441406</ele>
        <time>2023-05-07T09:44:18Z</time>
      </trkpt>
      <trkpt lat="44.61959" lon="3.28076">
        <ele>861.20001220703</ele>
        <time>2023-05-07T09:44:24Z</time>
      </trkpt>
      <trkpt lat="44.61959" lon="3.28076">
        <ele>861.20001220703</ele>
        <time>2023-05-07T09:44:30Z</time>
      </trkpt>
      <trkpt lat="44.6196" lon="3.28076">
        <ele>860.79998779297</ele>
        <time>2023-05-07T09:44:35Z</time>
      </trkpt>
      <trkpt lat="44.6196" lon="3.28076">
        <ele>860.59997558594</ele>
        <time>2023-05-07T09:44:46Z</time>
      </trkpt>
      <trkpt lat="44.6196" lon="3.28076">
        <ele>860</ele>
        <time>2023-05-07T09:45:09Z</time>
      </trkpt>
      <trkpt lat="44.61963" lon="3.28075">
        <ele>859.59997558594</ele>
        <time>2023-05-07T09:45:31Z</time>
      </trkpt>
      <trkpt lat="44.61963" lon="3.28075">
        <ele>859.20001220703</ele>
        <time>2023-05-07T09:45:49Z</time>
      </trkpt>
      <trkpt lat="44.61967" lon="3.28079">
        <ele>859.40002441406</ele>
        <time>2023-05-07T09:45:56Z</time>
      </trkpt>
      <trkpt lat="44.61969" lon="3.2808">
        <ele>859.40002441406</ele>
        <time>2023-05-07T09:46:03Z</time>
      </trkpt>
      <trkpt lat="44.61976" lon="3.28089">
        <ele>859.79998779297</ele>
        <time>2023-05-07T09:46:10Z</time>
      </trkpt>
      <trkpt lat="44.61976" lon="3.28089">
        <ele>859.79998779297</ele>
        <time>2023-05-07T09:46:11Z</time>
      </trkpt>
      <trkpt lat="44.61976" lon="3.28093">
        <ele>859.79998779297</ele>
        <time>2023-05-07T09:46:13Z</time>
      </trkpt>
      <trkpt lat="44.61976" lon="3.28111">
        <ele>859.59997558594</ele>
        <time>2023-05-07T09:46:19Z</time>
      </trkpt>
      <trkpt lat="44.61977" lon="3.28123">
        <ele>859.40002441406</ele>
        <time>2023-05-07T09:46:23Z</time>
      </trkpt>
      <trkpt lat="44.6197" lon="3.28136">
        <ele>858.59997558594</ele>
        <time>2023-05-07T09:46:28Z</time>
      </trkpt>
      <trkpt lat="44.61964" lon="3.28155">
        <ele>858.20001220703</ele>
        <time>2023-05-07T09:46:32Z</time>
      </trkpt>
      <trkpt lat="44.6196" lon="3.2817">
        <ele>857.79998779297</ele>
        <time>2023-05-07T09:46:37Z</time>
      </trkpt>
      <trkpt lat="44.61959" lon="3.28172">
        <ele>857.79998779297</ele>
        <time>2023-05-07T09:46:38Z</time>
      </trkpt>
      <trkpt lat="44.61959" lon="3.28189">
        <ele>857.59997558594</ele>
        <time>2023-05-07T09:46:42Z</time>
      </trkpt>
      <trkpt lat="44.61961" lon="3.28218">
        <ele>858.20001220703</ele>
        <time>2023-05-07T09:46:48Z</time>
      </trkpt>
      <trkpt lat="44.61966" lon="3.28229">
        <ele>858.20001220703</ele>
        <time>2023-05-07T09:46:53Z</time>
      </trkpt>
      <trkpt lat="44.61968" lon="3.2823">
        <ele>858.20001220703</ele>
        <time>2023-05-07T09:46:54Z</time>
      </trkpt>
      <trkpt lat="44.61969" lon="3.28233">
        <ele>858.20001220703</ele>
        <time>2023-05-07T09:46:55Z</time>
      </trkpt>
      <trkpt lat="44.61973" lon="3.28241">
        <ele>858.20001220703</ele>
        <time>2023-05-07T09:46:58Z</time>
      </trkpt>
      <trkpt lat="44.61976" lon="3.28249">
        <ele>857.79998779297</ele>
        <time>2023-05-07T09:47:00Z</time>
      </trkpt>
      <trkpt lat="44.61979" lon="3.2825">
        <ele>857.79998779297</ele>
        <time>2023-05-07T09:47:02Z</time>
      </trkpt>
      <trkpt lat="44.61982" lon="3.28253">
        <ele>857.59997558594</ele>
        <time>2023-05-07T09:47:10Z</time>
      </trkpt>
      <trkpt lat="44.61982" lon="3.28253">
        <ele>857.40002441406</ele>
        <time>2023-05-07T09:47:24Z</time>
      </trkpt>
      <trkpt lat="44.61982" lon="3.28253">
        <ele>857.40002441406</ele>
        <time>2023-05-07T09:47:27Z</time>
      </trkpt>
      <trkpt lat="44.61984" lon="3.28254">
        <ele>857.20001220703</ele>
        <time>2023-05-07T09:47:28Z</time>
      </trkpt>
      <trkpt lat="44.61985" lon="3.28255">
        <ele>857</ele>
        <time>2023-05-07T09:47:35Z</time>
      </trkpt>
      <trkpt lat="44.6199" lon="3.28253">
        <ele>856.79998779297</ele>
        <time>2023-05-07T09:47:38Z</time>
      </trkpt>
      <trkpt lat="44.61994" lon="3.28252">
        <ele>856.59997558594</ele>
        <time>2023-05-07T09:47:40Z</time>
      </trkpt>
      <trkpt lat="44.62001" lon="3.28249">
        <ele>856.20001220703</ele>
        <time>2023-05-07T09:47:44Z</time>
      </trkpt>
      <trkpt lat="44.62003" lon="3.28248">
        <ele>856</ele>
        <time>2023-05-07T09:47:45Z</time>
      </trkpt>
      <trkpt lat="44.62006" lon="3.28247">
        <ele>855.79998779297</ele>
        <time>2023-05-07T09:47:48Z</time>
      </trkpt>
      <trkpt lat="44.62008" lon="3.28247">
        <ele>855.79998779297</ele>
        <time>2023-05-07T09:47:49Z</time>
      </trkpt>
      <trkpt lat="44.6201" lon="3.28247">
        <ele>855.59997558594</ele>
        <time>2023-05-07T09:47:51Z</time>
      </trkpt>
      <trkpt lat="44.62015" lon="3.28246">
        <ele>855.40002441406</ele>
        <time>2023-05-07T09:47:55Z</time>
      </trkpt>
      <trkpt lat="44.6202" lon="3.28246">
        <ele>855.20001220703</ele>
        <time>2023-05-07T09:48:00Z</time>
      </trkpt>
      <trkpt lat="44.62021" lon="3.28248">
        <ele>855.20001220703</ele>
        <time>2023-05-07T09:48:05Z</time>
      </trkpt>
      <trkpt lat="44.62026" lon="3.28249">
        <ele>855</ele>
        <time>2023-05-07T09:48:12Z</time>
      </trkpt>
      <trkpt lat="44.62026" lon="3.28249">
        <ele>854.59997558594</ele>
        <time>2023-05-07T09:48:19Z</time>
      </trkpt>
      <trkpt lat="44.62026" lon="3.28249">
        <ele>854.40002441406</ele>
        <time>2023-05-07T09:48:25Z</time>
      </trkpt>
      <trkpt lat="44.62028" lon="3.28251">
        <ele>854.40002441406</ele>
        <time>2023-05-07T09:48:31Z</time>
      </trkpt>
      <trkpt lat="44.62035" lon="3.28256">
        <ele>854.40002441406</ele>
        <time>2023-05-07T09:48:37Z</time>
      </trkpt>
      <trkpt lat="44.62035" lon="3.28256">
        <ele>854.20001220703</ele>
        <time>2023-05-07T09:48:44Z</time>
      </trkpt>
      <trkpt lat="44.62035" lon="3.28256">
        <ele>854</ele>
        <time>2023-05-07T09:48:51Z</time>
      </trkpt>
      <trkpt lat="44.62035" lon="3.28256">
        <ele>854</ele>
        <time>2023-05-07T09:48:58Z</time>
      </trkpt>
      <trkpt lat="44.62035" lon="3.28256">
        <ele>853.79998779297</ele>
        <time>2023-05-07T09:49:05Z</time>
      </trkpt>
      <trkpt lat="44.62035" lon="3.28256">
        <ele>853.79998779297</ele>
        <time>2023-05-07T09:49:12Z</time>
      </trkpt>
      <trkpt lat="44.62036" lon="3.28258">
        <ele>854</ele>
        <time>2023-05-07T09:49:17Z</time>
      </trkpt>
      <trkpt lat="44.62036" lon="3.28258">
        <ele>854</ele>
        <time>2023-05-07T09:49:21Z</time>
      </trkpt>
      <trkpt lat="44.62036" lon="3.28261">
        <ele>853.79998779297</ele>
        <time>2023-05-07T09:49:23Z</time>
      </trkpt>
      <trkpt lat="44.62042" lon="3.28264">
        <ele>853.20001220703</ele>
        <time>2023-05-07T09:49:28Z</time>
      </trkpt>
      <trkpt lat="44.62043" lon="3.28268">
        <ele>853.20001220703</ele>
        <time>2023-05-07T09:49:33Z</time>
      </trkpt>
      <trkpt lat="44.62043" lon="3.28268">
        <ele>853</ele>
        <time>2023-05-07T09:49:38Z</time>
      </trkpt>
      <trkpt lat="44.62043" lon="3.28268">
        <ele>853</ele>
        <time>2023-05-07T09:49:44Z</time>
      </trkpt>
      <trkpt lat="44.62043" lon="3.28268">
        <ele>852.79998779297</ele>
        <time>2023-05-07T09:49:52Z</time>
      </trkpt>
      <trkpt lat="44.62043" lon="3.28268">
        <ele>852.59997558594</ele>
        <time>2023-05-07T09:50:01Z</time>
      </trkpt>
      <trkpt lat="44.62043" lon="3.28268">
        <ele>852.40002441406</ele>
        <time>2023-05-07T09:50:09Z</time>
      </trkpt>
      <trkpt lat="44.62044" lon="3.28269">
        <ele>852.40002441406</ele>
        <time>2023-05-07T09:50:13Z</time>
      </trkpt>
      <trkpt lat="44.62046" lon="3.28271">
        <ele>852.59997558594</ele>
        <time>2023-05-07T09:50:15Z</time>
      </trkpt>
      <trkpt lat="44.62052" lon="3.28278">
        <ele>852.59997558594</ele>
        <time>2023-05-07T09:50:21Z</time>
      </trkpt>
      <trkpt lat="44.62057" lon="3.2828">
        <ele>852.40002441406</ele>
        <time>2023-05-07T09:50:28Z</time>
      </trkpt>
      <trkpt lat="44.6206" lon="3.28279">
        <ele>852.40002441406</ele>
        <time>2023-05-07T09:50:34Z</time>
      </trkpt>
      <trkpt lat="44.62064" lon="3.28278">
        <ele>852.40002441406</ele>
        <time>2023-05-07T09:50:41Z</time>
      </trkpt>
      <trkpt lat="44.62064" lon="3.28278">
        <ele>852.40002441406</ele>
        <time>2023-05-07T09:50:48Z</time>
      </trkpt>
      <trkpt lat="44.62064" lon="3.28278">
        <ele>852.20001220703</ele>
        <time>2023-05-07T09:50:57Z</time>
      </trkpt>
      <trkpt lat="44.62064" lon="3.28278">
        <ele>852.20001220703</ele>
        <time>2023-05-07T09:51:03Z</time>
      </trkpt>
      <trkpt lat="44.62064" lon="3.28279">
        <ele>852.20001220703</ele>
        <time>2023-05-07T09:51:04Z</time>
      </trkpt>
      <trkpt lat="44.62065" lon="3.28281">
        <ele>852.20001220703</ele>
        <time>2023-05-07T09:51:10Z</time>
      </trkpt>
      <trkpt lat="44.62065" lon="3.28281">
        <ele>852.20001220703</ele>
        <time>2023-05-07T09:51:17Z</time>
      </trkpt>
      <trkpt lat="44.62065" lon="3.28281">
        <ele>852.20001220703</ele>
        <time>2023-05-07T09:51:23Z</time>
      </trkpt>
      <trkpt lat="44.62065" lon="3.28281">
        <ele>852.20001220703</ele>
        <time>2023-05-07T09:51:32Z</time>
      </trkpt>
      <trkpt lat="44.62065" lon="3.28281">
        <ele>852</ele>
        <time>2023-05-07T09:51:38Z</time>
      </trkpt>
      <trkpt lat="44.62064" lon="3.28284">
        <ele>851.79998779297</ele>
        <time>2023-05-07T09:51:43Z</time>
      </trkpt>
      <trkpt lat="44.62063" lon="3.28288">
        <ele>851.59997558594</ele>
        <time>2023-05-07T09:51:49Z</time>
      </trkpt>
      <trkpt lat="44.62063" lon="3.28288">
        <ele>851.59997558594</ele>
        <time>2023-05-07T09:51:59Z</time>
      </trkpt>
      <trkpt lat="44.62063" lon="3.28288">
        <ele>851.40002441406</ele>
        <time>2023-05-07T09:52:05Z</time>
      </trkpt>
      <trkpt lat="44.62063" lon="3.28288">
        <ele>851.40002441406</ele>
        <time>2023-05-07T09:52:11Z</time>
      </trkpt>
      <trkpt lat="44.62063" lon="3.28288">
        <ele>851.20001220703</ele>
        <time>2023-05-07T09:52:17Z</time>
      </trkpt>
      <trkpt lat="44.62063" lon="3.28288">
        <ele>851.20001220703</ele>
        <time>2023-05-07T09:52:24Z</time>
      </trkpt>
      <trkpt lat="44.62063" lon="3.28289">
        <ele>851</ele>
        <time>2023-05-07T09:52:32Z</time>
      </trkpt>
      <trkpt lat="44.62062" lon="3.28293">
        <ele>850.79998779297</ele>
        <time>2023-05-07T09:52:36Z</time>
      </trkpt>
      <trkpt lat="44.62062" lon="3.28293">
        <ele>850.59997558594</ele>
        <time>2023-05-07T09:52:42Z</time>
      </trkpt>
      <trkpt lat="44.6206" lon="3.28306">
        <ele>850.40002441406</ele>
        <time>2023-05-07T09:52:50Z</time>
      </trkpt>
      <trkpt lat="44.62063" lon="3.28322">
        <ele>850.59997558594</ele>
        <time>2023-05-07T09:52:57Z</time>
      </trkpt>
      <trkpt lat="44.62064" lon="3.28331">
        <ele>850.20001220703</ele>
        <time>2023-05-07T09:53:04Z</time>
      </trkpt>
      <trkpt lat="44.62063" lon="3.28335">
        <ele>850.20001220703</ele>
        <time>2023-05-07T09:53:08Z</time>
      </trkpt>
      <trkpt lat="44.62063" lon="3.28339">
        <ele>850.40002441406</ele>
        <time>2023-05-07T09:53:09Z</time>
      </trkpt>
      <trkpt lat="44.62062" lon="3.28347">
        <ele>850.20001220703</ele>
        <time>2023-05-07T09:53:11Z</time>
      </trkpt>
      <trkpt lat="44.62059" lon="3.28349">
        <ele>850.20001220703</ele>
        <time>2023-05-07T09:53:12Z</time>
      </trkpt>
      <trkpt lat="44.62057" lon="3.2835">
        <ele>850.20001220703</ele>
        <time>2023-05-07T09:53:16Z</time>
      </trkpt>
      <trkpt lat="44.62057" lon="3.2835">
        <ele>850</ele>
        <time>2023-05-07T09:53:29Z</time>
      </trkpt>
      <trkpt lat="44.62057" lon="3.2835">
        <ele>849.79998779297</ele>
        <time>2023-05-07T09:53:50Z</time>
      </trkpt>
      <trkpt lat="44.6206" lon="3.28356">
        <ele>849.79998779297</ele>
        <time>2023-05-07T09:53:54Z</time>
      </trkpt>
      <trkpt lat="44.62062" lon="3.28362">
        <ele>849.59997558594</ele>
        <time>2023-05-07T09:53:55Z</time>
      </trkpt>
      <trkpt lat="44.62068" lon="3.28376">
        <ele>850.20001220703</ele>
        <time>2023-05-07T09:53:58Z</time>
      </trkpt>
      <trkpt lat="44.62069" lon="3.28378">
        <ele>850.40002441406</ele>
        <time>2023-05-07T09:53:59Z</time>
      </trkpt>
      <trkpt lat="44.62071" lon="3.28381">
        <ele>850.79998779297</ele>
        <time>2023-05-07T09:54:04Z</time>
      </trkpt>
      <trkpt lat="44.62071" lon="3.28381">
        <ele>850.79998779297</ele>
        <time>2023-05-07T09:54:10Z</time>
      </trkpt>
      <trkpt lat="44.62071" lon="3.28381">
        <ele>851</ele>
        <time>2023-05-07T09:54:17Z</time>
      </trkpt>
      <trkpt lat="44.62071" lon="3.28381">
        <ele>851.20001220703</ele>
        <time>2023-05-07T09:54:24Z</time>
      </trkpt>
      <trkpt lat="44.62078" lon="3.28389">
        <ele>851.79998779297</ele>
        <time>2023-05-07T09:54:31Z</time>
      </trkpt>
      <trkpt lat="44.62091" lon="3.28413">
        <ele>854.79998779297</ele>
        <time>2023-05-07T09:54:39Z</time>
      </trkpt>
      <trkpt lat="44.62095" lon="3.28416">
        <ele>856.79998779297</ele>
        <time>2023-05-07T09:54:45Z</time>
      </trkpt>
      <trkpt lat="44.62099" lon="3.28421">
        <ele>859.20001220703</ele>
        <time>2023-05-07T09:54:52Z</time>
      </trkpt>
      <trkpt lat="44.62103" lon="3.28427">
        <ele>862.40002441406</ele>
        <time>2023-05-07T09:54:58Z</time>
      </trkpt>
      <trkpt lat="44.62105" lon="3.2843">
        <ele>865.40002441406</ele>
        <time>2023-05-07T09:55:04Z</time>
      </trkpt>
      <trkpt lat="44.62106" lon="3.28436">
        <ele>869.20001220703</ele>
        <time>2023-05-07T09:55:12Z</time>
      </trkpt>
      <trkpt lat="44.62107" lon="3.28437">
        <ele>874.59997558594</ele>
        <time>2023-05-07T09:55:27Z</time>
      </trkpt>
      <trkpt lat="44.62114" lon="3.28442">
        <ele>878.59997558594</ele>
        <time>2023-05-07T09:55:37Z</time>
      </trkpt>
      <trkpt lat="44.62117" lon="3.28442">
        <ele>880.20001220703</ele>
        <time>2023-05-07T09:55:41Z</time>
      </trkpt>
      <trkpt lat="44.6212" lon="3.28443">
        <ele>881.40002441406</ele>
        <time>2023-05-07T09:55:44Z</time>
      </trkpt>
      <trkpt lat="44.62124" lon="3.28446">
        <ele>883.79998779297</ele>
        <time>2023-05-07T09:55:51Z</time>
      </trkpt>
      <trkpt lat="44.62127" lon="3.28447">
        <ele>885.40002441406</ele>
        <time>2023-05-07T09:55:56Z</time>
      </trkpt>
      <trkpt lat="44.62131" lon="3.28446">
        <ele>887.79998779297</ele>
        <time>2023-05-07T09:56:03Z</time>
      </trkpt>
      <trkpt lat="44.62135" lon="3.28447">
        <ele>890.59997558594</ele>
        <time>2023-05-07T09:56:11Z</time>
      </trkpt>
      <trkpt lat="44.62135" lon="3.28447">
        <ele>893.20001220703</ele>
        <time>2023-05-07T09:56:20Z</time>
      </trkpt>
      <trkpt lat="44.62135" lon="3.28447">
        <ele>898</ele>
        <time>2023-05-07T09:56:40Z</time>
      </trkpt>
      <trkpt lat="44.62136" lon="3.28447">
        <ele>900.20001220703</ele>
        <time>2023-05-07T09:56:51Z</time>
      </trkpt>
      <trkpt lat="44.62136" lon="3.28447">
        <ele>902.59997558594</ele>
        <time>2023-05-07T09:57:04Z</time>
      </trkpt>
      <trkpt lat="44.62136" lon="3.28447">
        <ele>904.20001220703</ele>
        <time>2023-05-07T09:57:15Z</time>
      </trkpt>
      <trkpt lat="44.62136" lon="3.28447">
        <ele>905.59997558594</ele>
        <time>2023-05-07T09:57:25Z</time>
      </trkpt>
      <trkpt lat="44.62135" lon="3.28446">
        <ele>907.59997558594</ele>
        <time>2023-05-07T09:57:39Z</time>
      </trkpt>
      <trkpt lat="44.62135" lon="3.28446">
        <ele>909</ele>
        <time>2023-05-07T09:57:53Z</time>
      </trkpt>
      <trkpt lat="44.62135" lon="3.28446">
        <ele>910.59997558594</ele>
        <time>2023-05-07T09:58:10Z</time>
      </trkpt>
      <trkpt lat="44.62135" lon="3.28446">
        <ele>911.79998779297</ele>
        <time>2023-05-07T09:58:27Z</time>
      </trkpt>
      <trkpt lat="44.62135" lon="3.28446">
        <ele>912.59997558594</ele>
        <time>2023-05-07T09:58:37Z</time>
      </trkpt>
      <trkpt lat="44.62135" lon="3.28446">
        <ele>913.59997558594</ele>
        <time>2023-05-07T09:58:53Z</time>
      </trkpt>
      <trkpt lat="44.62135" lon="3.28446">
        <ele>914</ele>
        <time>2023-05-07T09:59:04Z</time>
      </trkpt>
      <trkpt lat="44.62135" lon="3.28447">
        <ele>914.40002441406</ele>
        <time>2023-05-07T09:59:14Z</time>
      </trkpt>
      <trkpt lat="44.62135" lon="3.28447">
        <ele>915.20001220703</ele>
        <time>2023-05-07T09:59:32Z</time>
      </trkpt>
      <trkpt lat="44.62135" lon="3.28447">
        <ele>915.59997558594</ele>
        <time>2023-05-07T09:59:49Z</time>
      </trkpt>
      <trkpt lat="44.62135" lon="3.28447">
        <ele>916</ele>
        <time>2023-05-07T10:00:02Z</time>
      </trkpt>
      <trkpt lat="44.62135" lon="3.28447">
        <ele>916.40002441406</ele>
        <time>2023-05-07T10:00:22Z</time>
      </trkpt>
      <trkpt lat="44.62134" lon="3.28449">
        <ele>916.79998779297</ele>
        <time>2023-05-07T10:00:32Z</time>
      </trkpt>
      <trkpt lat="44.62134" lon="3.28451">
        <ele>916.79998779297</ele>
        <time>2023-05-07T10:00:33Z</time>
      </trkpt>
      <trkpt lat="44.62135" lon="3.28452">
        <ele>917.20001220703</ele>
        <time>2023-05-07T10:00:37Z</time>
      </trkpt>
      <trkpt lat="44.62135" lon="3.28452">
        <ele>917.79998779297</ele>
        <time>2023-05-07T10:00:56Z</time>
      </trkpt>
      <trkpt lat="44.62136" lon="3.28451">
        <ele>918.59997558594</ele>
        <time>2023-05-07T10:01:20Z</time>
      </trkpt>
      <trkpt lat="44.62136" lon="3.28451">
        <ele>919.20001220703</ele>
        <time>2023-05-07T10:01:43Z</time>
      </trkpt>
      <trkpt lat="44.62136" lon="3.28451">
        <ele>919.79998779297</ele>
        <time>2023-05-07T10:02:03Z</time>
      </trkpt>
      <trkpt lat="44.62136" lon="3.28451">
        <ele>920</ele>
        <time>2023-05-07T10:02:22Z</time>
      </trkpt>
      <trkpt lat="44.62136" lon="3.28452">
        <ele>920.40002441406</ele>
        <time>2023-05-07T10:02:38Z</time>
      </trkpt>
      <trkpt lat="44.62136" lon="3.28452">
        <ele>920.59997558594</ele>
        <time>2023-05-07T10:03:01Z</time>
      </trkpt>
      <trkpt lat="44.62135" lon="3.28452">
        <ele>921.20001220703</ele>
        <time>2023-05-07T10:03:33Z</time>
      </trkpt>
      <trkpt lat="44.62135" lon="3.28452">
        <ele>921.40002441406</ele>
        <time>2023-05-07T10:03:55Z</time>
      </trkpt>
      <trkpt lat="44.62136" lon="3.28453">
        <ele>921.40002441406</ele>
        <time>2023-05-07T10:04:25Z</time>
      </trkpt>
      <trkpt lat="44.62136" lon="3.28454">
        <ele>921.40002441406</ele>
        <time>2023-05-07T10:04:49Z</time>
      </trkpt>
      <trkpt lat="44.62136" lon="3.28454">
        <ele>921.20001220703</ele>
        <time>2023-05-07T10:05:10Z</time>
      </trkpt>
      <trkpt lat="44.62135" lon="3.28454">
        <ele>921</ele>
        <time>2023-05-07T10:05:28Z</time>
      </trkpt>
      <trkpt lat="44.62135" lon="3.28453">
        <ele>920.79998779297</ele>
        <time>2023-05-07T10:05:36Z</time>
      </trkpt>
      <trkpt lat="44.62135" lon="3.28451">
        <ele>920.59997558594</ele>
        <time>2023-05-07T10:05:38Z</time>
      </trkpt>
      <trkpt lat="44.62135" lon="3.28451">
        <ele>920.59997558594</ele>
        <time>2023-05-07T10:05:44Z</time>
      </trkpt>
      <trkpt lat="44.62137" lon="3.28449">
        <ele>920.59997558594</ele>
        <time>2023-05-07T10:05:46Z</time>
      </trkpt>
      <trkpt lat="44.62139" lon="3.28449">
        <ele>920.59997558594</ele>
        <time>2023-05-07T10:05:47Z</time>
      </trkpt>
      <trkpt lat="44.62143" lon="3.28453">
        <ele>920.40002441406</ele>
        <time>2023-05-07T10:05:50Z</time>
      </trkpt>
      <trkpt lat="44.62154" lon="3.28465">
        <ele>919.79998779297</ele>
        <time>2023-05-07T10:05:55Z</time>
      </trkpt>
      <trkpt lat="44.62161" lon="3.28476">
        <ele>919.40002441406</ele>
        <time>2023-05-07T10:06:00Z</time>
      </trkpt>
      <trkpt lat="44.62164" lon="3.28492">
        <ele>919.20001220703</ele>
        <time>2023-05-07T10:06:07Z</time>
      </trkpt>
      <trkpt lat="44.62167" lon="3.28496">
        <ele>918.40002441406</ele>
        <time>2023-05-07T10:06:12Z</time>
      </trkpt>
      <trkpt lat="44.62168" lon="3.28498">
        <ele>918.40002441406</ele>
        <time>2023-05-07T10:06:14Z</time>
      </trkpt>
      <trkpt lat="44.62172" lon="3.28502">
        <ele>918.40002441406</ele>
        <time>2023-05-07T10:06:18Z</time>
      </trkpt>
      <trkpt lat="44.62173" lon="3.28512">
        <ele>918</ele>
        <time>2023-05-07T10:06:24Z</time>
      </trkpt>
      <trkpt lat="44.62175" lon="3.28522">
        <ele>917.20001220703</ele>
        <time>2023-05-07T10:06:31Z</time>
      </trkpt>
      <trkpt lat="44.62177" lon="3.28533">
        <ele>916.40002441406</ele>
        <time>2023-05-07T10:06:39Z</time>
      </trkpt>
      <trkpt lat="44.62178" lon="3.28534">
        <ele>916.40002441406</ele>
        <time>2023-05-07T10:06:40Z</time>
      </trkpt>
      <trkpt lat="44.62179" lon="3.2854">
        <ele>916</ele>
        <time>2023-05-07T10:06:44Z</time>
      </trkpt>
      <trkpt lat="44.6218" lon="3.28549">
        <ele>915.59997558594</ele>
        <time>2023-05-07T10:06:50Z</time>
      </trkpt>
      <trkpt lat="44.62181" lon="3.28559">
        <ele>914.59997558594</ele>
        <time>2023-05-07T10:06:58Z</time>
      </trkpt>
      <trkpt lat="44.62181" lon="3.28563">
        <ele>914.20001220703</ele>
        <time>2023-05-07T10:07:01Z</time>
      </trkpt>
      <trkpt lat="44.62182" lon="3.28566">
        <ele>914</ele>
        <time>2023-05-07T10:07:04Z</time>
      </trkpt>
      <trkpt lat="44.62183" lon="3.28571">
        <ele>913.40002441406</ele>
        <time>2023-05-07T10:07:09Z</time>
      </trkpt>
      <trkpt lat="44.62183" lon="3.28571">
        <ele>913.20001220703</ele>
        <time>2023-05-07T10:07:13Z</time>
      </trkpt>
      <trkpt lat="44.62182" lon="3.28575">
        <ele>913.20001220703</ele>
        <time>2023-05-07T10:07:15Z</time>
      </trkpt>
      <trkpt lat="44.62182" lon="3.28579">
        <ele>913.20001220703</ele>
        <time>2023-05-07T10:07:20Z</time>
      </trkpt>
      <trkpt lat="44.62181" lon="3.28582">
        <ele>912.79998779297</ele>
        <time>2023-05-07T10:07:25Z</time>
      </trkpt>
      <trkpt lat="44.62181" lon="3.28586">
        <ele>912</ele>
        <time>2023-05-07T10:07:29Z</time>
      </trkpt>
      <trkpt lat="44.62181" lon="3.28588">
        <ele>911.79998779297</ele>
        <time>2023-05-07T10:07:33Z</time>
      </trkpt>
      <trkpt lat="44.62181" lon="3.28596">
        <ele>911.59997558594</ele>
        <time>2023-05-07T10:07:37Z</time>
      </trkpt>
      <trkpt lat="44.62181" lon="3.28598">
        <ele>911.59997558594</ele>
        <time>2023-05-07T10:07:38Z</time>
      </trkpt>
      <trkpt lat="44.6218" lon="3.28605">
        <ele>911.79998779297</ele>
        <time>2023-05-07T10:07:41Z</time>
      </trkpt>
      <trkpt lat="44.62181" lon="3.2861">
        <ele>911.79998779297</ele>
        <time>2023-05-07T10:07:43Z</time>
      </trkpt>
      <trkpt lat="44.6218" lon="3.28617">
        <ele>912.20001220703</ele>
        <time>2023-05-07T10:07:47Z</time>
      </trkpt>
      <trkpt lat="44.62177" lon="3.2863">
        <ele>912.40002441406</ele>
        <time>2023-05-07T10:07:54Z</time>
      </trkpt>
      <trkpt lat="44.62175" lon="3.28642">
        <ele>912.59997558594</ele>
        <time>2023-05-07T10:08:00Z</time>
      </trkpt>
      <trkpt lat="44.62175" lon="3.28643">
        <ele>912.59997558594</ele>
        <time>2023-05-07T10:08:01Z</time>
      </trkpt>
      <trkpt lat="44.62174" lon="3.28655">
        <ele>913.20001220703</ele>
        <time>2023-05-07T10:08:08Z</time>
      </trkpt>
      <trkpt lat="44.62172" lon="3.2866">
        <ele>913.40002441406</ele>
        <time>2023-05-07T10:08:11Z</time>
      </trkpt>
      <trkpt lat="44.6217" lon="3.28667">
        <ele>913.79998779297</ele>
        <time>2023-05-07T10:08:14Z</time>
      </trkpt>
      <trkpt lat="44.62166" lon="3.28682">
        <ele>914.40002441406</ele>
        <time>2023-05-07T10:08:22Z</time>
      </trkpt>
      <trkpt lat="44.62165" lon="3.28685">
        <ele>914.59997558594</ele>
        <time>2023-05-07T10:08:24Z</time>
      </trkpt>
      <trkpt lat="44.62165" lon="3.28693">
        <ele>914.79998779297</ele>
        <time>2023-05-07T10:08:28Z</time>
      </trkpt>
      <trkpt lat="44.62164" lon="3.28697">
        <ele>915</ele>
        <time>2023-05-07T10:08:30Z</time>
      </trkpt>
      <trkpt lat="44.62163" lon="3.28707">
        <ele>915.40002441406</ele>
        <time>2023-05-07T10:08:36Z</time>
      </trkpt>
      <trkpt lat="44.62163" lon="3.28714">
        <ele>915.59997558594</ele>
        <time>2023-05-07T10:08:40Z</time>
      </trkpt>
      <trkpt lat="44.62163" lon="3.28719">
        <ele>916</ele>
        <time>2023-05-07T10:08:43Z</time>
      </trkpt>
      <trkpt lat="44.62162" lon="3.28721">
        <ele>916</ele>
        <time>2023-05-07T10:08:44Z</time>
      </trkpt>
      <trkpt lat="44.62162" lon="3.28727">
        <ele>916.40002441406</ele>
        <time>2023-05-07T10:08:47Z</time>
      </trkpt>
      <trkpt lat="44.62161" lon="3.28729">
        <ele>916.59997558594</ele>
        <time>2023-05-07T10:08:48Z</time>
      </trkpt>
      <trkpt lat="44.6216" lon="3.2873">
        <ele>917</ele>
        <time>2023-05-07T10:08:49Z</time>
      </trkpt>
      <trkpt lat="44.62152" lon="3.28735">
        <ele>918</ele>
        <time>2023-05-07T10:08:54Z</time>
      </trkpt>
      <trkpt lat="44.62142" lon="3.28743">
        <ele>919.59997558594</ele>
        <time>2023-05-07T10:09:01Z</time>
      </trkpt>
      <trkpt lat="44.62135" lon="3.28747">
        <ele>920.40002441406</ele>
        <time>2023-05-07T10:09:06Z</time>
      </trkpt>
      <trkpt lat="44.62125" lon="3.28757">
        <ele>922.20001220703</ele>
        <time>2023-05-07T10:09:14Z</time>
      </trkpt>
      <trkpt lat="44.62124" lon="3.28758">
        <ele>922.40002441406</ele>
        <time>2023-05-07T10:09:15Z</time>
      </trkpt>
      <trkpt lat="44.6212" lon="3.28762">
        <ele>923.40002441406</ele>
        <time>2023-05-07T10:09:19Z</time>
      </trkpt>
      <trkpt lat="44.62114" lon="3.2877">
        <ele>924.59997558594</ele>
        <time>2023-05-07T10:09:25Z</time>
      </trkpt>
      <trkpt lat="44.6211" lon="3.28775">
        <ele>925.59997558594</ele>
        <time>2023-05-07T10:09:29Z</time>
      </trkpt>
      <trkpt lat="44.62102" lon="3.2878">
        <ele>927</ele>
        <time>2023-05-07T10:09:36Z</time>
      </trkpt>
      <trkpt lat="44.62096" lon="3.28784">
        <ele>928.20001220703</ele>
        <time>2023-05-07T10:09:41Z</time>
      </trkpt>
      <trkpt lat="44.62095" lon="3.28784">
        <ele>928.40002441406</ele>
        <time>2023-05-07T10:09:42Z</time>
      </trkpt>
      <trkpt lat="44.62087" lon="3.2879">
        <ele>929.79998779297</ele>
        <time>2023-05-07T10:09:49Z</time>
      </trkpt>
      <trkpt lat="44.6208" lon="3.28794">
        <ele>931.20001220703</ele>
        <time>2023-05-07T10:09:55Z</time>
      </trkpt>
      <trkpt lat="44.62076" lon="3.288">
        <ele>932.20001220703</ele>
        <time>2023-05-07T10:10:01Z</time>
      </trkpt>
      <trkpt lat="44.62067" lon="3.28808">
        <ele>933.59997558594</ele>
        <time>2023-05-07T10:10:08Z</time>
      </trkpt>
      <trkpt lat="44.6206" lon="3.2881">
        <ele>934.59997558594</ele>
        <time>2023-05-07T10:10:14Z</time>
      </trkpt>
      <trkpt lat="44.62055" lon="3.28814">
        <ele>935.40002441406</ele>
        <time>2023-05-07T10:10:19Z</time>
      </trkpt>
      <trkpt lat="44.62053" lon="3.28815">
        <ele>935.79998779297</ele>
        <time>2023-05-07T10:10:21Z</time>
      </trkpt>
      <trkpt lat="44.62043" lon="3.2882">
        <ele>937.20001220703</ele>
        <time>2023-05-07T10:10:29Z</time>
      </trkpt>
      <trkpt lat="44.62036" lon="3.28826">
        <ele>938.40002441406</ele>
        <time>2023-05-07T10:10:35Z</time>
      </trkpt>
      <trkpt lat="44.62027" lon="3.28834">
        <ele>939.79998779297</ele>
        <time>2023-05-07T10:10:44Z</time>
      </trkpt>
      <trkpt lat="44.62026" lon="3.28834">
        <ele>940</ele>
        <time>2023-05-07T10:10:45Z</time>
      </trkpt>
      <trkpt lat="44.62022" lon="3.28837">
        <ele>940.40002441406</ele>
        <time>2023-05-07T10:10:49Z</time>
      </trkpt>
      <trkpt lat="44.6202" lon="3.28839">
        <ele>940.59997558594</ele>
        <time>2023-05-07T10:10:51Z</time>
      </trkpt>
      <trkpt lat="44.62018" lon="3.28841">
        <ele>941</ele>
        <time>2023-05-07T10:10:54Z</time>
      </trkpt>
      <trkpt lat="44.62015" lon="3.28846">
        <ele>941.59997558594</ele>
        <time>2023-05-07T10:10:58Z</time>
      </trkpt>
      <trkpt lat="44.62014" lon="3.2885">
        <ele>941.59997558594</ele>
        <time>2023-05-07T10:11:00Z</time>
      </trkpt>
      <trkpt lat="44.62014" lon="3.28852">
        <ele>941.79998779297</ele>
        <time>2023-05-07T10:11:01Z</time>
      </trkpt>
      <trkpt lat="44.62014" lon="3.28856">
        <ele>941.79998779297</ele>
        <time>2023-05-07T10:11:04Z</time>
      </trkpt>
      <trkpt lat="44.62013" lon="3.28861">
        <ele>942</ele>
        <time>2023-05-07T10:11:07Z</time>
      </trkpt>
      <trkpt lat="44.62013" lon="3.28866">
        <ele>942.20001220703</ele>
        <time>2023-05-07T10:11:10Z</time>
      </trkpt>
      <trkpt lat="44.62011" lon="3.28879">
        <ele>942.59997558594</ele>
        <time>2023-05-07T10:11:18Z</time>
      </trkpt>
      <trkpt lat="44.62011" lon="3.28891">
        <ele>943</ele>
        <time>2023-05-07T10:11:25Z</time>
      </trkpt>
      <trkpt lat="44.62011" lon="3.28895">
        <ele>943.20001220703</ele>
        <time>2023-05-07T10:11:28Z</time>
      </trkpt>
      <trkpt lat="44.6201" lon="3.28902">
        <ele>943.40002441406</ele>
        <time>2023-05-07T10:11:31Z</time>
      </trkpt>
      <trkpt lat="44.62007" lon="3.28917">
        <ele>944</ele>
        <time>2023-05-07T10:11:39Z</time>
      </trkpt>
      <trkpt lat="44.62" lon="3.28927">
        <ele>944.59997558594</ele>
        <time>2023-05-07T10:11:47Z</time>
      </trkpt>
      <trkpt lat="44.61997" lon="3.2893">
        <ele>945.20001220703</ele>
        <time>2023-05-07T10:11:50Z</time>
      </trkpt>
      <trkpt lat="44.61994" lon="3.28932">
        <ele>945.79998779297</ele>
        <time>2023-05-07T10:11:53Z</time>
      </trkpt>
      <trkpt lat="44.61989" lon="3.28935">
        <ele>946.59997558594</ele>
        <time>2023-05-07T10:11:57Z</time>
      </trkpt>
      <trkpt lat="44.61984" lon="3.28937">
        <ele>947.40002441406</ele>
        <time>2023-05-07T10:12:01Z</time>
      </trkpt>
      <trkpt lat="44.61973" lon="3.28941">
        <ele>948.79998779297</ele>
        <time>2023-05-07T10:12:09Z</time>
      </trkpt>
      <trkpt lat="44.61964" lon="3.28942">
        <ele>950</ele>
        <time>2023-05-07T10:12:16Z</time>
      </trkpt>
      <trkpt lat="44.61957" lon="3.28943">
        <ele>950.79998779297</ele>
        <time>2023-05-07T10:12:22Z</time>
      </trkpt>
      <trkpt lat="44.61954" lon="3.28944">
        <ele>951.20001220703</ele>
        <time>2023-05-07T10:12:24Z</time>
      </trkpt>
      <trkpt lat="44.61949" lon="3.28944">
        <ele>952</ele>
        <time>2023-05-07T10:12:28Z</time>
      </trkpt>
      <trkpt lat="44.61947" lon="3.28945">
        <ele>952.40002441406</ele>
        <time>2023-05-07T10:12:30Z</time>
      </trkpt>
      <trkpt lat="44.61938" lon="3.28948">
        <ele>953.59997558594</ele>
        <time>2023-05-07T10:12:37Z</time>
      </trkpt>
      <trkpt lat="44.61927" lon="3.28954">
        <ele>955</ele>
        <time>2023-05-07T10:12:46Z</time>
      </trkpt>
      <trkpt lat="44.61923" lon="3.28957">
        <ele>955.79998779297</ele>
        <time>2023-05-07T10:12:50Z</time>
      </trkpt>
      <trkpt lat="44.61922" lon="3.28959">
        <ele>956</ele>
        <time>2023-05-07T10:12:52Z</time>
      </trkpt>
      <trkpt lat="44.61921" lon="3.28962">
        <ele>956.59997558594</ele>
        <time>2023-05-07T10:12:55Z</time>
      </trkpt>
      <trkpt lat="44.6192" lon="3.28967">
        <ele>957</ele>
        <time>2023-05-07T10:12:58Z</time>
      </trkpt>
      <trkpt lat="44.61923" lon="3.28966">
        <ele>957.59997558594</ele>
        <time>2023-05-07T10:13:02Z</time>
      </trkpt>
      <trkpt lat="44.61924" lon="3.28965">
        <ele>957.79998779297</ele>
        <time>2023-05-07T10:13:04Z</time>
      </trkpt>
      <trkpt lat="44.61926" lon="3.28963">
        <ele>958.20001220703</ele>
        <time>2023-05-07T10:13:07Z</time>
      </trkpt>
      <trkpt lat="44.61928" lon="3.2896">
        <ele>958.79998779297</ele>
        <time>2023-05-07T10:13:13Z</time>
      </trkpt>
      <trkpt lat="44.61929" lon="3.28959">
        <ele>959.20001220703</ele>
        <time>2023-05-07T10:13:16Z</time>
      </trkpt>
      <trkpt lat="44.61931" lon="3.28958">
        <ele>959.40002441406</ele>
        <time>2023-05-07T10:13:18Z</time>
      </trkpt>
      <trkpt lat="44.6194" lon="3.28958">
        <ele>960.20001220703</ele>
        <time>2023-05-07T10:13:24Z</time>
      </trkpt>
      <trkpt lat="44.61941" lon="3.28958">
        <ele>960.40002441406</ele>
        <time>2023-05-07T10:13:25Z</time>
      </trkpt>
      <trkpt lat="44.61947" lon="3.28958">
        <ele>961</ele>
        <time>2023-05-07T10:13:30Z</time>
      </trkpt>
      <trkpt lat="44.61955" lon="3.2896">
        <ele>961.59997558594</ele>
        <time>2023-05-07T10:13:37Z</time>
      </trkpt>
      <trkpt lat="44.61962" lon="3.28961">
        <ele>962.40002441406</ele>
        <time>2023-05-07T10:13:43Z</time>
      </trkpt>
      <trkpt lat="44.61966" lon="3.28962">
        <ele>962.79998779297</ele>
        <time>2023-05-07T10:13:47Z</time>
      </trkpt>
      <trkpt lat="44.61966" lon="3.28962">
        <ele>962.79998779297</ele>
        <time>2023-05-07T10:13:48Z</time>
      </trkpt>
      <trkpt lat="44.6197" lon="3.28962">
        <ele>963.20001220703</ele>
        <time>2023-05-07T10:13:52Z</time>
      </trkpt>
      <trkpt lat="44.61972" lon="3.28962">
        <ele>963.20001220703</ele>
        <time>2023-05-07T10:13:53Z</time>
      </trkpt>
      <trkpt lat="44.61983" lon="3.28963">
        <ele>964.20001220703</ele>
        <time>2023-05-07T10:14:01Z</time>
      </trkpt>
      <trkpt lat="44.61996" lon="3.28965">
        <ele>965.40002441406</ele>
        <time>2023-05-07T10:14:11Z</time>
      </trkpt>
      <trkpt lat="44.61999" lon="3.28965">
        <ele>965.59997558594</ele>
        <time>2023-05-07T10:14:13Z</time>
      </trkpt>
      <trkpt lat="44.62003" lon="3.28966">
        <ele>966.20001220703</ele>
        <time>2023-05-07T10:14:17Z</time>
      </trkpt>
      <trkpt lat="44.62006" lon="3.28966">
        <ele>966.40002441406</ele>
        <time>2023-05-07T10:14:19Z</time>
      </trkpt>
      <trkpt lat="44.62011" lon="3.28962">
        <ele>966.79998779297</ele>
        <time>2023-05-07T10:14:23Z</time>
      </trkpt>
      <trkpt lat="44.62015" lon="3.28961">
        <ele>967.59997558594</ele>
        <time>2023-05-07T10:14:27Z</time>
      </trkpt>
      <trkpt lat="44.62018" lon="3.28959">
        <ele>967.79998779297</ele>
        <time>2023-05-07T10:14:29Z</time>
      </trkpt>
      <trkpt lat="44.62019" lon="3.28956">
        <ele>968.20001220703</ele>
        <time>2023-05-07T10:14:31Z</time>
      </trkpt>
      <trkpt lat="44.62023" lon="3.28951">
        <ele>968.79998779297</ele>
        <time>2023-05-07T10:14:35Z</time>
      </trkpt>
      <trkpt lat="44.62029" lon="3.28942">
        <ele>969.79998779297</ele>
        <time>2023-05-07T10:14:42Z</time>
      </trkpt>
      <trkpt lat="44.62033" lon="3.28931">
        <ele>970.59997558594</ele>
        <time>2023-05-07T10:14:49Z</time>
      </trkpt>
      <trkpt lat="44.62036" lon="3.28919">
        <ele>971.40002441406</ele>
        <time>2023-05-07T10:14:56Z</time>
      </trkpt>
      <trkpt lat="44.62037" lon="3.28918">
        <ele>971.40002441406</ele>
        <time>2023-05-07T10:14:57Z</time>
      </trkpt>
      <trkpt lat="44.6204" lon="3.28911">
        <ele>971.79998779297</ele>
        <time>2023-05-07T10:15:01Z</time>
      </trkpt>
      <trkpt lat="44.62041" lon="3.28911">
        <ele>972</ele>
        <time>2023-05-07T10:15:02Z</time>
      </trkpt>
      <trkpt lat="44.62044" lon="3.28911">
        <ele>972.20001220703</ele>
        <time>2023-05-07T10:15:04Z</time>
      </trkpt>
      <trkpt lat="44.62045" lon="3.28913">
        <ele>972.20001220703</ele>
        <time>2023-05-07T10:15:05Z</time>
      </trkpt>
      <trkpt lat="44.62045" lon="3.28915">
        <ele>972.20001220703</ele>
        <time>2023-05-07T10:15:06Z</time>
      </trkpt>
      <trkpt lat="44.62043" lon="3.2892">
        <ele>972.40002441406</ele>
        <time>2023-05-07T10:15:10Z</time>
      </trkpt>
      <trkpt lat="44.62041" lon="3.28931">
        <ele>973</ele>
        <time>2023-05-07T10:15:17Z</time>
      </trkpt>
      <trkpt lat="44.62041" lon="3.2894">
        <ele>973.40002441406</ele>
        <time>2023-05-07T10:15:22Z</time>
      </trkpt>
      <trkpt lat="44.62039" lon="3.28947">
        <ele>973.59997558594</ele>
        <time>2023-05-07T10:15:26Z</time>
      </trkpt>
      <trkpt lat="44.62039" lon="3.28949">
        <ele>973.59997558594</ele>
        <time>2023-05-07T10:15:28Z</time>
      </trkpt>
      <trkpt lat="44.62038" lon="3.28951">
        <ele>973.79998779297</ele>
        <time>2023-05-07T10:15:29Z</time>
      </trkpt>
      <trkpt lat="44.62035" lon="3.28961">
        <ele>974.20001220703</ele>
        <time>2023-05-07T10:15:35Z</time>
      </trkpt>
      <trkpt lat="44.62034" lon="3.28966">
        <ele>974.59997558594</ele>
        <time>2023-05-07T10:15:38Z</time>
      </trkpt>
      <trkpt lat="44.62032" lon="3.28969">
        <ele>975</ele>
        <time>2023-05-07T10:15:41Z</time>
      </trkpt>
      <trkpt lat="44.62028" lon="3.28974">
        <ele>975.79998779297</ele>
        <time>2023-05-07T10:15:46Z</time>
      </trkpt>
      <trkpt lat="44.62023" lon="3.28982">
        <ele>976.40002441406</ele>
        <time>2023-05-07T10:15:51Z</time>
      </trkpt>
      <trkpt lat="44.62019" lon="3.2899">
        <ele>977.40002441406</ele>
        <time>2023-05-07T10:15:57Z</time>
      </trkpt>
      <trkpt lat="44.62017" lon="3.28992">
        <ele>978</ele>
        <time>2023-05-07T10:16:03Z</time>
      </trkpt>
      <trkpt lat="44.62008" lon="3.28998">
        <ele>979.20001220703</ele>
        <time>2023-05-07T10:16:11Z</time>
      </trkpt>
      <trkpt lat="44.62" lon="3.29">
        <ele>980</ele>
        <time>2023-05-07T10:16:18Z</time>
      </trkpt>
      <trkpt lat="44.61993" lon="3.29002">
        <ele>981</ele>
        <time>2023-05-07T10:16:24Z</time>
      </trkpt>
      <trkpt lat="44.61985" lon="3.29005">
        <ele>982</ele>
        <time>2023-05-07T10:16:31Z</time>
      </trkpt>
      <trkpt lat="44.61981" lon="3.29008">
        <ele>982.59997558594</ele>
        <time>2023-05-07T10:16:34Z</time>
      </trkpt>
      <trkpt lat="44.61979" lon="3.29008">
        <ele>982.79998779297</ele>
        <time>2023-05-07T10:16:36Z</time>
      </trkpt>
      <trkpt lat="44.61975" lon="3.29011">
        <ele>983.40002441406</ele>
        <time>2023-05-07T10:16:40Z</time>
      </trkpt>
      <trkpt lat="44.61972" lon="3.29013">
        <ele>983.79998779297</ele>
        <time>2023-05-07T10:16:43Z</time>
      </trkpt>
      <trkpt lat="44.61968" lon="3.29016">
        <ele>984.40002441406</ele>
        <time>2023-05-07T10:16:46Z</time>
      </trkpt>
      <trkpt lat="44.61966" lon="3.29016">
        <ele>984.59997558594</ele>
        <time>2023-05-07T10:16:48Z</time>
      </trkpt>
      <trkpt lat="44.61965" lon="3.29017">
        <ele>984.79998779297</ele>
        <time>2023-05-07T10:16:49Z</time>
      </trkpt>
      <trkpt lat="44.61963" lon="3.29017">
        <ele>985</ele>
        <time>2023-05-07T10:16:51Z</time>
      </trkpt>
      <trkpt lat="44.6196" lon="3.29018">
        <ele>985.40002441406</ele>
        <time>2023-05-07T10:16:54Z</time>
      </trkpt>
      <trkpt lat="44.61952" lon="3.29024">
        <ele>986.59997558594</ele>
        <time>2023-05-07T10:17:02Z</time>
      </trkpt>
      <trkpt lat="44.61949" lon="3.29025">
        <ele>987</ele>
        <time>2023-05-07T10:17:04Z</time>
      </trkpt>
      <trkpt lat="44.61946" lon="3.29028">
        <ele>987.40002441406</ele>
        <time>2023-05-07T10:17:07Z</time>
      </trkpt>
      <trkpt lat="44.61945" lon="3.29029">
        <ele>987.59997558594</ele>
        <time>2023-05-07T10:17:08Z</time>
      </trkpt>
      <trkpt lat="44.61943" lon="3.29029">
        <ele>988</ele>
        <time>2023-05-07T10:17:10Z</time>
      </trkpt>
      <trkpt lat="44.6194" lon="3.29031">
        <ele>988.20001220703</ele>
        <time>2023-05-07T10:17:12Z</time>
      </trkpt>
      <trkpt lat="44.61932" lon="3.29036">
        <ele>989.40002441406</ele>
        <time>2023-05-07T10:17:19Z</time>
      </trkpt>
      <trkpt lat="44.61923" lon="3.29041">
        <ele>990.59997558594</ele>
        <time>2023-05-07T10:17:26Z</time>
      </trkpt>
      <trkpt lat="44.6192" lon="3.29044">
        <ele>991</ele>
        <time>2023-05-07T10:17:29Z</time>
      </trkpt>
      <trkpt lat="44.61917" lon="3.29049">
        <ele>991.79998779297</ele>
        <time>2023-05-07T10:17:33Z</time>
      </trkpt>
      <trkpt lat="44.61916" lon="3.29053">
        <ele>992</ele>
        <time>2023-05-07T10:17:35Z</time>
      </trkpt>
      <trkpt lat="44.61916" lon="3.2906">
        <ele>992.40002441406</ele>
        <time>2023-05-07T10:17:39Z</time>
      </trkpt>
      <trkpt lat="44.61915" lon="3.29061">
        <ele>992.59997558594</ele>
        <time>2023-05-07T10:17:40Z</time>
      </trkpt>
      <trkpt lat="44.61914" lon="3.29064">
        <ele>992.79998779297</ele>
        <time>2023-05-07T10:17:43Z</time>
      </trkpt>
      <trkpt lat="44.61913" lon="3.29066">
        <ele>992.79998779297</ele>
        <time>2023-05-07T10:17:45Z</time>
      </trkpt>
      <trkpt lat="44.61908" lon="3.29076">
        <ele>993.40002441406</ele>
        <time>2023-05-07T10:17:51Z</time>
      </trkpt>
      <trkpt lat="44.61908" lon="3.29082">
        <ele>993.79998779297</ele>
        <time>2023-05-07T10:17:54Z</time>
      </trkpt>
      <trkpt lat="44.61908" lon="3.29086">
        <ele>994</ele>
        <time>2023-05-07T10:17:56Z</time>
      </trkpt>
      <trkpt lat="44.61909" lon="3.29101">
        <ele>994.59997558594</ele>
        <time>2023-05-07T10:18:04Z</time>
      </trkpt>
      <trkpt lat="44.61911" lon="3.29109">
        <ele>995</ele>
        <time>2023-05-07T10:18:10Z</time>
      </trkpt>
      <trkpt lat="44.61912" lon="3.2911">
        <ele>995</ele>
        <time>2023-05-07T10:18:13Z</time>
      </trkpt>
      <trkpt lat="44.61912" lon="3.29112">
        <ele>995</ele>
        <time>2023-05-07T10:18:15Z</time>
      </trkpt>
      <trkpt lat="44.61914" lon="3.29117">
        <ele>995.40002441406</ele>
        <time>2023-05-07T10:18:21Z</time>
      </trkpt>
      <trkpt lat="44.61914" lon="3.29122">
        <ele>996.20001220703</ele>
        <time>2023-05-07T10:18:26Z</time>
      </trkpt>
      <trkpt lat="44.61914" lon="3.29123">
        <ele>996.40002441406</ele>
        <time>2023-05-07T10:18:27Z</time>
      </trkpt>
      <trkpt lat="44.61916" lon="3.29131">
        <ele>997.40002441406</ele>
        <time>2023-05-07T10:18:33Z</time>
      </trkpt>
      <trkpt lat="44.61917" lon="3.29136">
        <ele>998.20001220703</ele>
        <time>2023-05-07T10:18:38Z</time>
      </trkpt>
      <trkpt lat="44.61917" lon="3.29145">
        <ele>998.79998779297</ele>
        <time>2023-05-07T10:18:44Z</time>
      </trkpt>
      <trkpt lat="44.61917" lon="3.29147">
        <ele>998.79998779297</ele>
        <time>2023-05-07T10:18:45Z</time>
      </trkpt>
      <trkpt lat="44.61919" lon="3.29154">
        <ele>999.59997558594</ele>
        <time>2023-05-07T10:18:51Z</time>
      </trkpt>
      <trkpt lat="44.61921" lon="3.29165">
        <ele>1000.799987793</ele>
        <time>2023-05-07T10:18:59Z</time>
      </trkpt>
      <trkpt lat="44.61924" lon="3.29173">
        <ele>1001.4000244141</ele>
        <time>2023-05-07T10:19:06Z</time>
      </trkpt>
      <trkpt lat="44.61926" lon="3.29179">
        <ele>1001.799987793</ele>
        <time>2023-05-07T10:19:12Z</time>
      </trkpt>
      <trkpt lat="44.61929" lon="3.29188">
        <ele>1002</ele>
        <time>2023-05-07T10:19:20Z</time>
      </trkpt>
      <trkpt lat="44.6193" lon="3.29188">
        <ele>1002</ele>
        <time>2023-05-07T10:19:21Z</time>
      </trkpt>
      <trkpt lat="44.61933" lon="3.29192">
        <ele>1002</ele>
        <time>2023-05-07T10:19:26Z</time>
      </trkpt>
      <trkpt lat="44.61938" lon="3.29198">
        <ele>1002.200012207</ele>
        <time>2023-05-07T10:19:34Z</time>
      </trkpt>
      <trkpt lat="44.6194" lon="3.29202">
        <ele>1002.5999755859</ele>
        <time>2023-05-07T10:19:40Z</time>
      </trkpt>
      <trkpt lat="44.6194" lon="3.29202">
        <ele>1002.5999755859</ele>
        <time>2023-05-07T10:19:44Z</time>
      </trkpt>
      <trkpt lat="44.61941" lon="3.29205">
        <ele>1002.5999755859</ele>
        <time>2023-05-07T10:19:46Z</time>
      </trkpt>
      <trkpt lat="44.61946" lon="3.29218">
        <ele>1002.799987793</ele>
        <time>2023-05-07T10:19:54Z</time>
      </trkpt>
      <trkpt lat="44.6195" lon="3.29231">
        <ele>1003</ele>
        <time>2023-05-07T10:20:02Z</time>
      </trkpt>
      <trkpt lat="44.61951" lon="3.29236">
        <ele>1003</ele>
        <time>2023-05-07T10:20:05Z</time>
      </trkpt>
      <trkpt lat="44.61953" lon="3.29241">
        <ele>1003</ele>
        <time>2023-05-07T10:20:08Z</time>
      </trkpt>
      <trkpt lat="44.61953" lon="3.29244">
        <ele>1003</ele>
        <time>2023-05-07T10:20:09Z</time>
      </trkpt>
      <trkpt lat="44.61955" lon="3.29252">
        <ele>1003</ele>
        <time>2023-05-07T10:20:14Z</time>
      </trkpt>
      <trkpt lat="44.61955" lon="3.29254">
        <ele>1003.200012207</ele>
        <time>2023-05-07T10:20:15Z</time>
      </trkpt>
      <trkpt lat="44.61956" lon="3.29264">
        <ele>1003.4000244141</ele>
        <time>2023-05-07T10:20:21Z</time>
      </trkpt>
      <trkpt lat="44.61957" lon="3.29271">
        <ele>1003</ele>
        <time>2023-05-07T10:20:25Z</time>
      </trkpt>
      <trkpt lat="44.61957" lon="3.29276">
        <ele>1003</ele>
        <time>2023-05-07T10:20:28Z</time>
      </trkpt>
      <trkpt lat="44.61956" lon="3.29281">
        <ele>1002.799987793</ele>
        <time>2023-05-07T10:20:32Z</time>
      </trkpt>
      <trkpt lat="44.61955" lon="3.29286">
        <ele>1003</ele>
        <time>2023-05-07T10:20:35Z</time>
      </trkpt>
      <trkpt lat="44.61949" lon="3.293">
        <ele>1004.799987793</ele>
        <time>2023-05-07T10:20:44Z</time>
      </trkpt>
      <trkpt lat="44.61944" lon="3.29311">
        <ele>1006.5999755859</ele>
        <time>2023-05-07T10:20:52Z</time>
      </trkpt>
      <trkpt lat="44.61941" lon="3.29315">
        <ele>1007.200012207</ele>
        <time>2023-05-07T10:20:55Z</time>
      </trkpt>
      <trkpt lat="44.61938" lon="3.2932">
        <ele>1007.799987793</ele>
        <time>2023-05-07T10:20:58Z</time>
      </trkpt>
      <trkpt lat="44.6193" lon="3.29333">
        <ele>1010.200012207</ele>
        <time>2023-05-07T10:21:08Z</time>
      </trkpt>
      <trkpt lat="44.61924" lon="3.29343">
        <ele>1012.4000244141</ele>
        <time>2023-05-07T10:21:16Z</time>
      </trkpt>
      <trkpt lat="44.61918" lon="3.29354">
        <ele>1014.200012207</ele>
        <time>2023-05-07T10:21:24Z</time>
      </trkpt>
      <trkpt lat="44.61913" lon="3.29369">
        <ele>1016</ele>
        <time>2023-05-07T10:21:34Z</time>
      </trkpt>
      <trkpt lat="44.61912" lon="3.29382">
        <ele>1017.200012207</ele>
        <time>2023-05-07T10:21:42Z</time>
      </trkpt>
      <trkpt lat="44.6191" lon="3.29397">
        <ele>1018.5999755859</ele>
        <time>2023-05-07T10:21:51Z</time>
      </trkpt>
      <trkpt lat="44.6191" lon="3.29404">
        <ele>1019.200012207</ele>
        <time>2023-05-07T10:21:55Z</time>
      </trkpt>
      <trkpt lat="44.6191" lon="3.29408">
        <ele>1019.5999755859</ele>
        <time>2023-05-07T10:21:57Z</time>
      </trkpt>
      <trkpt lat="44.61911" lon="3.29421">
        <ele>1021</ele>
        <time>2023-05-07T10:22:05Z</time>
      </trkpt>
      <trkpt lat="44.61913" lon="3.29428">
        <ele>1021.799987793</ele>
        <time>2023-05-07T10:22:10Z</time>
      </trkpt>
      <trkpt lat="44.61913" lon="3.29432">
        <ele>1022</ele>
        <time>2023-05-07T10:22:12Z</time>
      </trkpt>
      <trkpt lat="44.61913" lon="3.29434">
        <ele>1022.200012207</ele>
        <time>2023-05-07T10:22:13Z</time>
      </trkpt>
      <trkpt lat="44.61918" lon="3.29445">
        <ele>1023.4000244141</ele>
        <time>2023-05-07T10:22:21Z</time>
      </trkpt>
      <trkpt lat="44.61919" lon="3.29448">
        <ele>1023.5999755859</ele>
        <time>2023-05-07T10:22:23Z</time>
      </trkpt>
      <trkpt lat="44.6192" lon="3.29453">
        <ele>1023.799987793</ele>
        <time>2023-05-07T10:22:26Z</time>
      </trkpt>
      <trkpt lat="44.61922" lon="3.29458">
        <ele>1024.1999511719</ele>
        <time>2023-05-07T10:22:29Z</time>
      </trkpt>
      <trkpt lat="44.61925" lon="3.29461">
        <ele>1024.5999755859</ele>
        <time>2023-05-07T10:22:32Z</time>
      </trkpt>
      <trkpt lat="44.61934" lon="3.29465">
        <ele>1025.5999755859</ele>
        <time>2023-05-07T10:22:39Z</time>
      </trkpt>
      <trkpt lat="44.6194" lon="3.29471">
        <ele>1026.5999755859</ele>
        <time>2023-05-07T10:22:46Z</time>
      </trkpt>
      <trkpt lat="44.61948" lon="3.29478">
        <ele>1028</ele>
        <time>2023-05-07T10:22:54Z</time>
      </trkpt>
      <trkpt lat="44.61957" lon="3.29484">
        <ele>1029.4000244141</ele>
        <time>2023-05-07T10:23:02Z</time>
      </trkpt>
      <trkpt lat="44.61967" lon="3.29491">
        <ele>1030.8000488281</ele>
        <time>2023-05-07T10:23:12Z</time>
      </trkpt>
      <trkpt lat="44.61969" lon="3.29492">
        <ele>1031</ele>
        <time>2023-05-07T10:23:14Z</time>
      </trkpt>
      <trkpt lat="44.61973" lon="3.29495">
        <ele>1031.8000488281</ele>
        <time>2023-05-07T10:23:18Z</time>
      </trkpt>
      <trkpt lat="44.61981" lon="3.29496">
        <ele>1033.1999511719</ele>
        <time>2023-05-07T10:23:25Z</time>
      </trkpt>
      <trkpt lat="44.61987" lon="3.29493">
        <ele>1034.4000244141</ele>
        <time>2023-05-07T10:23:31Z</time>
      </trkpt>
      <trkpt lat="44.61988" lon="3.29493">
        <ele>1034.5999755859</ele>
        <time>2023-05-07T10:23:32Z</time>
      </trkpt>
      <trkpt lat="44.61998" lon="3.2949">
        <ele>1036.1999511719</ele>
        <time>2023-05-07T10:23:40Z</time>
      </trkpt>
      <trkpt lat="44.62007" lon="3.29489">
        <ele>1037.5999755859</ele>
        <time>2023-05-07T10:23:47Z</time>
      </trkpt>
      <trkpt lat="44.62015" lon="3.29487">
        <ele>1038.8000488281</ele>
        <time>2023-05-07T10:23:54Z</time>
      </trkpt>
      <trkpt lat="44.62025" lon="3.29486">
        <ele>1040</ele>
        <time>2023-05-07T10:24:01Z</time>
      </trkpt>
      <trkpt lat="44.62035" lon="3.29484">
        <ele>1041.4000244141</ele>
        <time>2023-05-07T10:24:09Z</time>
      </trkpt>
      <trkpt lat="44.62042" lon="3.29483">
        <ele>1042.8000488281</ele>
        <time>2023-05-07T10:24:16Z</time>
      </trkpt>
      <trkpt lat="44.62044" lon="3.29484">
        <ele>1043.1999511719</ele>
        <time>2023-05-07T10:24:19Z</time>
      </trkpt>
      <trkpt lat="44.62046" lon="3.29484">
        <ele>1043.5999755859</ele>
        <time>2023-05-07T10:24:21Z</time>
      </trkpt>
      <trkpt lat="44.62051" lon="3.29487">
        <ele>1044.4000244141</ele>
        <time>2023-05-07T10:24:26Z</time>
      </trkpt>
      <trkpt lat="44.62053" lon="3.29488">
        <ele>1045</ele>
        <time>2023-05-07T10:24:28Z</time>
      </trkpt>
      <trkpt lat="44.6206" lon="3.29494">
        <ele>1046</ele>
        <time>2023-05-07T10:24:35Z</time>
      </trkpt>
      <trkpt lat="44.62063" lon="3.29499">
        <ele>1046.5999755859</ele>
        <time>2023-05-07T10:24:41Z</time>
      </trkpt>
      <trkpt lat="44.6207" lon="3.29508">
        <ele>1047.5999755859</ele>
        <time>2023-05-07T10:24:49Z</time>
      </trkpt>
      <trkpt lat="44.6207" lon="3.29509">
        <ele>1047.5999755859</ele>
        <time>2023-05-07T10:24:50Z</time>
      </trkpt>
      <trkpt lat="44.62074" lon="3.29515">
        <ele>1048.4000244141</ele>
        <time>2023-05-07T10:24:56Z</time>
      </trkpt>
      <trkpt lat="44.62078" lon="3.29523">
        <ele>1049.4000244141</ele>
        <time>2023-05-07T10:25:03Z</time>
      </trkpt>
      <trkpt lat="44.62083" lon="3.29534">
        <ele>1050.8000488281</ele>
        <time>2023-05-07T10:25:11Z</time>
      </trkpt>
      <trkpt lat="44.62086" lon="3.29543">
        <ele>1051.5999755859</ele>
        <time>2023-05-07T10:25:19Z</time>
      </trkpt>
      <trkpt lat="44.62091" lon="3.2955">
        <ele>1052.4000244141</ele>
        <time>2023-05-07T10:25:26Z</time>
      </trkpt>
      <trkpt lat="44.62092" lon="3.29551">
        <ele>1052.5999755859</ele>
        <time>2023-05-07T10:25:27Z</time>
      </trkpt>
      <trkpt lat="44.62093" lon="3.29553">
        <ele>1052.8000488281</ele>
        <time>2023-05-07T10:25:29Z</time>
      </trkpt>
      <trkpt lat="44.62099" lon="3.29555">
        <ele>1053.4000244141</ele>
        <time>2023-05-07T10:25:33Z</time>
      </trkpt>
      <trkpt lat="44.62108" lon="3.29561">
        <ele>1054</ele>
        <time>2023-05-07T10:25:39Z</time>
      </trkpt>
      <trkpt lat="44.62123" lon="3.29568">
        <ele>1055.4000244141</ele>
        <time>2023-05-07T10:25:48Z</time>
      </trkpt>
      <trkpt lat="44.62134" lon="3.29571">
        <ele>1056.5999755859</ele>
        <time>2023-05-07T10:25:56Z</time>
      </trkpt>
      <trkpt lat="44.62135" lon="3.29571">
        <ele>1056.8000488281</ele>
        <time>2023-05-07T10:25:57Z</time>
      </trkpt>
      <trkpt lat="44.62139" lon="3.29566">
        <ele>1057.4000244141</ele>
        <time>2023-05-07T10:26:02Z</time>
      </trkpt>
      <trkpt lat="44.6214" lon="3.29566">
        <ele>1057.4000244141</ele>
        <time>2023-05-07T10:26:03Z</time>
      </trkpt>
      <trkpt lat="44.62144" lon="3.29564">
        <ele>1058</ele>
        <time>2023-05-07T10:26:07Z</time>
      </trkpt>
      <trkpt lat="44.62149" lon="3.29561">
        <ele>1058.8000488281</ele>
        <time>2023-05-07T10:26:12Z</time>
      </trkpt>
      <trkpt lat="44.62151" lon="3.29561">
        <ele>1059.1999511719</ele>
        <time>2023-05-07T10:26:14Z</time>
      </trkpt>
      <trkpt lat="44.6216" lon="3.29559">
        <ele>1060.4000244141</ele>
        <time>2023-05-07T10:26:22Z</time>
      </trkpt>
      <trkpt lat="44.6217" lon="3.29557">
        <ele>1061.5999755859</ele>
        <time>2023-05-07T10:26:30Z</time>
      </trkpt>
      <trkpt lat="44.62181" lon="3.29555">
        <ele>1062.8000488281</ele>
        <time>2023-05-07T10:26:39Z</time>
      </trkpt>
      <trkpt lat="44.62185" lon="3.29554">
        <ele>1063.4000244141</ele>
        <time>2023-05-07T10:26:43Z</time>
      </trkpt>
      <trkpt lat="44.62189" lon="3.29554">
        <ele>1063.8000488281</ele>
        <time>2023-05-07T10:26:46Z</time>
      </trkpt>
      <trkpt lat="44.62201" lon="3.29553">
        <ele>1065</ele>
        <time>2023-05-07T10:26:55Z</time>
      </trkpt>
      <trkpt lat="44.62216" lon="3.29551">
        <ele>1066</ele>
        <time>2023-05-07T10:27:04Z</time>
      </trkpt>
      <trkpt lat="44.62227" lon="3.2955">
        <ele>1066.8000488281</ele>
        <time>2023-05-07T10:27:10Z</time>
      </trkpt>
      <trkpt lat="44.62243" lon="3.29551">
        <ele>1067.5999755859</ele>
        <time>2023-05-07T10:27:18Z</time>
      </trkpt>
      <trkpt lat="44.62259" lon="3.29555">
        <ele>1068.4000244141</ele>
        <time>2023-05-07T10:27:25Z</time>
      </trkpt>
      <trkpt lat="44.62275" lon="3.29563">
        <ele>1068.8000488281</ele>
        <time>2023-05-07T10:27:33Z</time>
      </trkpt>
      <trkpt lat="44.62289" lon="3.29569">
        <ele>1069.1999511719</ele>
        <time>2023-05-07T10:27:39Z</time>
      </trkpt>
      <trkpt lat="44.62308" lon="3.29577">
        <ele>1069.5999755859</ele>
        <time>2023-05-07T10:27:47Z</time>
      </trkpt>
      <trkpt lat="44.62328" lon="3.29586">
        <ele>1069.8000488281</ele>
        <time>2023-05-07T10:27:55Z</time>
      </trkpt>
      <trkpt lat="44.62343" lon="3.29597">
        <ele>1070</ele>
        <time>2023-05-07T10:28:01Z</time>
      </trkpt>
      <trkpt lat="44.62353" lon="3.29612">
        <ele>1070</ele>
        <time>2023-05-07T10:28:06Z</time>
      </trkpt>
      <trkpt lat="44.62365" lon="3.29644">
        <ele>1070.1999511719</ele>
        <time>2023-05-07T10:28:15Z</time>
      </trkpt>
      <trkpt lat="44.62379" lon="3.29674">
        <ele>1070.5999755859</ele>
        <time>2023-05-07T10:28:24Z</time>
      </trkpt>
      <trkpt lat="44.62395" lon="3.29697">
        <ele>1071.5999755859</ele>
        <time>2023-05-07T10:28:33Z</time>
      </trkpt>
      <trkpt lat="44.62398" lon="3.297">
        <ele>1071.8000488281</ele>
        <time>2023-05-07T10:28:35Z</time>
      </trkpt>
      <trkpt lat="44.62404" lon="3.29707">
        <ele>1072</ele>
        <time>2023-05-07T10:28:38Z</time>
      </trkpt>
      <trkpt lat="44.62415" lon="3.29715">
        <ele>1072.1999511719</ele>
        <time>2023-05-07T10:28:45Z</time>
      </trkpt>
      <trkpt lat="44.62426" lon="3.29722">
        <ele>1072.8000488281</ele>
        <time>2023-05-07T10:28:52Z</time>
      </trkpt>
      <trkpt lat="44.62432" lon="3.29726">
        <ele>1073.1999511719</ele>
        <time>2023-05-07T10:28:56Z</time>
      </trkpt>
      <trkpt lat="44.62434" lon="3.29728">
        <ele>1073.4000244141</ele>
        <time>2023-05-07T10:28:58Z</time>
      </trkpt>
      <trkpt lat="44.62446" lon="3.29739">
        <ele>1074.4000244141</ele>
        <time>2023-05-07T10:29:08Z</time>
      </trkpt>
      <trkpt lat="44.62456" lon="3.29744">
        <ele>1075.1999511719</ele>
        <time>2023-05-07T10:29:15Z</time>
      </trkpt>
      <trkpt lat="44.62467" lon="3.29748">
        <ele>1076.1999511719</ele>
        <time>2023-05-07T10:29:23Z</time>
      </trkpt>
      <trkpt lat="44.62472" lon="3.29751">
        <ele>1076.8000488281</ele>
        <time>2023-05-07T10:29:27Z</time>
      </trkpt>
      <trkpt lat="44.62474" lon="3.29752">
        <ele>1077</ele>
        <time>2023-05-07T10:29:29Z</time>
      </trkpt>
      <trkpt lat="44.6248" lon="3.29753">
        <ele>1077.5999755859</ele>
        <time>2023-05-07T10:29:33Z</time>
      </trkpt>
      <trkpt lat="44.62481" lon="3.29752">
        <ele>1077.8000488281</ele>
        <time>2023-05-07T10:29:34Z</time>
      </trkpt>
      <trkpt lat="44.62486" lon="3.29755">
        <ele>1078.5999755859</ele>
        <time>2023-05-07T10:29:38Z</time>
      </trkpt>
      <trkpt lat="44.62489" lon="3.29757">
        <ele>1078.8000488281</ele>
        <time>2023-05-07T10:29:41Z</time>
      </trkpt>
      <trkpt lat="44.62495" lon="3.29761">
        <ele>1079.5999755859</ele>
        <time>2023-05-07T10:29:47Z</time>
      </trkpt>
      <trkpt lat="44.62496" lon="3.29762">
        <ele>1079.8000488281</ele>
        <time>2023-05-07T10:29:48Z</time>
      </trkpt>
      <trkpt lat="44.62504" lon="3.29766">
        <ele>1080.4000244141</ele>
        <time>2023-05-07T10:29:55Z</time>
      </trkpt>
      <trkpt lat="44.62508" lon="3.29768">
        <ele>1080.8000488281</ele>
        <time>2023-05-07T10:29:58Z</time>
      </trkpt>
      <trkpt lat="44.62512" lon="3.29769">
        <ele>1081.1999511719</ele>
        <time>2023-05-07T10:30:02Z</time>
      </trkpt>
      <trkpt lat="44.62519" lon="3.29776">
        <ele>1082.1999511719</ele>
        <time>2023-05-07T10:30:10Z</time>
      </trkpt>
      <trkpt lat="44.62521" lon="3.29778">
        <ele>1082.4000244141</ele>
        <time>2023-05-07T10:30:12Z</time>
      </trkpt>
      <trkpt lat="44.62523" lon="3.29781">
        <ele>1083</ele>
        <time>2023-05-07T10:30:16Z</time>
      </trkpt>
      <trkpt lat="44.62528" lon="3.29786">
        <ele>1083.8000488281</ele>
        <time>2023-05-07T10:30:22Z</time>
      </trkpt>
      <trkpt lat="44.62532" lon="3.29791">
        <ele>1084.8000488281</ele>
        <time>2023-05-07T10:30:28Z</time>
      </trkpt>
      <trkpt lat="44.62538" lon="3.29797">
        <ele>1085.8000488281</ele>
        <time>2023-05-07T10:30:35Z</time>
      </trkpt>
      <trkpt lat="44.62539" lon="3.29798">
        <ele>1086</ele>
        <time>2023-05-07T10:30:36Z</time>
      </trkpt>
      <trkpt lat="44.62543" lon="3.29802">
        <ele>1086.8000488281</ele>
        <time>2023-05-07T10:30:41Z</time>
      </trkpt>
      <trkpt lat="44.62544" lon="3.29803">
        <ele>1087</ele>
        <time>2023-05-07T10:30:43Z</time>
      </trkpt>
      <trkpt lat="44.62546" lon="3.29806">
        <ele>1087.4000244141</ele>
        <time>2023-05-07T10:30:46Z</time>
      </trkpt>
      <trkpt lat="44.62551" lon="3.2981">
        <ele>1088.1999511719</ele>
        <time>2023-05-07T10:30:53Z</time>
      </trkpt>
      <trkpt lat="44.62553" lon="3.29812">
        <ele>1088.4000244141</ele>
        <time>2023-05-07T10:30:55Z</time>
      </trkpt>
      <trkpt lat="44.62558" lon="3.29817">
        <ele>1089</ele>
        <time>2023-05-07T10:31:02Z</time>
      </trkpt>
      <trkpt lat="44.62561" lon="3.2982">
        <ele>1089.5999755859</ele>
        <time>2023-05-07T10:31:07Z</time>
      </trkpt>
      <trkpt lat="44.62565" lon="3.29824">
        <ele>1090.4000244141</ele>
        <time>2023-05-07T10:31:13Z</time>
      </trkpt>
      <trkpt lat="44.62568" lon="3.29827">
        <ele>1091</ele>
        <time>2023-05-07T10:31:17Z</time>
      </trkpt>
      <trkpt lat="44.6257" lon="3.29828">
        <ele>1091.1999511719</ele>
        <time>2023-05-07T10:31:19Z</time>
      </trkpt>
      <trkpt lat="44.62577" lon="3.29833">
        <ele>1092.4000244141</ele>
        <time>2023-05-07T10:31:27Z</time>
      </trkpt>
      <trkpt lat="44.62583" lon="3.29839">
        <ele>1093.1999511719</ele>
        <time>2023-05-07T10:31:35Z</time>
      </trkpt>
      <trkpt lat="44.62584" lon="3.29841">
        <ele>1093.5999755859</ele>
        <time>2023-05-07T10:31:37Z</time>
      </trkpt>
      <trkpt lat="44.62586" lon="3.29843">
        <ele>1094</ele>
        <time>2023-05-07T10:31:40Z</time>
      </trkpt>
      <trkpt lat="44.62586" lon="3.29844">
        <ele>1094</ele>
        <time>2023-05-07T10:31:41Z</time>
      </trkpt>
      <trkpt lat="44.62593" lon="3.29849">
        <ele>1094.5999755859</ele>
        <time>2023-05-07T10:31:47Z</time>
      </trkpt>
      <trkpt lat="44.62594" lon="3.29849">
        <ele>1094.5999755859</ele>
        <time>2023-05-07T10:31:48Z</time>
      </trkpt>
      <trkpt lat="44.62599" lon="3.29852">
        <ele>1095.1999511719</ele>
        <time>2023-05-07T10:31:53Z</time>
      </trkpt>
      <trkpt lat="44.62603" lon="3.29857">
        <ele>1095.8000488281</ele>
        <time>2023-05-07T10:31:58Z</time>
      </trkpt>
      <trkpt lat="44.62608" lon="3.29861">
        <ele>1096.1999511719</ele>
        <time>2023-05-07T10:32:03Z</time>
      </trkpt>
      <trkpt lat="44.6261" lon="3.29863">
        <ele>1096.1999511719</ele>
        <time>2023-05-07T10:32:06Z</time>
      </trkpt>
      <trkpt lat="44.62612" lon="3.29864">
        <ele>1096.4000244141</ele>
        <time>2023-05-07T10:32:08Z</time>
      </trkpt>
      <trkpt lat="44.62613" lon="3.29866">
        <ele>1096.5999755859</ele>
        <time>2023-05-07T10:32:10Z</time>
      </trkpt>
      <trkpt lat="44.62616" lon="3.2987">
        <ele>1097</ele>
        <time>2023-05-07T10:32:14Z</time>
      </trkpt>
      <trkpt lat="44.62618" lon="3.29871">
        <ele>1097.1999511719</ele>
        <time>2023-05-07T10:32:16Z</time>
      </trkpt>
      <trkpt lat="44.62623" lon="3.29876">
        <ele>1097.8000488281</ele>
        <time>2023-05-07T10:32:22Z</time>
      </trkpt>
      <trkpt lat="44.62628" lon="3.2988">
        <ele>1098.5999755859</ele>
        <time>2023-05-07T10:32:28Z</time>
      </trkpt>
      <trkpt lat="44.62631" lon="3.29883">
        <ele>1099</ele>
        <time>2023-05-07T10:32:32Z</time>
      </trkpt>
      <trkpt lat="44.62634" lon="3.29885">
        <ele>1099.1999511719</ele>
        <time>2023-05-07T10:32:35Z</time>
      </trkpt>
      <trkpt lat="44.62638" lon="3.29889">
        <ele>1099.8000488281</ele>
        <time>2023-05-07T10:32:40Z</time>
      </trkpt>
      <trkpt lat="44.62643" lon="3.29893">
        <ele>1100.4000244141</ele>
        <time>2023-05-07T10:32:46Z</time>
      </trkpt>
      <trkpt lat="44.62644" lon="3.29893">
        <ele>1100.4000244141</ele>
        <time>2023-05-07T10:32:47Z</time>
      </trkpt>
      <trkpt lat="44.62649" lon="3.29897">
        <ele>1101</ele>
        <time>2023-05-07T10:32:52Z</time>
      </trkpt>
      <trkpt lat="44.62658" lon="3.29902">
        <ele>1102</ele>
        <time>2023-05-07T10:33:00Z</time>
      </trkpt>
      <trkpt lat="44.62662" lon="3.29904">
        <ele>1102.4000244141</ele>
        <time>2023-05-07T10:33:04Z</time>
      </trkpt>
      <trkpt lat="44.62665" lon="3.29904">
        <ele>1102.5999755859</ele>
        <time>2023-05-07T10:33:06Z</time>
      </trkpt>
      <trkpt lat="44.62672" lon="3.29911">
        <ele>1103.4000244141</ele>
        <time>2023-05-07T10:33:14Z</time>
      </trkpt>
      <trkpt lat="44.62674" lon="3.29921">
        <ele>1104</ele>
        <time>2023-05-07T10:33:21Z</time>
      </trkpt>
      <trkpt lat="44.62674" lon="3.29929">
        <ele>1104.5999755859</ele>
        <time>2023-05-07T10:33:28Z</time>
      </trkpt>
      <trkpt lat="44.62674" lon="3.29929">
        <ele>1105.5999755859</ele>
        <time>2023-05-07T10:33:41Z</time>
      </trkpt>
      <trkpt lat="44.62674" lon="3.29929">
        <ele>1106.5999755859</ele>
        <time>2023-05-07T10:33:57Z</time>
      </trkpt>
      <trkpt lat="44.62674" lon="3.29929">
        <ele>1107.5999755859</ele>
        <time>2023-05-07T10:34:16Z</time>
      </trkpt>
      <trkpt lat="44.62674" lon="3.29929">
        <ele>1108.1999511719</ele>
        <time>2023-05-07T10:34:30Z</time>
      </trkpt>
      <trkpt lat="44.62674" lon="3.29929">
        <ele>1108.5999755859</ele>
        <time>2023-05-07T10:34:42Z</time>
      </trkpt>
      <trkpt lat="44.62674" lon="3.29929">
        <ele>1109.5999755859</ele>
        <time>2023-05-07T10:35:03Z</time>
      </trkpt>
      <trkpt lat="44.62674" lon="3.29929">
        <ele>1110</ele>
        <time>2023-05-07T10:35:19Z</time>
      </trkpt>
      <trkpt lat="44.62674" lon="3.29929">
        <ele>1110.5999755859</ele>
        <time>2023-05-07T10:35:41Z</time>
      </trkpt>
      <trkpt lat="44.62674" lon="3.2993">
        <ele>1111.4000244141</ele>
        <time>2023-05-07T10:35:53Z</time>
      </trkpt>
      <trkpt lat="44.62674" lon="3.2993">
        <ele>1111.5999755859</ele>
        <time>2023-05-07T10:36:04Z</time>
      </trkpt>
      <trkpt lat="44.62674" lon="3.2993">
        <ele>1112</ele>
        <time>2023-05-07T10:36:15Z</time>
      </trkpt>
      <trkpt lat="44.62674" lon="3.2993">
        <ele>1112.4000244141</ele>
        <time>2023-05-07T10:36:24Z</time>
      </trkpt>
      <trkpt lat="44.62674" lon="3.2993">
        <ele>1112.8000488281</ele>
        <time>2023-05-07T10:36:38Z</time>
      </trkpt>
      <trkpt lat="44.62674" lon="3.29932">
        <ele>1113.1999511719</ele>
        <time>2023-05-07T10:36:47Z</time>
      </trkpt>
      <trkpt lat="44.62674" lon="3.29944">
        <ele>1113.8000488281</ele>
        <time>2023-05-07T10:36:53Z</time>
      </trkpt>
      <trkpt lat="44.62672" lon="3.29964">
        <ele>1114.1999511719</ele>
        <time>2023-05-07T10:37:01Z</time>
      </trkpt>
      <trkpt lat="44.6267" lon="3.29986">
        <ele>1114.5999755859</ele>
        <time>2023-05-07T10:37:09Z</time>
      </trkpt>
      <trkpt lat="44.62668" lon="3.30001">
        <ele>1114.8000488281</ele>
        <time>2023-05-07T10:37:15Z</time>
      </trkpt>
      <trkpt lat="44.62664" lon="3.30022">
        <ele>1115.1999511719</ele>
        <time>2023-05-07T10:37:23Z</time>
      </trkpt>
      <trkpt lat="44.62661" lon="3.30033">
        <ele>1115</ele>
        <time>2023-05-07T10:37:28Z</time>
      </trkpt>
      <trkpt lat="44.62661" lon="3.30035">
        <ele>1115</ele>
        <time>2023-05-07T10:37:29Z</time>
      </trkpt>
      <trkpt lat="44.62661" lon="3.30046">
        <ele>1115.1999511719</ele>
        <time>2023-05-07T10:37:33Z</time>
      </trkpt>
      <trkpt lat="44.62659" lon="3.30066">
        <ele>1115.5999755859</ele>
        <time>2023-05-07T10:37:41Z</time>
      </trkpt>
      <trkpt lat="44.62658" lon="3.30074">
        <ele>1115.8000488281</ele>
        <time>2023-05-07T10:37:44Z</time>
      </trkpt>
      <trkpt lat="44.62658" lon="3.30081">
        <ele>1116</ele>
        <time>2023-05-07T10:37:47Z</time>
      </trkpt>
      <trkpt lat="44.62659" lon="3.30093">
        <ele>1116.1999511719</ele>
        <time>2023-05-07T10:37:52Z</time>
      </trkpt>
      <trkpt lat="44.6266" lon="3.30099">
        <ele>1116.1999511719</ele>
        <time>2023-05-07T10:37:55Z</time>
      </trkpt>
      <trkpt lat="44.62661" lon="3.30104">
        <ele>1116.4000244141</ele>
        <time>2023-05-07T10:37:57Z</time>
      </trkpt>
      <trkpt lat="44.62666" lon="3.30121">
        <ele>1116.8000488281</ele>
        <time>2023-05-07T10:38:05Z</time>
      </trkpt>
      <trkpt lat="44.62669" lon="3.30132">
        <ele>1117.1999511719</ele>
        <time>2023-05-07T10:38:10Z</time>
      </trkpt>
      <trkpt lat="44.62675" lon="3.30146">
        <ele>1117.5999755859</ele>
        <time>2023-05-07T10:38:16Z</time>
      </trkpt>
      <trkpt lat="44.62677" lon="3.30148">
        <ele>1117.5999755859</ele>
        <time>2023-05-07T10:38:17Z</time>
      </trkpt>
      <trkpt lat="44.62677" lon="3.30151">
        <ele>1117.5999755859</ele>
        <time>2023-05-07T10:38:18Z</time>
      </trkpt>
      <trkpt lat="44.62681" lon="3.30161">
        <ele>1117.5999755859</ele>
        <time>2023-05-07T10:38:22Z</time>
      </trkpt>
      <trkpt lat="44.62689" lon="3.30181">
        <ele>1118</ele>
        <time>2023-05-07T10:38:30Z</time>
      </trkpt>
      <trkpt lat="44.62695" lon="3.30199">
        <ele>1118.1999511719</ele>
        <time>2023-05-07T10:38:37Z</time>
      </trkpt>
      <trkpt lat="44.62695" lon="3.30201">
        <ele>1118.4000244141</ele>
        <time>2023-05-07T10:38:38Z</time>
      </trkpt>
      <trkpt lat="44.62702" lon="3.30226">
        <ele>1119.1999511719</ele>
        <time>2023-05-07T10:38:48Z</time>
      </trkpt>
      <trkpt lat="44.62706" lon="3.30245">
        <ele>1120</ele>
        <time>2023-05-07T10:38:56Z</time>
      </trkpt>
      <trkpt lat="44.62709" lon="3.30264">
        <ele>1120.4000244141</ele>
        <time>2023-05-07T10:39:04Z</time>
      </trkpt>
      <trkpt lat="44.62712" lon="3.30282">
        <ele>1121</ele>
        <time>2023-05-07T10:39:11Z</time>
      </trkpt>
      <trkpt lat="44.62715" lon="3.30306">
        <ele>1121.4000244141</ele>
        <time>2023-05-07T10:39:19Z</time>
      </trkpt>
      <trkpt lat="44.62717" lon="3.30332">
        <ele>1121.4000244141</ele>
        <time>2023-05-07T10:39:25Z</time>
      </trkpt>
      <trkpt lat="44.62715" lon="3.30354">
        <ele>1121.4000244141</ele>
        <time>2023-05-07T10:39:30Z</time>
      </trkpt>
      <trkpt lat="44.62708" lon="3.30388">
        <ele>1121.1999511719</ele>
        <time>2023-05-07T10:39:36Z</time>
      </trkpt>
      <trkpt lat="44.62701" lon="3.30424">
        <ele>1121</ele>
        <time>2023-05-07T10:39:41Z</time>
      </trkpt>
      <trkpt lat="44.62697" lon="3.30458">
        <ele>1120.8000488281</ele>
        <time>2023-05-07T10:39:45Z</time>
      </trkpt>
      <trkpt lat="44.62687" lon="3.30505">
        <ele>1120.4000244141</ele>
        <time>2023-05-07T10:39:50Z</time>
      </trkpt>
      <trkpt lat="44.62685" lon="3.30555">
        <ele>1119.8000488281</ele>
        <time>2023-05-07T10:39:55Z</time>
      </trkpt>
      <trkpt lat="44.62686" lon="3.30564">
        <ele>1119.5999755859</ele>
        <time>2023-05-07T10:39:56Z</time>
      </trkpt>
      <trkpt lat="44.62691" lon="3.30591">
        <ele>1119.4000244141</ele>
        <time>2023-05-07T10:40:00Z</time>
      </trkpt>
      <trkpt lat="44.62695" lon="3.30611">
        <ele>1118.8000488281</ele>
        <time>2023-05-07T10:40:05Z</time>
      </trkpt>
      <trkpt lat="44.62699" lon="3.30629">
        <ele>1118</ele>
        <time>2023-05-07T10:40:09Z</time>
      </trkpt>
      <trkpt lat="44.62708" lon="3.30657">
        <ele>1117.1999511719</ele>
        <time>2023-05-07T10:40:14Z</time>
      </trkpt>
      <trkpt lat="44.62711" lon="3.30662">
        <ele>1117</ele>
        <time>2023-05-07T10:40:15Z</time>
      </trkpt>
      <trkpt lat="44.62714" lon="3.30674">
        <ele>1116.5999755859</ele>
        <time>2023-05-07T10:40:17Z</time>
      </trkpt>
      <trkpt lat="44.6273" lon="3.30712">
        <ele>1116.4000244141</ele>
        <time>2023-05-07T10:40:25Z</time>
      </trkpt>
      <trkpt lat="44.62744" lon="3.30736">
        <ele>1116.4000244141</ele>
        <time>2023-05-07T10:40:32Z</time>
      </trkpt>
      <trkpt lat="44.62764" lon="3.3077">
        <ele>1116.1999511719</ele>
        <time>2023-05-07T10:40:42Z</time>
      </trkpt>
      <trkpt lat="44.62789" lon="3.30811">
        <ele>1116.1999511719</ele>
        <time>2023-05-07T10:40:53Z</time>
      </trkpt>
      <trkpt lat="44.62803" lon="3.30835">
        <ele>1116.1999511719</ele>
        <time>2023-05-07T10:40:59Z</time>
      </trkpt>
      <trkpt lat="44.62818" lon="3.30865">
        <ele>1116.4000244141</ele>
        <time>2023-05-07T10:41:06Z</time>
      </trkpt>
      <trkpt lat="44.62828" lon="3.30886">
        <ele>1116.4000244141</ele>
        <time>2023-05-07T10:41:11Z</time>
      </trkpt>
      <trkpt lat="44.62844" lon="3.309">
        <ele>1116.1999511719</ele>
        <time>2023-05-07T10:41:16Z</time>
      </trkpt>
      <trkpt lat="44.62866" lon="3.30917">
        <ele>1116</ele>
        <time>2023-05-07T10:41:22Z</time>
      </trkpt>
      <trkpt lat="44.62873" lon="3.30922">
        <ele>1116</ele>
        <time>2023-05-07T10:41:24Z</time>
      </trkpt>
      <trkpt lat="44.62889" lon="3.30932">
        <ele>1116</ele>
        <time>2023-05-07T10:41:28Z</time>
      </trkpt>
      <trkpt lat="44.62915" lon="3.30951">
        <ele>1115.8000488281</ele>
        <time>2023-05-07T10:41:35Z</time>
      </trkpt>
      <trkpt lat="44.62941" lon="3.30969">
        <ele>1115.8000488281</ele>
        <time>2023-05-07T10:41:42Z</time>
      </trkpt>
      <trkpt lat="44.62945" lon="3.30971">
        <ele>1115.5999755859</ele>
        <time>2023-05-07T10:41:43Z</time>
      </trkpt>
      <trkpt lat="44.62964" lon="3.30985">
        <ele>1115.4000244141</ele>
        <time>2023-05-07T10:41:48Z</time>
      </trkpt>
      <trkpt lat="44.62981" lon="3.31004">
        <ele>1114.8000488281</ele>
        <time>2023-05-07T10:41:53Z</time>
      </trkpt>
      <trkpt lat="44.62985" lon="3.31008">
        <ele>1114.8000488281</ele>
        <time>2023-05-07T10:41:54Z</time>
      </trkpt>
      <trkpt lat="44.62997" lon="3.3102">
        <ele>1114.4000244141</ele>
        <time>2023-05-07T10:41:57Z</time>
      </trkpt>
      <trkpt lat="44.63001" lon="3.31025">
        <ele>1114.4000244141</ele>
        <time>2023-05-07T10:41:58Z</time>
      </trkpt>
      <trkpt lat="44.63012" lon="3.31038">
        <ele>1114.1999511719</ele>
        <time>2023-05-07T10:42:01Z</time>
      </trkpt>
      <trkpt lat="44.63021" lon="3.31046">
        <ele>1114</ele>
        <time>2023-05-07T10:42:03Z</time>
      </trkpt>
      <trkpt lat="44.63027" lon="3.31055">
        <ele>1113.8000488281</ele>
        <time>2023-05-07T10:42:05Z</time>
      </trkpt>
      <trkpt lat="44.63032" lon="3.3106">
        <ele>1113.8000488281</ele>
        <time>2023-05-07T10:42:06Z</time>
      </trkpt>
      <trkpt lat="44.63035" lon="3.31064">
        <ele>1113.5999755859</ele>
        <time>2023-05-07T10:42:07Z</time>
      </trkpt>
      <trkpt lat="44.63043" lon="3.31073">
        <ele>1113.4000244141</ele>
        <time>2023-05-07T10:42:09Z</time>
      </trkpt>
      <trkpt lat="44.63057" lon="3.31092">
        <ele>1113.1999511719</ele>
        <time>2023-05-07T10:42:13Z</time>
      </trkpt>
      <trkpt lat="44.6307" lon="3.31112">
        <ele>1112.8000488281</ele>
        <time>2023-05-07T10:42:17Z</time>
      </trkpt>
      <trkpt lat="44.63084" lon="3.31133">
        <ele>1112.1999511719</ele>
        <time>2023-05-07T10:42:21Z</time>
      </trkpt>
      <trkpt lat="44.63095" lon="3.31147">
        <ele>1111.5999755859</ele>
        <time>2023-05-07T10:42:24Z</time>
      </trkpt>
      <trkpt lat="44.63098" lon="3.31152">
        <ele>1111.4000244141</ele>
        <time>2023-05-07T10:42:25Z</time>
      </trkpt>
      <trkpt lat="44.6312" lon="3.31184">
        <ele>1110.4000244141</ele>
        <time>2023-05-07T10:42:30Z</time>
      </trkpt>
      <trkpt lat="44.63134" lon="3.31201">
        <ele>1109.8000488281</ele>
        <time>2023-05-07T10:42:33Z</time>
      </trkpt>
      <trkpt lat="44.63144" lon="3.31211">
        <ele>1109.5999755859</ele>
        <time>2023-05-07T10:42:35Z</time>
      </trkpt>
      <trkpt lat="44.63168" lon="3.31242">
        <ele>1108.8000488281</ele>
        <time>2023-05-07T10:42:40Z</time>
      </trkpt>
      <trkpt lat="44.63202" lon="3.31286">
        <ele>1107.5999755859</ele>
        <time>2023-05-07T10:42:47Z</time>
      </trkpt>
      <trkpt lat="44.63238" lon="3.3133">
        <ele>1106.5999755859</ele>
        <time>2023-05-07T10:42:54Z</time>
      </trkpt>
      <trkpt lat="44.63273" lon="3.3137">
        <ele>1105.5999755859</ele>
        <time>2023-05-07T10:43:01Z</time>
      </trkpt>
      <trkpt lat="44.63286" lon="3.31387">
        <ele>1105.4000244141</ele>
        <time>2023-05-07T10:43:04Z</time>
      </trkpt>
      <trkpt lat="44.63293" lon="3.31397">
        <ele>1105.1999511719</ele>
        <time>2023-05-07T10:43:06Z</time>
      </trkpt>
      <trkpt lat="44.63322" lon="3.31437">
        <ele>1104.4000244141</ele>
        <time>2023-05-07T10:43:14Z</time>
      </trkpt>
      <trkpt lat="44.63334" lon="3.31455">
        <ele>1104</ele>
        <time>2023-05-07T10:43:18Z</time>
      </trkpt>
      <trkpt lat="44.63337" lon="3.3146">
        <ele>1104</ele>
        <time>2023-05-07T10:43:19Z</time>
      </trkpt>
      <trkpt lat="44.63355" lon="3.31486">
        <ele>1103.1999511719</ele>
        <time>2023-05-07T10:43:25Z</time>
      </trkpt>
      <trkpt lat="44.63364" lon="3.31506">
        <ele>1102.8000488281</ele>
        <time>2023-05-07T10:43:29Z</time>
      </trkpt>
      <trkpt lat="44.6337" lon="3.31514">
        <ele>1102.4000244141</ele>
        <time>2023-05-07T10:43:31Z</time>
      </trkpt>
      <trkpt lat="44.63377" lon="3.31524">
        <ele>1102.1999511719</ele>
        <time>2023-05-07T10:43:33Z</time>
      </trkpt>
      <trkpt lat="44.63381" lon="3.31528">
        <ele>1102</ele>
        <time>2023-05-07T10:43:34Z</time>
      </trkpt>
      <trkpt lat="44.63394" lon="3.31547">
        <ele>1101.5999755859</ele>
        <time>2023-05-07T10:43:38Z</time>
      </trkpt>
      <trkpt lat="44.63409" lon="3.31573">
        <ele>1100.8000488281</ele>
        <time>2023-05-07T10:43:43Z</time>
      </trkpt>
      <trkpt lat="44.63413" lon="3.31578">
        <ele>1100.5999755859</ele>
        <time>2023-05-07T10:43:44Z</time>
      </trkpt>
      <trkpt lat="44.63419" lon="3.3159">
        <ele>1100.4000244141</ele>
        <time>2023-05-07T10:43:46Z</time>
      </trkpt>
      <trkpt lat="44.6343" lon="3.31605">
        <ele>1099.8000488281</ele>
        <time>2023-05-07T10:43:49Z</time>
      </trkpt>
      <trkpt lat="44.63441" lon="3.31618">
        <ele>1099.8000488281</ele>
        <time>2023-05-07T10:43:52Z</time>
      </trkpt>
      <trkpt lat="44.63453" lon="3.31632">
        <ele>1099.5999755859</ele>
        <time>2023-05-07T10:43:55Z</time>
      </trkpt>
      <trkpt lat="44.63459" lon="3.3164">
        <ele>1099.5999755859</ele>
        <time>2023-05-07T10:43:57Z</time>
      </trkpt>
      <trkpt lat="44.63471" lon="3.31661">
        <ele>1099</ele>
        <time>2023-05-07T10:44:01Z</time>
      </trkpt>
      <trkpt lat="44.63497" lon="3.317">
        <ele>1098.8000488281</ele>
        <time>2023-05-07T10:44:08Z</time>
      </trkpt>
      <trkpt lat="44.63522" lon="3.31744">
        <ele>1098.8000488281</ele>
        <time>2023-05-07T10:44:16Z</time>
      </trkpt>
      <trkpt lat="44.63544" lon="3.31782">
        <ele>1098.5999755859</ele>
        <time>2023-05-07T10:44:23Z</time>
      </trkpt>
      <trkpt lat="44.63568" lon="3.31827">
        <ele>1098.8000488281</ele>
        <time>2023-05-07T10:44:31Z</time>
      </trkpt>
      <trkpt lat="44.63582" lon="3.31854">
        <ele>1098.8000488281</ele>
        <time>2023-05-07T10:44:36Z</time>
      </trkpt>
      <trkpt lat="44.63586" lon="3.31858">
        <ele>1098.5999755859</ele>
        <time>2023-05-07T10:44:37Z</time>
      </trkpt>
      <trkpt lat="44.6359" lon="3.31861">
        <ele>1098.5999755859</ele>
        <time>2023-05-07T10:44:38Z</time>
      </trkpt>
      <trkpt lat="44.63599" lon="3.31864">
        <ele>1098.5999755859</ele>
        <time>2023-05-07T10:44:40Z</time>
      </trkpt>
      <trkpt lat="44.63616" lon="3.31869">
        <ele>1098.5999755859</ele>
        <time>2023-05-07T10:44:44Z</time>
      </trkpt>
      <trkpt lat="44.63623" lon="3.31871">
        <ele>1098.5999755859</ele>
        <time>2023-05-07T10:44:46Z</time>
      </trkpt>
      <trkpt lat="44.63655" lon="3.31883">
        <ele>1098.5999755859</ele>
        <time>2023-05-07T10:44:54Z</time>
      </trkpt>
      <trkpt lat="44.63671" lon="3.31891">
        <ele>1098.5999755859</ele>
        <time>2023-05-07T10:44:58Z</time>
      </trkpt>
      <trkpt lat="44.63678" lon="3.31897">
        <ele>1098.4000244141</ele>
        <time>2023-05-07T10:45:00Z</time>
      </trkpt>
      <trkpt lat="44.63703" lon="3.31918">
        <ele>1098.4000244141</ele>
        <time>2023-05-07T10:45:07Z</time>
      </trkpt>
      <trkpt lat="44.63713" lon="3.31926">
        <ele>1098.4000244141</ele>
        <time>2023-05-07T10:45:10Z</time>
      </trkpt>
      <trkpt lat="44.63719" lon="3.31929">
        <ele>1098.4000244141</ele>
        <time>2023-05-07T10:45:12Z</time>
      </trkpt>
      <trkpt lat="44.63729" lon="3.31938">
        <ele>1098.4000244141</ele>
        <time>2023-05-07T10:45:16Z</time>
      </trkpt>
      <trkpt lat="44.63731" lon="3.31941">
        <ele>1098.4000244141</ele>
        <time>2023-05-07T10:45:17Z</time>
      </trkpt>
      <trkpt lat="44.63746" lon="3.31954">
        <ele>1098.1999511719</ele>
        <time>2023-05-07T10:45:23Z</time>
      </trkpt>
      <trkpt lat="44.63758" lon="3.31965">
        <ele>1098.1999511719</ele>
        <time>2023-05-07T10:45:29Z</time>
      </trkpt>
      <trkpt lat="44.63765" lon="3.31972">
        <ele>1098.1999511719</ele>
        <time>2023-05-07T10:45:33Z</time>
      </trkpt>
      <trkpt lat="44.63768" lon="3.31973">
        <ele>1098.4000244141</ele>
        <time>2023-05-07T10:45:34Z</time>
      </trkpt>
      <trkpt lat="44.63771" lon="3.31977">
        <ele>1098.5999755859</ele>
        <time>2023-05-07T10:45:36Z</time>
      </trkpt>
      <trkpt lat="44.63774" lon="3.31981">
        <ele>1098.5999755859</ele>
        <time>2023-05-07T10:45:38Z</time>
      </trkpt>
      <trkpt lat="44.63776" lon="3.31983">
        <ele>1098.8000488281</ele>
        <time>2023-05-07T10:45:39Z</time>
      </trkpt>
      <trkpt lat="44.63784" lon="3.31993">
        <ele>1098.8000488281</ele>
        <time>2023-05-07T10:45:42Z</time>
      </trkpt>
      <trkpt lat="44.63792" lon="3.32002">
        <ele>1098.5999755859</ele>
        <time>2023-05-07T10:45:45Z</time>
      </trkpt>
      <trkpt lat="44.63793" lon="3.32005">
        <ele>1098.5999755859</ele>
        <time>2023-05-07T10:45:46Z</time>
      </trkpt>
      <trkpt lat="44.63797" lon="3.32012">
        <ele>1098.4000244141</ele>
        <time>2023-05-07T10:45:48Z</time>
      </trkpt>
      <trkpt lat="44.63799" lon="3.32015">
        <ele>1098.4000244141</ele>
        <time>2023-05-07T10:45:49Z</time>
      </trkpt>
      <trkpt lat="44.63816" lon="3.3203">
        <ele>1097.8000488281</ele>
        <time>2023-05-07T10:45:53Z</time>
      </trkpt>
      <trkpt lat="44.63832" lon="3.32044">
        <ele>1097.8000488281</ele>
        <time>2023-05-07T10:45:57Z</time>
      </trkpt>
      <trkpt lat="44.63835" lon="3.32047">
        <ele>1097.5999755859</ele>
        <time>2023-05-07T10:45:58Z</time>
      </trkpt>
      <trkpt lat="44.6385" lon="3.32061">
        <ele>1097.8000488281</ele>
        <time>2023-05-07T10:46:03Z</time>
      </trkpt>
      <trkpt lat="44.63869" lon="3.32065">
        <ele>1098.4000244141</ele>
        <time>2023-05-07T10:46:08Z</time>
      </trkpt>
      <trkpt lat="44.63887" lon="3.32068">
        <ele>1098.5999755859</ele>
        <time>2023-05-07T10:46:13Z</time>
      </trkpt>
      <trkpt lat="44.639" lon="3.32065">
        <ele>1098.8000488281</ele>
        <time>2023-05-07T10:46:16Z</time>
      </trkpt>
      <trkpt lat="44.63903" lon="3.32062">
        <ele>1098.8000488281</ele>
        <time>2023-05-07T10:46:17Z</time>
      </trkpt>
      <trkpt lat="44.63907" lon="3.3206">
        <ele>1098.8000488281</ele>
        <time>2023-05-07T10:46:18Z</time>
      </trkpt>
      <trkpt lat="44.6392" lon="3.32055">
        <ele>1098.8000488281</ele>
        <time>2023-05-07T10:46:21Z</time>
      </trkpt>
      <trkpt lat="44.63933" lon="3.32046">
        <ele>1098.8000488281</ele>
        <time>2023-05-07T10:46:24Z</time>
      </trkpt>
      <trkpt lat="44.63936" lon="3.32041">
        <ele>1098.8000488281</ele>
        <time>2023-05-07T10:46:25Z</time>
      </trkpt>
      <trkpt lat="44.6394" lon="3.32037">
        <ele>1098.8000488281</ele>
        <time>2023-05-07T10:46:26Z</time>
      </trkpt>
      <trkpt lat="44.63952" lon="3.32019">
        <ele>1098.8000488281</ele>
        <time>2023-05-07T10:46:30Z</time>
      </trkpt>
      <trkpt lat="44.63955" lon="3.32014">
        <ele>1099</ele>
        <time>2023-05-07T10:46:31Z</time>
      </trkpt>
      <trkpt lat="44.63962" lon="3.32004">
        <ele>1098.8000488281</ele>
        <time>2023-05-07T10:46:33Z</time>
      </trkpt>
      <trkpt lat="44.63965" lon="3.32">
        <ele>1098.8000488281</ele>
        <time>2023-05-07T10:46:34Z</time>
      </trkpt>
      <trkpt lat="44.63968" lon="3.31996">
        <ele>1099</ele>
        <time>2023-05-07T10:46:35Z</time>
      </trkpt>
      <trkpt lat="44.63985" lon="3.31977">
        <ele>1099.1999511719</ele>
        <time>2023-05-07T10:46:40Z</time>
      </trkpt>
      <trkpt lat="44.64006" lon="3.31956">
        <ele>1099.4000244141</ele>
        <time>2023-05-07T10:46:47Z</time>
      </trkpt>
      <trkpt lat="44.64018" lon="3.31942">
        <ele>1099.4000244141</ele>
        <time>2023-05-07T10:46:51Z</time>
      </trkpt>
      <trkpt lat="44.64031" lon="3.31922">
        <ele>1099.5999755859</ele>
        <time>2023-05-07T10:46:56Z</time>
      </trkpt>
      <trkpt lat="44.64042" lon="3.31903">
        <ele>1099.8000488281</ele>
        <time>2023-05-07T10:47:01Z</time>
      </trkpt>
      <trkpt lat="44.64045" lon="3.31899">
        <ele>1099.8000488281</ele>
        <time>2023-05-07T10:47:02Z</time>
      </trkpt>
      <trkpt lat="44.64055" lon="3.3189">
        <ele>1100</ele>
        <time>2023-05-07T10:47:05Z</time>
      </trkpt>
      <trkpt lat="44.64072" lon="3.3188">
        <ele>1100.1999511719</ele>
        <time>2023-05-07T10:47:10Z</time>
      </trkpt>
      <trkpt lat="44.64085" lon="3.31868">
        <ele>1100.5999755859</ele>
        <time>2023-05-07T10:47:14Z</time>
      </trkpt>
      <trkpt lat="44.641" lon="3.31862">
        <ele>1100.5999755859</ele>
        <time>2023-05-07T10:47:19Z</time>
      </trkpt>
      <trkpt lat="44.64112" lon="3.31853">
        <ele>1100.8000488281</ele>
        <time>2023-05-07T10:47:23Z</time>
      </trkpt>
      <trkpt lat="44.64137" lon="3.3184">
        <ele>1100.8000488281</ele>
        <time>2023-05-07T10:47:29Z</time>
      </trkpt>
      <trkpt lat="44.64141" lon="3.31839">
        <ele>1100.8000488281</ele>
        <time>2023-05-07T10:47:30Z</time>
      </trkpt>
      <trkpt lat="44.64149" lon="3.31841">
        <ele>1100.5999755859</ele>
        <time>2023-05-07T10:47:32Z</time>
      </trkpt>
      <trkpt lat="44.64159" lon="3.31844">
        <ele>1100.5999755859</ele>
        <time>2023-05-07T10:47:34Z</time>
      </trkpt>
      <trkpt lat="44.64169" lon="3.31842">
        <ele>1100.5999755859</ele>
        <time>2023-05-07T10:47:36Z</time>
      </trkpt>
      <trkpt lat="44.64199" lon="3.3183">
        <ele>1100.8000488281</ele>
        <time>2023-05-07T10:47:43Z</time>
      </trkpt>
      <trkpt lat="44.6422" lon="3.31826">
        <ele>1101.1999511719</ele>
        <time>2023-05-07T10:47:49Z</time>
      </trkpt>
      <trkpt lat="44.64242" lon="3.31823">
        <ele>1101.4000244141</ele>
        <time>2023-05-07T10:47:55Z</time>
      </trkpt>
      <trkpt lat="44.6426" lon="3.31821">
        <ele>1101.5999755859</ele>
        <time>2023-05-07T10:48:00Z</time>
      </trkpt>
      <trkpt lat="44.64286" lon="3.31817">
        <ele>1101.5999755859</ele>
        <time>2023-05-07T10:48:07Z</time>
      </trkpt>
      <trkpt lat="44.64308" lon="3.31805">
        <ele>1101.8000488281</ele>
        <time>2023-05-07T10:48:13Z</time>
      </trkpt>
      <trkpt lat="44.64332" lon="3.31789">
        <ele>1101.8000488281</ele>
        <time>2023-05-07T10:48:19Z</time>
      </trkpt>
      <trkpt lat="44.64335" lon="3.31786">
        <ele>1101.8000488281</ele>
        <time>2023-05-07T10:48:20Z</time>
      </trkpt>
      <trkpt lat="44.64349" lon="3.31774">
        <ele>1101.8000488281</ele>
        <time>2023-05-07T10:48:24Z</time>
      </trkpt>
      <trkpt lat="44.64352" lon="3.31771">
        <ele>1101.8000488281</ele>
        <time>2023-05-07T10:48:25Z</time>
      </trkpt>
      <trkpt lat="44.64366" lon="3.31761">
        <ele>1101.8000488281</ele>
        <time>2023-05-07T10:48:29Z</time>
      </trkpt>
      <trkpt lat="44.64384" lon="3.31747">
        <ele>1102.1999511719</ele>
        <time>2023-05-07T10:48:35Z</time>
      </trkpt>
      <trkpt lat="44.64404" lon="3.31732">
        <ele>1102.5999755859</ele>
        <time>2023-05-07T10:48:42Z</time>
      </trkpt>
      <trkpt lat="44.64423" lon="3.31721">
        <ele>1102.8000488281</ele>
        <time>2023-05-07T10:48:48Z</time>
      </trkpt>
      <trkpt lat="44.64445" lon="3.31703">
        <ele>1103</ele>
        <time>2023-05-07T10:48:55Z</time>
      </trkpt>
      <trkpt lat="44.6446" lon="3.31678">
        <ele>1103.1999511719</ele>
        <time>2023-05-07T10:49:01Z</time>
      </trkpt>
      <trkpt lat="44.6447" lon="3.31656">
        <ele>1103.1999511719</ele>
        <time>2023-05-07T10:49:06Z</time>
      </trkpt>
      <trkpt lat="44.64479" lon="3.31632">
        <ele>1103.5999755859</ele>
        <time>2023-05-07T10:49:11Z</time>
      </trkpt>
      <trkpt lat="44.64492" lon="3.31597">
        <ele>1103.5999755859</ele>
        <time>2023-05-07T10:49:17Z</time>
      </trkpt>
      <trkpt lat="44.64497" lon="3.31585">
        <ele>1103.5999755859</ele>
        <time>2023-05-07T10:49:19Z</time>
      </trkpt>
      <trkpt lat="44.64505" lon="3.31565">
        <ele>1103.5999755859</ele>
        <time>2023-05-07T10:49:22Z</time>
      </trkpt>
      <trkpt lat="44.64512" lon="3.31544">
        <ele>1103.5999755859</ele>
        <time>2023-05-07T10:49:25Z</time>
      </trkpt>
      <trkpt lat="44.64514" lon="3.31529">
        <ele>1103.5999755859</ele>
        <time>2023-05-07T10:49:27Z</time>
      </trkpt>
      <trkpt lat="44.64517" lon="3.31513">
        <ele>1103.4000244141</ele>
        <time>2023-05-07T10:49:29Z</time>
      </trkpt>
      <trkpt lat="44.64518" lon="3.31498">
        <ele>1103.4000244141</ele>
        <time>2023-05-07T10:49:31Z</time>
      </trkpt>
      <trkpt lat="44.64518" lon="3.3149">
        <ele>1103.1999511719</ele>
        <time>2023-05-07T10:49:32Z</time>
      </trkpt>
      <trkpt lat="44.64519" lon="3.31483">
        <ele>1103.1999511719</ele>
        <time>2023-05-07T10:49:33Z</time>
      </trkpt>
      <trkpt lat="44.6452" lon="3.31469">
        <ele>1102.8000488281</ele>
        <time>2023-05-07T10:49:35Z</time>
      </trkpt>
      <trkpt lat="44.64519" lon="3.31446">
        <ele>1102.4000244141</ele>
        <time>2023-05-07T10:49:38Z</time>
      </trkpt>
      <trkpt lat="44.64514" lon="3.31425">
        <ele>1102.1999511719</ele>
        <time>2023-05-07T10:49:41Z</time>
      </trkpt>
      <trkpt lat="44.64511" lon="3.31409">
        <ele>1102</ele>
        <time>2023-05-07T10:49:43Z</time>
      </trkpt>
      <trkpt lat="44.64511" lon="3.31393">
        <ele>1101.5999755859</ele>
        <time>2023-05-07T10:49:45Z</time>
      </trkpt>
      <trkpt lat="44.64515" lon="3.31376">
        <ele>1101.4000244141</ele>
        <time>2023-05-07T10:49:47Z</time>
      </trkpt>
      <trkpt lat="44.64519" lon="3.31367">
        <ele>1101.1999511719</ele>
        <time>2023-05-07T10:49:48Z</time>
      </trkpt>
      <trkpt lat="44.64546" lon="3.31323">
        <ele>1099.8000488281</ele>
        <time>2023-05-07T10:49:53Z</time>
      </trkpt>
      <trkpt lat="44.64564" lon="3.31298">
        <ele>1099.1999511719</ele>
        <time>2023-05-07T10:49:56Z</time>
      </trkpt>
      <trkpt lat="44.64578" lon="3.31285">
        <ele>1098.8000488281</ele>
        <time>2023-05-07T10:49:58Z</time>
      </trkpt>
      <trkpt lat="44.64592" lon="3.31271">
        <ele>1098.4000244141</ele>
        <time>2023-05-07T10:50:00Z</time>
      </trkpt>
      <trkpt lat="44.64604" lon="3.31256">
        <ele>1098</ele>
        <time>2023-05-07T10:50:02Z</time>
      </trkpt>
      <trkpt lat="44.64641" lon="3.312">
        <ele>1096.8000488281</ele>
        <time>2023-05-07T10:50:09Z</time>
      </trkpt>
      <trkpt lat="44.64645" lon="3.31192">
        <ele>1096.5999755859</ele>
        <time>2023-05-07T10:50:10Z</time>
      </trkpt>
      <trkpt lat="44.64673" lon="3.31153">
        <ele>1095.5999755859</ele>
        <time>2023-05-07T10:50:16Z</time>
      </trkpt>
      <trkpt lat="44.64693" lon="3.31122">
        <ele>1095.1999511719</ele>
        <time>2023-05-07T10:50:22Z</time>
      </trkpt>
      <trkpt lat="44.64699" lon="3.31111">
        <ele>1095</ele>
        <time>2023-05-07T10:50:24Z</time>
      </trkpt>
      <trkpt lat="44.64714" lon="3.31081">
        <ele>1094.4000244141</ele>
        <time>2023-05-07T10:50:29Z</time>
      </trkpt>
      <trkpt lat="44.64736" lon="3.31033">
        <ele>1094.1999511719</ele>
        <time>2023-05-07T10:50:36Z</time>
      </trkpt>
      <trkpt lat="44.64762" lon="3.30999">
        <ele>1093.8000488281</ele>
        <time>2023-05-07T10:50:42Z</time>
      </trkpt>
      <trkpt lat="44.64805" lon="3.30945">
        <ele>1093</ele>
        <time>2023-05-07T10:50:51Z</time>
      </trkpt>
      <trkpt lat="44.6485" lon="3.30893">
        <ele>1092.1999511719</ele>
        <time>2023-05-07T10:51:00Z</time>
      </trkpt>
      <trkpt lat="44.64885" lon="3.30862">
        <ele>1091.8000488281</ele>
        <time>2023-05-07T10:51:07Z</time>
      </trkpt>
      <trkpt lat="44.64891" lon="3.3086">
        <ele>1091.5999755859</ele>
        <time>2023-05-07T10:51:08Z</time>
      </trkpt>
      <trkpt lat="44.64921" lon="3.3085">
        <ele>1091.1999511719</ele>
        <time>2023-05-07T10:51:12Z</time>
      </trkpt>
      <trkpt lat="44.64945" lon="3.30836">
        <ele>1090.8000488281</ele>
        <time>2023-05-07T10:51:15Z</time>
      </trkpt>
      <trkpt lat="44.64959" lon="3.30829">
        <ele>1090.4000244141</ele>
        <time>2023-05-07T10:51:17Z</time>
      </trkpt>
      <trkpt lat="44.64967" lon="3.30827">
        <ele>1090.1999511719</ele>
        <time>2023-05-07T10:51:18Z</time>
      </trkpt>
      <trkpt lat="44.6501" lon="3.30813">
        <ele>1089</ele>
        <time>2023-05-07T10:51:23Z</time>
      </trkpt>
      <trkpt lat="44.65043" lon="3.30786">
        <ele>1088</ele>
        <time>2023-05-07T10:51:27Z</time>
      </trkpt>
      <trkpt lat="44.6505" lon="3.30778">
        <ele>1087.8000488281</ele>
        <time>2023-05-07T10:51:28Z</time>
      </trkpt>
      <trkpt lat="44.65096" lon="3.30725">
        <ele>1086.4000244141</ele>
        <time>2023-05-07T10:51:35Z</time>
      </trkpt>
      <trkpt lat="44.65108" lon="3.30711">
        <ele>1086</ele>
        <time>2023-05-07T10:51:37Z</time>
      </trkpt>
      <trkpt lat="44.65145" lon="3.30672">
        <ele>1084.8000488281</ele>
        <time>2023-05-07T10:51:43Z</time>
      </trkpt>
      <trkpt lat="44.6516" lon="3.30665">
        <ele>1084.5999755859</ele>
        <time>2023-05-07T10:51:45Z</time>
      </trkpt>
      <trkpt lat="44.65168" lon="3.30664">
        <ele>1084.4000244141</ele>
        <time>2023-05-07T10:51:46Z</time>
      </trkpt>
      <trkpt lat="44.65218" lon="3.30661">
        <ele>1083.4000244141</ele>
        <time>2023-05-07T10:51:52Z</time>
      </trkpt>
      <trkpt lat="44.65272" lon="3.30654">
        <ele>1082.1999511719</ele>
        <time>2023-05-07T10:51:58Z</time>
      </trkpt>
      <trkpt lat="44.65308" lon="3.30635">
        <ele>1081.4000244141</ele>
        <time>2023-05-07T10:52:02Z</time>
      </trkpt>
      <trkpt lat="44.65349" lon="3.30607">
        <ele>1080.1999511719</ele>
        <time>2023-05-07T10:52:07Z</time>
      </trkpt>
      <trkpt lat="44.65388" lon="3.30575">
        <ele>1078.5999755859</ele>
        <time>2023-05-07T10:52:13Z</time>
      </trkpt>
      <trkpt lat="44.65394" lon="3.3057">
        <ele>1078.1999511719</ele>
        <time>2023-05-07T10:52:14Z</time>
      </trkpt>
      <trkpt lat="44.65406" lon="3.3056">
        <ele>1077.5999755859</ele>
        <time>2023-05-07T10:52:16Z</time>
      </trkpt>
      <trkpt lat="44.65411" lon="3.30556">
        <ele>1077.1999511719</ele>
        <time>2023-05-07T10:52:17Z</time>
      </trkpt>
      <trkpt lat="44.65418" lon="3.30552">
        <ele>1077</ele>
        <time>2023-05-07T10:52:18Z</time>
      </trkpt>
      <trkpt lat="44.65439" lon="3.30542">
        <ele>1076</ele>
        <time>2023-05-07T10:52:21Z</time>
      </trkpt>
      <trkpt lat="44.65471" lon="3.30528">
        <ele>1074.5999755859</ele>
        <time>2023-05-07T10:52:26Z</time>
      </trkpt>
      <trkpt lat="44.65502" lon="3.30511">
        <ele>1073.5999755859</ele>
        <time>2023-05-07T10:52:31Z</time>
      </trkpt>
      <trkpt lat="44.65507" lon="3.30506">
        <ele>1073.4000244141</ele>
        <time>2023-05-07T10:52:32Z</time>
      </trkpt>
      <trkpt lat="44.65511" lon="3.305">
        <ele>1073.1999511719</ele>
        <time>2023-05-07T10:52:33Z</time>
      </trkpt>
      <trkpt lat="44.65512" lon="3.30485">
        <ele>1072.8000488281</ele>
        <time>2023-05-07T10:52:35Z</time>
      </trkpt>
      <trkpt lat="44.65512" lon="3.30461">
        <ele>1072.1999511719</ele>
        <time>2023-05-07T10:52:38Z</time>
      </trkpt>
      <trkpt lat="44.65513" lon="3.30446">
        <ele>1072</ele>
        <time>2023-05-07T10:52:40Z</time>
      </trkpt>
      <trkpt lat="44.65512" lon="3.30387">
        <ele>1071.1999511719</ele>
        <time>2023-05-07T10:52:48Z</time>
      </trkpt>
      <trkpt lat="44.65507" lon="3.3034">
        <ele>1070.5999755859</ele>
        <time>2023-05-07T10:52:55Z</time>
      </trkpt>
      <trkpt lat="44.65507" lon="3.30327">
        <ele>1070.4000244141</ele>
        <time>2023-05-07T10:52:57Z</time>
      </trkpt>
      <trkpt lat="44.6551" lon="3.30303">
        <ele>1070.4000244141</ele>
        <time>2023-05-07T10:53:01Z</time>
      </trkpt>
      <trkpt lat="44.65516" lon="3.30258">
        <ele>1070</ele>
        <time>2023-05-07T10:53:09Z</time>
      </trkpt>
      <trkpt lat="44.6552" lon="3.30208">
        <ele>1070</ele>
        <time>2023-05-07T10:53:18Z</time>
      </trkpt>
      <trkpt lat="44.65523" lon="3.30171">
        <ele>1070.1999511719</ele>
        <time>2023-05-07T10:53:25Z</time>
      </trkpt>
      <trkpt lat="44.65533" lon="3.30143">
        <ele>1070.4000244141</ele>
        <time>2023-05-07T10:53:31Z</time>
      </trkpt>
      <trkpt lat="44.65547" lon="3.3011">
        <ele>1070.4000244141</ele>
        <time>2023-05-07T10:53:38Z</time>
      </trkpt>
      <trkpt lat="44.65548" lon="3.30105">
        <ele>1070.5999755859</ele>
        <time>2023-05-07T10:53:39Z</time>
      </trkpt>
      <trkpt lat="44.65551" lon="3.30081">
        <ele>1070.5999755859</ele>
        <time>2023-05-07T10:53:43Z</time>
      </trkpt>
      <trkpt lat="44.6555" lon="3.3007">
        <ele>1070.5999755859</ele>
        <time>2023-05-07T10:53:45Z</time>
      </trkpt>
      <trkpt lat="44.65547" lon="3.30054">
        <ele>1070.5999755859</ele>
        <time>2023-05-07T10:53:48Z</time>
      </trkpt>
      <trkpt lat="44.65538" lon="3.3002">
        <ele>1070.5999755859</ele>
        <time>2023-05-07T10:53:54Z</time>
      </trkpt>
      <trkpt lat="44.65522" lon="3.29968">
        <ele>1070.4000244141</ele>
        <time>2023-05-07T10:54:02Z</time>
      </trkpt>
      <trkpt lat="44.655" lon="3.29897">
        <ele>1070.4000244141</ele>
        <time>2023-05-07T10:54:12Z</time>
      </trkpt>
      <trkpt lat="44.65484" lon="3.29851">
        <ele>1070.4000244141</ele>
        <time>2023-05-07T10:54:19Z</time>
      </trkpt>
      <trkpt lat="44.65467" lon="3.29804">
        <ele>1070</ele>
        <time>2023-05-07T10:54:27Z</time>
      </trkpt>
      <trkpt lat="44.65453" lon="3.29759">
        <ele>1070</ele>
        <time>2023-05-07T10:54:35Z</time>
      </trkpt>
      <trkpt lat="44.65444" lon="3.29716">
        <ele>1070.1999511719</ele>
        <time>2023-05-07T10:54:43Z</time>
      </trkpt>
      <trkpt lat="44.65432" lon="3.29661">
        <ele>1070.5999755859</ele>
        <time>2023-05-07T10:54:53Z</time>
      </trkpt>
      <trkpt lat="44.65426" lon="3.29623">
        <ele>1071</ele>
        <time>2023-05-07T10:55:00Z</time>
      </trkpt>
      <trkpt lat="44.65415" lon="3.29576">
        <ele>1071.8000488281</ele>
        <time>2023-05-07T10:55:09Z</time>
      </trkpt>
      <trkpt lat="44.65396" lon="3.29534">
        <ele>1072</ele>
        <time>2023-05-07T10:55:19Z</time>
      </trkpt>
      <trkpt lat="44.6538" lon="3.29502">
        <ele>1072.1999511719</ele>
        <time>2023-05-07T10:55:26Z</time>
      </trkpt>
      <trkpt lat="44.65365" lon="3.29467">
        <ele>1072.4000244141</ele>
        <time>2023-05-07T10:55:33Z</time>
      </trkpt>
      <trkpt lat="44.65357" lon="3.29429">
        <ele>1072.5999755859</ele>
        <time>2023-05-07T10:55:40Z</time>
      </trkpt>
      <trkpt lat="44.65355" lon="3.29377">
        <ele>1072.5999755859</ele>
        <time>2023-05-07T10:55:48Z</time>
      </trkpt>
      <trkpt lat="44.65356" lon="3.29371">
        <ele>1072.8000488281</ele>
        <time>2023-05-07T10:55:49Z</time>
      </trkpt>
      <trkpt lat="44.65363" lon="3.29343">
        <ele>1072.8000488281</ele>
        <time>2023-05-07T10:55:54Z</time>
      </trkpt>
      <trkpt lat="44.65376" lon="3.29317">
        <ele>1073</ele>
        <time>2023-05-07T10:56:00Z</time>
      </trkpt>
      <trkpt lat="44.65395" lon="3.29289">
        <ele>1073.4000244141</ele>
        <time>2023-05-07T10:56:08Z</time>
      </trkpt>
      <trkpt lat="44.65417" lon="3.2926">
        <ele>1074</ele>
        <time>2023-05-07T10:56:17Z</time>
      </trkpt>
      <trkpt lat="44.65439" lon="3.29229">
        <ele>1074.8000488281</ele>
        <time>2023-05-07T10:56:26Z</time>
      </trkpt>
      <trkpt lat="44.65457" lon="3.29201">
        <ele>1075.5999755859</ele>
        <time>2023-05-07T10:56:34Z</time>
      </trkpt>
      <trkpt lat="44.65472" lon="3.29167">
        <ele>1076.4000244141</ele>
        <time>2023-05-07T10:56:43Z</time>
      </trkpt>
      <trkpt lat="44.65482" lon="3.2913">
        <ele>1077.4000244141</ele>
        <time>2023-05-07T10:56:52Z</time>
      </trkpt>
      <trkpt lat="44.65491" lon="3.29094">
        <ele>1078</ele>
        <time>2023-05-07T10:57:00Z</time>
      </trkpt>
      <trkpt lat="44.655" lon="3.2906">
        <ele>1078.4000244141</ele>
        <time>2023-05-07T10:57:07Z</time>
      </trkpt>
      <trkpt lat="44.65502" lon="3.29055">
        <ele>1078.5999755859</ele>
        <time>2023-05-07T10:57:08Z</time>
      </trkpt>
      <trkpt lat="44.65509" lon="3.29027">
        <ele>1078.5999755859</ele>
        <time>2023-05-07T10:57:12Z</time>
      </trkpt>
      <trkpt lat="44.65521" lon="3.28983">
        <ele>1078.5999755859</ele>
        <time>2023-05-07T10:57:17Z</time>
      </trkpt>
      <trkpt lat="44.6554" lon="3.28915">
        <ele>1078.1999511719</ele>
        <time>2023-05-07T10:57:24Z</time>
      </trkpt>
      <trkpt lat="44.65558" lon="3.28869">
        <ele>1077.8000488281</ele>
        <time>2023-05-07T10:57:29Z</time>
      </trkpt>
      <trkpt lat="44.65579" lon="3.28832">
        <ele>1077.5999755859</ele>
        <time>2023-05-07T10:57:34Z</time>
      </trkpt>
      <trkpt lat="44.65584" lon="3.28826">
        <ele>1077.5999755859</ele>
        <time>2023-05-07T10:57:35Z</time>
      </trkpt>
      <trkpt lat="44.656" lon="3.28813">
        <ele>1077.4000244141</ele>
        <time>2023-05-07T10:57:38Z</time>
      </trkpt>
      <trkpt lat="44.65623" lon="3.28802">
        <ele>1077.1999511719</ele>
        <time>2023-05-07T10:57:42Z</time>
      </trkpt>
      <trkpt lat="44.65634" lon="3.28801">
        <ele>1077</ele>
        <time>2023-05-07T10:57:44Z</time>
      </trkpt>
      <trkpt lat="44.65672" lon="3.28802">
        <ele>1076.8000488281</ele>
        <time>2023-05-07T10:57:51Z</time>
      </trkpt>
      <trkpt lat="44.65702" lon="3.288">
        <ele>1076.1999511719</ele>
        <time>2023-05-07T10:57:57Z</time>
      </trkpt>
      <trkpt lat="44.65736" lon="3.28799">
        <ele>1075.8000488281</ele>
        <time>2023-05-07T10:58:04Z</time>
      </trkpt>
      <trkpt lat="44.65775" lon="3.28794">
        <ele>1075.8000488281</ele>
        <time>2023-05-07T10:58:12Z</time>
      </trkpt>
      <trkpt lat="44.65795" lon="3.28792">
        <ele>1075.5999755859</ele>
        <time>2023-05-07T10:58:16Z</time>
      </trkpt>
      <trkpt lat="44.6581" lon="3.28789">
        <ele>1075.5999755859</ele>
        <time>2023-05-07T10:58:19Z</time>
      </trkpt>
      <trkpt lat="44.65814" lon="3.28788">
        <ele>1075.5999755859</ele>
        <time>2023-05-07T10:58:20Z</time>
      </trkpt>
      <trkpt lat="44.65828" lon="3.28779">
        <ele>1075.4000244141</ele>
        <time>2023-05-07T10:58:23Z</time>
      </trkpt>
      <trkpt lat="44.6585" lon="3.28748">
        <ele>1075.8000488281</ele>
        <time>2023-05-07T10:58:30Z</time>
      </trkpt>
      <trkpt lat="44.65863" lon="3.28731">
        <ele>1076</ele>
        <time>2023-05-07T10:58:35Z</time>
      </trkpt>
      <trkpt lat="44.65868" lon="3.28728">
        <ele>1076</ele>
        <time>2023-05-07T10:58:37Z</time>
      </trkpt>
      <trkpt lat="44.6587" lon="3.28728">
        <ele>1076</ele>
        <time>2023-05-07T10:58:39Z</time>
      </trkpt>
      <trkpt lat="44.65872" lon="3.28729">
        <ele>1076</ele>
        <time>2023-05-07T10:58:45Z</time>
      </trkpt>
      <trkpt lat="44.65878" lon="3.28735">
        <ele>1075.8000488281</ele>
        <time>2023-05-07T10:58:50Z</time>
      </trkpt>
      <trkpt lat="44.65879" lon="3.28738">
        <ele>1075.5999755859</ele>
        <time>2023-05-07T10:58:57Z</time>
      </trkpt>
      <trkpt lat="44.65881" lon="3.28741">
        <ele>1075.5999755859</ele>
        <time>2023-05-07T10:58:59Z</time>
      </trkpt>
      <trkpt lat="44.65885" lon="3.28745">
        <ele>1075.4000244141</ele>
        <time>2023-05-07T10:59:01Z</time>
      </trkpt>
      <trkpt lat="44.65886" lon="3.28748">
        <ele>1075.5999755859</ele>
        <time>2023-05-07T10:59:06Z</time>
      </trkpt>
      <trkpt lat="44.65887" lon="3.28749">
        <ele>1075.5999755859</ele>
        <time>2023-05-07T10:59:13Z</time>
      </trkpt>
      <trkpt lat="44.65887" lon="3.28749">
        <ele>1075.4000244141</ele>
        <time>2023-05-07T10:59:26Z</time>
      </trkpt>
      <trkpt lat="44.65887" lon="3.28749">
        <ele>1075.4000244141</ele>
        <time>2023-05-07T10:59:45Z</time>
      </trkpt>
      <trkpt lat="44.65887" lon="3.28749">
        <ele>1075.4000244141</ele>
        <time>2023-05-07T11:00:03Z</time>
      </trkpt>
      <trkpt lat="44.65887" lon="3.28749">
        <ele>1075.1999511719</ele>
        <time>2023-05-07T11:00:20Z</time>
      </trkpt>
      <trkpt lat="44.65887" lon="3.28749">
        <ele>1075.4000244141</ele>
        <time>2023-05-07T11:00:34Z</time>
      </trkpt>
      <trkpt lat="44.65887" lon="3.28749">
        <ele>1075.4000244141</ele>
        <time>2023-05-07T11:00:47Z</time>
      </trkpt>
      <trkpt lat="44.65887" lon="3.28749">
        <ele>1075.4000244141</ele>
        <time>2023-05-07T11:01:09Z</time>
      </trkpt>
      <trkpt lat="44.65887" lon="3.28749">
        <ele>1075.4000244141</ele>
        <time>2023-05-07T11:01:28Z</time>
      </trkpt>
      <trkpt lat="44.65888" lon="3.28749">
        <ele>1075.5999755859</ele>
        <time>2023-05-07T11:01:48Z</time>
      </trkpt>
      <trkpt lat="44.65888" lon="3.28749">
        <ele>1075.5999755859</ele>
        <time>2023-05-07T11:02:06Z</time>
      </trkpt>
      <trkpt lat="44.65888" lon="3.28749">
        <ele>1075.8000488281</ele>
        <time>2023-05-07T11:02:26Z</time>
      </trkpt>
      <trkpt lat="44.65888" lon="3.28749">
        <ele>1075.8000488281</ele>
        <time>2023-05-07T11:02:38Z</time>
      </trkpt>
      <trkpt lat="44.65888" lon="3.28749">
        <ele>1076</ele>
        <time>2023-05-07T11:02:55Z</time>
      </trkpt>
      <trkpt lat="44.65889" lon="3.28748">
        <ele>1076.1999511719</ele>
        <time>2023-05-07T11:03:17Z</time>
      </trkpt>
      <trkpt lat="44.65889" lon="3.28748">
        <ele>1076.4000244141</ele>
        <time>2023-05-07T11:03:32Z</time>
      </trkpt>
      <trkpt lat="44.65889" lon="3.28748">
        <ele>1076.5999755859</ele>
        <time>2023-05-07T11:03:49Z</time>
      </trkpt>
      <trkpt lat="44.65889" lon="3.28748">
        <ele>1076.5999755859</ele>
        <time>2023-05-07T11:03:59Z</time>
      </trkpt>
      <trkpt lat="44.65889" lon="3.28748">
        <ele>1076.8000488281</ele>
        <time>2023-05-07T11:04:16Z</time>
      </trkpt>
      <trkpt lat="44.65889" lon="3.28748">
        <ele>1077</ele>
        <time>2023-05-07T11:04:29Z</time>
      </trkpt>
      <trkpt lat="44.65889" lon="3.28748">
        <ele>1077</ele>
        <time>2023-05-07T11:04:37Z</time>
      </trkpt>
      <trkpt lat="44.65889" lon="3.28748">
        <ele>1077.4000244141</ele>
        <time>2023-05-07T11:04:57Z</time>
      </trkpt>
      <trkpt lat="44.65889" lon="3.28748">
        <ele>1077.5999755859</ele>
        <time>2023-05-07T11:05:16Z</time>
      </trkpt>
      <trkpt lat="44.65889" lon="3.28749">
        <ele>1077.8000488281</ele>
        <time>2023-05-07T11:05:27Z</time>
      </trkpt>
      <trkpt lat="44.65889" lon="3.28756">
        <ele>1077.8000488281</ele>
        <time>2023-05-07T11:05:29Z</time>
      </trkpt>
      <trkpt lat="44.65889" lon="3.28762">
        <ele>1077.8000488281</ele>
        <time>2023-05-07T11:05:31Z</time>
      </trkpt>
      <trkpt lat="44.65889" lon="3.28778">
        <ele>1077.4000244141</ele>
        <time>2023-05-07T11:05:35Z</time>
      </trkpt>
      <trkpt lat="44.65893" lon="3.28789">
        <ele>1077.4000244141</ele>
        <time>2023-05-07T11:05:37Z</time>
      </trkpt>
      <trkpt lat="44.65899" lon="3.288">
        <ele>1077</ele>
        <time>2023-05-07T11:05:39Z</time>
      </trkpt>
      <trkpt lat="44.65913" lon="3.28825">
        <ele>1076.5999755859</ele>
        <time>2023-05-07T11:05:43Z</time>
      </trkpt>
      <trkpt lat="44.65918" lon="3.28833">
        <ele>1076.1999511719</ele>
        <time>2023-05-07T11:05:44Z</time>
      </trkpt>
      <trkpt lat="44.65924" lon="3.28852">
        <ele>1076</ele>
        <time>2023-05-07T11:05:46Z</time>
      </trkpt>
      <trkpt lat="44.65926" lon="3.28862">
        <ele>1075.8000488281</ele>
        <time>2023-05-07T11:05:47Z</time>
      </trkpt>
      <trkpt lat="44.6593" lon="3.28898">
        <ele>1074.8000488281</ele>
        <time>2023-05-07T11:05:50Z</time>
      </trkpt>
      <trkpt lat="44.65932" lon="3.28908">
        <ele>1074.5999755859</ele>
        <time>2023-05-07T11:05:51Z</time>
      </trkpt>
      <trkpt lat="44.65935" lon="3.28928">
        <ele>1074</ele>
        <time>2023-05-07T11:05:53Z</time>
      </trkpt>
      <trkpt lat="44.65938" lon="3.28937">
        <ele>1073.8000488281</ele>
        <time>2023-05-07T11:05:54Z</time>
      </trkpt>
      <trkpt lat="44.65943" lon="3.28945">
        <ele>1073.4000244141</ele>
        <time>2023-05-07T11:05:55Z</time>
      </trkpt>
      <trkpt lat="44.65961" lon="3.28969">
        <ele>1072.8000488281</ele>
        <time>2023-05-07T11:05:58Z</time>
      </trkpt>
      <trkpt lat="44.65982" lon="3.28998">
        <ele>1071.5999755859</ele>
        <time>2023-05-07T11:06:02Z</time>
      </trkpt>
      <trkpt lat="44.65997" lon="3.29032">
        <ele>1070.1999511719</ele>
        <time>2023-05-07T11:06:06Z</time>
      </trkpt>
      <trkpt lat="44.66002" lon="3.29052">
        <ele>1069.4000244141</ele>
        <time>2023-05-07T11:06:08Z</time>
      </trkpt>
      <trkpt lat="44.66006" lon="3.2906">
        <ele>1069</ele>
        <time>2023-05-07T11:06:09Z</time>
      </trkpt>
      <trkpt lat="44.66011" lon="3.29068">
        <ele>1068.8000488281</ele>
        <time>2023-05-07T11:06:10Z</time>
      </trkpt>
      <trkpt lat="44.66024" lon="3.29082">
        <ele>1068.1999511719</ele>
        <time>2023-05-07T11:06:12Z</time>
      </trkpt>
      <trkpt lat="44.66069" lon="3.29131">
        <ele>1066</ele>
        <time>2023-05-07T11:06:18Z</time>
      </trkpt>
      <trkpt lat="44.66104" lon="3.29168">
        <ele>1064.4000244141</ele>
        <time>2023-05-07T11:06:23Z</time>
      </trkpt>
      <trkpt lat="44.66115" lon="3.29179">
        <ele>1063.5999755859</ele>
        <time>2023-05-07T11:06:26Z</time>
      </trkpt>
      <trkpt lat="44.66118" lon="3.29183">
        <ele>1062.8000488281</ele>
        <time>2023-05-07T11:06:28Z</time>
      </trkpt>
      <trkpt lat="44.66117" lon="3.29185">
        <ele>1062.5999755859</ele>
        <time>2023-05-07T11:06:29Z</time>
      </trkpt>
      <trkpt lat="44.66116" lon="3.29187">
        <ele>1062</ele>
        <time>2023-05-07T11:06:30Z</time>
      </trkpt>
      <trkpt lat="44.66113" lon="3.2919">
        <ele>1060.8000488281</ele>
        <time>2023-05-07T11:06:33Z</time>
      </trkpt>
      <trkpt lat="44.66107" lon="3.29193">
        <ele>1058.8000488281</ele>
        <time>2023-05-07T11:06:38Z</time>
      </trkpt>
      <trkpt lat="44.66105" lon="3.29192">
        <ele>1057</ele>
        <time>2023-05-07T11:06:42Z</time>
      </trkpt>
      <trkpt lat="44.66104" lon="3.29192">
        <ele>1056.5999755859</ele>
        <time>2023-05-07T11:06:43Z</time>
      </trkpt>
      <trkpt lat="44.66102" lon="3.29191">
        <ele>1056</ele>
        <time>2023-05-07T11:06:44Z</time>
      </trkpt>
      <trkpt lat="44.66099" lon="3.29191">
        <ele>1054.8000488281</ele>
        <time>2023-05-07T11:06:47Z</time>
      </trkpt>
      <trkpt lat="44.66098" lon="3.29192">
        <ele>1053.5999755859</ele>
        <time>2023-05-07T11:06:51Z</time>
      </trkpt>
      <trkpt lat="44.66098" lon="3.29195">
        <ele>1052</ele>
        <time>2023-05-07T11:06:57Z</time>
      </trkpt>
      <trkpt lat="44.66098" lon="3.29198">
        <ele>1051.5999755859</ele>
        <time>2023-05-07T11:06:58Z</time>
      </trkpt>
      <trkpt lat="44.661" lon="3.29204">
        <ele>1050.5999755859</ele>
        <time>2023-05-07T11:07:01Z</time>
      </trkpt>
      <trkpt lat="44.66101" lon="3.29206">
        <ele>1049.4000244141</ele>
        <time>2023-05-07T11:07:04Z</time>
      </trkpt>
      <trkpt lat="44.66102" lon="3.29213">
        <ele>1048</ele>
        <time>2023-05-07T11:07:09Z</time>
      </trkpt>
      <trkpt lat="44.66105" lon="3.29224">
        <ele>1047</ele>
        <time>2023-05-07T11:07:14Z</time>
      </trkpt>
      <trkpt lat="44.66106" lon="3.29225">
        <ele>1046.8000488281</ele>
        <time>2023-05-07T11:07:15Z</time>
      </trkpt>
      <trkpt lat="44.6611" lon="3.29233">
        <ele>1046.1999511719</ele>
        <time>2023-05-07T11:07:22Z</time>
      </trkpt>
      <trkpt lat="44.6611" lon="3.29233">
        <ele>1044.5999755859</ele>
        <time>2023-05-07T11:07:31Z</time>
      </trkpt>
      <trkpt lat="44.6611" lon="3.29238">
        <ele>1044.4000244141</ele>
        <time>2023-05-07T11:07:36Z</time>
      </trkpt>
      <trkpt lat="44.6611" lon="3.29241">
        <ele>1044.1999511719</ele>
        <time>2023-05-07T11:07:40Z</time>
      </trkpt>
      <trkpt lat="44.66109" lon="3.29245">
        <ele>1045</ele>
        <time>2023-05-07T11:07:46Z</time>
      </trkpt>
      <trkpt lat="44.66111" lon="3.29247">
        <ele>1046</ele>
        <time>2023-05-07T11:07:52Z</time>
      </trkpt>
      <trkpt lat="44.66113" lon="3.29249">
        <ele>1046.5999755859</ele>
        <time>2023-05-07T11:07:59Z</time>
      </trkpt>
      <trkpt lat="44.66116" lon="3.29255">
        <ele>1047.8000488281</ele>
        <time>2023-05-07T11:08:05Z</time>
      </trkpt>
      <trkpt lat="44.66118" lon="3.29258">
        <ele>1048.4000244141</ele>
        <time>2023-05-07T11:08:09Z</time>
      </trkpt>
      <trkpt lat="44.66119" lon="3.2926">
        <ele>1048.5999755859</ele>
        <time>2023-05-07T11:08:11Z</time>
      </trkpt>
      <trkpt lat="44.6612" lon="3.29264">
        <ele>1049.5999755859</ele>
        <time>2023-05-07T11:08:16Z</time>
      </trkpt>
      <trkpt lat="44.6612" lon="3.29266">
        <ele>1049.8000488281</ele>
        <time>2023-05-07T11:08:18Z</time>
      </trkpt>
      <trkpt lat="44.66119" lon="3.29271">
        <ele>1050.5999755859</ele>
        <time>2023-05-07T11:08:23Z</time>
      </trkpt>
      <trkpt lat="44.66118" lon="3.29274">
        <ele>1051</ele>
        <time>2023-05-07T11:08:25Z</time>
      </trkpt>
      <trkpt lat="44.66117" lon="3.29277">
        <ele>1051.5999755859</ele>
        <time>2023-05-07T11:08:27Z</time>
      </trkpt>
      <trkpt lat="44.66116" lon="3.29279">
        <ele>1052</ele>
        <time>2023-05-07T11:08:29Z</time>
      </trkpt>
      <trkpt lat="44.66116" lon="3.29283">
        <ele>1052.4000244141</ele>
        <time>2023-05-07T11:08:32Z</time>
      </trkpt>
      <trkpt lat="44.66116" lon="3.29286">
        <ele>1052.4000244141</ele>
        <time>2023-05-07T11:08:35Z</time>
      </trkpt>
      <trkpt lat="44.66115" lon="3.29287">
        <ele>1052.5999755859</ele>
        <time>2023-05-07T11:08:37Z</time>
      </trkpt>
      <trkpt lat="44.66114" lon="3.29289">
        <ele>1053</ele>
        <time>2023-05-07T11:08:40Z</time>
      </trkpt>
      <trkpt lat="44.66111" lon="3.29294">
        <ele>1053.5999755859</ele>
        <time>2023-05-07T11:08:46Z</time>
      </trkpt>
      <trkpt lat="44.66108" lon="3.29297">
        <ele>1054.1999511719</ele>
        <time>2023-05-07T11:08:52Z</time>
      </trkpt>
      <trkpt lat="44.66105" lon="3.293">
        <ele>1055</ele>
        <time>2023-05-07T11:08:57Z</time>
      </trkpt>
      <trkpt lat="44.66099" lon="3.29301">
        <ele>1056.1999511719</ele>
        <time>2023-05-07T11:09:05Z</time>
      </trkpt>
      <trkpt lat="44.66098" lon="3.29301">
        <ele>1056.8000488281</ele>
        <time>2023-05-07T11:09:11Z</time>
      </trkpt>
      <trkpt lat="44.66098" lon="3.29301">
        <ele>1058</ele>
        <time>2023-05-07T11:09:24Z</time>
      </trkpt>
      <trkpt lat="44.66098" lon="3.29301">
        <ele>1058.8000488281</ele>
        <time>2023-05-07T11:09:33Z</time>
      </trkpt>
      <trkpt lat="44.66096" lon="3.29299">
        <ele>1059</ele>
        <time>2023-05-07T11:09:35Z</time>
      </trkpt>
      <trkpt lat="44.66091" lon="3.29298">
        <ele>1059.1999511719</ele>
        <time>2023-05-07T11:09:39Z</time>
      </trkpt>
      <trkpt lat="44.66086" lon="3.293">
        <ele>1059.5999755859</ele>
        <time>2023-05-07T11:09:45Z</time>
      </trkpt>
      <trkpt lat="44.66084" lon="3.29301">
        <ele>1059.5999755859</ele>
        <time>2023-05-07T11:09:46Z</time>
      </trkpt>
      <trkpt lat="44.66081" lon="3.29304">
        <ele>1059.5999755859</ele>
        <time>2023-05-07T11:09:48Z</time>
      </trkpt>
      <trkpt lat="44.66077" lon="3.29307">
        <ele>1059.8000488281</ele>
        <time>2023-05-07T11:09:52Z</time>
      </trkpt>
      <trkpt lat="44.66076" lon="3.29309">
        <ele>1060</ele>
        <time>2023-05-07T11:09:56Z</time>
      </trkpt>
      <trkpt lat="44.66076" lon="3.29309">
        <ele>1060.1999511719</ele>
        <time>2023-05-07T11:10:01Z</time>
      </trkpt>
      <trkpt lat="44.66076" lon="3.29311">
        <ele>1060</ele>
        <time>2023-05-07T11:10:06Z</time>
      </trkpt>
      <trkpt lat="44.66076" lon="3.29315">
        <ele>1059.8000488281</ele>
        <time>2023-05-07T11:10:08Z</time>
      </trkpt>
      <trkpt lat="44.66077" lon="3.29317">
        <ele>1059.5999755859</ele>
        <time>2023-05-07T11:10:09Z</time>
      </trkpt>
      <trkpt lat="44.66077" lon="3.29326">
        <ele>1059.4000244141</ele>
        <time>2023-05-07T11:10:14Z</time>
      </trkpt>
      <trkpt lat="44.66076" lon="3.29336">
        <ele>1060.1999511719</ele>
        <time>2023-05-07T11:10:21Z</time>
      </trkpt>
      <trkpt lat="44.66076" lon="3.29336">
        <ele>1060.4000244141</ele>
        <time>2023-05-07T11:10:26Z</time>
      </trkpt>
      <trkpt lat="44.66076" lon="3.29336">
        <ele>1060.4000244141</ele>
        <time>2023-05-07T11:10:29Z</time>
      </trkpt>
      <trkpt lat="44.66076" lon="3.29337">
        <ele>1060.4000244141</ele>
        <time>2023-05-07T11:10:30Z</time>
      </trkpt>
      <trkpt lat="44.66077" lon="3.29341">
        <ele>1060.4000244141</ele>
        <time>2023-05-07T11:10:36Z</time>
      </trkpt>
      <trkpt lat="44.66077" lon="3.29341">
        <ele>1060.4000244141</ele>
        <time>2023-05-07T11:10:42Z</time>
      </trkpt>
      <trkpt lat="44.66077" lon="3.29341">
        <ele>1060.4000244141</ele>
        <time>2023-05-07T11:10:47Z</time>
      </trkpt>
      <trkpt lat="44.66077" lon="3.29341">
        <ele>1060.5999755859</ele>
        <time>2023-05-07T11:10:53Z</time>
      </trkpt>
      <trkpt lat="44.66073" lon="3.29352">
        <ele>1060</ele>
        <time>2023-05-07T11:10:59Z</time>
      </trkpt>
      <trkpt lat="44.66073" lon="3.29354">
        <ele>1059.5999755859</ele>
        <time>2023-05-07T11:11:03Z</time>
      </trkpt>
      <trkpt lat="44.66074" lon="3.29358">
        <ele>1059.1999511719</ele>
        <time>2023-05-07T11:11:05Z</time>
      </trkpt>
      <trkpt lat="44.66074" lon="3.29364">
        <ele>1058.5999755859</ele>
        <time>2023-05-07T11:11:07Z</time>
      </trkpt>
      <trkpt lat="44.66075" lon="3.29373">
        <ele>1058.1999511719</ele>
        <time>2023-05-07T11:11:10Z</time>
      </trkpt>
      <trkpt lat="44.66082" lon="3.2938">
        <ele>1058.1999511719</ele>
        <time>2023-05-07T11:11:13Z</time>
      </trkpt>
      <trkpt lat="44.66085" lon="3.29381">
        <ele>1058.4000244141</ele>
        <time>2023-05-07T11:11:15Z</time>
      </trkpt>
      <trkpt lat="44.66093" lon="3.2938">
        <ele>1059.5999755859</ele>
        <time>2023-05-07T11:11:20Z</time>
      </trkpt>
      <trkpt lat="44.66099" lon="3.29375">
        <ele>1061.1999511719</ele>
        <time>2023-05-07T11:11:25Z</time>
      </trkpt>
      <trkpt lat="44.66109" lon="3.29375">
        <ele>1062.4000244141</ele>
        <time>2023-05-07T11:11:30Z</time>
      </trkpt>
      <trkpt lat="44.6611" lon="3.29375">
        <ele>1062.5999755859</ele>
        <time>2023-05-07T11:11:31Z</time>
      </trkpt>
      <trkpt lat="44.66111" lon="3.29375">
        <ele>1063.1999511719</ele>
        <time>2023-05-07T11:11:37Z</time>
      </trkpt>
      <trkpt lat="44.66113" lon="3.29374">
        <ele>1063.8000488281</ele>
        <time>2023-05-07T11:11:43Z</time>
      </trkpt>
      <trkpt lat="44.66116" lon="3.2937">
        <ele>1064.4000244141</ele>
        <time>2023-05-07T11:11:47Z</time>
      </trkpt>
      <trkpt lat="44.66117" lon="3.29368">
        <ele>1065.1999511719</ele>
        <time>2023-05-07T11:11:51Z</time>
      </trkpt>
      <trkpt lat="44.66116" lon="3.29363">
        <ele>1065.4000244141</ele>
        <time>2023-05-07T11:11:55Z</time>
      </trkpt>
      <trkpt lat="44.66114" lon="3.29362">
        <ele>1065.5999755859</ele>
        <time>2023-05-07T11:11:58Z</time>
      </trkpt>
      <trkpt lat="44.66113" lon="3.2936">
        <ele>1065.8000488281</ele>
        <time>2023-05-07T11:12:00Z</time>
      </trkpt>
      <trkpt lat="44.66112" lon="3.29357">
        <ele>1065.8000488281</ele>
        <time>2023-05-07T11:12:02Z</time>
      </trkpt>
      <trkpt lat="44.66114" lon="3.29348">
        <ele>1065.8000488281</ele>
        <time>2023-05-07T11:12:04Z</time>
      </trkpt>
      <trkpt lat="44.66116" lon="3.29335">
        <ele>1065.5999755859</ele>
        <time>2023-05-07T11:12:07Z</time>
      </trkpt>
      <trkpt lat="44.66117" lon="3.29327">
        <ele>1065.5999755859</ele>
        <time>2023-05-07T11:12:10Z</time>
      </trkpt>
      <trkpt lat="44.66119" lon="3.29327">
        <ele>1065.4000244141</ele>
        <time>2023-05-07T11:12:11Z</time>
      </trkpt>
      <trkpt lat="44.66122" lon="3.29327">
        <ele>1065</ele>
        <time>2023-05-07T11:12:16Z</time>
      </trkpt>
      <trkpt lat="44.66122" lon="3.29329">
        <ele>1064.8000488281</ele>
        <time>2023-05-07T11:12:17Z</time>
      </trkpt>
      <trkpt lat="44.66125" lon="3.29337">
        <ele>1064.4000244141</ele>
        <time>2023-05-07T11:12:20Z</time>
      </trkpt>
      <trkpt lat="44.66126" lon="3.29344">
        <ele>1064</ele>
        <time>2023-05-07T11:12:22Z</time>
      </trkpt>
      <trkpt lat="44.66127" lon="3.29346">
        <ele>1063.8000488281</ele>
        <time>2023-05-07T11:12:23Z</time>
      </trkpt>
      <trkpt lat="44.66128" lon="3.29349">
        <ele>1063.5999755859</ele>
        <time>2023-05-07T11:12:24Z</time>
      </trkpt>
      <trkpt lat="44.6613" lon="3.29354">
        <ele>1063.1999511719</ele>
        <time>2023-05-07T11:12:26Z</time>
      </trkpt>
      <trkpt lat="44.66131" lon="3.29356">
        <ele>1063.1999511719</ele>
        <time>2023-05-07T11:12:27Z</time>
      </trkpt>
      <trkpt lat="44.66137" lon="3.29365">
        <ele>1062.8000488281</ele>
        <time>2023-05-07T11:12:32Z</time>
      </trkpt>
      <trkpt lat="44.66142" lon="3.29372">
        <ele>1063.4000244141</ele>
        <time>2023-05-07T11:12:37Z</time>
      </trkpt>
      <trkpt lat="44.66142" lon="3.29375">
        <ele>1064</ele>
        <time>2023-05-07T11:12:43Z</time>
      </trkpt>
      <trkpt lat="44.66141" lon="3.29377">
        <ele>1064.1999511719</ele>
        <time>2023-05-07T11:12:46Z</time>
      </trkpt>
      <trkpt lat="44.6614" lon="3.29382">
        <ele>1064.5999755859</ele>
        <time>2023-05-07T11:12:50Z</time>
      </trkpt>
      <trkpt lat="44.66138" lon="3.29388">
        <ele>1065.1999511719</ele>
        <time>2023-05-07T11:12:56Z</time>
      </trkpt>
      <trkpt lat="44.66137" lon="3.29396">
        <ele>1065.4000244141</ele>
        <time>2023-05-07T11:13:02Z</time>
      </trkpt>
      <trkpt lat="44.66137" lon="3.29396">
        <ele>1065.5999755859</ele>
        <time>2023-05-07T11:13:03Z</time>
      </trkpt>
      <trkpt lat="44.66135" lon="3.29401">
        <ele>1066</ele>
        <time>2023-05-07T11:13:07Z</time>
      </trkpt>
      <trkpt lat="44.66132" lon="3.29407">
        <ele>1066.5999755859</ele>
        <time>2023-05-07T11:13:13Z</time>
      </trkpt>
      <trkpt lat="44.6613" lon="3.29409">
        <ele>1067</ele>
        <time>2023-05-07T11:13:18Z</time>
      </trkpt>
      <trkpt lat="44.66124" lon="3.29412">
        <ele>1067.8000488281</ele>
        <time>2023-05-07T11:13:25Z</time>
      </trkpt>
      <trkpt lat="44.66121" lon="3.29412">
        <ele>1068.5999755859</ele>
        <time>2023-05-07T11:13:32Z</time>
      </trkpt>
      <trkpt lat="44.66118" lon="3.29411">
        <ele>1069.1999511719</ele>
        <time>2023-05-07T11:13:38Z</time>
      </trkpt>
      <trkpt lat="44.66114" lon="3.29411">
        <ele>1069.8000488281</ele>
        <time>2023-05-07T11:13:44Z</time>
      </trkpt>
      <trkpt lat="44.66111" lon="3.29412">
        <ele>1070.8000488281</ele>
        <time>2023-05-07T11:13:50Z</time>
      </trkpt>
      <trkpt lat="44.66111" lon="3.29412">
        <ele>1071.1999511719</ele>
        <time>2023-05-07T11:13:56Z</time>
      </trkpt>
      <trkpt lat="44.66108" lon="3.29412">
        <ele>1072</ele>
        <time>2023-05-07T11:14:03Z</time>
      </trkpt>
      <trkpt lat="44.661" lon="3.29412">
        <ele>1072.4000244141</ele>
        <time>2023-05-07T11:14:09Z</time>
      </trkpt>
      <trkpt lat="44.66092" lon="3.29408">
        <ele>1073</ele>
        <time>2023-05-07T11:14:16Z</time>
      </trkpt>
      <trkpt lat="44.66091" lon="3.29407">
        <ele>1073</ele>
        <time>2023-05-07T11:14:17Z</time>
      </trkpt>
      <trkpt lat="44.66086" lon="3.29404">
        <ele>1073.1999511719</ele>
        <time>2023-05-07T11:14:21Z</time>
      </trkpt>
      <trkpt lat="44.66084" lon="3.29406">
        <ele>1073.1999511719</ele>
        <time>2023-05-07T11:14:24Z</time>
      </trkpt>
      <trkpt lat="44.66082" lon="3.29407">
        <ele>1073.1999511719</ele>
        <time>2023-05-07T11:14:26Z</time>
      </trkpt>
      <trkpt lat="44.66082" lon="3.29407">
        <ele>1073.4000244141</ele>
        <time>2023-05-07T11:14:32Z</time>
      </trkpt>
      <trkpt lat="44.66082" lon="3.29408">
        <ele>1073.5999755859</ele>
        <time>2023-05-07T11:14:38Z</time>
      </trkpt>
      <trkpt lat="44.6608" lon="3.29419">
        <ele>1072.8000488281</ele>
        <time>2023-05-07T11:14:44Z</time>
      </trkpt>
      <trkpt lat="44.6608" lon="3.29423">
        <ele>1072.1999511719</ele>
        <time>2023-05-07T11:14:49Z</time>
      </trkpt>
      <trkpt lat="44.6608" lon="3.29427">
        <ele>1071.5999755859</ele>
        <time>2023-05-07T11:14:52Z</time>
      </trkpt>
      <trkpt lat="44.66077" lon="3.29439">
        <ele>1070.1999511719</ele>
        <time>2023-05-07T11:14:56Z</time>
      </trkpt>
      <trkpt lat="44.66071" lon="3.29456">
        <ele>1068.4000244141</ele>
        <time>2023-05-07T11:15:01Z</time>
      </trkpt>
      <trkpt lat="44.66063" lon="3.29476">
        <ele>1066.8000488281</ele>
        <time>2023-05-07T11:15:06Z</time>
      </trkpt>
      <trkpt lat="44.66062" lon="3.29487">
        <ele>1064.5999755859</ele>
        <time>2023-05-07T11:15:11Z</time>
      </trkpt>
      <trkpt lat="44.66056" lon="3.29498">
        <ele>1062.1999511719</ele>
        <time>2023-05-07T11:15:16Z</time>
      </trkpt>
      <trkpt lat="44.66055" lon="3.29503">
        <ele>1061.5999755859</ele>
        <time>2023-05-07T11:15:17Z</time>
      </trkpt>
      <trkpt lat="44.66055" lon="3.29509">
        <ele>1060.8000488281</ele>
        <time>2023-05-07T11:15:18Z</time>
      </trkpt>
      <trkpt lat="44.66053" lon="3.29526">
        <ele>1059.1999511719</ele>
        <time>2023-05-07T11:15:21Z</time>
      </trkpt>
      <trkpt lat="44.66054" lon="3.29531">
        <ele>1058.5999755859</ele>
        <time>2023-05-07T11:15:22Z</time>
      </trkpt>
      <trkpt lat="44.66058" lon="3.29537">
        <ele>1057.4000244141</ele>
        <time>2023-05-07T11:15:24Z</time>
      </trkpt>
      <trkpt lat="44.66065" lon="3.29544">
        <ele>1055.4000244141</ele>
        <time>2023-05-07T11:15:27Z</time>
      </trkpt>
      <trkpt lat="44.66077" lon="3.29556">
        <ele>1051.8000488281</ele>
        <time>2023-05-07T11:15:32Z</time>
      </trkpt>
      <trkpt lat="44.66089" lon="3.29564">
        <ele>1048.5999755859</ele>
        <time>2023-05-07T11:15:36Z</time>
      </trkpt>
      <trkpt lat="44.66098" lon="3.29566">
        <ele>1046.4000244141</ele>
        <time>2023-05-07T11:15:39Z</time>
      </trkpt>
      <trkpt lat="44.66111" lon="3.29569">
        <ele>1043.4000244141</ele>
        <time>2023-05-07T11:15:44Z</time>
      </trkpt>
      <trkpt lat="44.66114" lon="3.29564">
        <ele>1042.5999755859</ele>
        <time>2023-05-07T11:15:46Z</time>
      </trkpt>
      <trkpt lat="44.66121" lon="3.29565">
        <ele>1042.1999511719</ele>
        <time>2023-05-07T11:15:48Z</time>
      </trkpt>
      <trkpt lat="44.66135" lon="3.29553">
        <ele>1041</ele>
        <time>2023-05-07T11:15:54Z</time>
      </trkpt>
      <trkpt lat="44.66139" lon="3.29552">
        <ele>1040.5999755859</ele>
        <time>2023-05-07T11:15:56Z</time>
      </trkpt>
      <trkpt lat="44.66142" lon="3.29547">
        <ele>1040.1999511719</ele>
        <time>2023-05-07T11:15:58Z</time>
      </trkpt>
      <trkpt lat="44.66151" lon="3.29528">
        <ele>1039</ele>
        <time>2023-05-07T11:16:02Z</time>
      </trkpt>
      <trkpt lat="44.66151" lon="3.29524">
        <ele>1038.4000244141</ele>
        <time>2023-05-07T11:16:03Z</time>
      </trkpt>
      <trkpt lat="44.66153" lon="3.29517">
        <ele>1037.1999511719</ele>
        <time>2023-05-07T11:16:05Z</time>
      </trkpt>
      <trkpt lat="44.66158" lon="3.29506">
        <ele>1035.1999511719</ele>
        <time>2023-05-07T11:16:09Z</time>
      </trkpt>
      <trkpt lat="44.66157" lon="3.29499">
        <ele>1033.8000488281</ele>
        <time>2023-05-07T11:16:12Z</time>
      </trkpt>
      <trkpt lat="44.66158" lon="3.29489">
        <ele>1032.1999511719</ele>
        <time>2023-05-07T11:16:16Z</time>
      </trkpt>
      <trkpt lat="44.66163" lon="3.29479">
        <ele>1031</ele>
        <time>2023-05-07T11:16:20Z</time>
      </trkpt>
      <trkpt lat="44.66164" lon="3.29477">
        <ele>1030.5999755859</ele>
        <time>2023-05-07T11:16:21Z</time>
      </trkpt>
      <trkpt lat="44.66165" lon="3.29475">
        <ele>1030.1999511719</ele>
        <time>2023-05-07T11:16:22Z</time>
      </trkpt>
      <trkpt lat="44.66168" lon="3.29469">
        <ele>1029.4000244141</ele>
        <time>2023-05-07T11:16:25Z</time>
      </trkpt>
      <trkpt lat="44.66173" lon="3.29469">
        <ele>1029.4000244141</ele>
        <time>2023-05-07T11:16:26Z</time>
      </trkpt>
      <trkpt lat="44.66181" lon="3.29462">
        <ele>1029.5999755859</ele>
        <time>2023-05-07T11:16:29Z</time>
      </trkpt>
      <trkpt lat="44.66191" lon="3.29459">
        <ele>1030.4000244141</ele>
        <time>2023-05-07T11:16:32Z</time>
      </trkpt>
      <trkpt lat="44.66193" lon="3.29457">
        <ele>1030.5999755859</ele>
        <time>2023-05-07T11:16:33Z</time>
      </trkpt>
      <trkpt lat="44.66194" lon="3.29452">
        <ele>1030.5999755859</ele>
        <time>2023-05-07T11:16:35Z</time>
      </trkpt>
      <trkpt lat="44.66197" lon="3.29448">
        <ele>1030.5999755859</ele>
        <time>2023-05-07T11:16:38Z</time>
      </trkpt>
      <trkpt lat="44.662" lon="3.29439">
        <ele>1030.8000488281</ele>
        <time>2023-05-07T11:16:42Z</time>
      </trkpt>
      <trkpt lat="44.66204" lon="3.29439">
        <ele>1031.1999511719</ele>
        <time>2023-05-07T11:16:43Z</time>
      </trkpt>
      <trkpt lat="44.66209" lon="3.29434">
        <ele>1031.5999755859</ele>
        <time>2023-05-07T11:16:48Z</time>
      </trkpt>
      <trkpt lat="44.66212" lon="3.29431">
        <ele>1032</ele>
        <time>2023-05-07T11:16:53Z</time>
      </trkpt>
      <trkpt lat="44.66213" lon="3.29429">
        <ele>1032.5999755859</ele>
        <time>2023-05-07T11:16:59Z</time>
      </trkpt>
      <trkpt lat="44.66211" lon="3.29427">
        <ele>1033.4000244141</ele>
        <time>2023-05-07T11:17:03Z</time>
      </trkpt>
      <trkpt lat="44.66207" lon="3.29425">
        <ele>1035</ele>
        <time>2023-05-07T11:17:11Z</time>
      </trkpt>
      <trkpt lat="44.66206" lon="3.29425">
        <ele>1035.8000488281</ele>
        <time>2023-05-07T11:17:17Z</time>
      </trkpt>
      <trkpt lat="44.66205" lon="3.29423">
        <ele>1037</ele>
        <time>2023-05-07T11:17:23Z</time>
      </trkpt>
      <trkpt lat="44.66203" lon="3.29419">
        <ele>1037.8000488281</ele>
        <time>2023-05-07T11:17:29Z</time>
      </trkpt>
      <trkpt lat="44.662" lon="3.29412">
        <ele>1039.4000244141</ele>
        <time>2023-05-07T11:17:34Z</time>
      </trkpt>
      <trkpt lat="44.662" lon="3.29408">
        <ele>1040.5999755859</ele>
        <time>2023-05-07T11:17:41Z</time>
      </trkpt>
      <trkpt lat="44.66199" lon="3.29403">
        <ele>1041.1999511719</ele>
        <time>2023-05-07T11:17:44Z</time>
      </trkpt>
      <trkpt lat="44.66198" lon="3.29401">
        <ele>1041.4000244141</ele>
        <time>2023-05-07T11:17:45Z</time>
      </trkpt>
      <trkpt lat="44.66199" lon="3.29398">
        <ele>1041.8000488281</ele>
        <time>2023-05-07T11:17:47Z</time>
      </trkpt>
      <trkpt lat="44.66199" lon="3.29394">
        <ele>1042.5999755859</ele>
        <time>2023-05-07T11:17:50Z</time>
      </trkpt>
      <trkpt lat="44.66199" lon="3.29385">
        <ele>1043.8000488281</ele>
        <time>2023-05-07T11:17:55Z</time>
      </trkpt>
      <trkpt lat="44.66199" lon="3.29377">
        <ele>1045</ele>
        <time>2023-05-07T11:18:00Z</time>
      </trkpt>
      <trkpt lat="44.66196" lon="3.29366">
        <ele>1046</ele>
        <time>2023-05-07T11:18:05Z</time>
      </trkpt>
      <trkpt lat="44.66195" lon="3.29363">
        <ele>1046.4000244141</ele>
        <time>2023-05-07T11:18:07Z</time>
      </trkpt>
      <trkpt lat="44.66193" lon="3.29359">
        <ele>1047</ele>
        <time>2023-05-07T11:18:10Z</time>
      </trkpt>
      <trkpt lat="44.66191" lon="3.29353">
        <ele>1047.4000244141</ele>
        <time>2023-05-07T11:18:14Z</time>
      </trkpt>
      <trkpt lat="44.66187" lon="3.29344">
        <ele>1048.1999511719</ele>
        <time>2023-05-07T11:18:18Z</time>
      </trkpt>
      <trkpt lat="44.66186" lon="3.29339">
        <ele>1048.4000244141</ele>
        <time>2023-05-07T11:18:20Z</time>
      </trkpt>
      <trkpt lat="44.66185" lon="3.29333">
        <ele>1048.5999755859</ele>
        <time>2023-05-07T11:18:23Z</time>
      </trkpt>
      <trkpt lat="44.66184" lon="3.29328">
        <ele>1048.8000488281</ele>
        <time>2023-05-07T11:18:26Z</time>
      </trkpt>
      <trkpt lat="44.66183" lon="3.29325">
        <ele>1049</ele>
        <time>2023-05-07T11:18:27Z</time>
      </trkpt>
      <trkpt lat="44.66177" lon="3.29313">
        <ele>1049</ele>
        <time>2023-05-07T11:18:32Z</time>
      </trkpt>
      <trkpt lat="44.66175" lon="3.29307">
        <ele>1049.1999511719</ele>
        <time>2023-05-07T11:18:34Z</time>
      </trkpt>
      <trkpt lat="44.66173" lon="3.29303">
        <ele>1049.4000244141</ele>
        <time>2023-05-07T11:18:36Z</time>
      </trkpt>
      <trkpt lat="44.6617" lon="3.29299">
        <ele>1049.8000488281</ele>
        <time>2023-05-07T11:18:39Z</time>
      </trkpt>
      <trkpt lat="44.66168" lon="3.29294">
        <ele>1050</ele>
        <time>2023-05-07T11:18:41Z</time>
      </trkpt>
      <trkpt lat="44.66166" lon="3.29291">
        <ele>1050.1999511719</ele>
        <time>2023-05-07T11:18:43Z</time>
      </trkpt>
      <trkpt lat="44.66164" lon="3.29287">
        <ele>1050.4000244141</ele>
        <time>2023-05-07T11:18:45Z</time>
      </trkpt>
      <trkpt lat="44.66166" lon="3.29283">
        <ele>1050.1999511719</ele>
        <time>2023-05-07T11:18:48Z</time>
      </trkpt>
      <trkpt lat="44.66167" lon="3.29283">
        <ele>1050.1999511719</ele>
        <time>2023-05-07T11:18:49Z</time>
      </trkpt>
      <trkpt lat="44.66171" lon="3.29278">
        <ele>1050</ele>
        <time>2023-05-07T11:18:54Z</time>
      </trkpt>
      <trkpt lat="44.66169" lon="3.29274">
        <ele>1049.8000488281</ele>
        <time>2023-05-07T11:18:56Z</time>
      </trkpt>
      <trkpt lat="44.66167" lon="3.29268">
        <ele>1049.8000488281</ele>
        <time>2023-05-07T11:18:58Z</time>
      </trkpt>
      <trkpt lat="44.66166" lon="3.29264">
        <ele>1049.8000488281</ele>
        <time>2023-05-07T11:19:00Z</time>
      </trkpt>
      <trkpt lat="44.66165" lon="3.29257">
        <ele>1049.8000488281</ele>
        <time>2023-05-07T11:19:03Z</time>
      </trkpt>
      <trkpt lat="44.66164" lon="3.29253">
        <ele>1049.8000488281</ele>
        <time>2023-05-07T11:19:05Z</time>
      </trkpt>
      <trkpt lat="44.66162" lon="3.29249">
        <ele>1049.4000244141</ele>
        <time>2023-05-07T11:19:08Z</time>
      </trkpt>
      <trkpt lat="44.6616" lon="3.29249">
        <ele>1049.4000244141</ele>
        <time>2023-05-07T11:19:12Z</time>
      </trkpt>
      <trkpt lat="44.66153" lon="3.29241">
        <ele>1049</ele>
        <time>2023-05-07T11:19:17Z</time>
      </trkpt>
      <trkpt lat="44.66143" lon="3.29229">
        <ele>1048.8000488281</ele>
        <time>2023-05-07T11:19:23Z</time>
      </trkpt>
      <trkpt lat="44.66139" lon="3.29224">
        <ele>1048.5999755859</ele>
        <time>2023-05-07T11:19:25Z</time>
      </trkpt>
      <trkpt lat="44.66135" lon="3.29218">
        <ele>1048.5999755859</ele>
        <time>2023-05-07T11:19:27Z</time>
      </trkpt>
      <trkpt lat="44.66123" lon="3.29206">
        <ele>1048.1999511719</ele>
        <time>2023-05-07T11:19:32Z</time>
      </trkpt>
      <trkpt lat="44.66122" lon="3.29201">
        <ele>1047.8000488281</ele>
        <time>2023-05-07T11:19:34Z</time>
      </trkpt>
      <trkpt lat="44.66119" lon="3.29195">
        <ele>1047.4000244141</ele>
        <time>2023-05-07T11:19:36Z</time>
      </trkpt>
      <trkpt lat="44.66119" lon="3.29192">
        <ele>1047.1999511719</ele>
        <time>2023-05-07T11:19:37Z</time>
      </trkpt>
      <trkpt lat="44.6612" lon="3.29188">
        <ele>1047</ele>
        <time>2023-05-07T11:19:39Z</time>
      </trkpt>
      <trkpt lat="44.66122" lon="3.29189">
        <ele>1046.8000488281</ele>
        <time>2023-05-07T11:19:41Z</time>
      </trkpt>
      <trkpt lat="44.66126" lon="3.29194">
        <ele>1046.5999755859</ele>
        <time>2023-05-07T11:19:44Z</time>
      </trkpt>
      <trkpt lat="44.66138" lon="3.29209">
        <ele>1045.4000244141</ele>
        <time>2023-05-07T11:19:51Z</time>
      </trkpt>
      <trkpt lat="44.66147" lon="3.29222">
        <ele>1044.1999511719</ele>
        <time>2023-05-07T11:19:55Z</time>
      </trkpt>
      <trkpt lat="44.66158" lon="3.29237">
        <ele>1042.8000488281</ele>
        <time>2023-05-07T11:20:00Z</time>
      </trkpt>
      <trkpt lat="44.66169" lon="3.29247">
        <ele>1041.8000488281</ele>
        <time>2023-05-07T11:20:04Z</time>
      </trkpt>
      <trkpt lat="44.66187" lon="3.29265">
        <ele>1041.1999511719</ele>
        <time>2023-05-07T11:20:10Z</time>
      </trkpt>
      <trkpt lat="44.6619" lon="3.29269">
        <ele>1040.5999755859</ele>
        <time>2023-05-07T11:20:14Z</time>
      </trkpt>
      <trkpt lat="44.66187" lon="3.29269">
        <ele>1038.8000488281</ele>
        <time>2023-05-07T11:20:23Z</time>
      </trkpt>
      <trkpt lat="44.66182" lon="3.2927">
        <ele>1037.1999511719</ele>
        <time>2023-05-07T11:20:32Z</time>
      </trkpt>
      <trkpt lat="44.66183" lon="3.29268">
        <ele>1035.8000488281</ele>
        <time>2023-05-07T11:20:39Z</time>
      </trkpt>
      <trkpt lat="44.66183" lon="3.29268">
        <ele>1034</ele>
        <time>2023-05-07T11:20:53Z</time>
      </trkpt>
      <trkpt lat="44.66183" lon="3.29268">
        <ele>1033</ele>
        <time>2023-05-07T11:21:01Z</time>
      </trkpt>
      <trkpt lat="44.66185" lon="3.29269">
        <ele>1032.1999511719</ele>
        <time>2023-05-07T11:21:07Z</time>
      </trkpt>
      <trkpt lat="44.66197" lon="3.29278">
        <ele>1032.1999511719</ele>
        <time>2023-05-07T11:21:12Z</time>
      </trkpt>
      <trkpt lat="44.66219" lon="3.29296">
        <ele>1033.8000488281</ele>
        <time>2023-05-07T11:21:17Z</time>
      </trkpt>
      <trkpt lat="44.66237" lon="3.29321">
        <ele>1034.5999755859</ele>
        <time>2023-05-07T11:21:23Z</time>
      </trkpt>
      <trkpt lat="44.66245" lon="3.29345">
        <ele>1034.5999755859</ele>
        <time>2023-05-07T11:21:27Z</time>
      </trkpt>
      <trkpt lat="44.66249" lon="3.29357">
        <ele>1034.8000488281</ele>
        <time>2023-05-07T11:21:29Z</time>
      </trkpt>
      <trkpt lat="44.66253" lon="3.29382">
        <ele>1035</ele>
        <time>2023-05-07T11:21:33Z</time>
      </trkpt>
      <trkpt lat="44.66258" lon="3.29399">
        <ele>1034.8000488281</ele>
        <time>2023-05-07T11:21:35Z</time>
      </trkpt>
      <trkpt lat="44.66267" lon="3.29429">
        <ele>1034.5999755859</ele>
        <time>2023-05-07T11:21:38Z</time>
      </trkpt>
      <trkpt lat="44.66274" lon="3.2945">
        <ele>1034.4000244141</ele>
        <time>2023-05-07T11:21:40Z</time>
      </trkpt>
      <trkpt lat="44.66302" lon="3.29509">
        <ele>1034</ele>
        <time>2023-05-07T11:21:46Z</time>
      </trkpt>
      <trkpt lat="44.66327" lon="3.29534">
        <ele>1034</ele>
        <time>2023-05-07T11:21:50Z</time>
      </trkpt>
      <trkpt lat="44.66355" lon="3.29555">
        <ele>1034</ele>
        <time>2023-05-07T11:21:55Z</time>
      </trkpt>
      <trkpt lat="44.66367" lon="3.29564">
        <ele>1034</ele>
        <time>2023-05-07T11:21:59Z</time>
      </trkpt>
      <trkpt lat="44.66371" lon="3.29564">
        <ele>1034</ele>
        <time>2023-05-07T11:22:00Z</time>
      </trkpt>
      <trkpt lat="44.66378" lon="3.2956">
        <ele>1033.8000488281</ele>
        <time>2023-05-07T11:22:02Z</time>
      </trkpt>
      <trkpt lat="44.664" lon="3.29539">
        <ele>1033.8000488281</ele>
        <time>2023-05-07T11:22:08Z</time>
      </trkpt>
      <trkpt lat="44.66403" lon="3.29534">
        <ele>1033.8000488281</ele>
        <time>2023-05-07T11:22:09Z</time>
      </trkpt>
      <trkpt lat="44.66412" lon="3.29521">
        <ele>1033.8000488281</ele>
        <time>2023-05-07T11:22:12Z</time>
      </trkpt>
      <trkpt lat="44.66415" lon="3.29516">
        <ele>1033.8000488281</ele>
        <time>2023-05-07T11:22:13Z</time>
      </trkpt>
      <trkpt lat="44.66438" lon="3.29481">
        <ele>1034</ele>
        <time>2023-05-07T11:22:21Z</time>
      </trkpt>
      <trkpt lat="44.66454" lon="3.29455">
        <ele>1034.1999511719</ele>
        <time>2023-05-07T11:22:28Z</time>
      </trkpt>
      <trkpt lat="44.66468" lon="3.29431">
        <ele>1034.4000244141</ele>
        <time>2023-05-07T11:22:35Z</time>
      </trkpt>
      <trkpt lat="44.66481" lon="3.29408">
        <ele>1034.8000488281</ele>
        <time>2023-05-07T11:22:43Z</time>
      </trkpt>
      <trkpt lat="44.6649" lon="3.29395">
        <ele>1035</ele>
        <time>2023-05-07T11:22:48Z</time>
      </trkpt>
      <trkpt lat="44.66503" lon="3.29375">
        <ele>1035.4000244141</ele>
        <time>2023-05-07T11:22:55Z</time>
      </trkpt>
      <trkpt lat="44.66517" lon="3.2936">
        <ele>1035.8000488281</ele>
        <time>2023-05-07T11:23:02Z</time>
      </trkpt>
      <trkpt lat="44.66534" lon="3.29346">
        <ele>1036.4000244141</ele>
        <time>2023-05-07T11:23:10Z</time>
      </trkpt>
      <trkpt lat="44.66555" lon="3.29335">
        <ele>1037</ele>
        <time>2023-05-07T11:23:18Z</time>
      </trkpt>
      <trkpt lat="44.66569" lon="3.29331">
        <ele>1037.5999755859</ele>
        <time>2023-05-07T11:23:24Z</time>
      </trkpt>
      <trkpt lat="44.66582" lon="3.29326">
        <ele>1038</ele>
        <time>2023-05-07T11:23:30Z</time>
      </trkpt>
      <trkpt lat="44.66595" lon="3.29323">
        <ele>1038.4000244141</ele>
        <time>2023-05-07T11:23:35Z</time>
      </trkpt>
      <trkpt lat="44.66609" lon="3.2932">
        <ele>1038.8000488281</ele>
        <time>2023-05-07T11:23:41Z</time>
      </trkpt>
      <trkpt lat="44.66621" lon="3.29316">
        <ele>1038.8000488281</ele>
        <time>2023-05-07T11:23:46Z</time>
      </trkpt>
      <trkpt lat="44.66638" lon="3.2931">
        <ele>1039.1999511719</ele>
        <time>2023-05-07T11:23:53Z</time>
      </trkpt>
      <trkpt lat="44.66651" lon="3.29305">
        <ele>1039.4000244141</ele>
        <time>2023-05-07T11:23:58Z</time>
      </trkpt>
      <trkpt lat="44.66667" lon="3.29299">
        <ele>1039.5999755859</ele>
        <time>2023-05-07T11:24:03Z</time>
      </trkpt>
      <trkpt lat="44.66688" lon="3.2929">
        <ele>1039.1999511719</ele>
        <time>2023-05-07T11:24:08Z</time>
      </trkpt>
      <trkpt lat="44.66698" lon="3.29283">
        <ele>1039</ele>
        <time>2023-05-07T11:24:10Z</time>
      </trkpt>
      <trkpt lat="44.66713" lon="3.29269">
        <ele>1038.4000244141</ele>
        <time>2023-05-07T11:24:13Z</time>
      </trkpt>
      <trkpt lat="44.66717" lon="3.29264">
        <ele>1038</ele>
        <time>2023-05-07T11:24:14Z</time>
      </trkpt>
      <trkpt lat="44.66721" lon="3.29252">
        <ele>1037.5999755859</ele>
        <time>2023-05-07T11:24:16Z</time>
      </trkpt>
      <trkpt lat="44.66718" lon="3.29241">
        <ele>1037.1999511719</ele>
        <time>2023-05-07T11:24:19Z</time>
      </trkpt>
      <trkpt lat="44.6671" lon="3.29223">
        <ele>1037</ele>
        <time>2023-05-07T11:24:26Z</time>
      </trkpt>
      <trkpt lat="44.66707" lon="3.29204">
        <ele>1037.4000244141</ele>
        <time>2023-05-07T11:24:32Z</time>
      </trkpt>
      <trkpt lat="44.66704" lon="3.29181">
        <ele>1037.4000244141</ele>
        <time>2023-05-07T11:24:39Z</time>
      </trkpt>
      <trkpt lat="44.66703" lon="3.2916">
        <ele>1038.4000244141</ele>
        <time>2023-05-07T11:24:46Z</time>
      </trkpt>
      <trkpt lat="44.66701" lon="3.29132">
        <ele>1040</ele>
        <time>2023-05-07T11:24:56Z</time>
      </trkpt>
      <trkpt lat="44.66701" lon="3.29114">
        <ele>1041.1999511719</ele>
        <time>2023-05-07T11:25:03Z</time>
      </trkpt>
      <trkpt lat="44.667" lon="3.29096">
        <ele>1042.5999755859</ele>
        <time>2023-05-07T11:25:10Z</time>
      </trkpt>
      <trkpt lat="44.66698" lon="3.29079">
        <ele>1043.8000488281</ele>
        <time>2023-05-07T11:25:17Z</time>
      </trkpt>
      <trkpt lat="44.66696" lon="3.29059">
        <ele>1045</ele>
        <time>2023-05-07T11:25:24Z</time>
      </trkpt>
      <trkpt lat="44.66688" lon="3.29044">
        <ele>1045.5999755859</ele>
        <time>2023-05-07T11:25:30Z</time>
      </trkpt>
      <trkpt lat="44.66681" lon="3.2903">
        <ele>1046.4000244141</ele>
        <time>2023-05-07T11:25:36Z</time>
      </trkpt>
      <trkpt lat="44.66677" lon="3.29023">
        <ele>1046.8000488281</ele>
        <time>2023-05-07T11:25:40Z</time>
      </trkpt>
      <trkpt lat="44.66676" lon="3.2902">
        <ele>1047</ele>
        <time>2023-05-07T11:25:41Z</time>
      </trkpt>
      <trkpt lat="44.66668" lon="3.29007">
        <ele>1047.5999755859</ele>
        <time>2023-05-07T11:25:47Z</time>
      </trkpt>
      <trkpt lat="44.66657" lon="3.2899">
        <ele>1048</ele>
        <time>2023-05-07T11:25:52Z</time>
      </trkpt>
      <trkpt lat="44.66653" lon="3.28979">
        <ele>1048.1999511719</ele>
        <time>2023-05-07T11:25:54Z</time>
      </trkpt>
      <trkpt lat="44.66647" lon="3.28968">
        <ele>1048.1999511719</ele>
        <time>2023-05-07T11:25:56Z</time>
      </trkpt>
      <trkpt lat="44.66627" lon="3.28944">
        <ele>1048.4000244141</ele>
        <time>2023-05-07T11:26:02Z</time>
      </trkpt>
      <trkpt lat="44.66613" lon="3.28933">
        <ele>1048.8000488281</ele>
        <time>2023-05-07T11:26:07Z</time>
      </trkpt>
      <trkpt lat="44.66603" lon="3.28925">
        <ele>1049</ele>
        <time>2023-05-07T11:26:11Z</time>
      </trkpt>
      <trkpt lat="44.66592" lon="3.28909">
        <ele>1049.5999755859</ele>
        <time>2023-05-07T11:26:18Z</time>
      </trkpt>
      <trkpt lat="44.66583" lon="3.28892">
        <ele>1050.4000244141</ele>
        <time>2023-05-07T11:26:25Z</time>
      </trkpt>
      <trkpt lat="44.66572" lon="3.2887">
        <ele>1051</ele>
        <time>2023-05-07T11:26:32Z</time>
      </trkpt>
      <trkpt lat="44.66566" lon="3.28855">
        <ele>1051.1999511719</ele>
        <time>2023-05-07T11:26:36Z</time>
      </trkpt>
      <trkpt lat="44.66558" lon="3.28839">
        <ele>1051.4000244141</ele>
        <time>2023-05-07T11:26:41Z</time>
      </trkpt>
      <trkpt lat="44.66549" lon="3.28825">
        <ele>1051.8000488281</ele>
        <time>2023-05-07T11:26:46Z</time>
      </trkpt>
      <trkpt lat="44.66535" lon="3.28817">
        <ele>1052.1999511719</ele>
        <time>2023-05-07T11:26:51Z</time>
      </trkpt>
      <trkpt lat="44.6652" lon="3.28815">
        <ele>1052.5999755859</ele>
        <time>2023-05-07T11:26:57Z</time>
      </trkpt>
      <trkpt lat="44.66506" lon="3.28814">
        <ele>1053.1999511719</ele>
        <time>2023-05-07T11:27:03Z</time>
      </trkpt>
      <trkpt lat="44.66492" lon="3.28811">
        <ele>1053.5999755859</ele>
        <time>2023-05-07T11:27:09Z</time>
      </trkpt>
      <trkpt lat="44.66483" lon="3.28809">
        <ele>1054</ele>
        <time>2023-05-07T11:27:14Z</time>
      </trkpt>
      <trkpt lat="44.66481" lon="3.28809">
        <ele>1054.1999511719</ele>
        <time>2023-05-07T11:27:15Z</time>
      </trkpt>
      <trkpt lat="44.66476" lon="3.28808">
        <ele>1054.1999511719</ele>
        <time>2023-05-07T11:27:19Z</time>
      </trkpt>
      <trkpt lat="44.66474" lon="3.28807">
        <ele>1054.1999511719</ele>
        <time>2023-05-07T11:27:20Z</time>
      </trkpt>
      <trkpt lat="44.66467" lon="3.28797">
        <ele>1054.4000244141</ele>
        <time>2023-05-07T11:27:27Z</time>
      </trkpt>
      <trkpt lat="44.6646" lon="3.28787">
        <ele>1055</ele>
        <time>2023-05-07T11:27:33Z</time>
      </trkpt>
      <trkpt lat="44.66452" lon="3.28769">
        <ele>1055.8000488281</ele>
        <time>2023-05-07T11:27:41Z</time>
      </trkpt>
      <trkpt lat="44.66446" lon="3.28755">
        <ele>1056.8000488281</ele>
        <time>2023-05-07T11:27:48Z</time>
      </trkpt>
      <trkpt lat="44.66443" lon="3.28742">
        <ele>1057.4000244141</ele>
        <time>2023-05-07T11:27:53Z</time>
      </trkpt>
      <trkpt lat="44.66438" lon="3.28727">
        <ele>1058.1999511719</ele>
        <time>2023-05-07T11:27:59Z</time>
      </trkpt>
      <trkpt lat="44.66434" lon="3.28717">
        <ele>1058.4000244141</ele>
        <time>2023-05-07T11:28:03Z</time>
      </trkpt>
      <trkpt lat="44.66427" lon="3.28707">
        <ele>1059.1999511719</ele>
        <time>2023-05-07T11:28:08Z</time>
      </trkpt>
      <trkpt lat="44.66419" lon="3.28697">
        <ele>1059.8000488281</ele>
        <time>2023-05-07T11:28:13Z</time>
      </trkpt>
      <trkpt lat="44.6641" lon="3.28684">
        <ele>1060.4000244141</ele>
        <time>2023-05-07T11:28:20Z</time>
      </trkpt>
      <trkpt lat="44.6641" lon="3.28683">
        <ele>1060.5999755859</ele>
        <time>2023-05-07T11:28:21Z</time>
      </trkpt>
      <trkpt lat="44.6641" lon="3.28678">
        <ele>1061</ele>
        <time>2023-05-07T11:28:24Z</time>
      </trkpt>
      <trkpt lat="44.66413" lon="3.28677">
        <ele>1061</ele>
        <time>2023-05-07T11:28:27Z</time>
      </trkpt>
      <trkpt lat="44.66415" lon="3.28679">
        <ele>1061.1999511719</ele>
        <time>2023-05-07T11:28:29Z</time>
      </trkpt>
      <trkpt lat="44.66422" lon="3.28684">
        <ele>1061.1999511719</ele>
        <time>2023-05-07T11:28:34Z</time>
      </trkpt>
      <trkpt lat="44.66425" lon="3.28685">
        <ele>1061.4000244141</ele>
        <time>2023-05-07T11:28:39Z</time>
      </trkpt>
      <trkpt lat="44.66425" lon="3.28685">
        <ele>1061.8000488281</ele>
        <time>2023-05-07T11:28:45Z</time>
      </trkpt>
      <trkpt lat="44.66425" lon="3.28685">
        <ele>1062.1999511719</ele>
        <time>2023-05-07T11:28:51Z</time>
      </trkpt>
      <trkpt lat="44.66425" lon="3.28685">
        <ele>1062.4000244141</ele>
        <time>2023-05-07T11:28:57Z</time>
      </trkpt>
      <trkpt lat="44.66425" lon="3.28685">
        <ele>1062.5999755859</ele>
        <time>2023-05-07T11:29:03Z</time>
      </trkpt>
      <trkpt lat="44.66425" lon="3.28685">
        <ele>1062.5999755859</ele>
        <time>2023-05-07T11:29:05Z</time>
      </trkpt>
      <trkpt lat="44.66425" lon="3.28684">
        <ele>1062.8000488281</ele>
        <time>2023-05-07T11:29:07Z</time>
      </trkpt>
      <trkpt lat="44.66425" lon="3.28682">
        <ele>1063.1999511719</ele>
        <time>2023-05-07T11:29:15Z</time>
      </trkpt>
      <trkpt lat="44.66429" lon="3.28677">
        <ele>1063.4000244141</ele>
        <time>2023-05-07T11:29:22Z</time>
      </trkpt>
      <trkpt lat="44.66431" lon="3.28675">
        <ele>1063.5999755859</ele>
        <time>2023-05-07T11:29:29Z</time>
      </trkpt>
      <trkpt lat="44.66433" lon="3.28674">
        <ele>1063.8000488281</ele>
        <time>2023-05-07T11:29:31Z</time>
      </trkpt>
      <trkpt lat="44.66436" lon="3.28673">
        <ele>1064</ele>
        <time>2023-05-07T11:29:34Z</time>
      </trkpt>
      <trkpt lat="44.6644" lon="3.28669">
        <ele>1064.5999755859</ele>
        <time>2023-05-07T11:29:39Z</time>
      </trkpt>
      <trkpt lat="44.66443" lon="3.28664">
        <ele>1064.5999755859</ele>
        <time>2023-05-07T11:29:45Z</time>
      </trkpt>
      <trkpt lat="44.66445" lon="3.28664">
        <ele>1065</ele>
        <time>2023-05-07T11:29:52Z</time>
      </trkpt>
      <trkpt lat="44.66448" lon="3.28661">
        <ele>1065.4000244141</ele>
        <time>2023-05-07T11:29:56Z</time>
      </trkpt>
      <trkpt lat="44.66449" lon="3.28659">
        <ele>1065.5999755859</ele>
        <time>2023-05-07T11:29:57Z</time>
      </trkpt>
      <trkpt lat="44.66451" lon="3.28656">
        <ele>1065.8000488281</ele>
        <time>2023-05-07T11:29:59Z</time>
      </trkpt>
      <trkpt lat="44.66452" lon="3.28653">
        <ele>1066.1999511719</ele>
        <time>2023-05-07T11:30:01Z</time>
      </trkpt>
      <trkpt lat="44.66452" lon="3.28652">
        <ele>1066.4000244141</ele>
        <time>2023-05-07T11:30:02Z</time>
      </trkpt>
      <trkpt lat="44.66454" lon="3.28649">
        <ele>1066.4000244141</ele>
        <time>2023-05-07T11:30:06Z</time>
      </trkpt>
      <trkpt lat="44.66455" lon="3.28648">
        <ele>1066.5999755859</ele>
        <time>2023-05-07T11:30:07Z</time>
      </trkpt>
      <trkpt lat="44.66458" lon="3.28645">
        <ele>1067</ele>
        <time>2023-05-07T11:30:12Z</time>
      </trkpt>
      <trkpt lat="44.66457" lon="3.28641">
        <ele>1068</ele>
        <time>2023-05-07T11:30:17Z</time>
      </trkpt>
      <trkpt lat="44.66457" lon="3.28638">
        <ele>1068.4000244141</ele>
        <time>2023-05-07T11:30:21Z</time>
      </trkpt>
      <trkpt lat="44.66456" lon="3.28635">
        <ele>1068.5999755859</ele>
        <time>2023-05-07T11:30:23Z</time>
      </trkpt>
      <trkpt lat="44.66452" lon="3.2863">
        <ele>1069.1999511719</ele>
        <time>2023-05-07T11:30:27Z</time>
      </trkpt>
      <trkpt lat="44.66449" lon="3.28623">
        <ele>1069.5999755859</ele>
        <time>2023-05-07T11:30:32Z</time>
      </trkpt>
      <trkpt lat="44.66446" lon="3.28619">
        <ele>1070</ele>
        <time>2023-05-07T11:30:38Z</time>
      </trkpt>
      <trkpt lat="44.66445" lon="3.28617">
        <ele>1070.5999755859</ele>
        <time>2023-05-07T11:30:44Z</time>
      </trkpt>
      <trkpt lat="44.66443" lon="3.28614">
        <ele>1071.1999511719</ele>
        <time>2023-05-07T11:30:50Z</time>
      </trkpt>
      <trkpt lat="44.66443" lon="3.28614">
        <ele>1071.4000244141</ele>
        <time>2023-05-07T11:30:54Z</time>
      </trkpt>
      <trkpt lat="44.66442" lon="3.28611">
        <ele>1071.8000488281</ele>
        <time>2023-05-07T11:31:00Z</time>
      </trkpt>
      <trkpt lat="44.66442" lon="3.2861">
        <ele>1072.1999511719</ele>
        <time>2023-05-07T11:31:07Z</time>
      </trkpt>
      <trkpt lat="44.66443" lon="3.28606">
        <ele>1072.8000488281</ele>
        <time>2023-05-07T11:31:14Z</time>
      </trkpt>
      <trkpt lat="44.66446" lon="3.28602">
        <ele>1073.5999755859</ele>
        <time>2023-05-07T11:31:21Z</time>
      </trkpt>
      <trkpt lat="44.66447" lon="3.28601">
        <ele>1073.8000488281</ele>
        <time>2023-05-07T11:31:23Z</time>
      </trkpt>
      <trkpt lat="44.66449" lon="3.28598">
        <ele>1073.8000488281</ele>
        <time>2023-05-07T11:31:25Z</time>
      </trkpt>
      <trkpt lat="44.6645" lon="3.28596">
        <ele>1074</ele>
        <time>2023-05-07T11:31:28Z</time>
      </trkpt>
      <trkpt lat="44.66452" lon="3.28594">
        <ele>1073.8000488281</ele>
        <time>2023-05-07T11:31:30Z</time>
      </trkpt>
      <trkpt lat="44.66456" lon="3.28591">
        <ele>1074.4000244141</ele>
        <time>2023-05-07T11:31:36Z</time>
      </trkpt>
      <trkpt lat="44.66457" lon="3.28591">
        <ele>1074.8000488281</ele>
        <time>2023-05-07T11:31:38Z</time>
      </trkpt>
      <trkpt lat="44.66461" lon="3.28591">
        <ele>1075.1999511719</ele>
        <time>2023-05-07T11:31:41Z</time>
      </trkpt>
      <trkpt lat="44.66465" lon="3.28591">
        <ele>1075.4000244141</ele>
        <time>2023-05-07T11:31:45Z</time>
      </trkpt>
      <trkpt lat="44.66467" lon="3.28591">
        <ele>1075.4000244141</ele>
        <time>2023-05-07T11:31:47Z</time>
      </trkpt>
      <trkpt lat="44.6647" lon="3.28591">
        <ele>1075.4000244141</ele>
        <time>2023-05-07T11:31:50Z</time>
      </trkpt>
      <trkpt lat="44.66472" lon="3.2859">
        <ele>1075.4000244141</ele>
        <time>2023-05-07T11:31:52Z</time>
      </trkpt>
      <trkpt lat="44.66474" lon="3.28589">
        <ele>1075.4000244141</ele>
        <time>2023-05-07T11:31:53Z</time>
      </trkpt>
      <trkpt lat="44.66481" lon="3.28587">
        <ele>1075.5999755859</ele>
        <time>2023-05-07T11:31:58Z</time>
      </trkpt>
      <trkpt lat="44.66483" lon="3.28587">
        <ele>1075.5999755859</ele>
        <time>2023-05-07T11:32:00Z</time>
      </trkpt>
      <trkpt lat="44.66488" lon="3.28587">
        <ele>1076</ele>
        <time>2023-05-07T11:32:05Z</time>
      </trkpt>
      <trkpt lat="44.66491" lon="3.28584">
        <ele>1076.5999755859</ele>
        <time>2023-05-07T11:32:10Z</time>
      </trkpt>
      <trkpt lat="44.66493" lon="3.28583">
        <ele>1076.8000488281</ele>
        <time>2023-05-07T11:32:11Z</time>
      </trkpt>
      <trkpt lat="44.66501" lon="3.28574">
        <ele>1077.5999755859</ele>
        <time>2023-05-07T11:32:18Z</time>
      </trkpt>
      <trkpt lat="44.66502" lon="3.28573">
        <ele>1077.8000488281</ele>
        <time>2023-05-07T11:32:19Z</time>
      </trkpt>
      <trkpt lat="44.66505" lon="3.28564">
        <ele>1079.1999511719</ele>
        <time>2023-05-07T11:32:25Z</time>
      </trkpt>
      <trkpt lat="44.66509" lon="3.28557">
        <ele>1079.5999755859</ele>
        <time>2023-05-07T11:32:31Z</time>
      </trkpt>
      <trkpt lat="44.66511" lon="3.28553">
        <ele>1079.8000488281</ele>
        <time>2023-05-07T11:32:34Z</time>
      </trkpt>
      <trkpt lat="44.66513" lon="3.28552">
        <ele>1080</ele>
        <time>2023-05-07T11:32:36Z</time>
      </trkpt>
      <trkpt lat="44.66514" lon="3.28551">
        <ele>1080</ele>
        <time>2023-05-07T11:32:37Z</time>
      </trkpt>
      <trkpt lat="44.66515" lon="3.28549">
        <ele>1080</ele>
        <time>2023-05-07T11:32:40Z</time>
      </trkpt>
      <trkpt lat="44.66516" lon="3.28545">
        <ele>1080.4000244141</ele>
        <time>2023-05-07T11:32:42Z</time>
      </trkpt>
      <trkpt lat="44.66516" lon="3.2854">
        <ele>1080.8000488281</ele>
        <time>2023-05-07T11:32:45Z</time>
      </trkpt>
      <trkpt lat="44.66517" lon="3.28536">
        <ele>1081</ele>
        <time>2023-05-07T11:32:47Z</time>
      </trkpt>
      <trkpt lat="44.66519" lon="3.28532">
        <ele>1081.4000244141</ele>
        <time>2023-05-07T11:32:49Z</time>
      </trkpt>
      <trkpt lat="44.66521" lon="3.28525">
        <ele>1082</ele>
        <time>2023-05-07T11:32:54Z</time>
      </trkpt>
      <trkpt lat="44.66522" lon="3.28518">
        <ele>1082.4000244141</ele>
        <time>2023-05-07T11:32:59Z</time>
      </trkpt>
      <trkpt lat="44.66523" lon="3.28514">
        <ele>1082.4000244141</ele>
        <time>2023-05-07T11:33:04Z</time>
      </trkpt>
      <trkpt lat="44.66524" lon="3.28513">
        <ele>1082.5999755859</ele>
        <time>2023-05-07T11:33:06Z</time>
      </trkpt>
      <trkpt lat="44.66526" lon="3.28511">
        <ele>1082.5999755859</ele>
        <time>2023-05-07T11:33:09Z</time>
      </trkpt>
      <trkpt lat="44.66526" lon="3.2851">
        <ele>1082.5999755859</ele>
        <time>2023-05-07T11:33:10Z</time>
      </trkpt>
      <trkpt lat="44.66527" lon="3.28509">
        <ele>1082.8000488281</ele>
        <time>2023-05-07T11:33:14Z</time>
      </trkpt>
      <trkpt lat="44.66528" lon="3.28509">
        <ele>1083</ele>
        <time>2023-05-07T11:33:16Z</time>
      </trkpt>
      <trkpt lat="44.66532" lon="3.28509">
        <ele>1083</ele>
        <time>2023-05-07T11:33:19Z</time>
      </trkpt>
      <trkpt lat="44.66536" lon="3.28509">
        <ele>1083</ele>
        <time>2023-05-07T11:33:21Z</time>
      </trkpt>
      <trkpt lat="44.6654" lon="3.28511">
        <ele>1083</ele>
        <time>2023-05-07T11:33:23Z</time>
      </trkpt>
      <trkpt lat="44.66543" lon="3.28513">
        <ele>1083</ele>
        <time>2023-05-07T11:33:24Z</time>
      </trkpt>
      <trkpt lat="44.66544" lon="3.28514">
        <ele>1082.8000488281</ele>
        <time>2023-05-07T11:33:25Z</time>
      </trkpt>
      <trkpt lat="44.66544" lon="3.28514">
        <ele>1083</ele>
        <time>2023-05-07T11:33:26Z</time>
      </trkpt>
      <trkpt lat="44.6655" lon="3.28514">
        <ele>1082.4000244141</ele>
        <time>2023-05-07T11:33:28Z</time>
      </trkpt>
      <trkpt lat="44.66562" lon="3.28513">
        <ele>1080.5999755859</ele>
        <time>2023-05-07T11:33:33Z</time>
      </trkpt>
      <trkpt lat="44.66564" lon="3.2851">
        <ele>1080.1999511719</ele>
        <time>2023-05-07T11:33:37Z</time>
      </trkpt>
      <trkpt lat="44.6656" lon="3.28501">
        <ele>1081</ele>
        <time>2023-05-07T11:33:42Z</time>
      </trkpt>
      <trkpt lat="44.66555" lon="3.28488">
        <ele>1082</ele>
        <time>2023-05-07T11:33:49Z</time>
      </trkpt>
      <trkpt lat="44.6655" lon="3.28474">
        <ele>1082.1999511719</ele>
        <time>2023-05-07T11:33:56Z</time>
      </trkpt>
      <trkpt lat="44.66544" lon="3.28458">
        <ele>1082</ele>
        <time>2023-05-07T11:34:03Z</time>
      </trkpt>
      <trkpt lat="44.66536" lon="3.28449">
        <ele>1082.1999511719</ele>
        <time>2023-05-07T11:34:09Z</time>
      </trkpt>
      <trkpt lat="44.66528" lon="3.28435">
        <ele>1083</ele>
        <time>2023-05-07T11:34:16Z</time>
      </trkpt>
      <trkpt lat="44.66519" lon="3.28423">
        <ele>1083.5999755859</ele>
        <time>2023-05-07T11:34:24Z</time>
      </trkpt>
      <trkpt lat="44.66513" lon="3.28409">
        <ele>1084.1999511719</ele>
        <time>2023-05-07T11:34:31Z</time>
      </trkpt>
      <trkpt lat="44.6651" lon="3.28396">
        <ele>1084.5999755859</ele>
        <time>2023-05-07T11:34:37Z</time>
      </trkpt>
      <trkpt lat="44.6651" lon="3.28387">
        <ele>1085.1999511719</ele>
        <time>2023-05-07T11:34:42Z</time>
      </trkpt>
      <trkpt lat="44.6651" lon="3.28386">
        <ele>1085.1999511719</ele>
        <time>2023-05-07T11:34:43Z</time>
      </trkpt>
      <trkpt lat="44.66508" lon="3.28373">
        <ele>1085.8000488281</ele>
        <time>2023-05-07T11:34:49Z</time>
      </trkpt>
      <trkpt lat="44.66506" lon="3.28362">
        <ele>1086.5999755859</ele>
        <time>2023-05-07T11:34:55Z</time>
      </trkpt>
      <trkpt lat="44.66505" lon="3.2835">
        <ele>1087.8000488281</ele>
        <time>2023-05-07T11:35:02Z</time>
      </trkpt>
      <trkpt lat="44.66502" lon="3.28336">
        <ele>1089.1999511719</ele>
        <time>2023-05-07T11:35:10Z</time>
      </trkpt>
      <trkpt lat="44.66498" lon="3.28324">
        <ele>1090.4000244141</ele>
        <time>2023-05-07T11:35:18Z</time>
      </trkpt>
      <trkpt lat="44.66494" lon="3.28312">
        <ele>1090.5999755859</ele>
        <time>2023-05-07T11:35:25Z</time>
      </trkpt>
      <trkpt lat="44.66491" lon="3.28294">
        <ele>1091</ele>
        <time>2023-05-07T11:35:34Z</time>
      </trkpt>
      <trkpt lat="44.6649" lon="3.28273">
        <ele>1091.4000244141</ele>
        <time>2023-05-07T11:35:42Z</time>
      </trkpt>
      <trkpt lat="44.66485" lon="3.28249">
        <ele>1091.8000488281</ele>
        <time>2023-05-07T11:35:50Z</time>
      </trkpt>
      <trkpt lat="44.66478" lon="3.28227">
        <ele>1092.4000244141</ele>
        <time>2023-05-07T11:35:58Z</time>
      </trkpt>
      <trkpt lat="44.66469" lon="3.28208">
        <ele>1092.5999755859</ele>
        <time>2023-05-07T11:36:06Z</time>
      </trkpt>
      <trkpt lat="44.66459" lon="3.28193">
        <ele>1093.1999511719</ele>
        <time>2023-05-07T11:36:14Z</time>
      </trkpt>
      <trkpt lat="44.66446" lon="3.28182">
        <ele>1093.8000488281</ele>
        <time>2023-05-07T11:36:23Z</time>
      </trkpt>
      <trkpt lat="44.66436" lon="3.28173">
        <ele>1094.4000244141</ele>
        <time>2023-05-07T11:36:30Z</time>
      </trkpt>
      <trkpt lat="44.66425" lon="3.28163">
        <ele>1095</ele>
        <time>2023-05-07T11:36:38Z</time>
      </trkpt>
      <trkpt lat="44.66414" lon="3.28154">
        <ele>1095.8000488281</ele>
        <time>2023-05-07T11:36:46Z</time>
      </trkpt>
      <trkpt lat="44.66402" lon="3.28146">
        <ele>1096.5999755859</ele>
        <time>2023-05-07T11:36:54Z</time>
      </trkpt>
      <trkpt lat="44.66392" lon="3.28138">
        <ele>1097.5999755859</ele>
        <time>2023-05-07T11:37:02Z</time>
      </trkpt>
      <trkpt lat="44.6638" lon="3.28132">
        <ele>1098.4000244141</ele>
        <time>2023-05-07T11:37:09Z</time>
      </trkpt>
      <trkpt lat="44.66372" lon="3.28127">
        <ele>1099</ele>
        <time>2023-05-07T11:37:15Z</time>
      </trkpt>
      <trkpt lat="44.66361" lon="3.28121">
        <ele>1099.8000488281</ele>
        <time>2023-05-07T11:37:22Z</time>
      </trkpt>
      <trkpt lat="44.66352" lon="3.28116">
        <ele>1100.1999511719</ele>
        <time>2023-05-07T11:37:29Z</time>
      </trkpt>
      <trkpt lat="44.66343" lon="3.2811">
        <ele>1100.8000488281</ele>
        <time>2023-05-07T11:37:36Z</time>
      </trkpt>
      <trkpt lat="44.66332" lon="3.28103">
        <ele>1101.4000244141</ele>
        <time>2023-05-07T11:37:44Z</time>
      </trkpt>
      <trkpt lat="44.66317" lon="3.28094">
        <ele>1102.1999511719</ele>
        <time>2023-05-07T11:37:52Z</time>
      </trkpt>
      <trkpt lat="44.66306" lon="3.28087">
        <ele>1102.5999755859</ele>
        <time>2023-05-07T11:37:58Z</time>
      </trkpt>
      <trkpt lat="44.6629" lon="3.28079">
        <ele>1103.1999511719</ele>
        <time>2023-05-07T11:38:06Z</time>
      </trkpt>
      <trkpt lat="44.66276" lon="3.28072">
        <ele>1103.8000488281</ele>
        <time>2023-05-07T11:38:13Z</time>
      </trkpt>
      <trkpt lat="44.66261" lon="3.28062">
        <ele>1104.8000488281</ele>
        <time>2023-05-07T11:38:22Z</time>
      </trkpt>
      <trkpt lat="44.66249" lon="3.28056">
        <ele>1105.5999755859</ele>
        <time>2023-05-07T11:38:29Z</time>
      </trkpt>
      <trkpt lat="44.6624" lon="3.28053">
        <ele>1106.1999511719</ele>
        <time>2023-05-07T11:38:34Z</time>
      </trkpt>
      <trkpt lat="44.66221" lon="3.28049">
        <ele>1107.1999511719</ele>
        <time>2023-05-07T11:38:44Z</time>
      </trkpt>
      <trkpt lat="44.66209" lon="3.28042">
        <ele>1107.8000488281</ele>
        <time>2023-05-07T11:38:50Z</time>
      </trkpt>
      <trkpt lat="44.66207" lon="3.28039">
        <ele>1107.8000488281</ele>
        <time>2023-05-07T11:38:51Z</time>
      </trkpt>
      <trkpt lat="44.66191" lon="3.28026">
        <ele>1108.4000244141</ele>
        <time>2023-05-07T11:38:59Z</time>
      </trkpt>
      <trkpt lat="44.66177" lon="3.28012">
        <ele>1109</ele>
        <time>2023-05-07T11:39:06Z</time>
      </trkpt>
      <trkpt lat="44.66163" lon="3.27996">
        <ele>1109.5999755859</ele>
        <time>2023-05-07T11:39:13Z</time>
      </trkpt>
      <trkpt lat="44.66148" lon="3.27976">
        <ele>1110.1999511719</ele>
        <time>2023-05-07T11:39:20Z</time>
      </trkpt>
      <trkpt lat="44.66129" lon="3.27959">
        <ele>1110.5999755859</ele>
        <time>2023-05-07T11:39:27Z</time>
      </trkpt>
      <trkpt lat="44.66108" lon="3.2794">
        <ele>1111.1999511719</ele>
        <time>2023-05-07T11:39:35Z</time>
      </trkpt>
      <trkpt lat="44.66091" lon="3.27926">
        <ele>1111.5999755859</ele>
        <time>2023-05-07T11:39:41Z</time>
      </trkpt>
      <trkpt lat="44.66074" lon="3.27908">
        <ele>1111.8000488281</ele>
        <time>2023-05-07T11:39:48Z</time>
      </trkpt>
      <trkpt lat="44.66054" lon="3.27887">
        <ele>1112.1999511719</ele>
        <time>2023-05-07T11:39:55Z</time>
      </trkpt>
      <trkpt lat="44.66033" lon="3.27867">
        <ele>1112.4000244141</ele>
        <time>2023-05-07T11:40:01Z</time>
      </trkpt>
      <trkpt lat="44.66002" lon="3.27846">
        <ele>1112.1999511719</ele>
        <time>2023-05-07T11:40:08Z</time>
      </trkpt>
      <trkpt lat="44.65963" lon="3.27825">
        <ele>1112.4000244141</ele>
        <time>2023-05-07T11:40:16Z</time>
      </trkpt>
      <trkpt lat="44.65929" lon="3.2781">
        <ele>1112.5999755859</ele>
        <time>2023-05-07T11:40:23Z</time>
      </trkpt>
      <trkpt lat="44.65883" lon="3.27792">
        <ele>1112.5999755859</ele>
        <time>2023-05-07T11:40:32Z</time>
      </trkpt>
      <trkpt lat="44.65843" lon="3.27777">
        <ele>1112.5999755859</ele>
        <time>2023-05-07T11:40:40Z</time>
      </trkpt>
      <trkpt lat="44.65834" lon="3.27773">
        <ele>1112.5999755859</ele>
        <time>2023-05-07T11:40:42Z</time>
      </trkpt>
      <trkpt lat="44.65827" lon="3.27766">
        <ele>1112.5999755859</ele>
        <time>2023-05-07T11:40:44Z</time>
      </trkpt>
      <trkpt lat="44.65826" lon="3.27758">
        <ele>1112.4000244141</ele>
        <time>2023-05-07T11:40:46Z</time>
      </trkpt>
      <trkpt lat="44.65828" lon="3.27755">
        <ele>1112.4000244141</ele>
        <time>2023-05-07T11:40:47Z</time>
      </trkpt>
      <trkpt lat="44.65834" lon="3.27751">
        <ele>1112.4000244141</ele>
        <time>2023-05-07T11:40:49Z</time>
      </trkpt>
      <trkpt lat="44.65851" lon="3.27741">
        <ele>1112.4000244141</ele>
        <time>2023-05-07T11:40:55Z</time>
      </trkpt>
      <trkpt lat="44.65864" lon="3.27734">
        <ele>1112.4000244141</ele>
        <time>2023-05-07T11:41:00Z</time>
      </trkpt>
      <trkpt lat="44.65884" lon="3.27726">
        <ele>1112.1999511719</ele>
        <time>2023-05-07T11:41:08Z</time>
      </trkpt>
      <trkpt lat="44.65891" lon="3.27723">
        <ele>1112</ele>
        <time>2023-05-07T11:41:11Z</time>
      </trkpt>
      <trkpt lat="44.65908" lon="3.27715">
        <ele>1111.8000488281</ele>
        <time>2023-05-07T11:41:18Z</time>
      </trkpt>
      <trkpt lat="44.65923" lon="3.27707">
        <ele>1112.1999511719</ele>
        <time>2023-05-07T11:41:24Z</time>
      </trkpt>
      <trkpt lat="44.65934" lon="3.27697">
        <ele>1112</ele>
        <time>2023-05-07T11:41:29Z</time>
      </trkpt>
      <trkpt lat="44.65945" lon="3.27686">
        <ele>1111.8000488281</ele>
        <time>2023-05-07T11:41:34Z</time>
      </trkpt>
      <trkpt lat="44.65953" lon="3.27677">
        <ele>1111.8000488281</ele>
        <time>2023-05-07T11:41:38Z</time>
      </trkpt>
      <trkpt lat="44.65964" lon="3.27665">
        <ele>1111.8000488281</ele>
        <time>2023-05-07T11:41:42Z</time>
      </trkpt>
      <trkpt lat="44.65972" lon="3.2766">
        <ele>1111.8000488281</ele>
        <time>2023-05-07T11:41:44Z</time>
      </trkpt>
      <trkpt lat="44.6598" lon="3.27654">
        <ele>1112</ele>
        <time>2023-05-07T11:41:46Z</time>
      </trkpt>
      <trkpt lat="44.66006" lon="3.27633">
        <ele>1111.8000488281</ele>
        <time>2023-05-07T11:41:51Z</time>
      </trkpt>
      <trkpt lat="44.6603" lon="3.27612">
        <ele>1111.4000244141</ele>
        <time>2023-05-07T11:41:55Z</time>
      </trkpt>
      <trkpt lat="44.66036" lon="3.27607">
        <ele>1111.1999511719</ele>
        <time>2023-05-07T11:41:56Z</time>
      </trkpt>
      <trkpt lat="44.66071" lon="3.27576">
        <ele>1109.8000488281</ele>
        <time>2023-05-07T11:42:01Z</time>
      </trkpt>
      <trkpt lat="44.66119" lon="3.27541">
        <ele>1108.4000244141</ele>
        <time>2023-05-07T11:42:07Z</time>
      </trkpt>
      <trkpt lat="44.66163" lon="3.27511">
        <ele>1107.8000488281</ele>
        <time>2023-05-07T11:42:13Z</time>
      </trkpt>
      <trkpt lat="44.66198" lon="3.27485">
        <ele>1107.4000244141</ele>
        <time>2023-05-07T11:42:19Z</time>
      </trkpt>
      <trkpt lat="44.66227" lon="3.27458">
        <ele>1106.5999755859</ele>
        <time>2023-05-07T11:42:25Z</time>
      </trkpt>
      <trkpt lat="44.66232" lon="3.27452">
        <ele>1106.5999755859</ele>
        <time>2023-05-07T11:42:26Z</time>
      </trkpt>
      <trkpt lat="44.66241" lon="3.27437">
        <ele>1106.1999511719</ele>
        <time>2023-05-07T11:42:28Z</time>
      </trkpt>
      <trkpt lat="44.66249" lon="3.2742">
        <ele>1105.8000488281</ele>
        <time>2023-05-07T11:42:30Z</time>
      </trkpt>
      <trkpt lat="44.66263" lon="3.27387">
        <ele>1104.8000488281</ele>
        <time>2023-05-07T11:42:34Z</time>
      </trkpt>
      <trkpt lat="44.66267" lon="3.27378">
        <ele>1104.4000244141</ele>
        <time>2023-05-07T11:42:35Z</time>
      </trkpt>
      <trkpt lat="44.66283" lon="3.27345">
        <ele>1103.5999755859</ele>
        <time>2023-05-07T11:42:39Z</time>
      </trkpt>
      <trkpt lat="44.66288" lon="3.27337">
        <ele>1103.4000244141</ele>
        <time>2023-05-07T11:42:40Z</time>
      </trkpt>
      <trkpt lat="44.66293" lon="3.27329">
        <ele>1103.1999511719</ele>
        <time>2023-05-07T11:42:41Z</time>
      </trkpt>
      <trkpt lat="44.66307" lon="3.27318">
        <ele>1102.8000488281</ele>
        <time>2023-05-07T11:42:43Z</time>
      </trkpt>
      <trkpt lat="44.66347" lon="3.27296">
        <ele>1101.1999511719</ele>
        <time>2023-05-07T11:42:48Z</time>
      </trkpt>
      <trkpt lat="44.66394" lon="3.27279">
        <ele>1099.4000244141</ele>
        <time>2023-05-07T11:42:54Z</time>
      </trkpt>
      <trkpt lat="44.66434" lon="3.27268">
        <ele>1097.8000488281</ele>
        <time>2023-05-07T11:42:59Z</time>
      </trkpt>
      <trkpt lat="44.66477" lon="3.27254">
        <ele>1096.4000244141</ele>
        <time>2023-05-07T11:43:04Z</time>
      </trkpt>
      <trkpt lat="44.66528" lon="3.27234">
        <ele>1094.8000488281</ele>
        <time>2023-05-07T11:43:10Z</time>
      </trkpt>
      <trkpt lat="44.66563" lon="3.27222">
        <ele>1094</ele>
        <time>2023-05-07T11:43:15Z</time>
      </trkpt>
      <trkpt lat="44.66606" lon="3.27209">
        <ele>1092.5999755859</ele>
        <time>2023-05-07T11:43:22Z</time>
      </trkpt>
      <trkpt lat="44.6665" lon="3.27196">
        <ele>1091.5999755859</ele>
        <time>2023-05-07T11:43:29Z</time>
      </trkpt>
      <trkpt lat="44.66661" lon="3.27192">
        <ele>1091.1999511719</ele>
        <time>2023-05-07T11:43:31Z</time>
      </trkpt>
      <trkpt lat="44.66685" lon="3.27186">
        <ele>1090.8000488281</ele>
        <time>2023-05-07T11:43:35Z</time>
      </trkpt>
      <trkpt lat="44.66726" lon="3.27169">
        <ele>1089.8000488281</ele>
        <time>2023-05-07T11:43:42Z</time>
      </trkpt>
      <trkpt lat="44.66783" lon="3.27142">
        <ele>1088.4000244141</ele>
        <time>2023-05-07T11:43:51Z</time>
      </trkpt>
      <trkpt lat="44.66813" lon="3.27127">
        <ele>1087.4000244141</ele>
        <time>2023-05-07T11:43:56Z</time>
      </trkpt>
      <trkpt lat="44.66826" lon="3.27123">
        <ele>1087</ele>
        <time>2023-05-07T11:43:58Z</time>
      </trkpt>
      <trkpt lat="44.6684" lon="3.27122">
        <ele>1086.5999755859</ele>
        <time>2023-05-07T11:44:00Z</time>
      </trkpt>
      <trkpt lat="44.66883" lon="3.27123">
        <ele>1084.4000244141</ele>
        <time>2023-05-07T11:44:05Z</time>
      </trkpt>
      <trkpt lat="44.66925" lon="3.27116">
        <ele>1082</ele>
        <time>2023-05-07T11:44:10Z</time>
      </trkpt>
      <trkpt lat="44.6696" lon="3.27096">
        <ele>1079.5999755859</ele>
        <time>2023-05-07T11:44:14Z</time>
      </trkpt>
      <trkpt lat="44.67002" lon="3.27068">
        <ele>1077.1999511719</ele>
        <time>2023-05-07T11:44:18Z</time>
      </trkpt>
      <trkpt lat="44.67062" lon="3.27032">
        <ele>1073.8000488281</ele>
        <time>2023-05-07T11:44:23Z</time>
      </trkpt>
      <trkpt lat="44.67109" lon="3.26996">
        <ele>1071.1999511719</ele>
        <time>2023-05-07T11:44:27Z</time>
      </trkpt>
      <trkpt lat="44.67136" lon="3.26962">
        <ele>1069.4000244141</ele>
        <time>2023-05-07T11:44:30Z</time>
      </trkpt>
      <trkpt lat="44.67179" lon="3.26902">
        <ele>1066.4000244141</ele>
        <time>2023-05-07T11:44:35Z</time>
      </trkpt>
      <trkpt lat="44.67221" lon="3.26852">
        <ele>1063.1999511719</ele>
        <time>2023-05-07T11:44:40Z</time>
      </trkpt>
      <trkpt lat="44.67239" lon="3.26832">
        <ele>1061.4000244141</ele>
        <time>2023-05-07T11:44:43Z</time>
      </trkpt>
      <trkpt lat="44.67253" lon="3.26812">
        <ele>1059.4000244141</ele>
        <time>2023-05-07T11:44:46Z</time>
      </trkpt>
      <trkpt lat="44.67258" lon="3.26808">
        <ele>1058.8000488281</ele>
        <time>2023-05-07T11:44:47Z</time>
      </trkpt>
      <trkpt lat="44.67264" lon="3.26805">
        <ele>1058</ele>
        <time>2023-05-07T11:44:48Z</time>
      </trkpt>
      <trkpt lat="44.67279" lon="3.26802">
        <ele>1056.8000488281</ele>
        <time>2023-05-07T11:44:50Z</time>
      </trkpt>
      <trkpt lat="44.67313" lon="3.26802">
        <ele>1054</ele>
        <time>2023-05-07T11:44:54Z</time>
      </trkpt>
      <trkpt lat="44.67347" lon="3.26802">
        <ele>1051.4000244141</ele>
        <time>2023-05-07T11:44:58Z</time>
      </trkpt>
      <trkpt lat="44.67364" lon="3.26801">
        <ele>1050.1999511719</ele>
        <time>2023-05-07T11:45:00Z</time>
      </trkpt>
      <trkpt lat="44.6738" lon="3.26795">
        <ele>1049.1999511719</ele>
        <time>2023-05-07T11:45:02Z</time>
      </trkpt>
      <trkpt lat="44.67395" lon="3.26789">
        <ele>1048.1999511719</ele>
        <time>2023-05-07T11:45:04Z</time>
      </trkpt>
      <trkpt lat="44.6741" lon="3.26784">
        <ele>1047.1999511719</ele>
        <time>2023-05-07T11:45:06Z</time>
      </trkpt>
      <trkpt lat="44.67422" lon="3.26785">
        <ele>1046.4000244141</ele>
        <time>2023-05-07T11:45:08Z</time>
      </trkpt>
      <trkpt lat="44.67428" lon="3.26785">
        <ele>1045.8000488281</ele>
        <time>2023-05-07T11:45:09Z</time>
      </trkpt>
      <trkpt lat="44.67439" lon="3.26784">
        <ele>1045</ele>
        <time>2023-05-07T11:45:11Z</time>
      </trkpt>
      <trkpt lat="44.67449" lon="3.26786">
        <ele>1044.1999511719</ele>
        <time>2023-05-07T11:45:13Z</time>
      </trkpt>
      <trkpt lat="44.67457" lon="3.26791">
        <ele>1043.5999755859</ele>
        <time>2023-05-07T11:45:15Z</time>
      </trkpt>
      <trkpt lat="44.67473" lon="3.26806">
        <ele>1042.4000244141</ele>
        <time>2023-05-07T11:45:20Z</time>
      </trkpt>
      <trkpt lat="44.67485" lon="3.26807">
        <ele>1040.8000488281</ele>
        <time>2023-05-07T11:45:24Z</time>
      </trkpt>
      <trkpt lat="44.67501" lon="3.26813">
        <ele>1038.8000488281</ele>
        <time>2023-05-07T11:45:32Z</time>
      </trkpt>
      <trkpt lat="44.67515" lon="3.26821">
        <ele>1037.4000244141</ele>
        <time>2023-05-07T11:45:40Z</time>
      </trkpt>
      <trkpt lat="44.67528" lon="3.26828">
        <ele>1036.5999755859</ele>
        <time>2023-05-07T11:45:48Z</time>
      </trkpt>
      <trkpt lat="44.67536" lon="3.26833">
        <ele>1036.1999511719</ele>
        <time>2023-05-07T11:45:54Z</time>
      </trkpt>
      <trkpt lat="44.67547" lon="3.26839">
        <ele>1035.5999755859</ele>
        <time>2023-05-07T11:46:02Z</time>
      </trkpt>
      <trkpt lat="44.67558" lon="3.26844">
        <ele>1035.1999511719</ele>
        <time>2023-05-07T11:46:10Z</time>
      </trkpt>
      <trkpt lat="44.67572" lon="3.26846">
        <ele>1035.4000244141</ele>
        <time>2023-05-07T11:46:18Z</time>
      </trkpt>
      <trkpt lat="44.67588" lon="3.26844">
        <ele>1035.4000244141</ele>
        <time>2023-05-07T11:46:25Z</time>
      </trkpt>
      <trkpt lat="44.67611" lon="3.26834">
        <ele>1035</ele>
        <time>2023-05-07T11:46:31Z</time>
      </trkpt>
      <trkpt lat="44.6764" lon="3.26814">
        <ele>1034.5999755859</ele>
        <time>2023-05-07T11:46:38Z</time>
      </trkpt>
      <trkpt lat="44.67649" lon="3.2681">
        <ele>1034.4000244141</ele>
        <time>2023-05-07T11:46:40Z</time>
      </trkpt>
      <trkpt lat="44.67666" lon="3.26803">
        <ele>1033.8000488281</ele>
        <time>2023-05-07T11:46:44Z</time>
      </trkpt>
      <trkpt lat="44.6767" lon="3.26803">
        <ele>1033.8000488281</ele>
        <time>2023-05-07T11:46:45Z</time>
      </trkpt>
      <trkpt lat="44.67683" lon="3.26802">
        <ele>1033.5999755859</ele>
        <time>2023-05-07T11:46:48Z</time>
      </trkpt>
      <trkpt lat="44.67686" lon="3.268">
        <ele>1033.4000244141</ele>
        <time>2023-05-07T11:46:49Z</time>
      </trkpt>
      <trkpt lat="44.67699" lon="3.26795">
        <ele>1033.4000244141</ele>
        <time>2023-05-07T11:46:54Z</time>
      </trkpt>
      <trkpt lat="44.677" lon="3.26792">
        <ele>1033.1999511719</ele>
        <time>2023-05-07T11:47:00Z</time>
      </trkpt>
      <trkpt lat="44.67717" lon="3.26789">
        <ele>1032.8000488281</ele>
        <time>2023-05-07T11:47:03Z</time>
      </trkpt>
      <trkpt lat="44.67734" lon="3.26783">
        <ele>1033</ele>
        <time>2023-05-07T11:47:10Z</time>
      </trkpt>
      <trkpt lat="44.67746" lon="3.26777">
        <ele>1033</ele>
        <time>2023-05-07T11:47:17Z</time>
      </trkpt>
      <trkpt lat="44.67756" lon="3.26774">
        <ele>1033</ele>
        <time>2023-05-07T11:47:23Z</time>
      </trkpt>
      <trkpt lat="44.67769" lon="3.26769">
        <ele>1033.4000244141</ele>
        <time>2023-05-07T11:47:31Z</time>
      </trkpt>
      <trkpt lat="44.67785" lon="3.26768">
        <ele>1034.4000244141</ele>
        <time>2023-05-07T11:47:40Z</time>
      </trkpt>
      <trkpt lat="44.67798" lon="3.26767">
        <ele>1034.8000488281</ele>
        <time>2023-05-07T11:47:47Z</time>
      </trkpt>
      <trkpt lat="44.67811" lon="3.26764">
        <ele>1035.1999511719</ele>
        <time>2023-05-07T11:47:54Z</time>
      </trkpt>
      <trkpt lat="44.67824" lon="3.2676">
        <ele>1035.8000488281</ele>
        <time>2023-05-07T11:48:01Z</time>
      </trkpt>
      <trkpt lat="44.67841" lon="3.26754">
        <ele>1036.4000244141</ele>
        <time>2023-05-07T11:48:08Z</time>
      </trkpt>
      <trkpt lat="44.67867" lon="3.26742">
        <ele>1036.8000488281</ele>
        <time>2023-05-07T11:48:17Z</time>
      </trkpt>
      <trkpt lat="44.6789" lon="3.26732">
        <ele>1037</ele>
        <time>2023-05-07T11:48:24Z</time>
      </trkpt>
      <trkpt lat="44.67914" lon="3.26718">
        <ele>1037</ele>
        <time>2023-05-07T11:48:30Z</time>
      </trkpt>
      <trkpt lat="44.67945" lon="3.26688">
        <ele>1036.8000488281</ele>
        <time>2023-05-07T11:48:37Z</time>
      </trkpt>
      <trkpt lat="44.67977" lon="3.26654">
        <ele>1036.4000244141</ele>
        <time>2023-05-07T11:48:43Z</time>
      </trkpt>
      <trkpt lat="44.68006" lon="3.26624">
        <ele>1035.8000488281</ele>
        <time>2023-05-07T11:48:47Z</time>
      </trkpt>
      <trkpt lat="44.68043" lon="3.26583">
        <ele>1035</ele>
        <time>2023-05-07T11:48:52Z</time>
      </trkpt>
      <trkpt lat="44.6808" lon="3.26562">
        <ele>1034</ele>
        <time>2023-05-07T11:48:56Z</time>
      </trkpt>
      <trkpt lat="44.68132" lon="3.26534">
        <ele>1031.8000488281</ele>
        <time>2023-05-07T11:49:01Z</time>
      </trkpt>
      <trkpt lat="44.68143" lon="3.26531">
        <ele>1031.4000244141</ele>
        <time>2023-05-07T11:49:02Z</time>
      </trkpt>
      <trkpt lat="44.68163" lon="3.2653">
        <ele>1030.5999755859</ele>
        <time>2023-05-07T11:49:04Z</time>
      </trkpt>
      <trkpt lat="44.68173" lon="3.26533">
        <ele>1030.1999511719</ele>
        <time>2023-05-07T11:49:05Z</time>
      </trkpt>
      <trkpt lat="44.68211" lon="3.26539">
        <ele>1029</ele>
        <time>2023-05-07T11:49:09Z</time>
      </trkpt>
      <trkpt lat="44.68241" lon="3.26532">
        <ele>1028.1999511719</ele>
        <time>2023-05-07T11:49:13Z</time>
      </trkpt>
      <trkpt lat="44.68255" lon="3.26521">
        <ele>1027.5999755859</ele>
        <time>2023-05-07T11:49:16Z</time>
      </trkpt>
      <trkpt lat="44.68259" lon="3.26517">
        <ele>1027.4000244141</ele>
        <time>2023-05-07T11:49:17Z</time>
      </trkpt>
      <trkpt lat="44.68269" lon="3.26507">
        <ele>1027</ele>
        <time>2023-05-07T11:49:20Z</time>
      </trkpt>
      <trkpt lat="44.68276" lon="3.265">
        <ele>1026.5999755859</ele>
        <time>2023-05-07T11:49:22Z</time>
      </trkpt>
      <trkpt lat="44.68299" lon="3.26476">
        <ele>1025.1999511719</ele>
        <time>2023-05-07T11:49:29Z</time>
      </trkpt>
      <trkpt lat="44.68322" lon="3.26449">
        <ele>1023.4000244141</ele>
        <time>2023-05-07T11:49:36Z</time>
      </trkpt>
      <trkpt lat="44.68343" lon="3.26419">
        <ele>1022.200012207</ele>
        <time>2023-05-07T11:49:42Z</time>
      </trkpt>
      <trkpt lat="44.68347" lon="3.26408">
        <ele>1022</ele>
        <time>2023-05-07T11:49:43Z</time>
      </trkpt>
      <trkpt lat="44.68351" lon="3.26399">
        <ele>1021.4000244141</ele>
        <time>2023-05-07T11:49:45Z</time>
      </trkpt>
      <trkpt lat="44.68371" lon="3.26384">
        <ele>1020.200012207</ele>
        <time>2023-05-07T11:49:52Z</time>
      </trkpt>
      <trkpt lat="44.68391" lon="3.26371">
        <ele>1019.5999755859</ele>
        <time>2023-05-07T11:49:57Z</time>
      </trkpt>
      <trkpt lat="44.68412" lon="3.26353">
        <ele>1019</ele>
        <time>2023-05-07T11:50:03Z</time>
      </trkpt>
      <trkpt lat="44.68429" lon="3.2634">
        <ele>1019</ele>
        <time>2023-05-07T11:50:08Z</time>
      </trkpt>
      <trkpt lat="44.68451" lon="3.26329">
        <ele>1018.4000244141</ele>
        <time>2023-05-07T11:50:14Z</time>
      </trkpt>
      <trkpt lat="44.68471" lon="3.26316">
        <ele>1017.799987793</ele>
        <time>2023-05-07T11:50:20Z</time>
      </trkpt>
      <trkpt lat="44.68487" lon="3.26305">
        <ele>1017.4000244141</ele>
        <time>2023-05-07T11:50:25Z</time>
      </trkpt>
      <trkpt lat="44.68507" lon="3.26288">
        <ele>1017</ele>
        <time>2023-05-07T11:50:32Z</time>
      </trkpt>
      <trkpt lat="44.68532" lon="3.26271">
        <ele>1017</ele>
        <time>2023-05-07T11:50:40Z</time>
      </trkpt>
      <trkpt lat="44.68545" lon="3.26263">
        <ele>1017.200012207</ele>
        <time>2023-05-07T11:50:44Z</time>
      </trkpt>
      <trkpt lat="44.68562" lon="3.26254">
        <ele>1017.5999755859</ele>
        <time>2023-05-07T11:50:49Z</time>
      </trkpt>
      <trkpt lat="44.6857" lon="3.26249">
        <ele>1017.799987793</ele>
        <time>2023-05-07T11:50:52Z</time>
      </trkpt>
      <trkpt lat="44.68573" lon="3.26246">
        <ele>1017.799987793</ele>
        <time>2023-05-07T11:50:53Z</time>
      </trkpt>
      <trkpt lat="44.68581" lon="3.26241">
        <ele>1017.5999755859</ele>
        <time>2023-05-07T11:50:56Z</time>
      </trkpt>
      <trkpt lat="44.68588" lon="3.26242">
        <ele>1017.799987793</ele>
        <time>2023-05-07T11:50:59Z</time>
      </trkpt>
      <trkpt lat="44.6859" lon="3.26243">
        <ele>1018</ele>
        <time>2023-05-07T11:51:00Z</time>
      </trkpt>
      <trkpt lat="44.68591" lon="3.26245">
        <ele>1018</ele>
        <time>2023-05-07T11:51:01Z</time>
      </trkpt>
      <trkpt lat="44.68592" lon="3.26249">
        <ele>1018</ele>
        <time>2023-05-07T11:51:04Z</time>
      </trkpt>
      <trkpt lat="44.68592" lon="3.26251">
        <ele>1018</ele>
        <time>2023-05-07T11:51:05Z</time>
      </trkpt>
      <trkpt lat="44.68595" lon="3.26254">
        <ele>1017.799987793</ele>
        <time>2023-05-07T11:51:07Z</time>
      </trkpt>
      <trkpt lat="44.68598" lon="3.26266">
        <ele>1017.4000244141</ele>
        <time>2023-05-07T11:51:11Z</time>
      </trkpt>
      <trkpt lat="44.68603" lon="3.26291">
        <ele>1016.5999755859</ele>
        <time>2023-05-07T11:51:16Z</time>
      </trkpt>
      <trkpt lat="44.68605" lon="3.26311">
        <ele>1016.4000244141</ele>
        <time>2023-05-07T11:51:20Z</time>
      </trkpt>
      <trkpt lat="44.68606" lon="3.2632">
        <ele>1016.200012207</ele>
        <time>2023-05-07T11:51:22Z</time>
      </trkpt>
      <trkpt lat="44.68605" lon="3.26324">
        <ele>1016</ele>
        <time>2023-05-07T11:51:23Z</time>
      </trkpt>
      <trkpt lat="44.68609" lon="3.26352">
        <ele>1015.799987793</ele>
        <time>2023-05-07T11:51:29Z</time>
      </trkpt>
      <trkpt lat="44.68614" lon="3.26376">
        <ele>1015.5999755859</ele>
        <time>2023-05-07T11:51:34Z</time>
      </trkpt>
      <trkpt lat="44.68618" lon="3.26395">
        <ele>1015.4000244141</ele>
        <time>2023-05-07T11:51:38Z</time>
      </trkpt>
      <trkpt lat="44.68627" lon="3.26428">
        <ele>1016.4000244141</ele>
        <time>2023-05-07T11:51:44Z</time>
      </trkpt>
      <trkpt lat="44.68638" lon="3.2645">
        <ele>1016.799987793</ele>
        <time>2023-05-07T11:51:48Z</time>
      </trkpt>
      <trkpt lat="44.68642" lon="3.26463">
        <ele>1016.799987793</ele>
        <time>2023-05-07T11:51:50Z</time>
      </trkpt>
      <trkpt lat="44.68644" lon="3.26478">
        <ele>1016.799987793</ele>
        <time>2023-05-07T11:51:52Z</time>
      </trkpt>
      <trkpt lat="44.68644" lon="3.26493">
        <ele>1016.5999755859</ele>
        <time>2023-05-07T11:51:54Z</time>
      </trkpt>
      <trkpt lat="44.68644" lon="3.26501">
        <ele>1016.5999755859</ele>
        <time>2023-05-07T11:51:55Z</time>
      </trkpt>
      <trkpt lat="44.68644" lon="3.26509">
        <ele>1016.5999755859</ele>
        <time>2023-05-07T11:51:56Z</time>
      </trkpt>
      <trkpt lat="44.68644" lon="3.26532">
        <ele>1016.5999755859</ele>
        <time>2023-05-07T11:51:59Z</time>
      </trkpt>
      <trkpt lat="44.68643" lon="3.2654">
        <ele>1016.5999755859</ele>
        <time>2023-05-07T11:52:00Z</time>
      </trkpt>
      <trkpt lat="44.68644" lon="3.26547">
        <ele>1016.5999755859</ele>
        <time>2023-05-07T11:52:01Z</time>
      </trkpt>
      <trkpt lat="44.68645" lon="3.2656">
        <ele>1016.5999755859</ele>
        <time>2023-05-07T11:52:03Z</time>
      </trkpt>
      <trkpt lat="44.6865" lon="3.2658">
        <ele>1016.5999755859</ele>
        <time>2023-05-07T11:52:06Z</time>
      </trkpt>
      <trkpt lat="44.68652" lon="3.26587">
        <ele>1016.5999755859</ele>
        <time>2023-05-07T11:52:07Z</time>
      </trkpt>
      <trkpt lat="44.68666" lon="3.26622">
        <ele>1017</ele>
        <time>2023-05-07T11:52:13Z</time>
      </trkpt>
      <trkpt lat="44.68679" lon="3.26663">
        <ele>1018.200012207</ele>
        <time>2023-05-07T11:52:21Z</time>
      </trkpt>
      <trkpt lat="44.68683" lon="3.26701">
        <ele>1018.799987793</ele>
        <time>2023-05-07T11:52:28Z</time>
      </trkpt>
      <trkpt lat="44.68684" lon="3.26746">
        <ele>1019.4000244141</ele>
        <time>2023-05-07T11:52:35Z</time>
      </trkpt>
      <trkpt lat="44.68684" lon="3.26766">
        <ele>1019.5999755859</ele>
        <time>2023-05-07T11:52:38Z</time>
      </trkpt>
      <trkpt lat="44.68684" lon="3.26786">
        <ele>1019.799987793</ele>
        <time>2023-05-07T11:52:41Z</time>
      </trkpt>
      <trkpt lat="44.68685" lon="3.26813">
        <ele>1020</ele>
        <time>2023-05-07T11:52:45Z</time>
      </trkpt>
      <trkpt lat="44.68686" lon="3.26832">
        <ele>1020</ele>
        <time>2023-05-07T11:52:48Z</time>
      </trkpt>
      <trkpt lat="44.68688" lon="3.26858">
        <ele>1020</ele>
        <time>2023-05-07T11:52:53Z</time>
      </trkpt>
      <trkpt lat="44.68692" lon="3.26859">
        <ele>1019.799987793</ele>
        <time>2023-05-07T11:52:55Z</time>
      </trkpt>
      <trkpt lat="44.68705" lon="3.26838">
        <ele>1019.5999755859</ele>
        <time>2023-05-07T11:52:59Z</time>
      </trkpt>
      <trkpt lat="44.68721" lon="3.26813">
        <ele>1019.200012207</ele>
        <time>2023-05-07T11:53:03Z</time>
      </trkpt>
      <trkpt lat="44.68725" lon="3.26807">
        <ele>1019.200012207</ele>
        <time>2023-05-07T11:53:04Z</time>
      </trkpt>
      <trkpt lat="44.68733" lon="3.26794">
        <ele>1019</ele>
        <time>2023-05-07T11:53:06Z</time>
      </trkpt>
      <trkpt lat="44.68741" lon="3.26782">
        <ele>1018.799987793</ele>
        <time>2023-05-07T11:53:08Z</time>
      </trkpt>
      <trkpt lat="44.68746" lon="3.26777">
        <ele>1018.5999755859</ele>
        <time>2023-05-07T11:53:09Z</time>
      </trkpt>
      <trkpt lat="44.6876" lon="3.26762">
        <ele>1018.200012207</ele>
        <time>2023-05-07T11:53:12Z</time>
      </trkpt>
      <trkpt lat="44.68765" lon="3.26759">
        <ele>1018.200012207</ele>
        <time>2023-05-07T11:53:13Z</time>
      </trkpt>
      <trkpt lat="44.68792" lon="3.26747">
        <ele>1017.799987793</ele>
        <time>2023-05-07T11:53:18Z</time>
      </trkpt>
      <trkpt lat="44.68813" lon="3.26739">
        <ele>1017.5999755859</ele>
        <time>2023-05-07T11:53:22Z</time>
      </trkpt>
      <trkpt lat="44.68818" lon="3.26735">
        <ele>1017.4000244141</ele>
        <time>2023-05-07T11:53:23Z</time>
      </trkpt>
      <trkpt lat="44.68835" lon="3.26723">
        <ele>1017.200012207</ele>
        <time>2023-05-07T11:53:26Z</time>
      </trkpt>
      <trkpt lat="44.68841" lon="3.26719">
        <ele>1017</ele>
        <time>2023-05-07T11:53:27Z</time>
      </trkpt>
      <trkpt lat="44.68852" lon="3.2671">
        <ele>1016.5999755859</ele>
        <time>2023-05-07T11:53:29Z</time>
      </trkpt>
      <trkpt lat="44.68863" lon="3.26701">
        <ele>1016.200012207</ele>
        <time>2023-05-07T11:53:31Z</time>
      </trkpt>
      <trkpt lat="44.68868" lon="3.26696">
        <ele>1015.799987793</ele>
        <time>2023-05-07T11:53:32Z</time>
      </trkpt>
      <trkpt lat="44.68892" lon="3.26675">
        <ele>1015</ele>
        <time>2023-05-07T11:53:36Z</time>
      </trkpt>
      <trkpt lat="44.68898" lon="3.26669">
        <ele>1014.799987793</ele>
        <time>2023-05-07T11:53:37Z</time>
      </trkpt>
      <trkpt lat="44.68909" lon="3.26654">
        <ele>1014.200012207</ele>
        <time>2023-05-07T11:53:39Z</time>
      </trkpt>
      <trkpt lat="44.68914" lon="3.26647">
        <ele>1014</ele>
        <time>2023-05-07T11:53:40Z</time>
      </trkpt>
      <trkpt lat="44.68921" lon="3.26631">
        <ele>1013.799987793</ele>
        <time>2023-05-07T11:53:42Z</time>
      </trkpt>
      <trkpt lat="44.68929" lon="3.26615">
        <ele>1013.799987793</ele>
        <time>2023-05-07T11:53:44Z</time>
      </trkpt>
      <trkpt lat="44.68937" lon="3.26603">
        <ele>1013.5999755859</ele>
        <time>2023-05-07T11:53:46Z</time>
      </trkpt>
      <trkpt lat="44.6895" lon="3.26579">
        <ele>1013</ele>
        <time>2023-05-07T11:53:50Z</time>
      </trkpt>
      <trkpt lat="44.68953" lon="3.26574">
        <ele>1013</ele>
        <time>2023-05-07T11:53:51Z</time>
      </trkpt>
      <trkpt lat="44.68955" lon="3.26569">
        <ele>1012.799987793</ele>
        <time>2023-05-07T11:53:52Z</time>
      </trkpt>
      <trkpt lat="44.68964" lon="3.2656">
        <ele>1012.799987793</ele>
        <time>2023-05-07T11:53:54Z</time>
      </trkpt>
      <trkpt lat="44.68972" lon="3.26553">
        <ele>1012.5999755859</ele>
        <time>2023-05-07T11:53:56Z</time>
      </trkpt>
      <trkpt lat="44.6899" lon="3.26543">
        <ele>1012.4000244141</ele>
        <time>2023-05-07T11:54:00Z</time>
      </trkpt>
      <trkpt lat="44.69013" lon="3.26525">
        <ele>1012.200012207</ele>
        <time>2023-05-07T11:54:06Z</time>
      </trkpt>
      <trkpt lat="44.69017" lon="3.26523">
        <ele>1012.200012207</ele>
        <time>2023-05-07T11:54:07Z</time>
      </trkpt>
      <trkpt lat="44.69026" lon="3.26512">
        <ele>1012</ele>
        <time>2023-05-07T11:54:10Z</time>
      </trkpt>
      <trkpt lat="44.69031" lon="3.26503">
        <ele>1012</ele>
        <time>2023-05-07T11:54:12Z</time>
      </trkpt>
      <trkpt lat="44.69037" lon="3.26489">
        <ele>1011.799987793</ele>
        <time>2023-05-07T11:54:16Z</time>
      </trkpt>
      <trkpt lat="44.69046" lon="3.26483">
        <ele>1011.799987793</ele>
        <time>2023-05-07T11:54:19Z</time>
      </trkpt>
      <trkpt lat="44.69049" lon="3.26481">
        <ele>1011.799987793</ele>
        <time>2023-05-07T11:54:20Z</time>
      </trkpt>
      <trkpt lat="44.69056" lon="3.2648">
        <ele>1011.5999755859</ele>
        <time>2023-05-07T11:54:23Z</time>
      </trkpt>
      <trkpt lat="44.69066" lon="3.26475">
        <ele>1011.4000244141</ele>
        <time>2023-05-07T11:54:27Z</time>
      </trkpt>
      <trkpt lat="44.6908" lon="3.26467">
        <ele>1010.799987793</ele>
        <time>2023-05-07T11:54:32Z</time>
      </trkpt>
      <trkpt lat="44.69092" lon="3.26462">
        <ele>1010.200012207</ele>
        <time>2023-05-07T11:54:36Z</time>
      </trkpt>
      <trkpt lat="44.69103" lon="3.26457">
        <ele>1009.200012207</ele>
        <time>2023-05-07T11:54:40Z</time>
      </trkpt>
      <trkpt lat="44.69115" lon="3.26451">
        <ele>1008.200012207</ele>
        <time>2023-05-07T11:54:44Z</time>
      </trkpt>
      <trkpt lat="44.69131" lon="3.26441">
        <ele>1007</ele>
        <time>2023-05-07T11:54:49Z</time>
      </trkpt>
      <trkpt lat="44.69147" lon="3.26429">
        <ele>1006</ele>
        <time>2023-05-07T11:54:54Z</time>
      </trkpt>
      <trkpt lat="44.69162" lon="3.26418">
        <ele>1005</ele>
        <time>2023-05-07T11:54:59Z</time>
      </trkpt>
      <trkpt lat="44.69174" lon="3.26408">
        <ele>1005</ele>
        <time>2023-05-07T11:55:03Z</time>
      </trkpt>
      <trkpt lat="44.69185" lon="3.26399">
        <ele>1004.5999755859</ele>
        <time>2023-05-07T11:55:07Z</time>
      </trkpt>
      <trkpt lat="44.69196" lon="3.26385">
        <ele>1004.5999755859</ele>
        <time>2023-05-07T11:55:11Z</time>
      </trkpt>
      <trkpt lat="44.69208" lon="3.26374">
        <ele>1004.5999755859</ele>
        <time>2023-05-07T11:55:15Z</time>
      </trkpt>
      <trkpt lat="44.6922" lon="3.26365">
        <ele>1004.799987793</ele>
        <time>2023-05-07T11:55:19Z</time>
      </trkpt>
      <trkpt lat="44.69227" lon="3.26361">
        <ele>1005</ele>
        <time>2023-05-07T11:55:21Z</time>
      </trkpt>
      <trkpt lat="44.69234" lon="3.26356">
        <ele>1005.200012207</ele>
        <time>2023-05-07T11:55:23Z</time>
      </trkpt>
      <trkpt lat="44.69243" lon="3.26344">
        <ele>1005.4000244141</ele>
        <time>2023-05-07T11:55:27Z</time>
      </trkpt>
      <trkpt lat="44.6926" lon="3.26329">
        <ele>1005.799987793</ele>
        <time>2023-05-07T11:55:32Z</time>
      </trkpt>
      <trkpt lat="44.69279" lon="3.26313">
        <ele>1006.200012207</ele>
        <time>2023-05-07T11:55:37Z</time>
      </trkpt>
      <trkpt lat="44.69287" lon="3.26304">
        <ele>1006.4000244141</ele>
        <time>2023-05-07T11:55:40Z</time>
      </trkpt>
      <trkpt lat="44.69303" lon="3.26287">
        <ele>1006.5999755859</ele>
        <time>2023-05-07T11:55:45Z</time>
      </trkpt>
      <trkpt lat="44.69316" lon="3.26277">
        <ele>1006.5999755859</ele>
        <time>2023-05-07T11:55:49Z</time>
      </trkpt>
      <trkpt lat="44.69338" lon="3.2627">
        <ele>1006.799987793</ele>
        <time>2023-05-07T11:55:54Z</time>
      </trkpt>
      <trkpt lat="44.69363" lon="3.26266">
        <ele>1007.200012207</ele>
        <time>2023-05-07T11:55:59Z</time>
      </trkpt>
      <trkpt lat="44.69388" lon="3.26256">
        <ele>1007.5999755859</ele>
        <time>2023-05-07T11:56:05Z</time>
      </trkpt>
      <trkpt lat="44.69409" lon="3.26238">
        <ele>1008</ele>
        <time>2023-05-07T11:56:11Z</time>
      </trkpt>
      <trkpt lat="44.69426" lon="3.26219">
        <ele>1008.200012207</ele>
        <time>2023-05-07T11:56:17Z</time>
      </trkpt>
      <trkpt lat="44.69448" lon="3.26204">
        <ele>1008.4000244141</ele>
        <time>2023-05-07T11:56:24Z</time>
      </trkpt>
      <trkpt lat="44.6947" lon="3.26192">
        <ele>1008.4000244141</ele>
        <time>2023-05-07T11:56:31Z</time>
      </trkpt>
      <trkpt lat="44.69498" lon="3.26177">
        <ele>1008.200012207</ele>
        <time>2023-05-07T11:56:39Z</time>
      </trkpt>
      <trkpt lat="44.69501" lon="3.26176">
        <ele>1008</ele>
        <time>2023-05-07T11:56:40Z</time>
      </trkpt>
      <trkpt lat="44.69511" lon="3.2617">
        <ele>1008</ele>
        <time>2023-05-07T11:56:43Z</time>
      </trkpt>
      <trkpt lat="44.69519" lon="3.26165">
        <ele>1007.799987793</ele>
        <time>2023-05-07T11:56:46Z</time>
      </trkpt>
      <trkpt lat="44.69521" lon="3.26163">
        <ele>1007.5999755859</ele>
        <time>2023-05-07T11:56:47Z</time>
      </trkpt>
      <trkpt lat="44.69533" lon="3.26157">
        <ele>1007.200012207</ele>
        <time>2023-05-07T11:56:51Z</time>
      </trkpt>
      <trkpt lat="44.69545" lon="3.26149">
        <ele>1007</ele>
        <time>2023-05-07T11:56:55Z</time>
      </trkpt>
      <trkpt lat="44.6956" lon="3.26145">
        <ele>1006.799987793</ele>
        <time>2023-05-07T11:57:00Z</time>
      </trkpt>
      <trkpt lat="44.69573" lon="3.26142">
        <ele>1006.799987793</ele>
        <time>2023-05-07T11:57:04Z</time>
      </trkpt>
      <trkpt lat="44.6959" lon="3.26136">
        <ele>1007.4000244141</ele>
        <time>2023-05-07T11:57:08Z</time>
      </trkpt>
      <trkpt lat="44.6961" lon="3.26128">
        <ele>1007.799987793</ele>
        <time>2023-05-07T11:57:13Z</time>
      </trkpt>
      <trkpt lat="44.69634" lon="3.26114">
        <ele>1008.200012207</ele>
        <time>2023-05-07T11:57:20Z</time>
      </trkpt>
      <trkpt lat="44.69658" lon="3.26089">
        <ele>1008.799987793</ele>
        <time>2023-05-07T11:57:29Z</time>
      </trkpt>
      <trkpt lat="44.6967" lon="3.26088">
        <ele>1009</ele>
        <time>2023-05-07T11:57:33Z</time>
      </trkpt>
      <trkpt lat="44.69681" lon="3.26102">
        <ele>1008.799987793</ele>
        <time>2023-05-07T11:57:37Z</time>
      </trkpt>
      <trkpt lat="44.69687" lon="3.26111">
        <ele>1008.799987793</ele>
        <time>2023-05-07T11:57:39Z</time>
      </trkpt>
      <trkpt lat="44.69701" lon="3.26128">
        <ele>1008.5999755859</ele>
        <time>2023-05-07T11:57:43Z</time>
      </trkpt>
      <trkpt lat="44.69716" lon="3.26144">
        <ele>1008.5999755859</ele>
        <time>2023-05-07T11:57:47Z</time>
      </trkpt>
      <trkpt lat="44.69724" lon="3.2615">
        <ele>1008.5999755859</ele>
        <time>2023-05-07T11:57:49Z</time>
      </trkpt>
      <trkpt lat="44.69735" lon="3.2616">
        <ele>1008.5999755859</ele>
        <time>2023-05-07T11:57:52Z</time>
      </trkpt>
      <trkpt lat="44.69745" lon="3.26171">
        <ele>1008.799987793</ele>
        <time>2023-05-07T11:57:55Z</time>
      </trkpt>
      <trkpt lat="44.69765" lon="3.26193">
        <ele>1008.799987793</ele>
        <time>2023-05-07T11:58:01Z</time>
      </trkpt>
      <trkpt lat="44.69775" lon="3.26203">
        <ele>1009</ele>
        <time>2023-05-07T11:58:04Z</time>
      </trkpt>
      <trkpt lat="44.69786" lon="3.26211">
        <ele>1009</ele>
        <time>2023-05-07T11:58:07Z</time>
      </trkpt>
      <trkpt lat="44.69809" lon="3.2623">
        <ele>1009.4000244141</ele>
        <time>2023-05-07T11:58:14Z</time>
      </trkpt>
      <trkpt lat="44.69836" lon="3.2625">
        <ele>1010</ele>
        <time>2023-05-07T11:58:23Z</time>
      </trkpt>
      <trkpt lat="44.6985" lon="3.26259">
        <ele>1010</ele>
        <time>2023-05-07T11:58:28Z</time>
      </trkpt>
      <trkpt lat="44.69872" lon="3.26274">
        <ele>1010.200012207</ele>
        <time>2023-05-07T11:58:36Z</time>
      </trkpt>
      <trkpt lat="44.69891" lon="3.26287">
        <ele>1010.5999755859</ele>
        <time>2023-05-07T11:58:43Z</time>
      </trkpt>
      <trkpt lat="44.69909" lon="3.26303">
        <ele>1011.200012207</ele>
        <time>2023-05-07T11:58:50Z</time>
      </trkpt>
      <trkpt lat="44.69928" lon="3.2633">
        <ele>1011.799987793</ele>
        <time>2023-05-07T11:58:59Z</time>
      </trkpt>
      <trkpt lat="44.69939" lon="3.26351">
        <ele>1012.4000244141</ele>
        <time>2023-05-07T11:59:05Z</time>
      </trkpt>
      <trkpt lat="44.69946" lon="3.26367">
        <ele>1013.200012207</ele>
        <time>2023-05-07T11:59:12Z</time>
      </trkpt>
      <trkpt lat="44.69953" lon="3.26386">
        <ele>1014.200012207</ele>
        <time>2023-05-07T11:59:21Z</time>
      </trkpt>
      <trkpt lat="44.69959" lon="3.26405">
        <ele>1015.200012207</ele>
        <time>2023-05-07T11:59:29Z</time>
      </trkpt>
      <trkpt lat="44.69968" lon="3.26429">
        <ele>1016.200012207</ele>
        <time>2023-05-07T11:59:39Z</time>
      </trkpt>
      <trkpt lat="44.69976" lon="3.2645">
        <ele>1017</ele>
        <time>2023-05-07T11:59:49Z</time>
      </trkpt>
      <trkpt lat="44.69983" lon="3.26466">
        <ele>1017.799987793</ele>
        <time>2023-05-07T11:59:56Z</time>
      </trkpt>
      <trkpt lat="44.69991" lon="3.26485">
        <ele>1018.5999755859</ele>
        <time>2023-05-07T12:00:04Z</time>
      </trkpt>
      <trkpt lat="44.70001" lon="3.26508">
        <ele>1019.5999755859</ele>
        <time>2023-05-07T12:00:14Z</time>
      </trkpt>
      <trkpt lat="44.70008" lon="3.26526">
        <ele>1020.200012207</ele>
        <time>2023-05-07T12:00:21Z</time>
      </trkpt>
      <trkpt lat="44.70017" lon="3.2655">
        <ele>1021.200012207</ele>
        <time>2023-05-07T12:00:31Z</time>
      </trkpt>
      <trkpt lat="44.70025" lon="3.26569">
        <ele>1022</ele>
        <time>2023-05-07T12:00:38Z</time>
      </trkpt>
      <trkpt lat="44.70033" lon="3.26589">
        <ele>1022.5999755859</ele>
        <time>2023-05-07T12:00:46Z</time>
      </trkpt>
      <trkpt lat="44.70041" lon="3.26608">
        <ele>1023.4000244141</ele>
        <time>2023-05-07T12:00:54Z</time>
      </trkpt>
      <trkpt lat="44.70051" lon="3.26632">
        <ele>1024.5999755859</ele>
        <time>2023-05-07T12:01:04Z</time>
      </trkpt>
      <trkpt lat="44.70059" lon="3.26647">
        <ele>1025.1999511719</ele>
        <time>2023-05-07T12:01:11Z</time>
      </trkpt>
      <trkpt lat="44.70067" lon="3.26665">
        <ele>1026</ele>
        <time>2023-05-07T12:01:19Z</time>
      </trkpt>
      <trkpt lat="44.70077" lon="3.26683">
        <ele>1026.8000488281</ele>
        <time>2023-05-07T12:01:27Z</time>
      </trkpt>
      <trkpt lat="44.70092" lon="3.26707">
        <ele>1028.1999511719</ele>
        <time>2023-05-07T12:01:38Z</time>
      </trkpt>
      <trkpt lat="44.70102" lon="3.26724">
        <ele>1029</ele>
        <time>2023-05-07T12:01:46Z</time>
      </trkpt>
      <trkpt lat="44.70112" lon="3.26741">
        <ele>1029.8000488281</ele>
        <time>2023-05-07T12:01:53Z</time>
      </trkpt>
      <trkpt lat="44.7012" lon="3.26759">
        <ele>1030.4000244141</ele>
        <time>2023-05-07T12:02:00Z</time>
      </trkpt>
      <trkpt lat="44.70125" lon="3.26781">
        <ele>1031.1999511719</ele>
        <time>2023-05-07T12:02:07Z</time>
      </trkpt>
      <trkpt lat="44.70137" lon="3.26799">
        <ele>1031.5999755859</ele>
        <time>2023-05-07T12:02:13Z</time>
      </trkpt>
      <trkpt lat="44.70159" lon="3.26805">
        <ele>1032</ele>
        <time>2023-05-07T12:02:19Z</time>
      </trkpt>
      <trkpt lat="44.70189" lon="3.26813">
        <ele>1032.5999755859</ele>
        <time>2023-05-07T12:02:28Z</time>
      </trkpt>
      <trkpt lat="44.70214" lon="3.26819">
        <ele>1033</ele>
        <time>2023-05-07T12:02:35Z</time>
      </trkpt>
      <trkpt lat="44.7024" lon="3.26823">
        <ele>1033.4000244141</ele>
        <time>2023-05-07T12:02:42Z</time>
      </trkpt>
      <trkpt lat="44.70262" lon="3.26829">
        <ele>1033.4000244141</ele>
        <time>2023-05-07T12:02:48Z</time>
      </trkpt>
      <trkpt lat="44.70289" lon="3.26834">
        <ele>1033.4000244141</ele>
        <time>2023-05-07T12:02:55Z</time>
      </trkpt>
      <trkpt lat="44.70314" lon="3.26838">
        <ele>1033.5999755859</ele>
        <time>2023-05-07T12:03:02Z</time>
      </trkpt>
      <trkpt lat="44.70337" lon="3.26842">
        <ele>1033.5999755859</ele>
        <time>2023-05-07T12:03:09Z</time>
      </trkpt>
      <trkpt lat="44.70364" lon="3.26843">
        <ele>1033.1999511719</ele>
        <time>2023-05-07T12:03:17Z</time>
      </trkpt>
      <trkpt lat="44.70392" lon="3.26844">
        <ele>1033.4000244141</ele>
        <time>2023-05-07T12:03:25Z</time>
      </trkpt>
      <trkpt lat="44.70424" lon="3.26839">
        <ele>1034.5999755859</ele>
        <time>2023-05-07T12:03:34Z</time>
      </trkpt>
      <trkpt lat="44.7045" lon="3.26836">
        <ele>1035.4000244141</ele>
        <time>2023-05-07T12:03:41Z</time>
      </trkpt>
      <trkpt lat="44.70468" lon="3.26835">
        <ele>1035.8000488281</ele>
        <time>2023-05-07T12:03:46Z</time>
      </trkpt>
      <trkpt lat="44.7049" lon="3.26835">
        <ele>1036.1999511719</ele>
        <time>2023-05-07T12:03:52Z</time>
      </trkpt>
      <trkpt lat="44.705" lon="3.26836">
        <ele>1036.1999511719</ele>
        <time>2023-05-07T12:03:55Z</time>
      </trkpt>
      <trkpt lat="44.70524" lon="3.26837">
        <ele>1036.5999755859</ele>
        <time>2023-05-07T12:04:01Z</time>
      </trkpt>
      <trkpt lat="44.70543" lon="3.26842">
        <ele>1037.1999511719</ele>
        <time>2023-05-07T12:04:06Z</time>
      </trkpt>
      <trkpt lat="44.7057" lon="3.26858">
        <ele>1037.5999755859</ele>
        <time>2023-05-07T12:04:14Z</time>
      </trkpt>
      <trkpt lat="44.70592" lon="3.26873">
        <ele>1038</ele>
        <time>2023-05-07T12:04:21Z</time>
      </trkpt>
      <trkpt lat="44.70613" lon="3.26884">
        <ele>1038.1999511719</ele>
        <time>2023-05-07T12:04:27Z</time>
      </trkpt>
      <trkpt lat="44.70643" lon="3.26903">
        <ele>1038.4000244141</ele>
        <time>2023-05-07T12:04:36Z</time>
      </trkpt>
      <trkpt lat="44.70674" lon="3.26917">
        <ele>1038.8000488281</ele>
        <time>2023-05-07T12:04:45Z</time>
      </trkpt>
      <trkpt lat="44.70694" lon="3.26923">
        <ele>1039.1999511719</ele>
        <time>2023-05-07T12:04:51Z</time>
      </trkpt>
      <trkpt lat="44.70711" lon="3.26926">
        <ele>1039.4000244141</ele>
        <time>2023-05-07T12:04:57Z</time>
      </trkpt>
      <trkpt lat="44.7073" lon="3.2693">
        <ele>1040.1999511719</ele>
        <time>2023-05-07T12:05:05Z</time>
      </trkpt>
      <trkpt lat="44.70748" lon="3.26934">
        <ele>1040.8000488281</ele>
        <time>2023-05-07T12:05:12Z</time>
      </trkpt>
      <trkpt lat="44.70761" lon="3.26938">
        <ele>1041.1999511719</ele>
        <time>2023-05-07T12:05:18Z</time>
      </trkpt>
      <trkpt lat="44.70781" lon="3.26943">
        <ele>1042</ele>
        <time>2023-05-07T12:05:27Z</time>
      </trkpt>
      <trkpt lat="44.70798" lon="3.26947">
        <ele>1042.5999755859</ele>
        <time>2023-05-07T12:05:34Z</time>
      </trkpt>
      <trkpt lat="44.70811" lon="3.26951">
        <ele>1043.1999511719</ele>
        <time>2023-05-07T12:05:40Z</time>
      </trkpt>
      <trkpt lat="44.70828" lon="3.26955">
        <ele>1044</ele>
        <time>2023-05-07T12:05:47Z</time>
      </trkpt>
      <trkpt lat="44.70847" lon="3.26961">
        <ele>1045</ele>
        <time>2023-05-07T12:05:55Z</time>
      </trkpt>
      <trkpt lat="44.70868" lon="3.26971">
        <ele>1045.8000488281</ele>
        <time>2023-05-07T12:06:04Z</time>
      </trkpt>
      <trkpt lat="44.70886" lon="3.26985">
        <ele>1046.4000244141</ele>
        <time>2023-05-07T12:06:12Z</time>
      </trkpt>
      <trkpt lat="44.70902" lon="3.26996">
        <ele>1046.5999755859</ele>
        <time>2023-05-07T12:06:18Z</time>
      </trkpt>
      <trkpt lat="44.70928" lon="3.27011">
        <ele>1046.8000488281</ele>
        <time>2023-05-07T12:06:27Z</time>
      </trkpt>
      <trkpt lat="44.70944" lon="3.2702">
        <ele>1046.5999755859</ele>
        <time>2023-05-07T12:06:33Z</time>
      </trkpt>
      <trkpt lat="44.70959" lon="3.27027">
        <ele>1046.1999511719</ele>
        <time>2023-05-07T12:06:39Z</time>
      </trkpt>
      <trkpt lat="44.70978" lon="3.27041">
        <ele>1045.8000488281</ele>
        <time>2023-05-07T12:06:46Z</time>
      </trkpt>
      <trkpt lat="44.70999" lon="3.27063">
        <ele>1045.5999755859</ele>
        <time>2023-05-07T12:06:53Z</time>
      </trkpt>
      <trkpt lat="44.71015" lon="3.27085">
        <ele>1045.4000244141</ele>
        <time>2023-05-07T12:06:59Z</time>
      </trkpt>
      <trkpt lat="44.71023" lon="3.27098">
        <ele>1045.4000244141</ele>
        <time>2023-05-07T12:07:02Z</time>
      </trkpt>
      <trkpt lat="44.71035" lon="3.27114">
        <ele>1045</ele>
        <time>2023-05-07T12:07:06Z</time>
      </trkpt>
      <trkpt lat="44.71053" lon="3.27136">
        <ele>1044.4000244141</ele>
        <time>2023-05-07T12:07:12Z</time>
      </trkpt>
      <trkpt lat="44.71056" lon="3.2714">
        <ele>1044.1999511719</ele>
        <time>2023-05-07T12:07:13Z</time>
      </trkpt>
      <trkpt lat="44.71069" lon="3.27162">
        <ele>1044.1999511719</ele>
        <time>2023-05-07T12:07:17Z</time>
      </trkpt>
      <trkpt lat="44.71079" lon="3.27176">
        <ele>1043.8000488281</ele>
        <time>2023-05-07T12:07:20Z</time>
      </trkpt>
      <trkpt lat="44.71089" lon="3.27189">
        <ele>1043.5999755859</ele>
        <time>2023-05-07T12:07:23Z</time>
      </trkpt>
      <trkpt lat="44.71116" lon="3.27225">
        <ele>1043.8000488281</ele>
        <time>2023-05-07T12:07:31Z</time>
      </trkpt>
      <trkpt lat="44.71129" lon="3.27243">
        <ele>1044.4000244141</ele>
        <time>2023-05-07T12:07:36Z</time>
      </trkpt>
      <trkpt lat="44.7113" lon="3.27256">
        <ele>1044.5999755859</ele>
        <time>2023-05-07T12:07:39Z</time>
      </trkpt>
      <trkpt lat="44.71127" lon="3.2726">
        <ele>1044.8000488281</ele>
        <time>2023-05-07T12:07:40Z</time>
      </trkpt>
      <trkpt lat="44.71114" lon="3.27265">
        <ele>1045</ele>
        <time>2023-05-07T12:07:43Z</time>
      </trkpt>
      <trkpt lat="44.71101" lon="3.27271">
        <ele>1045</ele>
        <time>2023-05-07T12:07:45Z</time>
      </trkpt>
      <trkpt lat="44.71095" lon="3.27275">
        <ele>1045.1999511719</ele>
        <time>2023-05-07T12:07:46Z</time>
      </trkpt>
      <trkpt lat="44.71057" lon="3.27302">
        <ele>1045.5999755859</ele>
        <time>2023-05-07T12:07:52Z</time>
      </trkpt>
      <trkpt lat="44.71025" lon="3.27324">
        <ele>1046</ele>
        <time>2023-05-07T12:07:57Z</time>
      </trkpt>
      <trkpt lat="44.70989" lon="3.27351">
        <ele>1046.5999755859</ele>
        <time>2023-05-07T12:08:03Z</time>
      </trkpt>
      <trkpt lat="44.70983" lon="3.27356">
        <ele>1046.5999755859</ele>
        <time>2023-05-07T12:08:04Z</time>
      </trkpt>
      <trkpt lat="44.7095" lon="3.27381">
        <ele>1047</ele>
        <time>2023-05-07T12:08:09Z</time>
      </trkpt>
      <trkpt lat="44.70902" lon="3.27421">
        <ele>1046.5999755859</ele>
        <time>2023-05-07T12:08:15Z</time>
      </trkpt>
      <trkpt lat="44.70853" lon="3.27457">
        <ele>1045.5999755859</ele>
        <time>2023-05-07T12:08:20Z</time>
      </trkpt>
      <trkpt lat="44.70827" lon="3.27474">
        <ele>1044.5999755859</ele>
        <time>2023-05-07T12:08:23Z</time>
      </trkpt>
      <trkpt lat="44.70821" lon="3.27479">
        <ele>1044.4000244141</ele>
        <time>2023-05-07T12:08:24Z</time>
      </trkpt>
      <trkpt lat="44.70815" lon="3.27491">
        <ele>1043.8000488281</ele>
        <time>2023-05-07T12:08:26Z</time>
      </trkpt>
      <trkpt lat="44.70817" lon="3.27505">
        <ele>1043.4000244141</ele>
        <time>2023-05-07T12:08:28Z</time>
      </trkpt>
      <trkpt lat="44.70819" lon="3.27513">
        <ele>1043</ele>
        <time>2023-05-07T12:08:29Z</time>
      </trkpt>
      <trkpt lat="44.70823" lon="3.27523">
        <ele>1042.4000244141</ele>
        <time>2023-05-07T12:08:31Z</time>
      </trkpt>
      <trkpt lat="44.70825" lon="3.27525">
        <ele>1042</ele>
        <time>2023-05-07T12:08:32Z</time>
      </trkpt>
      <trkpt lat="44.70826" lon="3.27525">
        <ele>1041.8000488281</ele>
        <time>2023-05-07T12:08:33Z</time>
      </trkpt>
      <trkpt lat="44.70831" lon="3.27534">
        <ele>1041.1999511719</ele>
        <time>2023-05-07T12:08:35Z</time>
      </trkpt>
      <trkpt lat="44.70831" lon="3.27541">
        <ele>1041.1999511719</ele>
        <time>2023-05-07T12:08:36Z</time>
      </trkpt>
      <trkpt lat="44.70826" lon="3.27546">
        <ele>1041</ele>
        <time>2023-05-07T12:08:38Z</time>
      </trkpt>
      <trkpt lat="44.70817" lon="3.27549">
        <ele>1041</ele>
        <time>2023-05-07T12:08:41Z</time>
      </trkpt>
      <trkpt lat="44.7081" lon="3.27553">
        <ele>1040.8000488281</ele>
        <time>2023-05-07T12:08:43Z</time>
      </trkpt>
      <trkpt lat="44.70788" lon="3.27574">
        <ele>1040.4000244141</ele>
        <time>2023-05-07T12:08:49Z</time>
      </trkpt>
      <trkpt lat="44.70764" lon="3.27595">
        <ele>1039.8000488281</ele>
        <time>2023-05-07T12:08:54Z</time>
      </trkpt>
      <trkpt lat="44.70738" lon="3.27619">
        <ele>1039.1999511719</ele>
        <time>2023-05-07T12:08:58Z</time>
      </trkpt>
      <trkpt lat="44.70708" lon="3.27654">
        <ele>1038.1999511719</ele>
        <time>2023-05-07T12:09:02Z</time>
      </trkpt>
      <trkpt lat="44.70666" lon="3.27701">
        <ele>1036.5999755859</ele>
        <time>2023-05-07T12:09:07Z</time>
      </trkpt>
      <trkpt lat="44.70648" lon="3.27713">
        <ele>1036.1999511719</ele>
        <time>2023-05-07T12:09:09Z</time>
      </trkpt>
      <trkpt lat="44.7064" lon="3.27716">
        <ele>1036</ele>
        <time>2023-05-07T12:09:10Z</time>
      </trkpt>
      <trkpt lat="44.70625" lon="3.27723">
        <ele>1035.8000488281</ele>
        <time>2023-05-07T12:09:12Z</time>
      </trkpt>
      <trkpt lat="44.70612" lon="3.27732">
        <ele>1035.5999755859</ele>
        <time>2023-05-07T12:09:14Z</time>
      </trkpt>
      <trkpt lat="44.7059" lon="3.2775">
        <ele>1035.1999511719</ele>
        <time>2023-05-07T12:09:18Z</time>
      </trkpt>
      <trkpt lat="44.70586" lon="3.27757">
        <ele>1035</ele>
        <time>2023-05-07T12:09:19Z</time>
      </trkpt>
      <trkpt lat="44.70583" lon="3.27766">
        <ele>1035</ele>
        <time>2023-05-07T12:09:20Z</time>
      </trkpt>
      <trkpt lat="44.70581" lon="3.27782">
        <ele>1034.8000488281</ele>
        <time>2023-05-07T12:09:22Z</time>
      </trkpt>
      <trkpt lat="44.7058" lon="3.27789">
        <ele>1034.8000488281</ele>
        <time>2023-05-07T12:09:23Z</time>
      </trkpt>
      <trkpt lat="44.70581" lon="3.27801">
        <ele>1034.8000488281</ele>
        <time>2023-05-07T12:09:25Z</time>
      </trkpt>
      <trkpt lat="44.70581" lon="3.27807">
        <ele>1034.5999755859</ele>
        <time>2023-05-07T12:09:26Z</time>
      </trkpt>
      <trkpt lat="44.70582" lon="3.27823">
        <ele>1034.4000244141</ele>
        <time>2023-05-07T12:09:30Z</time>
      </trkpt>
      <trkpt lat="44.70583" lon="3.27835">
        <ele>1034.1999511719</ele>
        <time>2023-05-07T12:09:35Z</time>
      </trkpt>
      <trkpt lat="44.70583" lon="3.27843">
        <ele>1033.8000488281</ele>
        <time>2023-05-07T12:09:41Z</time>
      </trkpt>
      <trkpt lat="44.70583" lon="3.27845">
        <ele>1033.4000244141</ele>
        <time>2023-05-07T12:09:48Z</time>
      </trkpt>
      <trkpt lat="44.70583" lon="3.27845">
        <ele>1033.1999511719</ele>
        <time>2023-05-07T12:09:55Z</time>
      </trkpt>
      <trkpt lat="44.70587" lon="3.27847">
        <ele>1033.1999511719</ele>
        <time>2023-05-07T12:10:02Z</time>
      </trkpt>
      <trkpt lat="44.70591" lon="3.27847">
        <ele>1033.4000244141</ele>
        <time>2023-05-07T12:10:09Z</time>
      </trkpt>
      <trkpt lat="44.70596" lon="3.27853">
        <ele>1033.5999755859</ele>
        <time>2023-05-07T12:10:14Z</time>
      </trkpt>
      <trkpt lat="44.70598" lon="3.27854">
        <ele>1033.5999755859</ele>
        <time>2023-05-07T12:10:16Z</time>
      </trkpt>
      <trkpt lat="44.70602" lon="3.27859">
        <ele>1034</ele>
        <time>2023-05-07T12:10:21Z</time>
      </trkpt>
      <trkpt lat="44.70605" lon="3.27862">
        <ele>1034</ele>
        <time>2023-05-07T12:10:24Z</time>
      </trkpt>
      <trkpt lat="44.7061" lon="3.27865">
        <ele>1034</ele>
        <time>2023-05-07T12:10:28Z</time>
      </trkpt>
      <trkpt lat="44.70611" lon="3.27865">
        <ele>1034</ele>
        <time>2023-05-07T12:10:29Z</time>
      </trkpt>
      <trkpt lat="44.70618" lon="3.27866">
        <ele>1034.1999511719</ele>
        <time>2023-05-07T12:10:35Z</time>
      </trkpt>
      <trkpt lat="44.70625" lon="3.27868">
        <ele>1034.5999755859</ele>
        <time>2023-05-07T12:10:42Z</time>
      </trkpt>
      <trkpt lat="44.7063" lon="3.27872">
        <ele>1034.8000488281</ele>
        <time>2023-05-07T12:10:48Z</time>
      </trkpt>
      <trkpt lat="44.70631" lon="3.27874">
        <ele>1034.8000488281</ele>
        <time>2023-05-07T12:10:50Z</time>
      </trkpt>
      <trkpt lat="44.70629" lon="3.27877">
        <ele>1034.8000488281</ele>
        <time>2023-05-07T12:10:53Z</time>
      </trkpt>
      <trkpt lat="44.70627" lon="3.27881">
        <ele>1034.5999755859</ele>
        <time>2023-05-07T12:10:57Z</time>
      </trkpt>
      <trkpt lat="44.70627" lon="3.27884">
        <ele>1034.4000244141</ele>
        <time>2023-05-07T12:10:58Z</time>
      </trkpt>
      <trkpt lat="44.70628" lon="3.27887">
        <ele>1034.4000244141</ele>
        <time>2023-05-07T12:10:59Z</time>
      </trkpt>
      <trkpt lat="44.70631" lon="3.27893">
        <ele>1034.4000244141</ele>
        <time>2023-05-07T12:11:03Z</time>
      </trkpt>
      <trkpt lat="44.70637" lon="3.27903">
        <ele>1035.1999511719</ele>
        <time>2023-05-07T12:11:10Z</time>
      </trkpt>
      <trkpt lat="44.70642" lon="3.27906">
        <ele>1036</ele>
        <time>2023-05-07T12:11:16Z</time>
      </trkpt>
      <trkpt lat="44.7065" lon="3.27915">
        <ele>1037.4000244141</ele>
        <time>2023-05-07T12:11:24Z</time>
      </trkpt>
      <trkpt lat="44.70652" lon="3.27916">
        <ele>1037.5999755859</ele>
        <time>2023-05-07T12:11:27Z</time>
      </trkpt>
      <trkpt lat="44.70655" lon="3.27916">
        <ele>1038</ele>
        <time>2023-05-07T12:11:30Z</time>
      </trkpt>
      <trkpt lat="44.70658" lon="3.27913">
        <ele>1038.4000244141</ele>
        <time>2023-05-07T12:11:33Z</time>
      </trkpt>
      <trkpt lat="44.7066" lon="3.27914">
        <ele>1038.5999755859</ele>
        <time>2023-05-07T12:11:35Z</time>
      </trkpt>
      <trkpt lat="44.70662" lon="3.27916">
        <ele>1038.8000488281</ele>
        <time>2023-05-07T12:11:37Z</time>
      </trkpt>
      <trkpt lat="44.70666" lon="3.2792">
        <ele>1039.4000244141</ele>
        <time>2023-05-07T12:11:43Z</time>
      </trkpt>
      <trkpt lat="44.70666" lon="3.27922">
        <ele>1040</ele>
        <time>2023-05-07T12:11:49Z</time>
      </trkpt>
      <trkpt lat="44.70667" lon="3.27928">
        <ele>1041.1999511719</ele>
        <time>2023-05-07T12:11:55Z</time>
      </trkpt>
      <trkpt lat="44.7067" lon="3.27932">
        <ele>1042.5999755859</ele>
        <time>2023-05-07T12:12:02Z</time>
      </trkpt>
      <trkpt lat="44.70674" lon="3.27931">
        <ele>1043.1999511719</ele>
        <time>2023-05-07T12:12:08Z</time>
      </trkpt>
      <trkpt lat="44.70678" lon="3.27927">
        <ele>1043.1999511719</ele>
        <time>2023-05-07T12:12:10Z</time>
      </trkpt>
      <trkpt lat="44.7068" lon="3.27927">
        <ele>1043.1999511719</ele>
        <time>2023-05-07T12:12:11Z</time>
      </trkpt>
      <trkpt lat="44.70689" lon="3.27929">
        <ele>1043.4000244141</ele>
        <time>2023-05-07T12:12:16Z</time>
      </trkpt>
      <trkpt lat="44.70693" lon="3.27933">
        <ele>1043.4000244141</ele>
        <time>2023-05-07T12:12:18Z</time>
      </trkpt>
      <trkpt lat="44.70695" lon="3.27936">
        <ele>1043.4000244141</ele>
        <time>2023-05-07T12:12:20Z</time>
      </trkpt>
      <trkpt lat="44.70706" lon="3.27941">
        <ele>1043.1999511719</ele>
        <time>2023-05-07T12:12:26Z</time>
      </trkpt>
      <trkpt lat="44.70714" lon="3.27947">
        <ele>1043</ele>
        <time>2023-05-07T12:12:30Z</time>
      </trkpt>
      <trkpt lat="44.70717" lon="3.2795">
        <ele>1042.5999755859</ele>
        <time>2023-05-07T12:12:32Z</time>
      </trkpt>
      <trkpt lat="44.70719" lon="3.27952">
        <ele>1042.4000244141</ele>
        <time>2023-05-07T12:12:33Z</time>
      </trkpt>
      <trkpt lat="44.70721" lon="3.27955">
        <ele>1042</ele>
        <time>2023-05-07T12:12:34Z</time>
      </trkpt>
      <trkpt lat="44.70723" lon="3.27962">
        <ele>1041.4000244141</ele>
        <time>2023-05-07T12:12:36Z</time>
      </trkpt>
      <trkpt lat="44.70724" lon="3.27964">
        <ele>1041</ele>
        <time>2023-05-07T12:12:37Z</time>
      </trkpt>
      <trkpt lat="44.70725" lon="3.27968">
        <ele>1040</ele>
        <time>2023-05-07T12:12:40Z</time>
      </trkpt>
      <trkpt lat="44.70725" lon="3.2797">
        <ele>1039.5999755859</ele>
        <time>2023-05-07T12:12:41Z</time>
      </trkpt>
      <trkpt lat="44.70725" lon="3.27976">
        <ele>1039.4000244141</ele>
        <time>2023-05-07T12:12:43Z</time>
      </trkpt>
      <trkpt lat="44.70724" lon="3.27979">
        <ele>1039.4000244141</ele>
        <time>2023-05-07T12:12:44Z</time>
      </trkpt>
      <trkpt lat="44.70721" lon="3.2798">
        <ele>1039.1999511719</ele>
        <time>2023-05-07T12:12:46Z</time>
      </trkpt>
      <trkpt lat="44.70716" lon="3.27977">
        <ele>1038.8000488281</ele>
        <time>2023-05-07T12:12:49Z</time>
      </trkpt>
      <trkpt lat="44.70715" lon="3.2798">
        <ele>1038.5999755859</ele>
        <time>2023-05-07T12:12:51Z</time>
      </trkpt>
      <trkpt lat="44.70717" lon="3.27988">
        <ele>1038.1999511719</ele>
        <time>2023-05-07T12:12:54Z</time>
      </trkpt>
      <trkpt lat="44.7072" lon="3.27992">
        <ele>1038.1999511719</ele>
        <time>2023-05-07T12:12:56Z</time>
      </trkpt>
      <trkpt lat="44.70721" lon="3.27995">
        <ele>1038.4000244141</ele>
        <time>2023-05-07T12:12:58Z</time>
      </trkpt>
      <trkpt lat="44.70722" lon="3.27995">
        <ele>1038.4000244141</ele>
        <time>2023-05-07T12:13:00Z</time>
      </trkpt>
      <trkpt lat="44.70722" lon="3.27994">
        <ele>1038.4000244141</ele>
        <time>2023-05-07T12:13:01Z</time>
      </trkpt>
      <trkpt lat="44.70727" lon="3.27994">
        <ele>1038</ele>
        <time>2023-05-07T12:13:04Z</time>
      </trkpt>
      <trkpt lat="44.70737" lon="3.27997">
        <ele>1037.5999755859</ele>
        <time>2023-05-07T12:13:08Z</time>
      </trkpt>
      <trkpt lat="44.70742" lon="3.28003">
        <ele>1037.4000244141</ele>
        <time>2023-05-07T12:13:10Z</time>
      </trkpt>
      <trkpt lat="44.70744" lon="3.28006">
        <ele>1037.4000244141</ele>
        <time>2023-05-07T12:13:11Z</time>
      </trkpt>
      <trkpt lat="44.70744" lon="3.28019">
        <ele>1036.8000488281</ele>
        <time>2023-05-07T12:13:15Z</time>
      </trkpt>
      <trkpt lat="44.70743" lon="3.28022">
        <ele>1036.5999755859</ele>
        <time>2023-05-07T12:13:16Z</time>
      </trkpt>
      <trkpt lat="44.70736" lon="3.28027">
        <ele>1035.8000488281</ele>
        <time>2023-05-07T12:13:20Z</time>
      </trkpt>
      <trkpt lat="44.70725" lon="3.28033">
        <ele>1034.8000488281</ele>
        <time>2023-05-07T12:13:24Z</time>
      </trkpt>
      <trkpt lat="44.70713" lon="3.28041">
        <ele>1033.8000488281</ele>
        <time>2023-05-07T12:13:28Z</time>
      </trkpt>
      <trkpt lat="44.70715" lon="3.28053">
        <ele>1032.5999755859</ele>
        <time>2023-05-07T12:13:31Z</time>
      </trkpt>
      <trkpt lat="44.70727" lon="3.28081">
        <ele>1032.1999511719</ele>
        <time>2023-05-07T12:13:37Z</time>
      </trkpt>
      <trkpt lat="44.70738" lon="3.28099">
        <ele>1032.1999511719</ele>
        <time>2023-05-07T12:13:41Z</time>
      </trkpt>
      <trkpt lat="44.70741" lon="3.28104">
        <ele>1032.4000244141</ele>
        <time>2023-05-07T12:13:42Z</time>
      </trkpt>
      <trkpt lat="44.70752" lon="3.28125">
        <ele>1032.5999755859</ele>
        <time>2023-05-07T12:13:47Z</time>
      </trkpt>
      <trkpt lat="44.70755" lon="3.28132">
        <ele>1032.5999755859</ele>
        <time>2023-05-07T12:13:49Z</time>
      </trkpt>
      <trkpt lat="44.70754" lon="3.28136">
        <ele>1032.5999755859</ele>
        <time>2023-05-07T12:13:50Z</time>
      </trkpt>
      <trkpt lat="44.70754" lon="3.28138">
        <ele>1032.4000244141</ele>
        <time>2023-05-07T12:13:51Z</time>
      </trkpt>
      <trkpt lat="44.70756" lon="3.28138">
        <ele>1033.1999511719</ele>
        <time>2023-05-07T12:13:53Z</time>
      </trkpt>
      <trkpt lat="44.7076" lon="3.28129">
        <ele>1033.8000488281</ele>
        <time>2023-05-07T12:13:57Z</time>
      </trkpt>
      <trkpt lat="44.70768" lon="3.2812">
        <ele>1034.1999511719</ele>
        <time>2023-05-07T12:14:01Z</time>
      </trkpt>
      <trkpt lat="44.70772" lon="3.28123">
        <ele>1034.1999511719</ele>
        <time>2023-05-07T12:14:03Z</time>
      </trkpt>
      <trkpt lat="44.70772" lon="3.28139">
        <ele>1034.4000244141</ele>
        <time>2023-05-07T12:14:07Z</time>
      </trkpt>
      <trkpt lat="44.70767" lon="3.28166">
        <ele>1034.8000488281</ele>
        <time>2023-05-07T12:14:13Z</time>
      </trkpt>
      <trkpt lat="44.70767" lon="3.2817">
        <ele>1034.8000488281</ele>
        <time>2023-05-07T12:14:14Z</time>
      </trkpt>
      <trkpt lat="44.7077" lon="3.28197">
        <ele>1035.1999511719</ele>
        <time>2023-05-07T12:14:20Z</time>
      </trkpt>
      <trkpt lat="44.70777" lon="3.28219">
        <ele>1035.5999755859</ele>
        <time>2023-05-07T12:14:26Z</time>
      </trkpt>
      <trkpt lat="44.70777" lon="3.28227">
        <ele>1035.8000488281</ele>
        <time>2023-05-07T12:14:31Z</time>
      </trkpt>
      <trkpt lat="44.70777" lon="3.28232">
        <ele>1035.5999755859</ele>
        <time>2023-05-07T12:14:34Z</time>
      </trkpt>
      <trkpt lat="44.70778" lon="3.28232">
        <ele>1035.5999755859</ele>
        <time>2023-05-07T12:14:35Z</time>
      </trkpt>
      <trkpt lat="44.70778" lon="3.28232">
        <ele>1035.4000244141</ele>
        <time>2023-05-07T12:14:36Z</time>
      </trkpt>
      <trkpt lat="44.7078" lon="3.28227">
        <ele>1035.4000244141</ele>
        <time>2023-05-07T12:14:40Z</time>
      </trkpt>
      <trkpt lat="44.70781" lon="3.28226">
        <ele>1035.4000244141</ele>
        <time>2023-05-07T12:14:46Z</time>
      </trkpt>
      <trkpt lat="44.70783" lon="3.28228">
        <ele>1036</ele>
        <time>2023-05-07T12:14:52Z</time>
      </trkpt>
      <trkpt lat="44.70783" lon="3.28228">
        <ele>1036.1999511719</ele>
        <time>2023-05-07T12:15:05Z</time>
      </trkpt>
      <trkpt lat="44.70783" lon="3.28228">
        <ele>1036.4000244141</ele>
        <time>2023-05-07T12:15:15Z</time>
      </trkpt>
      <trkpt lat="44.70783" lon="3.28228">
        <ele>1036.5999755859</ele>
        <time>2023-05-07T12:15:27Z</time>
      </trkpt>
      <trkpt lat="44.70785" lon="3.28227">
        <ele>1037.1999511719</ele>
        <time>2023-05-07T12:15:38Z</time>
      </trkpt>
      <trkpt lat="44.70785" lon="3.28228">
        <ele>1037.5999755859</ele>
        <time>2023-05-07T12:15:42Z</time>
      </trkpt>
      <trkpt lat="44.70785" lon="3.28228">
        <ele>1037.8000488281</ele>
        <time>2023-05-07T12:15:47Z</time>
      </trkpt>
      <trkpt lat="44.70777" lon="3.28238">
        <ele>1038</ele>
        <time>2023-05-07T12:15:52Z</time>
      </trkpt>
      <trkpt lat="44.70771" lon="3.28255">
        <ele>1038</ele>
        <time>2023-05-07T12:15:57Z</time>
      </trkpt>
      <trkpt lat="44.70765" lon="3.28269">
        <ele>1038.4000244141</ele>
        <time>2023-05-07T12:16:02Z</time>
      </trkpt>
      <trkpt lat="44.70763" lon="3.28271">
        <ele>1038.4000244141</ele>
        <time>2023-05-07T12:16:03Z</time>
      </trkpt>
      <trkpt lat="44.70761" lon="3.28271">
        <ele>1038.4000244141</ele>
        <time>2023-05-07T12:16:04Z</time>
      </trkpt>
      <trkpt lat="44.7075" lon="3.28269">
        <ele>1038.5999755859</ele>
        <time>2023-05-07T12:16:07Z</time>
      </trkpt>
      <trkpt lat="44.7072" lon="3.28262">
        <ele>1038.8000488281</ele>
        <time>2023-05-07T12:16:14Z</time>
      </trkpt>
      <trkpt lat="44.70706" lon="3.28262">
        <ele>1039</ele>
        <time>2023-05-07T12:16:17Z</time>
      </trkpt>
      <trkpt lat="44.70696" lon="3.28262">
        <ele>1039</ele>
        <time>2023-05-07T12:16:19Z</time>
      </trkpt>
      <trkpt lat="44.70691" lon="3.28263">
        <ele>1039</ele>
        <time>2023-05-07T12:16:20Z</time>
      </trkpt>
      <trkpt lat="44.70652" lon="3.28271">
        <ele>1039.1999511719</ele>
        <time>2023-05-07T12:16:28Z</time>
      </trkpt>
      <trkpt lat="44.70619" lon="3.2828">
        <ele>1039.1999511719</ele>
        <time>2023-05-07T12:16:36Z</time>
      </trkpt>
      <trkpt lat="44.70593" lon="3.28292">
        <ele>1039.4000244141</ele>
        <time>2023-05-07T12:16:43Z</time>
      </trkpt>
      <trkpt lat="44.70562" lon="3.2831">
        <ele>1039.1999511719</ele>
        <time>2023-05-07T12:16:51Z</time>
      </trkpt>
      <trkpt lat="44.70553" lon="3.28321">
        <ele>1039</ele>
        <time>2023-05-07T12:16:54Z</time>
      </trkpt>
      <trkpt lat="44.70537" lon="3.28331">
        <ele>1038.5999755859</ele>
        <time>2023-05-07T12:16:59Z</time>
      </trkpt>
      <trkpt lat="44.70529" lon="3.28338">
        <ele>1038.8000488281</ele>
        <time>2023-05-07T12:17:04Z</time>
      </trkpt>
      <trkpt lat="44.70527" lon="3.2834">
        <ele>1039</ele>
        <time>2023-05-07T12:17:10Z</time>
      </trkpt>
      <trkpt lat="44.70527" lon="3.2834">
        <ele>1038.8000488281</ele>
        <time>2023-05-07T12:17:22Z</time>
      </trkpt>
      <trkpt lat="44.70527" lon="3.2834">
        <ele>1038.8000488281</ele>
        <time>2023-05-07T12:17:46Z</time>
      </trkpt>
      <trkpt lat="44.70526" lon="3.28341">
        <ele>1039.1999511719</ele>
        <time>2023-05-07T12:18:10Z</time>
      </trkpt>
      <trkpt lat="44.70526" lon="3.28342">
        <ele>1039.5999755859</ele>
        <time>2023-05-07T12:18:32Z</time>
      </trkpt>
      <trkpt lat="44.70526" lon="3.28342">
        <ele>1040</ele>
        <time>2023-05-07T12:18:55Z</time>
      </trkpt>
      <trkpt lat="44.70526" lon="3.28342">
        <ele>1040.4000244141</ele>
        <time>2023-05-07T12:19:11Z</time>
      </trkpt>
      <trkpt lat="44.70526" lon="3.28341">
        <ele>1041</ele>
        <time>2023-05-07T12:19:19Z</time>
      </trkpt>
      <trkpt lat="44.7053" lon="3.2834">
        <ele>1042</ele>
        <time>2023-05-07T12:19:27Z</time>
      </trkpt>
      <trkpt lat="44.70531" lon="3.28339">
        <ele>1042</ele>
        <time>2023-05-07T12:19:29Z</time>
      </trkpt>
      <trkpt lat="44.70536" lon="3.28336">
        <ele>1042</ele>
        <time>2023-05-07T12:19:32Z</time>
      </trkpt>
      <trkpt lat="44.70552" lon="3.28326">
        <ele>1041.8000488281</ele>
        <time>2023-05-07T12:19:38Z</time>
      </trkpt>
      <trkpt lat="44.70573" lon="3.28313">
        <ele>1041.5999755859</ele>
        <time>2023-05-07T12:19:44Z</time>
      </trkpt>
      <trkpt lat="44.70592" lon="3.28302">
        <ele>1041.8000488281</ele>
        <time>2023-05-07T12:19:49Z</time>
      </trkpt>
    </trkseg>
  </trk>
</gpx>